<?xml version="1.0" encoding="UTF-8"?>
<gpx xmlns="http://www.topografix.com/GPX/1/1"
     creator="GpsDump 4.74"
     version="1.1"
     xmlns:xsi="http://www.w3.org/2001/XMLSchema-instance"
     xsi:schemaLocation="http://www.topografix.com/GPX/1/1 http://www.topografix.com/GPX/1/1/gpx.xsd">
  <metadata>
    <link href="http://www.gethome.no/stein.sorensen/">
      <text>GPS dump for www.flightlog.org</text>
    </link>
    <time>2013-06-16T18:06:42Z</time>
    <bounds minlat="40.229267" minlon="-4.906367" maxlat="40.256050" maxlon="-4.876350"/>
  </metadata>
  <trk>
    <name>Track 001</name>
    <trkseg>
      <trkpt lat="40.256483" lon="-4.905850">
        <ele>1259.0</ele>
        <time>2013-06-15T18:14:22Z</time>
      </trkpt>
      <trkpt lat="40.256450" lon="-4.905883">
        <ele>1260.0</ele>
        <time>2013-06-15T18:14:23Z</time>
      </trkpt>
      <trkpt lat="40.256417" lon="-4.905917">
        <ele>1260.0</ele>
        <time>2013-06-15T18:14:24Z</time>
      </trkpt>
      <trkpt lat="40.256383" lon="-4.905933">
        <ele>1261.0</ele>
        <time>2013-06-15T18:14:25Z</time>
      </trkpt>
      <trkpt lat="40.256367" lon="-4.905967">
        <ele>1261.0</ele>
        <time>2013-06-15T18:14:26Z</time>
      </trkpt>
      <trkpt lat="40.256333" lon="-4.906000">
        <ele>1258.0</ele>
        <time>2013-06-15T18:14:27Z</time>
      </trkpt>
      <trkpt lat="40.256300" lon="-4.906067">
        <ele>1255.0</ele>
        <time>2013-06-15T18:14:28Z</time>
      </trkpt>
      <trkpt lat="40.256233" lon="-4.906100">
        <ele>1254.0</ele>
        <time>2013-06-15T18:14:29Z</time>
      </trkpt>
      <trkpt lat="40.256167" lon="-4.906117">
        <ele>1255.0</ele>
        <time>2013-06-15T18:14:30Z</time>
      </trkpt>
      <trkpt lat="40.256117" lon="-4.906117">
        <ele>1257.0</ele>
        <time>2013-06-15T18:14:31Z</time>
      </trkpt>
      <trkpt lat="40.256067" lon="-4.906117">
        <ele>1257.0</ele>
        <time>2013-06-15T18:14:32Z</time>
      </trkpt>
      <trkpt lat="40.256017" lon="-4.906133">
        <ele>1254.0</ele>
        <time>2013-06-15T18:14:33Z</time>
      </trkpt>
      <trkpt lat="40.255950" lon="-4.906133">
        <ele>1252.0</ele>
        <time>2013-06-15T18:14:34Z</time>
      </trkpt>
      <trkpt lat="40.255867" lon="-4.906150">
        <ele>1252.0</ele>
        <time>2013-06-15T18:14:35Z</time>
      </trkpt>
      <trkpt lat="40.255783" lon="-4.906150">
        <ele>1254.0</ele>
        <time>2013-06-15T18:14:36Z</time>
      </trkpt>
      <trkpt lat="40.255717" lon="-4.906150">
        <ele>1256.0</ele>
        <time>2013-06-15T18:14:37Z</time>
      </trkpt>
      <trkpt lat="40.255667" lon="-4.906133">
        <ele>1258.0</ele>
        <time>2013-06-15T18:14:38Z</time>
      </trkpt>
      <trkpt lat="40.255617" lon="-4.906117">
        <ele>1260.0</ele>
        <time>2013-06-15T18:14:39Z</time>
      </trkpt>
      <trkpt lat="40.255567" lon="-4.906083">
        <ele>1262.0</ele>
        <time>2013-06-15T18:14:40Z</time>
      </trkpt>
      <trkpt lat="40.255500" lon="-4.906067">
        <ele>1262.0</ele>
        <time>2013-06-15T18:14:41Z</time>
      </trkpt>
      <trkpt lat="40.255433" lon="-4.906050">
        <ele>1262.0</ele>
        <time>2013-06-15T18:14:42Z</time>
      </trkpt>
      <trkpt lat="40.255367" lon="-4.906050">
        <ele>1262.0</ele>
        <time>2013-06-15T18:14:43Z</time>
      </trkpt>
      <trkpt lat="40.255283" lon="-4.906050">
        <ele>1263.0</ele>
        <time>2013-06-15T18:14:44Z</time>
      </trkpt>
      <trkpt lat="40.255233" lon="-4.906033">
        <ele>1265.0</ele>
        <time>2013-06-15T18:14:45Z</time>
      </trkpt>
      <trkpt lat="40.255183" lon="-4.905983">
        <ele>1266.0</ele>
        <time>2013-06-15T18:14:46Z</time>
      </trkpt>
      <trkpt lat="40.255133" lon="-4.905900">
        <ele>1266.0</ele>
        <time>2013-06-15T18:14:47Z</time>
      </trkpt>
      <trkpt lat="40.255067" lon="-4.905817">
        <ele>1264.0</ele>
        <time>2013-06-15T18:14:48Z</time>
      </trkpt>
      <trkpt lat="40.255000" lon="-4.905717">
        <ele>1263.0</ele>
        <time>2013-06-15T18:14:49Z</time>
      </trkpt>
      <trkpt lat="40.254933" lon="-4.905633">
        <ele>1263.0</ele>
        <time>2013-06-15T18:14:50Z</time>
      </trkpt>
      <trkpt lat="40.254867" lon="-4.905567">
        <ele>1264.0</ele>
        <time>2013-06-15T18:14:51Z</time>
      </trkpt>
      <trkpt lat="40.254800" lon="-4.905500">
        <ele>1265.0</ele>
        <time>2013-06-15T18:14:52Z</time>
      </trkpt>
      <trkpt lat="40.254750" lon="-4.905433">
        <ele>1265.0</ele>
        <time>2013-06-15T18:14:53Z</time>
      </trkpt>
      <trkpt lat="40.254683" lon="-4.905367">
        <ele>1264.0</ele>
        <time>2013-06-15T18:14:54Z</time>
      </trkpt>
      <trkpt lat="40.254617" lon="-4.905300">
        <ele>1262.0</ele>
        <time>2013-06-15T18:14:55Z</time>
      </trkpt>
      <trkpt lat="40.254533" lon="-4.905250">
        <ele>1261.0</ele>
        <time>2013-06-15T18:14:56Z</time>
      </trkpt>
      <trkpt lat="40.254450" lon="-4.905217">
        <ele>1261.0</ele>
        <time>2013-06-15T18:14:57Z</time>
      </trkpt>
      <trkpt lat="40.254383" lon="-4.905167">
        <ele>1262.0</ele>
        <time>2013-06-15T18:14:58Z</time>
      </trkpt>
      <trkpt lat="40.254317" lon="-4.905133">
        <ele>1262.0</ele>
        <time>2013-06-15T18:14:59Z</time>
      </trkpt>
      <trkpt lat="40.254250" lon="-4.905100">
        <ele>1262.0</ele>
        <time>2013-06-15T18:15:00Z</time>
      </trkpt>
      <trkpt lat="40.254183" lon="-4.905083">
        <ele>1262.0</ele>
        <time>2013-06-15T18:15:01Z</time>
      </trkpt>
      <trkpt lat="40.254117" lon="-4.905067">
        <ele>1262.0</ele>
        <time>2013-06-15T18:15:02Z</time>
      </trkpt>
      <trkpt lat="40.254033" lon="-4.905050">
        <ele>1261.0</ele>
        <time>2013-06-15T18:15:03Z</time>
      </trkpt>
      <trkpt lat="40.253967" lon="-4.905033">
        <ele>1261.0</ele>
        <time>2013-06-15T18:15:04Z</time>
      </trkpt>
      <trkpt lat="40.253900" lon="-4.905000">
        <ele>1261.0</ele>
        <time>2013-06-15T18:15:05Z</time>
      </trkpt>
      <trkpt lat="40.253833" lon="-4.904967">
        <ele>1261.0</ele>
        <time>2013-06-15T18:15:06Z</time>
      </trkpt>
      <trkpt lat="40.253767" lon="-4.904950">
        <ele>1260.0</ele>
        <time>2013-06-15T18:15:07Z</time>
      </trkpt>
      <trkpt lat="40.253700" lon="-4.904933">
        <ele>1259.0</ele>
        <time>2013-06-15T18:15:08Z</time>
      </trkpt>
      <trkpt lat="40.253617" lon="-4.904917">
        <ele>1259.0</ele>
        <time>2013-06-15T18:15:09Z</time>
      </trkpt>
      <trkpt lat="40.253550" lon="-4.904900">
        <ele>1258.0</ele>
        <time>2013-06-15T18:15:10Z</time>
      </trkpt>
      <trkpt lat="40.253467" lon="-4.904867">
        <ele>1258.0</ele>
        <time>2013-06-15T18:15:11Z</time>
      </trkpt>
      <trkpt lat="40.253400" lon="-4.904833">
        <ele>1258.0</ele>
        <time>2013-06-15T18:15:12Z</time>
      </trkpt>
      <trkpt lat="40.253333" lon="-4.904800">
        <ele>1258.0</ele>
        <time>2013-06-15T18:15:13Z</time>
      </trkpt>
      <trkpt lat="40.253267" lon="-4.904750">
        <ele>1257.0</ele>
        <time>2013-06-15T18:15:14Z</time>
      </trkpt>
      <trkpt lat="40.253183" lon="-4.904700">
        <ele>1256.0</ele>
        <time>2013-06-15T18:15:15Z</time>
      </trkpt>
      <trkpt lat="40.253100" lon="-4.904650">
        <ele>1255.0</ele>
        <time>2013-06-15T18:15:16Z</time>
      </trkpt>
      <trkpt lat="40.253017" lon="-4.904600">
        <ele>1254.0</ele>
        <time>2013-06-15T18:15:17Z</time>
      </trkpt>
      <trkpt lat="40.252933" lon="-4.904550">
        <ele>1254.0</ele>
        <time>2013-06-15T18:15:18Z</time>
      </trkpt>
      <trkpt lat="40.252850" lon="-4.904517">
        <ele>1255.0</ele>
        <time>2013-06-15T18:15:19Z</time>
      </trkpt>
      <trkpt lat="40.252767" lon="-4.904467">
        <ele>1256.0</ele>
        <time>2013-06-15T18:15:20Z</time>
      </trkpt>
      <trkpt lat="40.252700" lon="-4.904400">
        <ele>1256.0</ele>
        <time>2013-06-15T18:15:21Z</time>
      </trkpt>
      <trkpt lat="40.252633" lon="-4.904317">
        <ele>1256.0</ele>
        <time>2013-06-15T18:15:22Z</time>
      </trkpt>
      <trkpt lat="40.252567" lon="-4.904250">
        <ele>1255.0</ele>
        <time>2013-06-15T18:15:23Z</time>
      </trkpt>
      <trkpt lat="40.252483" lon="-4.904167">
        <ele>1254.0</ele>
        <time>2013-06-15T18:15:24Z</time>
      </trkpt>
      <trkpt lat="40.252383" lon="-4.904117">
        <ele>1253.0</ele>
        <time>2013-06-15T18:15:25Z</time>
      </trkpt>
      <trkpt lat="40.252317" lon="-4.904050">
        <ele>1254.0</ele>
        <time>2013-06-15T18:15:26Z</time>
      </trkpt>
      <trkpt lat="40.252233" lon="-4.903983">
        <ele>1255.0</ele>
        <time>2013-06-15T18:15:27Z</time>
      </trkpt>
      <trkpt lat="40.252167" lon="-4.903917">
        <ele>1255.0</ele>
        <time>2013-06-15T18:15:28Z</time>
      </trkpt>
      <trkpt lat="40.252100" lon="-4.903833">
        <ele>1254.0</ele>
        <time>2013-06-15T18:15:29Z</time>
      </trkpt>
      <trkpt lat="40.252017" lon="-4.903783">
        <ele>1253.0</ele>
        <time>2013-06-15T18:15:30Z</time>
      </trkpt>
      <trkpt lat="40.251933" lon="-4.903733">
        <ele>1252.0</ele>
        <time>2013-06-15T18:15:31Z</time>
      </trkpt>
      <trkpt lat="40.251850" lon="-4.903683">
        <ele>1251.0</ele>
        <time>2013-06-15T18:15:32Z</time>
      </trkpt>
      <trkpt lat="40.251767" lon="-4.903650">
        <ele>1252.0</ele>
        <time>2013-06-15T18:15:33Z</time>
      </trkpt>
      <trkpt lat="40.251683" lon="-4.903600">
        <ele>1252.0</ele>
        <time>2013-06-15T18:15:34Z</time>
      </trkpt>
      <trkpt lat="40.251600" lon="-4.903550">
        <ele>1253.0</ele>
        <time>2013-06-15T18:15:35Z</time>
      </trkpt>
      <trkpt lat="40.251533" lon="-4.903500">
        <ele>1253.0</ele>
        <time>2013-06-15T18:15:36Z</time>
      </trkpt>
      <trkpt lat="40.251450" lon="-4.903450">
        <ele>1253.0</ele>
        <time>2013-06-15T18:15:37Z</time>
      </trkpt>
      <trkpt lat="40.251383" lon="-4.903383">
        <ele>1253.0</ele>
        <time>2013-06-15T18:15:38Z</time>
      </trkpt>
      <trkpt lat="40.251317" lon="-4.903317">
        <ele>1252.0</ele>
        <time>2013-06-15T18:15:39Z</time>
      </trkpt>
      <trkpt lat="40.251233" lon="-4.903250">
        <ele>1252.0</ele>
        <time>2013-06-15T18:15:40Z</time>
      </trkpt>
      <trkpt lat="40.251150" lon="-4.903183">
        <ele>1251.0</ele>
        <time>2013-06-15T18:15:41Z</time>
      </trkpt>
      <trkpt lat="40.251067" lon="-4.903117">
        <ele>1250.0</ele>
        <time>2013-06-15T18:15:42Z</time>
      </trkpt>
      <trkpt lat="40.250983" lon="-4.903067">
        <ele>1249.0</ele>
        <time>2013-06-15T18:15:43Z</time>
      </trkpt>
      <trkpt lat="40.250900" lon="-4.903017">
        <ele>1249.0</ele>
        <time>2013-06-15T18:15:44Z</time>
      </trkpt>
      <trkpt lat="40.250817" lon="-4.902983">
        <ele>1250.0</ele>
        <time>2013-06-15T18:15:45Z</time>
      </trkpt>
      <trkpt lat="40.250733" lon="-4.902933">
        <ele>1251.0</ele>
        <time>2013-06-15T18:15:46Z</time>
      </trkpt>
      <trkpt lat="40.250667" lon="-4.902883">
        <ele>1251.0</ele>
        <time>2013-06-15T18:15:47Z</time>
      </trkpt>
      <trkpt lat="40.250583" lon="-4.902850">
        <ele>1251.0</ele>
        <time>2013-06-15T18:15:48Z</time>
      </trkpt>
      <trkpt lat="40.250500" lon="-4.902800">
        <ele>1251.0</ele>
        <time>2013-06-15T18:15:49Z</time>
      </trkpt>
      <trkpt lat="40.250400" lon="-4.902767">
        <ele>1250.0</ele>
        <time>2013-06-15T18:15:50Z</time>
      </trkpt>
      <trkpt lat="40.250317" lon="-4.902750">
        <ele>1250.0</ele>
        <time>2013-06-15T18:15:51Z</time>
      </trkpt>
      <trkpt lat="40.250233" lon="-4.902717">
        <ele>1250.0</ele>
        <time>2013-06-15T18:15:52Z</time>
      </trkpt>
      <trkpt lat="40.250150" lon="-4.902683">
        <ele>1251.0</ele>
        <time>2013-06-15T18:15:53Z</time>
      </trkpt>
      <trkpt lat="40.250083" lon="-4.902633">
        <ele>1251.0</ele>
        <time>2013-06-15T18:15:54Z</time>
      </trkpt>
      <trkpt lat="40.250000" lon="-4.902567">
        <ele>1250.0</ele>
        <time>2013-06-15T18:15:55Z</time>
      </trkpt>
      <trkpt lat="40.249933" lon="-4.902500">
        <ele>1250.0</ele>
        <time>2013-06-15T18:15:56Z</time>
      </trkpt>
      <trkpt lat="40.249850" lon="-4.902417">
        <ele>1249.0</ele>
        <time>2013-06-15T18:15:57Z</time>
      </trkpt>
      <trkpt lat="40.249750" lon="-4.902333">
        <ele>1249.0</ele>
        <time>2013-06-15T18:15:58Z</time>
      </trkpt>
      <trkpt lat="40.249683" lon="-4.902250">
        <ele>1250.0</ele>
        <time>2013-06-15T18:15:59Z</time>
      </trkpt>
      <trkpt lat="40.249600" lon="-4.902167">
        <ele>1251.0</ele>
        <time>2013-06-15T18:16:00Z</time>
      </trkpt>
      <trkpt lat="40.249517" lon="-4.902083">
        <ele>1252.0</ele>
        <time>2013-06-15T18:16:01Z</time>
      </trkpt>
      <trkpt lat="40.249450" lon="-4.902000">
        <ele>1252.0</ele>
        <time>2013-06-15T18:16:02Z</time>
      </trkpt>
      <trkpt lat="40.249383" lon="-4.901917">
        <ele>1253.0</ele>
        <time>2013-06-15T18:16:03Z</time>
      </trkpt>
      <trkpt lat="40.249300" lon="-4.901817">
        <ele>1254.0</ele>
        <time>2013-06-15T18:16:04Z</time>
      </trkpt>
      <trkpt lat="40.249233" lon="-4.901717">
        <ele>1254.0</ele>
        <time>2013-06-15T18:16:05Z</time>
      </trkpt>
      <trkpt lat="40.249167" lon="-4.901600">
        <ele>1254.0</ele>
        <time>2013-06-15T18:16:06Z</time>
      </trkpt>
      <trkpt lat="40.249083" lon="-4.901517">
        <ele>1254.0</ele>
        <time>2013-06-15T18:16:07Z</time>
      </trkpt>
      <trkpt lat="40.249000" lon="-4.901467">
        <ele>1253.0</ele>
        <time>2013-06-15T18:16:08Z</time>
      </trkpt>
      <trkpt lat="40.248933" lon="-4.901467">
        <ele>1252.0</ele>
        <time>2013-06-15T18:16:09Z</time>
      </trkpt>
      <trkpt lat="40.248883" lon="-4.901517">
        <ele>1251.0</ele>
        <time>2013-06-15T18:16:10Z</time>
      </trkpt>
      <trkpt lat="40.248867" lon="-4.901567">
        <ele>1250.0</ele>
        <time>2013-06-15T18:16:11Z</time>
      </trkpt>
      <trkpt lat="40.248883" lon="-4.901633">
        <ele>1249.0</ele>
        <time>2013-06-15T18:16:12Z</time>
      </trkpt>
      <trkpt lat="40.248933" lon="-4.901667">
        <ele>1249.0</ele>
        <time>2013-06-15T18:16:13Z</time>
      </trkpt>
      <trkpt lat="40.248983" lon="-4.901683">
        <ele>1248.0</ele>
        <time>2013-06-15T18:16:14Z</time>
      </trkpt>
      <trkpt lat="40.249067" lon="-4.901683">
        <ele>1247.0</ele>
        <time>2013-06-15T18:16:15Z</time>
      </trkpt>
      <trkpt lat="40.249133" lon="-4.901700">
        <ele>1247.0</ele>
        <time>2013-06-15T18:16:16Z</time>
      </trkpt>
      <trkpt lat="40.249200" lon="-4.901717">
        <ele>1246.0</ele>
        <time>2013-06-15T18:16:17Z</time>
      </trkpt>
      <trkpt lat="40.249267" lon="-4.901750">
        <ele>1246.0</ele>
        <time>2013-06-15T18:16:18Z</time>
      </trkpt>
      <trkpt lat="40.249317" lon="-4.901783">
        <ele>1246.0</ele>
        <time>2013-06-15T18:16:19Z</time>
      </trkpt>
      <trkpt lat="40.249383" lon="-4.901800">
        <ele>1247.0</ele>
        <time>2013-06-15T18:16:20Z</time>
      </trkpt>
      <trkpt lat="40.249450" lon="-4.901833">
        <ele>1247.0</ele>
        <time>2013-06-15T18:16:21Z</time>
      </trkpt>
      <trkpt lat="40.249500" lon="-4.901850">
        <ele>1247.0</ele>
        <time>2013-06-15T18:16:22Z</time>
      </trkpt>
      <trkpt lat="40.249567" lon="-4.901883">
        <ele>1248.0</ele>
        <time>2013-06-15T18:16:23Z</time>
      </trkpt>
      <trkpt lat="40.249633" lon="-4.901900">
        <ele>1248.0</ele>
        <time>2013-06-15T18:16:24Z</time>
      </trkpt>
      <trkpt lat="40.249717" lon="-4.901900">
        <ele>1248.0</ele>
        <time>2013-06-15T18:16:25Z</time>
      </trkpt>
      <trkpt lat="40.249800" lon="-4.901900">
        <ele>1248.0</ele>
        <time>2013-06-15T18:16:26Z</time>
      </trkpt>
      <trkpt lat="40.249883" lon="-4.901917">
        <ele>1248.0</ele>
        <time>2013-06-15T18:16:27Z</time>
      </trkpt>
      <trkpt lat="40.249967" lon="-4.901950">
        <ele>1248.0</ele>
        <time>2013-06-15T18:16:28Z</time>
      </trkpt>
      <trkpt lat="40.250033" lon="-4.901983">
        <ele>1249.0</ele>
        <time>2013-06-15T18:16:29Z</time>
      </trkpt>
      <trkpt lat="40.250117" lon="-4.902000">
        <ele>1251.0</ele>
        <time>2013-06-15T18:16:30Z</time>
      </trkpt>
      <trkpt lat="40.250200" lon="-4.901983">
        <ele>1252.0</ele>
        <time>2013-06-15T18:16:31Z</time>
      </trkpt>
      <trkpt lat="40.250283" lon="-4.901950">
        <ele>1253.0</ele>
        <time>2013-06-15T18:16:32Z</time>
      </trkpt>
      <trkpt lat="40.250350" lon="-4.901950">
        <ele>1253.0</ele>
        <time>2013-06-15T18:16:33Z</time>
      </trkpt>
      <trkpt lat="40.250433" lon="-4.901967">
        <ele>1252.0</ele>
        <time>2013-06-15T18:16:34Z</time>
      </trkpt>
      <trkpt lat="40.250517" lon="-4.902017">
        <ele>1252.0</ele>
        <time>2013-06-15T18:16:35Z</time>
      </trkpt>
      <trkpt lat="40.250567" lon="-4.902067">
        <ele>1253.0</ele>
        <time>2013-06-15T18:16:36Z</time>
      </trkpt>
      <trkpt lat="40.250617" lon="-4.902100">
        <ele>1254.0</ele>
        <time>2013-06-15T18:16:37Z</time>
      </trkpt>
      <trkpt lat="40.250683" lon="-4.902150">
        <ele>1254.0</ele>
        <time>2013-06-15T18:16:38Z</time>
      </trkpt>
      <trkpt lat="40.250750" lon="-4.902183">
        <ele>1254.0</ele>
        <time>2013-06-15T18:16:39Z</time>
      </trkpt>
      <trkpt lat="40.250817" lon="-4.902200">
        <ele>1254.0</ele>
        <time>2013-06-15T18:16:40Z</time>
      </trkpt>
      <trkpt lat="40.250883" lon="-4.902233">
        <ele>1254.0</ele>
        <time>2013-06-15T18:16:41Z</time>
      </trkpt>
      <trkpt lat="40.250967" lon="-4.902250">
        <ele>1254.0</ele>
        <time>2013-06-15T18:16:42Z</time>
      </trkpt>
      <trkpt lat="40.251033" lon="-4.902267">
        <ele>1254.0</ele>
        <time>2013-06-15T18:16:43Z</time>
      </trkpt>
      <trkpt lat="40.251117" lon="-4.902283">
        <ele>1254.0</ele>
        <time>2013-06-15T18:16:44Z</time>
      </trkpt>
      <trkpt lat="40.251217" lon="-4.902317">
        <ele>1254.0</ele>
        <time>2013-06-15T18:16:45Z</time>
      </trkpt>
      <trkpt lat="40.251300" lon="-4.902350">
        <ele>1254.0</ele>
        <time>2013-06-15T18:16:46Z</time>
      </trkpt>
      <trkpt lat="40.251383" lon="-4.902383">
        <ele>1254.0</ele>
        <time>2013-06-15T18:16:47Z</time>
      </trkpt>
      <trkpt lat="40.251450" lon="-4.902417">
        <ele>1254.0</ele>
        <time>2013-06-15T18:16:48Z</time>
      </trkpt>
      <trkpt lat="40.251533" lon="-4.902433">
        <ele>1255.0</ele>
        <time>2013-06-15T18:16:49Z</time>
      </trkpt>
      <trkpt lat="40.251617" lon="-4.902450">
        <ele>1255.0</ele>
        <time>2013-06-15T18:16:50Z</time>
      </trkpt>
      <trkpt lat="40.251700" lon="-4.902467">
        <ele>1255.0</ele>
        <time>2013-06-15T18:16:51Z</time>
      </trkpt>
      <trkpt lat="40.251783" lon="-4.902483">
        <ele>1255.0</ele>
        <time>2013-06-15T18:16:52Z</time>
      </trkpt>
      <trkpt lat="40.251867" lon="-4.902517">
        <ele>1254.0</ele>
        <time>2013-06-15T18:16:53Z</time>
      </trkpt>
      <trkpt lat="40.251950" lon="-4.902567">
        <ele>1254.0</ele>
        <time>2013-06-15T18:16:54Z</time>
      </trkpt>
      <trkpt lat="40.252033" lon="-4.902617">
        <ele>1254.0</ele>
        <time>2013-06-15T18:16:55Z</time>
      </trkpt>
      <trkpt lat="40.252100" lon="-4.902650">
        <ele>1255.0</ele>
        <time>2013-06-15T18:16:56Z</time>
      </trkpt>
      <trkpt lat="40.252167" lon="-4.902683">
        <ele>1256.0</ele>
        <time>2013-06-15T18:16:57Z</time>
      </trkpt>
      <trkpt lat="40.252233" lon="-4.902717">
        <ele>1256.0</ele>
        <time>2013-06-15T18:16:58Z</time>
      </trkpt>
      <trkpt lat="40.252300" lon="-4.902750">
        <ele>1256.0</ele>
        <time>2013-06-15T18:16:59Z</time>
      </trkpt>
      <trkpt lat="40.252367" lon="-4.902783">
        <ele>1256.0</ele>
        <time>2013-06-15T18:17:00Z</time>
      </trkpt>
      <trkpt lat="40.252433" lon="-4.902833">
        <ele>1255.0</ele>
        <time>2013-06-15T18:17:01Z</time>
      </trkpt>
      <trkpt lat="40.252500" lon="-4.902867">
        <ele>1255.0</ele>
        <time>2013-06-15T18:17:02Z</time>
      </trkpt>
      <trkpt lat="40.252567" lon="-4.902917">
        <ele>1255.0</ele>
        <time>2013-06-15T18:17:03Z</time>
      </trkpt>
      <trkpt lat="40.252633" lon="-4.902933">
        <ele>1255.0</ele>
        <time>2013-06-15T18:17:04Z</time>
      </trkpt>
      <trkpt lat="40.252700" lon="-4.902967">
        <ele>1255.0</ele>
        <time>2013-06-15T18:17:05Z</time>
      </trkpt>
      <trkpt lat="40.252767" lon="-4.903017">
        <ele>1255.0</ele>
        <time>2013-06-15T18:17:06Z</time>
      </trkpt>
      <trkpt lat="40.252817" lon="-4.903050">
        <ele>1255.0</ele>
        <time>2013-06-15T18:17:07Z</time>
      </trkpt>
      <trkpt lat="40.252867" lon="-4.903083">
        <ele>1256.0</ele>
        <time>2013-06-15T18:17:08Z</time>
      </trkpt>
      <trkpt lat="40.252900" lon="-4.903117">
        <ele>1256.0</ele>
        <time>2013-06-15T18:17:09Z</time>
      </trkpt>
      <trkpt lat="40.252950" lon="-4.903150">
        <ele>1255.0</ele>
        <time>2013-06-15T18:17:10Z</time>
      </trkpt>
      <trkpt lat="40.253000" lon="-4.903200">
        <ele>1254.0</ele>
        <time>2013-06-15T18:17:11Z</time>
      </trkpt>
      <trkpt lat="40.253050" lon="-4.903233">
        <ele>1253.0</ele>
        <time>2013-06-15T18:17:12Z</time>
      </trkpt>
      <trkpt lat="40.253100" lon="-4.903283">
        <ele>1252.0</ele>
        <time>2013-06-15T18:17:13Z</time>
      </trkpt>
      <trkpt lat="40.253150" lon="-4.903317">
        <ele>1253.0</ele>
        <time>2013-06-15T18:17:14Z</time>
      </trkpt>
      <trkpt lat="40.253183" lon="-4.903350">
        <ele>1253.0</ele>
        <time>2013-06-15T18:17:15Z</time>
      </trkpt>
      <trkpt lat="40.253233" lon="-4.903383">
        <ele>1253.0</ele>
        <time>2013-06-15T18:17:16Z</time>
      </trkpt>
      <trkpt lat="40.253283" lon="-4.903417">
        <ele>1252.0</ele>
        <time>2013-06-15T18:17:17Z</time>
      </trkpt>
      <trkpt lat="40.253333" lon="-4.903450">
        <ele>1251.0</ele>
        <time>2013-06-15T18:17:18Z</time>
      </trkpt>
      <trkpt lat="40.253367" lon="-4.903483">
        <ele>1251.0</ele>
        <time>2013-06-15T18:17:19Z</time>
      </trkpt>
      <trkpt lat="40.253417" lon="-4.903533">
        <ele>1250.0</ele>
        <time>2013-06-15T18:17:20Z</time>
      </trkpt>
      <trkpt lat="40.253450" lon="-4.903583">
        <ele>1250.0</ele>
        <time>2013-06-15T18:17:21Z</time>
      </trkpt>
      <trkpt lat="40.253483" lon="-4.903617">
        <ele>1250.0</ele>
        <time>2013-06-15T18:17:22Z</time>
      </trkpt>
      <trkpt lat="40.253533" lon="-4.903650">
        <ele>1250.0</ele>
        <time>2013-06-15T18:17:23Z</time>
      </trkpt>
      <trkpt lat="40.253583" lon="-4.903683">
        <ele>1249.0</ele>
        <time>2013-06-15T18:17:24Z</time>
      </trkpt>
      <trkpt lat="40.253633" lon="-4.903717">
        <ele>1248.0</ele>
        <time>2013-06-15T18:17:25Z</time>
      </trkpt>
      <trkpt lat="40.253700" lon="-4.903750">
        <ele>1247.0</ele>
        <time>2013-06-15T18:17:26Z</time>
      </trkpt>
      <trkpt lat="40.253750" lon="-4.903800">
        <ele>1247.0</ele>
        <time>2013-06-15T18:17:27Z</time>
      </trkpt>
      <trkpt lat="40.253783" lon="-4.903850">
        <ele>1247.0</ele>
        <time>2013-06-15T18:17:28Z</time>
      </trkpt>
      <trkpt lat="40.253833" lon="-4.903883">
        <ele>1248.0</ele>
        <time>2013-06-15T18:17:29Z</time>
      </trkpt>
      <trkpt lat="40.253867" lon="-4.903917">
        <ele>1248.0</ele>
        <time>2013-06-15T18:17:30Z</time>
      </trkpt>
      <trkpt lat="40.253917" lon="-4.903950">
        <ele>1249.0</ele>
        <time>2013-06-15T18:17:31Z</time>
      </trkpt>
      <trkpt lat="40.253950" lon="-4.903983">
        <ele>1249.0</ele>
        <time>2013-06-15T18:17:32Z</time>
      </trkpt>
      <trkpt lat="40.254000" lon="-4.904017">
        <ele>1248.0</ele>
        <time>2013-06-15T18:17:33Z</time>
      </trkpt>
      <trkpt lat="40.254050" lon="-4.904050">
        <ele>1248.0</ele>
        <time>2013-06-15T18:17:34Z</time>
      </trkpt>
      <trkpt lat="40.254100" lon="-4.904100">
        <ele>1248.0</ele>
        <time>2013-06-15T18:17:35Z</time>
      </trkpt>
      <trkpt lat="40.254150" lon="-4.904133">
        <ele>1249.0</ele>
        <time>2013-06-15T18:17:36Z</time>
      </trkpt>
      <trkpt lat="40.254217" lon="-4.904150">
        <ele>1249.0</ele>
        <time>2013-06-15T18:17:37Z</time>
      </trkpt>
      <trkpt lat="40.254283" lon="-4.904183">
        <ele>1249.0</ele>
        <time>2013-06-15T18:17:38Z</time>
      </trkpt>
      <trkpt lat="40.254350" lon="-4.904200">
        <ele>1249.0</ele>
        <time>2013-06-15T18:17:39Z</time>
      </trkpt>
      <trkpt lat="40.254400" lon="-4.904233">
        <ele>1249.0</ele>
        <time>2013-06-15T18:17:40Z</time>
      </trkpt>
      <trkpt lat="40.254467" lon="-4.904267">
        <ele>1249.0</ele>
        <time>2013-06-15T18:17:41Z</time>
      </trkpt>
      <trkpt lat="40.254517" lon="-4.904317">
        <ele>1249.0</ele>
        <time>2013-06-15T18:17:42Z</time>
      </trkpt>
      <trkpt lat="40.254550" lon="-4.904367">
        <ele>1250.0</ele>
        <time>2013-06-15T18:17:43Z</time>
      </trkpt>
      <trkpt lat="40.254600" lon="-4.904400">
        <ele>1251.0</ele>
        <time>2013-06-15T18:17:44Z</time>
      </trkpt>
      <trkpt lat="40.254650" lon="-4.904450">
        <ele>1251.0</ele>
        <time>2013-06-15T18:17:45Z</time>
      </trkpt>
      <trkpt lat="40.254700" lon="-4.904483">
        <ele>1251.0</ele>
        <time>2013-06-15T18:17:46Z</time>
      </trkpt>
      <trkpt lat="40.254750" lon="-4.904533">
        <ele>1252.0</ele>
        <time>2013-06-15T18:17:47Z</time>
      </trkpt>
      <trkpt lat="40.254800" lon="-4.904567">
        <ele>1252.0</ele>
        <time>2013-06-15T18:17:48Z</time>
      </trkpt>
      <trkpt lat="40.254833" lon="-4.904617">
        <ele>1253.0</ele>
        <time>2013-06-15T18:17:49Z</time>
      </trkpt>
      <trkpt lat="40.254883" lon="-4.904667">
        <ele>1253.0</ele>
        <time>2013-06-15T18:17:50Z</time>
      </trkpt>
      <trkpt lat="40.254933" lon="-4.904717">
        <ele>1254.0</ele>
        <time>2013-06-15T18:17:51Z</time>
      </trkpt>
      <trkpt lat="40.254967" lon="-4.904750">
        <ele>1254.0</ele>
        <time>2013-06-15T18:17:52Z</time>
      </trkpt>
      <trkpt lat="40.255017" lon="-4.904800">
        <ele>1255.0</ele>
        <time>2013-06-15T18:17:53Z</time>
      </trkpt>
      <trkpt lat="40.255050" lon="-4.904850">
        <ele>1255.0</ele>
        <time>2013-06-15T18:17:54Z</time>
      </trkpt>
      <trkpt lat="40.255100" lon="-4.904900">
        <ele>1256.0</ele>
        <time>2013-06-15T18:17:55Z</time>
      </trkpt>
      <trkpt lat="40.255150" lon="-4.904950">
        <ele>1256.0</ele>
        <time>2013-06-15T18:17:56Z</time>
      </trkpt>
      <trkpt lat="40.255183" lon="-4.904983">
        <ele>1256.0</ele>
        <time>2013-06-15T18:17:57Z</time>
      </trkpt>
      <trkpt lat="40.255233" lon="-4.905033">
        <ele>1256.0</ele>
        <time>2013-06-15T18:17:58Z</time>
      </trkpt>
      <trkpt lat="40.255283" lon="-4.905083">
        <ele>1257.0</ele>
        <time>2013-06-15T18:17:59Z</time>
      </trkpt>
      <trkpt lat="40.255333" lon="-4.905133">
        <ele>1257.0</ele>
        <time>2013-06-15T18:18:00Z</time>
      </trkpt>
      <trkpt lat="40.255383" lon="-4.905183">
        <ele>1256.0</ele>
        <time>2013-06-15T18:18:01Z</time>
      </trkpt>
      <trkpt lat="40.255417" lon="-4.905233">
        <ele>1256.0</ele>
        <time>2013-06-15T18:18:02Z</time>
      </trkpt>
      <trkpt lat="40.255433" lon="-4.905300">
        <ele>1256.0</ele>
        <time>2013-06-15T18:18:03Z</time>
      </trkpt>
      <trkpt lat="40.255467" lon="-4.905350">
        <ele>1257.0</ele>
        <time>2013-06-15T18:18:04Z</time>
      </trkpt>
      <trkpt lat="40.255500" lon="-4.905417">
        <ele>1257.0</ele>
        <time>2013-06-15T18:18:05Z</time>
      </trkpt>
      <trkpt lat="40.255550" lon="-4.905467">
        <ele>1258.0</ele>
        <time>2013-06-15T18:18:06Z</time>
      </trkpt>
      <trkpt lat="40.255600" lon="-4.905517">
        <ele>1258.0</ele>
        <time>2013-06-15T18:18:07Z</time>
      </trkpt>
      <trkpt lat="40.255650" lon="-4.905567">
        <ele>1258.0</ele>
        <time>2013-06-15T18:18:08Z</time>
      </trkpt>
      <trkpt lat="40.255700" lon="-4.905617">
        <ele>1259.0</ele>
        <time>2013-06-15T18:18:09Z</time>
      </trkpt>
      <trkpt lat="40.255750" lon="-4.905667">
        <ele>1260.0</ele>
        <time>2013-06-15T18:18:10Z</time>
      </trkpt>
      <trkpt lat="40.255817" lon="-4.905717">
        <ele>1261.0</ele>
        <time>2013-06-15T18:18:11Z</time>
      </trkpt>
      <trkpt lat="40.255867" lon="-4.905750">
        <ele>1261.0</ele>
        <time>2013-06-15T18:18:12Z</time>
      </trkpt>
      <trkpt lat="40.255917" lon="-4.905817">
        <ele>1262.0</ele>
        <time>2013-06-15T18:18:13Z</time>
      </trkpt>
      <trkpt lat="40.255967" lon="-4.905883">
        <ele>1262.0</ele>
        <time>2013-06-15T18:18:14Z</time>
      </trkpt>
      <trkpt lat="40.256000" lon="-4.905950">
        <ele>1262.0</ele>
        <time>2013-06-15T18:18:15Z</time>
      </trkpt>
      <trkpt lat="40.256033" lon="-4.906017">
        <ele>1263.0</ele>
        <time>2013-06-15T18:18:16Z</time>
      </trkpt>
      <trkpt lat="40.256050" lon="-4.906067">
        <ele>1264.0</ele>
        <time>2013-06-15T18:18:17Z</time>
      </trkpt>
      <trkpt lat="40.256050" lon="-4.906133">
        <ele>1264.0</ele>
        <time>2013-06-15T18:18:18Z</time>
      </trkpt>
      <trkpt lat="40.256033" lon="-4.906183">
        <ele>1265.0</ele>
        <time>2013-06-15T18:18:19Z</time>
      </trkpt>
      <trkpt lat="40.256017" lon="-4.906233">
        <ele>1265.0</ele>
        <time>2013-06-15T18:18:20Z</time>
      </trkpt>
      <trkpt lat="40.255983" lon="-4.906283">
        <ele>1265.0</ele>
        <time>2013-06-15T18:18:21Z</time>
      </trkpt>
      <trkpt lat="40.255933" lon="-4.906333">
        <ele>1265.0</ele>
        <time>2013-06-15T18:18:22Z</time>
      </trkpt>
      <trkpt lat="40.255867" lon="-4.906350">
        <ele>1266.0</ele>
        <time>2013-06-15T18:18:23Z</time>
      </trkpt>
      <trkpt lat="40.255800" lon="-4.906367">
        <ele>1267.0</ele>
        <time>2013-06-15T18:18:24Z</time>
      </trkpt>
      <trkpt lat="40.255750" lon="-4.906367">
        <ele>1269.0</ele>
        <time>2013-06-15T18:18:25Z</time>
      </trkpt>
      <trkpt lat="40.255700" lon="-4.906367">
        <ele>1270.0</ele>
        <time>2013-06-15T18:18:26Z</time>
      </trkpt>
      <trkpt lat="40.255633" lon="-4.906350">
        <ele>1270.0</ele>
        <time>2013-06-15T18:18:27Z</time>
      </trkpt>
      <trkpt lat="40.255567" lon="-4.906317">
        <ele>1269.0</ele>
        <time>2013-06-15T18:18:28Z</time>
      </trkpt>
      <trkpt lat="40.255500" lon="-4.906267">
        <ele>1269.0</ele>
        <time>2013-06-15T18:18:29Z</time>
      </trkpt>
      <trkpt lat="40.255433" lon="-4.906217">
        <ele>1270.0</ele>
        <time>2013-06-15T18:18:30Z</time>
      </trkpt>
      <trkpt lat="40.255367" lon="-4.906167">
        <ele>1271.0</ele>
        <time>2013-06-15T18:18:31Z</time>
      </trkpt>
      <trkpt lat="40.255317" lon="-4.906100">
        <ele>1271.0</ele>
        <time>2013-06-15T18:18:32Z</time>
      </trkpt>
      <trkpt lat="40.255267" lon="-4.906050">
        <ele>1271.0</ele>
        <time>2013-06-15T18:18:33Z</time>
      </trkpt>
      <trkpt lat="40.255200" lon="-4.905983">
        <ele>1270.0</ele>
        <time>2013-06-15T18:18:34Z</time>
      </trkpt>
      <trkpt lat="40.255133" lon="-4.905900">
        <ele>1269.0</ele>
        <time>2013-06-15T18:18:35Z</time>
      </trkpt>
      <trkpt lat="40.255067" lon="-4.905817">
        <ele>1268.0</ele>
        <time>2013-06-15T18:18:36Z</time>
      </trkpt>
      <trkpt lat="40.254983" lon="-4.905733">
        <ele>1269.0</ele>
        <time>2013-06-15T18:18:37Z</time>
      </trkpt>
      <trkpt lat="40.254933" lon="-4.905650">
        <ele>1270.0</ele>
        <time>2013-06-15T18:18:38Z</time>
      </trkpt>
      <trkpt lat="40.254883" lon="-4.905550">
        <ele>1271.0</ele>
        <time>2013-06-15T18:18:39Z</time>
      </trkpt>
      <trkpt lat="40.254833" lon="-4.905433">
        <ele>1270.0</ele>
        <time>2013-06-15T18:18:40Z</time>
      </trkpt>
      <trkpt lat="40.254783" lon="-4.905317">
        <ele>1270.0</ele>
        <time>2013-06-15T18:18:41Z</time>
      </trkpt>
      <trkpt lat="40.254733" lon="-4.905183">
        <ele>1269.0</ele>
        <time>2013-06-15T18:18:42Z</time>
      </trkpt>
      <trkpt lat="40.254683" lon="-4.905050">
        <ele>1269.0</ele>
        <time>2013-06-15T18:18:43Z</time>
      </trkpt>
      <trkpt lat="40.254617" lon="-4.904933">
        <ele>1270.0</ele>
        <time>2013-06-15T18:18:44Z</time>
      </trkpt>
      <trkpt lat="40.254567" lon="-4.904833">
        <ele>1270.0</ele>
        <time>2013-06-15T18:18:45Z</time>
      </trkpt>
      <trkpt lat="40.254500" lon="-4.904750">
        <ele>1270.0</ele>
        <time>2013-06-15T18:18:46Z</time>
      </trkpt>
      <trkpt lat="40.254450" lon="-4.904667">
        <ele>1270.0</ele>
        <time>2013-06-15T18:18:47Z</time>
      </trkpt>
      <trkpt lat="40.254367" lon="-4.904600">
        <ele>1269.0</ele>
        <time>2013-06-15T18:18:48Z</time>
      </trkpt>
      <trkpt lat="40.254300" lon="-4.904550">
        <ele>1269.0</ele>
        <time>2013-06-15T18:18:49Z</time>
      </trkpt>
      <trkpt lat="40.254233" lon="-4.904500">
        <ele>1268.0</ele>
        <time>2013-06-15T18:18:50Z</time>
      </trkpt>
      <trkpt lat="40.254150" lon="-4.904450">
        <ele>1268.0</ele>
        <time>2013-06-15T18:18:51Z</time>
      </trkpt>
      <trkpt lat="40.254067" lon="-4.904400">
        <ele>1268.0</ele>
        <time>2013-06-15T18:18:52Z</time>
      </trkpt>
      <trkpt lat="40.253983" lon="-4.904367">
        <ele>1268.0</ele>
        <time>2013-06-15T18:18:53Z</time>
      </trkpt>
      <trkpt lat="40.253900" lon="-4.904317">
        <ele>1269.0</ele>
        <time>2013-06-15T18:18:54Z</time>
      </trkpt>
      <trkpt lat="40.253833" lon="-4.904267">
        <ele>1270.0</ele>
        <time>2013-06-15T18:18:55Z</time>
      </trkpt>
      <trkpt lat="40.253767" lon="-4.904233">
        <ele>1271.0</ele>
        <time>2013-06-15T18:18:56Z</time>
      </trkpt>
      <trkpt lat="40.253700" lon="-4.904183">
        <ele>1271.0</ele>
        <time>2013-06-15T18:18:57Z</time>
      </trkpt>
      <trkpt lat="40.253633" lon="-4.904133">
        <ele>1270.0</ele>
        <time>2013-06-15T18:18:58Z</time>
      </trkpt>
      <trkpt lat="40.253567" lon="-4.904067">
        <ele>1270.0</ele>
        <time>2013-06-15T18:18:59Z</time>
      </trkpt>
      <trkpt lat="40.253483" lon="-4.904000">
        <ele>1269.0</ele>
        <time>2013-06-15T18:19:00Z</time>
      </trkpt>
      <trkpt lat="40.253417" lon="-4.903933">
        <ele>1270.0</ele>
        <time>2013-06-15T18:19:01Z</time>
      </trkpt>
      <trkpt lat="40.253350" lon="-4.903867">
        <ele>1270.0</ele>
        <time>2013-06-15T18:19:02Z</time>
      </trkpt>
      <trkpt lat="40.253283" lon="-4.903800">
        <ele>1270.0</ele>
        <time>2013-06-15T18:19:03Z</time>
      </trkpt>
      <trkpt lat="40.253200" lon="-4.903733">
        <ele>1270.0</ele>
        <time>2013-06-15T18:19:04Z</time>
      </trkpt>
      <trkpt lat="40.253133" lon="-4.903683">
        <ele>1269.0</ele>
        <time>2013-06-15T18:19:05Z</time>
      </trkpt>
      <trkpt lat="40.253050" lon="-4.903617">
        <ele>1269.0</ele>
        <time>2013-06-15T18:19:06Z</time>
      </trkpt>
      <trkpt lat="40.252983" lon="-4.903567">
        <ele>1268.0</ele>
        <time>2013-06-15T18:19:07Z</time>
      </trkpt>
      <trkpt lat="40.252900" lon="-4.903517">
        <ele>1267.0</ele>
        <time>2013-06-15T18:19:08Z</time>
      </trkpt>
      <trkpt lat="40.252833" lon="-4.903483">
        <ele>1266.0</ele>
        <time>2013-06-15T18:19:09Z</time>
      </trkpt>
      <trkpt lat="40.252750" lon="-4.903450">
        <ele>1265.0</ele>
        <time>2013-06-15T18:19:10Z</time>
      </trkpt>
      <trkpt lat="40.252683" lon="-4.903467">
        <ele>1265.0</ele>
        <time>2013-06-15T18:19:11Z</time>
      </trkpt>
      <trkpt lat="40.252633" lon="-4.903517">
        <ele>1265.0</ele>
        <time>2013-06-15T18:19:12Z</time>
      </trkpt>
      <trkpt lat="40.252600" lon="-4.903583">
        <ele>1264.0</ele>
        <time>2013-06-15T18:19:13Z</time>
      </trkpt>
      <trkpt lat="40.252600" lon="-4.903633">
        <ele>1265.0</ele>
        <time>2013-06-15T18:19:14Z</time>
      </trkpt>
      <trkpt lat="40.252617" lon="-4.903683">
        <ele>1266.0</ele>
        <time>2013-06-15T18:19:15Z</time>
      </trkpt>
      <trkpt lat="40.252650" lon="-4.903717">
        <ele>1266.0</ele>
        <time>2013-06-15T18:19:16Z</time>
      </trkpt>
      <trkpt lat="40.252717" lon="-4.903767">
        <ele>1266.0</ele>
        <time>2013-06-15T18:19:17Z</time>
      </trkpt>
      <trkpt lat="40.252783" lon="-4.903783">
        <ele>1265.0</ele>
        <time>2013-06-15T18:19:18Z</time>
      </trkpt>
      <trkpt lat="40.252850" lon="-4.903817">
        <ele>1264.0</ele>
        <time>2013-06-15T18:19:19Z</time>
      </trkpt>
      <trkpt lat="40.252933" lon="-4.903833">
        <ele>1263.0</ele>
        <time>2013-06-15T18:19:20Z</time>
      </trkpt>
      <trkpt lat="40.253000" lon="-4.903867">
        <ele>1263.0</ele>
        <time>2013-06-15T18:19:21Z</time>
      </trkpt>
      <trkpt lat="40.253067" lon="-4.903900">
        <ele>1262.0</ele>
        <time>2013-06-15T18:19:22Z</time>
      </trkpt>
      <trkpt lat="40.253133" lon="-4.903933">
        <ele>1262.0</ele>
        <time>2013-06-15T18:19:23Z</time>
      </trkpt>
      <trkpt lat="40.253217" lon="-4.903950">
        <ele>1262.0</ele>
        <time>2013-06-15T18:19:24Z</time>
      </trkpt>
      <trkpt lat="40.253300" lon="-4.903950">
        <ele>1263.0</ele>
        <time>2013-06-15T18:19:25Z</time>
      </trkpt>
      <trkpt lat="40.253383" lon="-4.903967">
        <ele>1264.0</ele>
        <time>2013-06-15T18:19:26Z</time>
      </trkpt>
      <trkpt lat="40.253450" lon="-4.903967">
        <ele>1265.0</ele>
        <time>2013-06-15T18:19:27Z</time>
      </trkpt>
      <trkpt lat="40.253517" lon="-4.903967">
        <ele>1265.0</ele>
        <time>2013-06-15T18:19:28Z</time>
      </trkpt>
      <trkpt lat="40.253583" lon="-4.903983">
        <ele>1265.0</ele>
        <time>2013-06-15T18:19:29Z</time>
      </trkpt>
      <trkpt lat="40.253633" lon="-4.904017">
        <ele>1264.0</ele>
        <time>2013-06-15T18:19:30Z</time>
      </trkpt>
      <trkpt lat="40.253700" lon="-4.904033">
        <ele>1264.0</ele>
        <time>2013-06-15T18:19:31Z</time>
      </trkpt>
      <trkpt lat="40.253750" lon="-4.904067">
        <ele>1264.0</ele>
        <time>2013-06-15T18:19:32Z</time>
      </trkpt>
      <trkpt lat="40.253817" lon="-4.904083">
        <ele>1263.0</ele>
        <time>2013-06-15T18:19:33Z</time>
      </trkpt>
      <trkpt lat="40.253867" lon="-4.904117">
        <ele>1263.0</ele>
        <time>2013-06-15T18:19:34Z</time>
      </trkpt>
      <trkpt lat="40.253917" lon="-4.904133">
        <ele>1262.0</ele>
        <time>2013-06-15T18:19:35Z</time>
      </trkpt>
      <trkpt lat="40.253983" lon="-4.904150">
        <ele>1262.0</ele>
        <time>2013-06-15T18:19:36Z</time>
      </trkpt>
      <trkpt lat="40.254050" lon="-4.904167">
        <ele>1261.0</ele>
        <time>2013-06-15T18:19:37Z</time>
      </trkpt>
      <trkpt lat="40.254100" lon="-4.904183">
        <ele>1261.0</ele>
        <time>2013-06-15T18:19:38Z</time>
      </trkpt>
      <trkpt lat="40.254167" lon="-4.904217">
        <ele>1260.0</ele>
        <time>2013-06-15T18:19:39Z</time>
      </trkpt>
      <trkpt lat="40.254233" lon="-4.904250">
        <ele>1260.0</ele>
        <time>2013-06-15T18:19:40Z</time>
      </trkpt>
      <trkpt lat="40.254283" lon="-4.904283">
        <ele>1259.0</ele>
        <time>2013-06-15T18:19:41Z</time>
      </trkpt>
      <trkpt lat="40.254350" lon="-4.904317">
        <ele>1259.0</ele>
        <time>2013-06-15T18:19:42Z</time>
      </trkpt>
      <trkpt lat="40.254400" lon="-4.904350">
        <ele>1259.0</ele>
        <time>2013-06-15T18:19:43Z</time>
      </trkpt>
      <trkpt lat="40.254467" lon="-4.904383">
        <ele>1258.0</ele>
        <time>2013-06-15T18:19:44Z</time>
      </trkpt>
      <trkpt lat="40.254517" lon="-4.904417">
        <ele>1258.0</ele>
        <time>2013-06-15T18:19:45Z</time>
      </trkpt>
      <trkpt lat="40.254583" lon="-4.904450">
        <ele>1258.0</ele>
        <time>2013-06-15T18:19:46Z</time>
      </trkpt>
      <trkpt lat="40.254650" lon="-4.904483">
        <ele>1257.0</ele>
        <time>2013-06-15T18:19:47Z</time>
      </trkpt>
      <trkpt lat="40.254717" lon="-4.904500">
        <ele>1257.0</ele>
        <time>2013-06-15T18:19:48Z</time>
      </trkpt>
      <trkpt lat="40.254783" lon="-4.904533">
        <ele>1257.0</ele>
        <time>2013-06-15T18:19:49Z</time>
      </trkpt>
      <trkpt lat="40.254833" lon="-4.904567">
        <ele>1256.0</ele>
        <time>2013-06-15T18:19:50Z</time>
      </trkpt>
      <trkpt lat="40.254883" lon="-4.904617">
        <ele>1255.0</ele>
        <time>2013-06-15T18:19:51Z</time>
      </trkpt>
      <trkpt lat="40.254933" lon="-4.904667">
        <ele>1255.0</ele>
        <time>2013-06-15T18:19:52Z</time>
      </trkpt>
      <trkpt lat="40.255000" lon="-4.904717">
        <ele>1255.0</ele>
        <time>2013-06-15T18:19:53Z</time>
      </trkpt>
      <trkpt lat="40.255033" lon="-4.904767">
        <ele>1255.0</ele>
        <time>2013-06-15T18:19:54Z</time>
      </trkpt>
      <trkpt lat="40.255083" lon="-4.904833">
        <ele>1255.0</ele>
        <time>2013-06-15T18:19:55Z</time>
      </trkpt>
      <trkpt lat="40.255150" lon="-4.904883">
        <ele>1255.0</ele>
        <time>2013-06-15T18:19:56Z</time>
      </trkpt>
      <trkpt lat="40.255200" lon="-4.904933">
        <ele>1256.0</ele>
        <time>2013-06-15T18:19:57Z</time>
      </trkpt>
      <trkpt lat="40.255233" lon="-4.905000">
        <ele>1256.0</ele>
        <time>2013-06-15T18:19:58Z</time>
      </trkpt>
      <trkpt lat="40.255267" lon="-4.905067">
        <ele>1255.0</ele>
        <time>2013-06-15T18:19:59Z</time>
      </trkpt>
      <trkpt lat="40.255283" lon="-4.905150">
        <ele>1255.0</ele>
        <time>2013-06-15T18:20:00Z</time>
      </trkpt>
      <trkpt lat="40.255333" lon="-4.905233">
        <ele>1255.0</ele>
        <time>2013-06-15T18:20:01Z</time>
      </trkpt>
      <trkpt lat="40.255383" lon="-4.905317">
        <ele>1256.0</ele>
        <time>2013-06-15T18:20:02Z</time>
      </trkpt>
      <trkpt lat="40.255433" lon="-4.905383">
        <ele>1257.0</ele>
        <time>2013-06-15T18:20:03Z</time>
      </trkpt>
      <trkpt lat="40.255483" lon="-4.905433">
        <ele>1259.0</ele>
        <time>2013-06-15T18:20:04Z</time>
      </trkpt>
      <trkpt lat="40.255533" lon="-4.905483">
        <ele>1260.0</ele>
        <time>2013-06-15T18:20:05Z</time>
      </trkpt>
      <trkpt lat="40.255583" lon="-4.905517">
        <ele>1260.0</ele>
        <time>2013-06-15T18:20:06Z</time>
      </trkpt>
      <trkpt lat="40.255633" lon="-4.905550">
        <ele>1260.0</ele>
        <time>2013-06-15T18:20:07Z</time>
      </trkpt>
      <trkpt lat="40.255700" lon="-4.905583">
        <ele>1260.0</ele>
        <time>2013-06-15T18:20:08Z</time>
      </trkpt>
      <trkpt lat="40.255750" lon="-4.905650">
        <ele>1259.0</ele>
        <time>2013-06-15T18:20:09Z</time>
      </trkpt>
      <trkpt lat="40.255767" lon="-4.905700">
        <ele>1259.0</ele>
        <time>2013-06-15T18:20:10Z</time>
      </trkpt>
      <trkpt lat="40.255800" lon="-4.905750">
        <ele>1260.0</ele>
        <time>2013-06-15T18:20:11Z</time>
      </trkpt>
      <trkpt lat="40.255833" lon="-4.905783">
        <ele>1260.0</ele>
        <time>2013-06-15T18:20:12Z</time>
      </trkpt>
      <trkpt lat="40.255867" lon="-4.905833">
        <ele>1260.0</ele>
        <time>2013-06-15T18:20:13Z</time>
      </trkpt>
      <trkpt lat="40.255917" lon="-4.905883">
        <ele>1259.0</ele>
        <time>2013-06-15T18:20:14Z</time>
      </trkpt>
      <trkpt lat="40.255950" lon="-4.905933">
        <ele>1259.0</ele>
        <time>2013-06-15T18:20:15Z</time>
      </trkpt>
      <trkpt lat="40.255967" lon="-4.906000">
        <ele>1259.0</ele>
        <time>2013-06-15T18:20:16Z</time>
      </trkpt>
      <trkpt lat="40.255967" lon="-4.906050">
        <ele>1259.0</ele>
        <time>2013-06-15T18:20:17Z</time>
      </trkpt>
      <trkpt lat="40.255967" lon="-4.906100">
        <ele>1259.0</ele>
        <time>2013-06-15T18:20:18Z</time>
      </trkpt>
      <trkpt lat="40.255933" lon="-4.906150">
        <ele>1258.0</ele>
        <time>2013-06-15T18:20:19Z</time>
      </trkpt>
      <trkpt lat="40.255883" lon="-4.906200">
        <ele>1257.0</ele>
        <time>2013-06-15T18:20:20Z</time>
      </trkpt>
      <trkpt lat="40.255817" lon="-4.906217">
        <ele>1257.0</ele>
        <time>2013-06-15T18:20:21Z</time>
      </trkpt>
      <trkpt lat="40.255750" lon="-4.906233">
        <ele>1257.0</ele>
        <time>2013-06-15T18:20:22Z</time>
      </trkpt>
      <trkpt lat="40.255667" lon="-4.906233">
        <ele>1257.0</ele>
        <time>2013-06-15T18:20:23Z</time>
      </trkpt>
      <trkpt lat="40.255600" lon="-4.906183">
        <ele>1257.0</ele>
        <time>2013-06-15T18:20:24Z</time>
      </trkpt>
      <trkpt lat="40.255517" lon="-4.906133">
        <ele>1256.0</ele>
        <time>2013-06-15T18:20:25Z</time>
      </trkpt>
      <trkpt lat="40.255450" lon="-4.906050">
        <ele>1254.0</ele>
        <time>2013-06-15T18:20:26Z</time>
      </trkpt>
      <trkpt lat="40.255367" lon="-4.905967">
        <ele>1253.0</ele>
        <time>2013-06-15T18:20:27Z</time>
      </trkpt>
      <trkpt lat="40.255300" lon="-4.905850">
        <ele>1252.0</ele>
        <time>2013-06-15T18:20:28Z</time>
      </trkpt>
      <trkpt lat="40.255250" lon="-4.905717">
        <ele>1251.0</ele>
        <time>2013-06-15T18:20:29Z</time>
      </trkpt>
      <trkpt lat="40.255183" lon="-4.905600">
        <ele>1251.0</ele>
        <time>2013-06-15T18:20:30Z</time>
      </trkpt>
      <trkpt lat="40.255133" lon="-4.905483">
        <ele>1252.0</ele>
        <time>2013-06-15T18:20:31Z</time>
      </trkpt>
      <trkpt lat="40.255067" lon="-4.905383">
        <ele>1251.0</ele>
        <time>2013-06-15T18:20:32Z</time>
      </trkpt>
      <trkpt lat="40.254983" lon="-4.905300">
        <ele>1251.0</ele>
        <time>2013-06-15T18:20:33Z</time>
      </trkpt>
      <trkpt lat="40.254900" lon="-4.905217">
        <ele>1250.0</ele>
        <time>2013-06-15T18:20:34Z</time>
      </trkpt>
      <trkpt lat="40.254817" lon="-4.905100">
        <ele>1251.0</ele>
        <time>2013-06-15T18:20:35Z</time>
      </trkpt>
      <trkpt lat="40.254750" lon="-4.905000">
        <ele>1253.0</ele>
        <time>2013-06-15T18:20:36Z</time>
      </trkpt>
      <trkpt lat="40.254683" lon="-4.904900">
        <ele>1256.0</ele>
        <time>2013-06-15T18:20:37Z</time>
      </trkpt>
      <trkpt lat="40.254633" lon="-4.904833">
        <ele>1258.0</ele>
        <time>2013-06-15T18:20:38Z</time>
      </trkpt>
      <trkpt lat="40.254583" lon="-4.904783">
        <ele>1258.0</ele>
        <time>2013-06-15T18:20:39Z</time>
      </trkpt>
      <trkpt lat="40.254517" lon="-4.904750">
        <ele>1257.0</ele>
        <time>2013-06-15T18:20:40Z</time>
      </trkpt>
      <trkpt lat="40.254433" lon="-4.904717">
        <ele>1256.0</ele>
        <time>2013-06-15T18:20:41Z</time>
      </trkpt>
      <trkpt lat="40.254350" lon="-4.904683">
        <ele>1254.0</ele>
        <time>2013-06-15T18:20:42Z</time>
      </trkpt>
      <trkpt lat="40.254250" lon="-4.904650">
        <ele>1254.0</ele>
        <time>2013-06-15T18:20:43Z</time>
      </trkpt>
      <trkpt lat="40.254183" lon="-4.904650">
        <ele>1254.0</ele>
        <time>2013-06-15T18:20:44Z</time>
      </trkpt>
      <trkpt lat="40.254100" lon="-4.904617">
        <ele>1254.0</ele>
        <time>2013-06-15T18:20:45Z</time>
      </trkpt>
      <trkpt lat="40.254033" lon="-4.904600">
        <ele>1253.0</ele>
        <time>2013-06-15T18:20:46Z</time>
      </trkpt>
      <trkpt lat="40.253950" lon="-4.904550">
        <ele>1251.0</ele>
        <time>2013-06-15T18:20:47Z</time>
      </trkpt>
      <trkpt lat="40.253850" lon="-4.904483">
        <ele>1249.0</ele>
        <time>2013-06-15T18:20:48Z</time>
      </trkpt>
      <trkpt lat="40.253750" lon="-4.904450">
        <ele>1248.0</ele>
        <time>2013-06-15T18:20:49Z</time>
      </trkpt>
      <trkpt lat="40.253667" lon="-4.904417">
        <ele>1249.0</ele>
        <time>2013-06-15T18:20:50Z</time>
      </trkpt>
      <trkpt lat="40.253600" lon="-4.904383">
        <ele>1250.0</ele>
        <time>2013-06-15T18:20:51Z</time>
      </trkpt>
      <trkpt lat="40.253533" lon="-4.904350">
        <ele>1250.0</ele>
        <time>2013-06-15T18:20:52Z</time>
      </trkpt>
      <trkpt lat="40.253450" lon="-4.904283">
        <ele>1248.0</ele>
        <time>2013-06-15T18:20:53Z</time>
      </trkpt>
      <trkpt lat="40.253367" lon="-4.904200">
        <ele>1246.0</ele>
        <time>2013-06-15T18:20:54Z</time>
      </trkpt>
      <trkpt lat="40.253283" lon="-4.904083">
        <ele>1245.0</ele>
        <time>2013-06-15T18:20:55Z</time>
      </trkpt>
      <trkpt lat="40.253217" lon="-4.903983">
        <ele>1246.0</ele>
        <time>2013-06-15T18:20:56Z</time>
      </trkpt>
      <trkpt lat="40.253150" lon="-4.903883">
        <ele>1247.0</ele>
        <time>2013-06-15T18:20:57Z</time>
      </trkpt>
      <trkpt lat="40.253083" lon="-4.903800">
        <ele>1247.0</ele>
        <time>2013-06-15T18:20:58Z</time>
      </trkpt>
      <trkpt lat="40.253017" lon="-4.903717">
        <ele>1247.0</ele>
        <time>2013-06-15T18:20:59Z</time>
      </trkpt>
      <trkpt lat="40.252950" lon="-4.903633">
        <ele>1245.0</ele>
        <time>2013-06-15T18:21:00Z</time>
      </trkpt>
      <trkpt lat="40.252867" lon="-4.903550">
        <ele>1245.0</ele>
        <time>2013-06-15T18:21:01Z</time>
      </trkpt>
      <trkpt lat="40.252783" lon="-4.903500">
        <ele>1244.0</ele>
        <time>2013-06-15T18:21:02Z</time>
      </trkpt>
      <trkpt lat="40.252700" lon="-4.903450">
        <ele>1244.0</ele>
        <time>2013-06-15T18:21:03Z</time>
      </trkpt>
      <trkpt lat="40.252617" lon="-4.903417">
        <ele>1244.0</ele>
        <time>2013-06-15T18:21:04Z</time>
      </trkpt>
      <trkpt lat="40.252550" lon="-4.903367">
        <ele>1243.0</ele>
        <time>2013-06-15T18:21:05Z</time>
      </trkpt>
      <trkpt lat="40.252467" lon="-4.903317">
        <ele>1243.0</ele>
        <time>2013-06-15T18:21:06Z</time>
      </trkpt>
      <trkpt lat="40.252383" lon="-4.903283">
        <ele>1242.0</ele>
        <time>2013-06-15T18:21:07Z</time>
      </trkpt>
      <trkpt lat="40.252300" lon="-4.903250">
        <ele>1242.0</ele>
        <time>2013-06-15T18:21:08Z</time>
      </trkpt>
      <trkpt lat="40.252217" lon="-4.903217">
        <ele>1241.0</ele>
        <time>2013-06-15T18:21:09Z</time>
      </trkpt>
      <trkpt lat="40.252133" lon="-4.903200">
        <ele>1242.0</ele>
        <time>2013-06-15T18:21:10Z</time>
      </trkpt>
      <trkpt lat="40.252067" lon="-4.903167">
        <ele>1242.0</ele>
        <time>2013-06-15T18:21:11Z</time>
      </trkpt>
      <trkpt lat="40.251983" lon="-4.903133">
        <ele>1242.0</ele>
        <time>2013-06-15T18:21:12Z</time>
      </trkpt>
      <trkpt lat="40.251900" lon="-4.903100">
        <ele>1241.0</ele>
        <time>2013-06-15T18:21:13Z</time>
      </trkpt>
      <trkpt lat="40.251833" lon="-4.903083">
        <ele>1241.0</ele>
        <time>2013-06-15T18:21:14Z</time>
      </trkpt>
      <trkpt lat="40.251750" lon="-4.903100">
        <ele>1241.0</ele>
        <time>2013-06-15T18:21:15Z</time>
      </trkpt>
      <trkpt lat="40.251683" lon="-4.903100">
        <ele>1241.0</ele>
        <time>2013-06-15T18:21:16Z</time>
      </trkpt>
      <trkpt lat="40.251600" lon="-4.903117">
        <ele>1242.0</ele>
        <time>2013-06-15T18:21:17Z</time>
      </trkpt>
      <trkpt lat="40.251533" lon="-4.903133">
        <ele>1243.0</ele>
        <time>2013-06-15T18:21:18Z</time>
      </trkpt>
      <trkpt lat="40.251467" lon="-4.903150">
        <ele>1243.0</ele>
        <time>2013-06-15T18:21:19Z</time>
      </trkpt>
      <trkpt lat="40.251400" lon="-4.903150">
        <ele>1243.0</ele>
        <time>2013-06-15T18:21:20Z</time>
      </trkpt>
      <trkpt lat="40.251333" lon="-4.903167">
        <ele>1242.0</ele>
        <time>2013-06-15T18:21:21Z</time>
      </trkpt>
      <trkpt lat="40.251267" lon="-4.903183">
        <ele>1243.0</ele>
        <time>2013-06-15T18:21:22Z</time>
      </trkpt>
      <trkpt lat="40.251183" lon="-4.903200">
        <ele>1243.0</ele>
        <time>2013-06-15T18:21:23Z</time>
      </trkpt>
      <trkpt lat="40.251117" lon="-4.903200">
        <ele>1244.0</ele>
        <time>2013-06-15T18:21:24Z</time>
      </trkpt>
      <trkpt lat="40.251033" lon="-4.903200">
        <ele>1244.0</ele>
        <time>2013-06-15T18:21:25Z</time>
      </trkpt>
      <trkpt lat="40.250967" lon="-4.903200">
        <ele>1244.0</ele>
        <time>2013-06-15T18:21:26Z</time>
      </trkpt>
      <trkpt lat="40.250900" lon="-4.903200">
        <ele>1244.0</ele>
        <time>2013-06-15T18:21:27Z</time>
      </trkpt>
      <trkpt lat="40.250817" lon="-4.903183">
        <ele>1244.0</ele>
        <time>2013-06-15T18:21:28Z</time>
      </trkpt>
      <trkpt lat="40.250733" lon="-4.903167">
        <ele>1244.0</ele>
        <time>2013-06-15T18:21:29Z</time>
      </trkpt>
      <trkpt lat="40.250650" lon="-4.903133">
        <ele>1244.0</ele>
        <time>2013-06-15T18:21:30Z</time>
      </trkpt>
      <trkpt lat="40.250567" lon="-4.903100">
        <ele>1245.0</ele>
        <time>2013-06-15T18:21:31Z</time>
      </trkpt>
      <trkpt lat="40.250483" lon="-4.903033">
        <ele>1246.0</ele>
        <time>2013-06-15T18:21:32Z</time>
      </trkpt>
      <trkpt lat="40.250400" lon="-4.902967">
        <ele>1247.0</ele>
        <time>2013-06-15T18:21:33Z</time>
      </trkpt>
      <trkpt lat="40.250317" lon="-4.902900">
        <ele>1247.0</ele>
        <time>2013-06-15T18:21:34Z</time>
      </trkpt>
      <trkpt lat="40.250233" lon="-4.902817">
        <ele>1248.0</ele>
        <time>2013-06-15T18:21:35Z</time>
      </trkpt>
      <trkpt lat="40.250167" lon="-4.902733">
        <ele>1247.0</ele>
        <time>2013-06-15T18:21:36Z</time>
      </trkpt>
      <trkpt lat="40.250083" lon="-4.902633">
        <ele>1246.0</ele>
        <time>2013-06-15T18:21:37Z</time>
      </trkpt>
      <trkpt lat="40.250000" lon="-4.902533">
        <ele>1245.0</ele>
        <time>2013-06-15T18:21:38Z</time>
      </trkpt>
      <trkpt lat="40.249917" lon="-4.902433">
        <ele>1244.0</ele>
        <time>2013-06-15T18:21:39Z</time>
      </trkpt>
      <trkpt lat="40.249817" lon="-4.902333">
        <ele>1244.0</ele>
        <time>2013-06-15T18:21:40Z</time>
      </trkpt>
      <trkpt lat="40.249717" lon="-4.902233">
        <ele>1243.0</ele>
        <time>2013-06-15T18:21:41Z</time>
      </trkpt>
      <trkpt lat="40.249617" lon="-4.902150">
        <ele>1243.0</ele>
        <time>2013-06-15T18:21:42Z</time>
      </trkpt>
      <trkpt lat="40.249517" lon="-4.902083">
        <ele>1243.0</ele>
        <time>2013-06-15T18:21:43Z</time>
      </trkpt>
      <trkpt lat="40.249400" lon="-4.902000">
        <ele>1244.0</ele>
        <time>2013-06-15T18:21:44Z</time>
      </trkpt>
      <trkpt lat="40.249300" lon="-4.901933">
        <ele>1244.0</ele>
        <time>2013-06-15T18:21:45Z</time>
      </trkpt>
      <trkpt lat="40.249183" lon="-4.901883">
        <ele>1245.0</ele>
        <time>2013-06-15T18:21:46Z</time>
      </trkpt>
      <trkpt lat="40.249083" lon="-4.901833">
        <ele>1247.0</ele>
        <time>2013-06-15T18:21:47Z</time>
      </trkpt>
      <trkpt lat="40.248983" lon="-4.901800">
        <ele>1248.0</ele>
        <time>2013-06-15T18:21:48Z</time>
      </trkpt>
      <trkpt lat="40.248917" lon="-4.901767">
        <ele>1249.0</ele>
        <time>2013-06-15T18:21:49Z</time>
      </trkpt>
      <trkpt lat="40.248833" lon="-4.901767">
        <ele>1249.0</ele>
        <time>2013-06-15T18:21:50Z</time>
      </trkpt>
      <trkpt lat="40.248783" lon="-4.901800">
        <ele>1248.0</ele>
        <time>2013-06-15T18:21:51Z</time>
      </trkpt>
      <trkpt lat="40.248750" lon="-4.901867">
        <ele>1247.0</ele>
        <time>2013-06-15T18:21:52Z</time>
      </trkpt>
      <trkpt lat="40.248750" lon="-4.901933">
        <ele>1246.0</ele>
        <time>2013-06-15T18:21:53Z</time>
      </trkpt>
      <trkpt lat="40.248783" lon="-4.901983">
        <ele>1245.0</ele>
        <time>2013-06-15T18:21:54Z</time>
      </trkpt>
      <trkpt lat="40.248867" lon="-4.902017">
        <ele>1245.0</ele>
        <time>2013-06-15T18:21:55Z</time>
      </trkpt>
      <trkpt lat="40.248933" lon="-4.902017">
        <ele>1247.0</ele>
        <time>2013-06-15T18:21:56Z</time>
      </trkpt>
      <trkpt lat="40.249017" lon="-4.902000">
        <ele>1248.0</ele>
        <time>2013-06-15T18:21:57Z</time>
      </trkpt>
      <trkpt lat="40.249083" lon="-4.901967">
        <ele>1249.0</ele>
        <time>2013-06-15T18:21:58Z</time>
      </trkpt>
      <trkpt lat="40.249150" lon="-4.901950">
        <ele>1249.0</ele>
        <time>2013-06-15T18:21:59Z</time>
      </trkpt>
      <trkpt lat="40.249217" lon="-4.901933">
        <ele>1249.0</ele>
        <time>2013-06-15T18:22:00Z</time>
      </trkpt>
      <trkpt lat="40.249283" lon="-4.901933">
        <ele>1249.0</ele>
        <time>2013-06-15T18:22:01Z</time>
      </trkpt>
      <trkpt lat="40.249367" lon="-4.901933">
        <ele>1250.0</ele>
        <time>2013-06-15T18:22:02Z</time>
      </trkpt>
      <trkpt lat="40.249417" lon="-4.901967">
        <ele>1252.0</ele>
        <time>2013-06-15T18:22:03Z</time>
      </trkpt>
      <trkpt lat="40.249483" lon="-4.901983">
        <ele>1253.0</ele>
        <time>2013-06-15T18:22:04Z</time>
      </trkpt>
      <trkpt lat="40.249533" lon="-4.901983">
        <ele>1255.0</ele>
        <time>2013-06-15T18:22:05Z</time>
      </trkpt>
      <trkpt lat="40.249583" lon="-4.901983">
        <ele>1255.0</ele>
        <time>2013-06-15T18:22:06Z</time>
      </trkpt>
      <trkpt lat="40.249633" lon="-4.901967">
        <ele>1254.0</ele>
        <time>2013-06-15T18:22:07Z</time>
      </trkpt>
      <trkpt lat="40.249683" lon="-4.901967">
        <ele>1253.0</ele>
        <time>2013-06-15T18:22:08Z</time>
      </trkpt>
      <trkpt lat="40.249733" lon="-4.902000">
        <ele>1251.0</ele>
        <time>2013-06-15T18:22:09Z</time>
      </trkpt>
      <trkpt lat="40.249800" lon="-4.902033">
        <ele>1251.0</ele>
        <time>2013-06-15T18:22:10Z</time>
      </trkpt>
      <trkpt lat="40.249850" lon="-4.902067">
        <ele>1252.0</ele>
        <time>2013-06-15T18:22:11Z</time>
      </trkpt>
      <trkpt lat="40.249900" lon="-4.902067">
        <ele>1252.0</ele>
        <time>2013-06-15T18:22:12Z</time>
      </trkpt>
      <trkpt lat="40.249950" lon="-4.902067">
        <ele>1252.0</ele>
        <time>2013-06-15T18:22:13Z</time>
      </trkpt>
      <trkpt lat="40.250000" lon="-4.902067">
        <ele>1251.0</ele>
        <time>2013-06-15T18:22:14Z</time>
      </trkpt>
      <trkpt lat="40.250067" lon="-4.902083">
        <ele>1249.0</ele>
        <time>2013-06-15T18:22:15Z</time>
      </trkpt>
      <trkpt lat="40.250133" lon="-4.902117">
        <ele>1247.0</ele>
        <time>2013-06-15T18:22:16Z</time>
      </trkpt>
      <trkpt lat="40.250217" lon="-4.902133">
        <ele>1247.0</ele>
        <time>2013-06-15T18:22:17Z</time>
      </trkpt>
      <trkpt lat="40.250300" lon="-4.902150">
        <ele>1248.0</ele>
        <time>2013-06-15T18:22:18Z</time>
      </trkpt>
      <trkpt lat="40.250367" lon="-4.902167">
        <ele>1250.0</ele>
        <time>2013-06-15T18:22:19Z</time>
      </trkpt>
      <trkpt lat="40.250433" lon="-4.902167">
        <ele>1251.0</ele>
        <time>2013-06-15T18:22:20Z</time>
      </trkpt>
      <trkpt lat="40.250500" lon="-4.902183">
        <ele>1251.0</ele>
        <time>2013-06-15T18:22:21Z</time>
      </trkpt>
      <trkpt lat="40.250550" lon="-4.902233">
        <ele>1250.0</ele>
        <time>2013-06-15T18:22:22Z</time>
      </trkpt>
      <trkpt lat="40.250617" lon="-4.902283">
        <ele>1250.0</ele>
        <time>2013-06-15T18:22:23Z</time>
      </trkpt>
      <trkpt lat="40.250667" lon="-4.902333">
        <ele>1250.0</ele>
        <time>2013-06-15T18:22:24Z</time>
      </trkpt>
      <trkpt lat="40.250733" lon="-4.902367">
        <ele>1251.0</ele>
        <time>2013-06-15T18:22:25Z</time>
      </trkpt>
      <trkpt lat="40.250800" lon="-4.902400">
        <ele>1252.0</ele>
        <time>2013-06-15T18:22:26Z</time>
      </trkpt>
      <trkpt lat="40.250867" lon="-4.902433">
        <ele>1253.0</ele>
        <time>2013-06-15T18:22:27Z</time>
      </trkpt>
      <trkpt lat="40.250933" lon="-4.902467">
        <ele>1253.0</ele>
        <time>2013-06-15T18:22:28Z</time>
      </trkpt>
      <trkpt lat="40.251000" lon="-4.902500">
        <ele>1253.0</ele>
        <time>2013-06-15T18:22:29Z</time>
      </trkpt>
      <trkpt lat="40.251083" lon="-4.902517">
        <ele>1254.0</ele>
        <time>2013-06-15T18:22:30Z</time>
      </trkpt>
      <trkpt lat="40.251167" lon="-4.902517">
        <ele>1254.0</ele>
        <time>2013-06-15T18:22:31Z</time>
      </trkpt>
      <trkpt lat="40.251250" lon="-4.902517">
        <ele>1255.0</ele>
        <time>2013-06-15T18:22:32Z</time>
      </trkpt>
      <trkpt lat="40.251333" lon="-4.902517">
        <ele>1255.0</ele>
        <time>2013-06-15T18:22:33Z</time>
      </trkpt>
      <trkpt lat="40.251417" lon="-4.902533">
        <ele>1256.0</ele>
        <time>2013-06-15T18:22:34Z</time>
      </trkpt>
      <trkpt lat="40.251500" lon="-4.902533">
        <ele>1255.0</ele>
        <time>2013-06-15T18:22:35Z</time>
      </trkpt>
      <trkpt lat="40.251600" lon="-4.902550">
        <ele>1255.0</ele>
        <time>2013-06-15T18:22:36Z</time>
      </trkpt>
      <trkpt lat="40.251683" lon="-4.902583">
        <ele>1256.0</ele>
        <time>2013-06-15T18:22:37Z</time>
      </trkpt>
      <trkpt lat="40.251750" lon="-4.902617">
        <ele>1256.0</ele>
        <time>2013-06-15T18:22:38Z</time>
      </trkpt>
      <trkpt lat="40.251833" lon="-4.902633">
        <ele>1257.0</ele>
        <time>2013-06-15T18:22:39Z</time>
      </trkpt>
      <trkpt lat="40.251917" lon="-4.902650">
        <ele>1257.0</ele>
        <time>2013-06-15T18:22:40Z</time>
      </trkpt>
      <trkpt lat="40.252000" lon="-4.902667">
        <ele>1257.0</ele>
        <time>2013-06-15T18:22:41Z</time>
      </trkpt>
      <trkpt lat="40.252083" lon="-4.902683">
        <ele>1257.0</ele>
        <time>2013-06-15T18:22:42Z</time>
      </trkpt>
      <trkpt lat="40.252167" lon="-4.902700">
        <ele>1257.0</ele>
        <time>2013-06-15T18:22:43Z</time>
      </trkpt>
      <trkpt lat="40.252250" lon="-4.902733">
        <ele>1258.0</ele>
        <time>2013-06-15T18:22:44Z</time>
      </trkpt>
      <trkpt lat="40.252317" lon="-4.902767">
        <ele>1259.0</ele>
        <time>2013-06-15T18:22:45Z</time>
      </trkpt>
      <trkpt lat="40.252383" lon="-4.902783">
        <ele>1260.0</ele>
        <time>2013-06-15T18:22:46Z</time>
      </trkpt>
      <trkpt lat="40.252450" lon="-4.902800">
        <ele>1259.0</ele>
        <time>2013-06-15T18:22:47Z</time>
      </trkpt>
      <trkpt lat="40.252517" lon="-4.902833">
        <ele>1259.0</ele>
        <time>2013-06-15T18:22:48Z</time>
      </trkpt>
      <trkpt lat="40.252583" lon="-4.902883">
        <ele>1257.0</ele>
        <time>2013-06-15T18:22:49Z</time>
      </trkpt>
      <trkpt lat="40.252650" lon="-4.902933">
        <ele>1257.0</ele>
        <time>2013-06-15T18:22:50Z</time>
      </trkpt>
      <trkpt lat="40.252700" lon="-4.902967">
        <ele>1256.0</ele>
        <time>2013-06-15T18:22:51Z</time>
      </trkpt>
      <trkpt lat="40.252767" lon="-4.903017">
        <ele>1256.0</ele>
        <time>2013-06-15T18:22:52Z</time>
      </trkpt>
      <trkpt lat="40.252817" lon="-4.903050">
        <ele>1256.0</ele>
        <time>2013-06-15T18:22:53Z</time>
      </trkpt>
      <trkpt lat="40.252867" lon="-4.903100">
        <ele>1256.0</ele>
        <time>2013-06-15T18:22:54Z</time>
      </trkpt>
      <trkpt lat="40.252917" lon="-4.903150">
        <ele>1255.0</ele>
        <time>2013-06-15T18:22:55Z</time>
      </trkpt>
      <trkpt lat="40.252950" lon="-4.903200">
        <ele>1254.0</ele>
        <time>2013-06-15T18:22:56Z</time>
      </trkpt>
      <trkpt lat="40.253000" lon="-4.903250">
        <ele>1254.0</ele>
        <time>2013-06-15T18:22:57Z</time>
      </trkpt>
      <trkpt lat="40.253050" lon="-4.903317">
        <ele>1254.0</ele>
        <time>2013-06-15T18:22:58Z</time>
      </trkpt>
      <trkpt lat="40.253100" lon="-4.903367">
        <ele>1254.0</ele>
        <time>2013-06-15T18:22:59Z</time>
      </trkpt>
      <trkpt lat="40.253150" lon="-4.903400">
        <ele>1255.0</ele>
        <time>2013-06-15T18:23:00Z</time>
      </trkpt>
      <trkpt lat="40.253217" lon="-4.903417">
        <ele>1255.0</ele>
        <time>2013-06-15T18:23:01Z</time>
      </trkpt>
      <trkpt lat="40.253267" lon="-4.903450">
        <ele>1255.0</ele>
        <time>2013-06-15T18:23:02Z</time>
      </trkpt>
      <trkpt lat="40.253317" lon="-4.903467">
        <ele>1254.0</ele>
        <time>2013-06-15T18:23:03Z</time>
      </trkpt>
      <trkpt lat="40.253383" lon="-4.903500">
        <ele>1252.0</ele>
        <time>2013-06-15T18:23:04Z</time>
      </trkpt>
      <trkpt lat="40.253450" lon="-4.903550">
        <ele>1250.0</ele>
        <time>2013-06-15T18:23:05Z</time>
      </trkpt>
      <trkpt lat="40.253517" lon="-4.903583">
        <ele>1249.0</ele>
        <time>2013-06-15T18:23:06Z</time>
      </trkpt>
      <trkpt lat="40.253583" lon="-4.903617">
        <ele>1250.0</ele>
        <time>2013-06-15T18:23:07Z</time>
      </trkpt>
      <trkpt lat="40.253633" lon="-4.903650">
        <ele>1250.0</ele>
        <time>2013-06-15T18:23:08Z</time>
      </trkpt>
      <trkpt lat="40.253683" lon="-4.903667">
        <ele>1250.0</ele>
        <time>2013-06-15T18:23:09Z</time>
      </trkpt>
      <trkpt lat="40.253750" lon="-4.903700">
        <ele>1249.0</ele>
        <time>2013-06-15T18:23:10Z</time>
      </trkpt>
      <trkpt lat="40.253783" lon="-4.903750">
        <ele>1248.0</ele>
        <time>2013-06-15T18:23:11Z</time>
      </trkpt>
      <trkpt lat="40.253833" lon="-4.903817">
        <ele>1247.0</ele>
        <time>2013-06-15T18:23:12Z</time>
      </trkpt>
      <trkpt lat="40.253883" lon="-4.903867">
        <ele>1247.0</ele>
        <time>2013-06-15T18:23:13Z</time>
      </trkpt>
      <trkpt lat="40.253950" lon="-4.903917">
        <ele>1248.0</ele>
        <time>2013-06-15T18:23:14Z</time>
      </trkpt>
      <trkpt lat="40.254000" lon="-4.903950">
        <ele>1249.0</ele>
        <time>2013-06-15T18:23:15Z</time>
      </trkpt>
      <trkpt lat="40.254067" lon="-4.903983">
        <ele>1249.0</ele>
        <time>2013-06-15T18:23:16Z</time>
      </trkpt>
      <trkpt lat="40.254133" lon="-4.904017">
        <ele>1249.0</ele>
        <time>2013-06-15T18:23:17Z</time>
      </trkpt>
      <trkpt lat="40.254200" lon="-4.904033">
        <ele>1250.0</ele>
        <time>2013-06-15T18:23:18Z</time>
      </trkpt>
      <trkpt lat="40.254267" lon="-4.904067">
        <ele>1250.0</ele>
        <time>2013-06-15T18:23:19Z</time>
      </trkpt>
      <trkpt lat="40.254333" lon="-4.904100">
        <ele>1251.0</ele>
        <time>2013-06-15T18:23:20Z</time>
      </trkpt>
      <trkpt lat="40.254383" lon="-4.904133">
        <ele>1251.0</ele>
        <time>2013-06-15T18:23:21Z</time>
      </trkpt>
      <trkpt lat="40.254433" lon="-4.904167">
        <ele>1252.0</ele>
        <time>2013-06-15T18:23:22Z</time>
      </trkpt>
      <trkpt lat="40.254483" lon="-4.904217">
        <ele>1252.0</ele>
        <time>2013-06-15T18:23:23Z</time>
      </trkpt>
      <trkpt lat="40.254533" lon="-4.904250">
        <ele>1252.0</ele>
        <time>2013-06-15T18:23:24Z</time>
      </trkpt>
      <trkpt lat="40.254567" lon="-4.904283">
        <ele>1252.0</ele>
        <time>2013-06-15T18:23:25Z</time>
      </trkpt>
      <trkpt lat="40.254617" lon="-4.904300">
        <ele>1252.0</ele>
        <time>2013-06-15T18:23:26Z</time>
      </trkpt>
      <trkpt lat="40.254667" lon="-4.904333">
        <ele>1251.0</ele>
        <time>2013-06-15T18:23:27Z</time>
      </trkpt>
      <trkpt lat="40.254717" lon="-4.904383">
        <ele>1250.0</ele>
        <time>2013-06-15T18:23:28Z</time>
      </trkpt>
      <trkpt lat="40.254733" lon="-4.904433">
        <ele>1250.0</ele>
        <time>2013-06-15T18:23:29Z</time>
      </trkpt>
      <trkpt lat="40.254767" lon="-4.904500">
        <ele>1250.0</ele>
        <time>2013-06-15T18:23:30Z</time>
      </trkpt>
      <trkpt lat="40.254783" lon="-4.904550">
        <ele>1250.0</ele>
        <time>2013-06-15T18:23:31Z</time>
      </trkpt>
      <trkpt lat="40.254817" lon="-4.904617">
        <ele>1251.0</ele>
        <time>2013-06-15T18:23:32Z</time>
      </trkpt>
      <trkpt lat="40.254850" lon="-4.904650">
        <ele>1253.0</ele>
        <time>2013-06-15T18:23:33Z</time>
      </trkpt>
      <trkpt lat="40.254867" lon="-4.904667">
        <ele>1253.0</ele>
        <time>2013-06-15T18:23:34Z</time>
      </trkpt>
      <trkpt lat="40.254867" lon="-4.904700">
        <ele>1253.0</ele>
        <time>2013-06-15T18:23:35Z</time>
      </trkpt>
      <trkpt lat="40.254850" lon="-4.904733">
        <ele>1251.0</ele>
        <time>2013-06-15T18:23:36Z</time>
      </trkpt>
      <trkpt lat="40.254800" lon="-4.904783">
        <ele>1249.0</ele>
        <time>2013-06-15T18:23:37Z</time>
      </trkpt>
      <trkpt lat="40.254750" lon="-4.904817">
        <ele>1248.0</ele>
        <time>2013-06-15T18:23:38Z</time>
      </trkpt>
      <trkpt lat="40.254683" lon="-4.904800">
        <ele>1248.0</ele>
        <time>2013-06-15T18:23:39Z</time>
      </trkpt>
      <trkpt lat="40.254617" lon="-4.904767">
        <ele>1248.0</ele>
        <time>2013-06-15T18:23:40Z</time>
      </trkpt>
      <trkpt lat="40.254550" lon="-4.904700">
        <ele>1248.0</ele>
        <time>2013-06-15T18:23:41Z</time>
      </trkpt>
      <trkpt lat="40.254467" lon="-4.904617">
        <ele>1248.0</ele>
        <time>2013-06-15T18:23:42Z</time>
      </trkpt>
      <trkpt lat="40.254400" lon="-4.904550">
        <ele>1247.0</ele>
        <time>2013-06-15T18:23:43Z</time>
      </trkpt>
      <trkpt lat="40.254317" lon="-4.904483">
        <ele>1247.0</ele>
        <time>2013-06-15T18:23:44Z</time>
      </trkpt>
      <trkpt lat="40.254233" lon="-4.904417">
        <ele>1247.0</ele>
        <time>2013-06-15T18:23:45Z</time>
      </trkpt>
      <trkpt lat="40.254150" lon="-4.904350">
        <ele>1247.0</ele>
        <time>2013-06-15T18:23:46Z</time>
      </trkpt>
      <trkpt lat="40.254067" lon="-4.904283">
        <ele>1248.0</ele>
        <time>2013-06-15T18:23:47Z</time>
      </trkpt>
      <trkpt lat="40.253983" lon="-4.904217">
        <ele>1249.0</ele>
        <time>2013-06-15T18:23:48Z</time>
      </trkpt>
      <trkpt lat="40.253917" lon="-4.904183">
        <ele>1250.0</ele>
        <time>2013-06-15T18:23:49Z</time>
      </trkpt>
      <trkpt lat="40.253833" lon="-4.904150">
        <ele>1250.0</ele>
        <time>2013-06-15T18:23:50Z</time>
      </trkpt>
      <trkpt lat="40.253750" lon="-4.904117">
        <ele>1250.0</ele>
        <time>2013-06-15T18:23:51Z</time>
      </trkpt>
      <trkpt lat="40.253667" lon="-4.904083">
        <ele>1250.0</ele>
        <time>2013-06-15T18:23:52Z</time>
      </trkpt>
      <trkpt lat="40.253583" lon="-4.904033">
        <ele>1251.0</ele>
        <time>2013-06-15T18:23:53Z</time>
      </trkpt>
      <trkpt lat="40.253517" lon="-4.903983">
        <ele>1252.0</ele>
        <time>2013-06-15T18:23:54Z</time>
      </trkpt>
      <trkpt lat="40.253450" lon="-4.903917">
        <ele>1252.0</ele>
        <time>2013-06-15T18:23:55Z</time>
      </trkpt>
      <trkpt lat="40.253383" lon="-4.903867">
        <ele>1252.0</ele>
        <time>2013-06-15T18:23:56Z</time>
      </trkpt>
      <trkpt lat="40.253300" lon="-4.903817">
        <ele>1251.0</ele>
        <time>2013-06-15T18:23:57Z</time>
      </trkpt>
      <trkpt lat="40.253217" lon="-4.903767">
        <ele>1250.0</ele>
        <time>2013-06-15T18:23:58Z</time>
      </trkpt>
      <trkpt lat="40.253150" lon="-4.903717">
        <ele>1250.0</ele>
        <time>2013-06-15T18:23:59Z</time>
      </trkpt>
      <trkpt lat="40.253067" lon="-4.903683">
        <ele>1250.0</ele>
        <time>2013-06-15T18:24:00Z</time>
      </trkpt>
      <trkpt lat="40.252983" lon="-4.903650">
        <ele>1249.0</ele>
        <time>2013-06-15T18:24:01Z</time>
      </trkpt>
      <trkpt lat="40.252900" lon="-4.903617">
        <ele>1249.0</ele>
        <time>2013-06-15T18:24:02Z</time>
      </trkpt>
      <trkpt lat="40.252817" lon="-4.903583">
        <ele>1249.0</ele>
        <time>2013-06-15T18:24:03Z</time>
      </trkpt>
      <trkpt lat="40.252750" lon="-4.903550">
        <ele>1248.0</ele>
        <time>2013-06-15T18:24:04Z</time>
      </trkpt>
      <trkpt lat="40.252667" lon="-4.903533">
        <ele>1248.0</ele>
        <time>2013-06-15T18:24:05Z</time>
      </trkpt>
      <trkpt lat="40.252600" lon="-4.903517">
        <ele>1248.0</ele>
        <time>2013-06-15T18:24:06Z</time>
      </trkpt>
      <trkpt lat="40.252517" lon="-4.903500">
        <ele>1248.0</ele>
        <time>2013-06-15T18:24:07Z</time>
      </trkpt>
      <trkpt lat="40.252450" lon="-4.903483">
        <ele>1248.0</ele>
        <time>2013-06-15T18:24:08Z</time>
      </trkpt>
      <trkpt lat="40.252383" lon="-4.903483">
        <ele>1248.0</ele>
        <time>2013-06-15T18:24:09Z</time>
      </trkpt>
      <trkpt lat="40.252300" lon="-4.903467">
        <ele>1249.0</ele>
        <time>2013-06-15T18:24:10Z</time>
      </trkpt>
      <trkpt lat="40.252233" lon="-4.903450">
        <ele>1250.0</ele>
        <time>2013-06-15T18:24:11Z</time>
      </trkpt>
      <trkpt lat="40.252183" lon="-4.903417">
        <ele>1250.0</ele>
        <time>2013-06-15T18:24:12Z</time>
      </trkpt>
      <trkpt lat="40.252117" lon="-4.903400">
        <ele>1251.0</ele>
        <time>2013-06-15T18:24:13Z</time>
      </trkpt>
      <trkpt lat="40.252050" lon="-4.903367">
        <ele>1250.0</ele>
        <time>2013-06-15T18:24:14Z</time>
      </trkpt>
      <trkpt lat="40.251983" lon="-4.903317">
        <ele>1249.0</ele>
        <time>2013-06-15T18:24:15Z</time>
      </trkpt>
      <trkpt lat="40.251900" lon="-4.903250">
        <ele>1248.0</ele>
        <time>2013-06-15T18:24:16Z</time>
      </trkpt>
      <trkpt lat="40.251833" lon="-4.903183">
        <ele>1248.0</ele>
        <time>2013-06-15T18:24:17Z</time>
      </trkpt>
      <trkpt lat="40.251750" lon="-4.903100">
        <ele>1250.0</ele>
        <time>2013-06-15T18:24:18Z</time>
      </trkpt>
      <trkpt lat="40.251683" lon="-4.903033">
        <ele>1251.0</ele>
        <time>2013-06-15T18:24:19Z</time>
      </trkpt>
      <trkpt lat="40.251617" lon="-4.902967">
        <ele>1252.0</ele>
        <time>2013-06-15T18:24:20Z</time>
      </trkpt>
      <trkpt lat="40.251550" lon="-4.902900">
        <ele>1252.0</ele>
        <time>2013-06-15T18:24:21Z</time>
      </trkpt>
      <trkpt lat="40.251467" lon="-4.902817">
        <ele>1251.0</ele>
        <time>2013-06-15T18:24:22Z</time>
      </trkpt>
      <trkpt lat="40.251383" lon="-4.902733">
        <ele>1252.0</ele>
        <time>2013-06-15T18:24:23Z</time>
      </trkpt>
      <trkpt lat="40.251300" lon="-4.902683">
        <ele>1253.0</ele>
        <time>2013-06-15T18:24:24Z</time>
      </trkpt>
      <trkpt lat="40.251233" lon="-4.902633">
        <ele>1255.0</ele>
        <time>2013-06-15T18:24:25Z</time>
      </trkpt>
      <trkpt lat="40.251167" lon="-4.902583">
        <ele>1255.0</ele>
        <time>2013-06-15T18:24:26Z</time>
      </trkpt>
      <trkpt lat="40.251100" lon="-4.902517">
        <ele>1255.0</ele>
        <time>2013-06-15T18:24:27Z</time>
      </trkpt>
      <trkpt lat="40.251017" lon="-4.902467">
        <ele>1254.0</ele>
        <time>2013-06-15T18:24:28Z</time>
      </trkpt>
      <trkpt lat="40.250917" lon="-4.902417">
        <ele>1253.0</ele>
        <time>2013-06-15T18:24:29Z</time>
      </trkpt>
      <trkpt lat="40.250833" lon="-4.902383">
        <ele>1254.0</ele>
        <time>2013-06-15T18:24:30Z</time>
      </trkpt>
      <trkpt lat="40.250750" lon="-4.902367">
        <ele>1254.0</ele>
        <time>2013-06-15T18:24:31Z</time>
      </trkpt>
      <trkpt lat="40.250667" lon="-4.902333">
        <ele>1255.0</ele>
        <time>2013-06-15T18:24:32Z</time>
      </trkpt>
      <trkpt lat="40.250600" lon="-4.902283">
        <ele>1256.0</ele>
        <time>2013-06-15T18:24:33Z</time>
      </trkpt>
      <trkpt lat="40.250533" lon="-4.902233">
        <ele>1255.0</ele>
        <time>2013-06-15T18:24:34Z</time>
      </trkpt>
      <trkpt lat="40.250450" lon="-4.902183">
        <ele>1254.0</ele>
        <time>2013-06-15T18:24:35Z</time>
      </trkpt>
      <trkpt lat="40.250350" lon="-4.902167">
        <ele>1253.0</ele>
        <time>2013-06-15T18:24:36Z</time>
      </trkpt>
      <trkpt lat="40.250267" lon="-4.902133">
        <ele>1253.0</ele>
        <time>2013-06-15T18:24:37Z</time>
      </trkpt>
      <trkpt lat="40.250183" lon="-4.902117">
        <ele>1254.0</ele>
        <time>2013-06-15T18:24:38Z</time>
      </trkpt>
      <trkpt lat="40.250100" lon="-4.902100">
        <ele>1256.0</ele>
        <time>2013-06-15T18:24:39Z</time>
      </trkpt>
      <trkpt lat="40.250050" lon="-4.902100">
        <ele>1256.0</ele>
        <time>2013-06-15T18:24:40Z</time>
      </trkpt>
      <trkpt lat="40.250000" lon="-4.902150">
        <ele>1256.0</ele>
        <time>2013-06-15T18:24:41Z</time>
      </trkpt>
      <trkpt lat="40.250000" lon="-4.902233">
        <ele>1255.0</ele>
        <time>2013-06-15T18:24:42Z</time>
      </trkpt>
      <trkpt lat="40.250033" lon="-4.902300">
        <ele>1255.0</ele>
        <time>2013-06-15T18:24:43Z</time>
      </trkpt>
      <trkpt lat="40.250100" lon="-4.902333">
        <ele>1257.0</ele>
        <time>2013-06-15T18:24:44Z</time>
      </trkpt>
      <trkpt lat="40.250167" lon="-4.902333">
        <ele>1259.0</ele>
        <time>2013-06-15T18:24:45Z</time>
      </trkpt>
      <trkpt lat="40.250217" lon="-4.902333">
        <ele>1260.0</ele>
        <time>2013-06-15T18:24:46Z</time>
      </trkpt>
      <trkpt lat="40.250283" lon="-4.902333">
        <ele>1260.0</ele>
        <time>2013-06-15T18:24:47Z</time>
      </trkpt>
      <trkpt lat="40.250333" lon="-4.902350">
        <ele>1258.0</ele>
        <time>2013-06-15T18:24:48Z</time>
      </trkpt>
      <trkpt lat="40.250417" lon="-4.902367">
        <ele>1257.0</ele>
        <time>2013-06-15T18:24:49Z</time>
      </trkpt>
      <trkpt lat="40.250483" lon="-4.902383">
        <ele>1256.0</ele>
        <time>2013-06-15T18:24:50Z</time>
      </trkpt>
      <trkpt lat="40.250567" lon="-4.902383">
        <ele>1257.0</ele>
        <time>2013-06-15T18:24:51Z</time>
      </trkpt>
      <trkpt lat="40.250617" lon="-4.902400">
        <ele>1257.0</ele>
        <time>2013-06-15T18:24:52Z</time>
      </trkpt>
      <trkpt lat="40.250667" lon="-4.902433">
        <ele>1258.0</ele>
        <time>2013-06-15T18:24:53Z</time>
      </trkpt>
      <trkpt lat="40.250700" lon="-4.902483">
        <ele>1257.0</ele>
        <time>2013-06-15T18:24:54Z</time>
      </trkpt>
      <trkpt lat="40.250767" lon="-4.902533">
        <ele>1256.0</ele>
        <time>2013-06-15T18:24:55Z</time>
      </trkpt>
      <trkpt lat="40.250817" lon="-4.902583">
        <ele>1256.0</ele>
        <time>2013-06-15T18:24:56Z</time>
      </trkpt>
      <trkpt lat="40.250867" lon="-4.902633">
        <ele>1257.0</ele>
        <time>2013-06-15T18:24:57Z</time>
      </trkpt>
      <trkpt lat="40.250917" lon="-4.902667">
        <ele>1258.0</ele>
        <time>2013-06-15T18:24:58Z</time>
      </trkpt>
      <trkpt lat="40.250967" lon="-4.902717">
        <ele>1258.0</ele>
        <time>2013-06-15T18:24:59Z</time>
      </trkpt>
      <trkpt lat="40.251033" lon="-4.902733">
        <ele>1259.0</ele>
        <time>2013-06-15T18:25:00Z</time>
      </trkpt>
      <trkpt lat="40.251100" lon="-4.902767">
        <ele>1259.0</ele>
        <time>2013-06-15T18:25:01Z</time>
      </trkpt>
      <trkpt lat="40.251167" lon="-4.902783">
        <ele>1260.0</ele>
        <time>2013-06-15T18:25:02Z</time>
      </trkpt>
      <trkpt lat="40.251250" lon="-4.902800">
        <ele>1261.0</ele>
        <time>2013-06-15T18:25:03Z</time>
      </trkpt>
      <trkpt lat="40.251317" lon="-4.902817">
        <ele>1261.0</ele>
        <time>2013-06-15T18:25:04Z</time>
      </trkpt>
      <trkpt lat="40.251383" lon="-4.902833">
        <ele>1262.0</ele>
        <time>2013-06-15T18:25:05Z</time>
      </trkpt>
      <trkpt lat="40.251450" lon="-4.902867">
        <ele>1262.0</ele>
        <time>2013-06-15T18:25:06Z</time>
      </trkpt>
      <trkpt lat="40.251517" lon="-4.902883">
        <ele>1263.0</ele>
        <time>2013-06-15T18:25:07Z</time>
      </trkpt>
      <trkpt lat="40.251600" lon="-4.902900">
        <ele>1263.0</ele>
        <time>2013-06-15T18:25:08Z</time>
      </trkpt>
      <trkpt lat="40.251667" lon="-4.902917">
        <ele>1264.0</ele>
        <time>2013-06-15T18:25:09Z</time>
      </trkpt>
      <trkpt lat="40.251750" lon="-4.902933">
        <ele>1265.0</ele>
        <time>2013-06-15T18:25:10Z</time>
      </trkpt>
      <trkpt lat="40.251800" lon="-4.902967">
        <ele>1266.0</ele>
        <time>2013-06-15T18:25:11Z</time>
      </trkpt>
      <trkpt lat="40.251867" lon="-4.903000">
        <ele>1266.0</ele>
        <time>2013-06-15T18:25:12Z</time>
      </trkpt>
      <trkpt lat="40.251917" lon="-4.903050">
        <ele>1266.0</ele>
        <time>2013-06-15T18:25:13Z</time>
      </trkpt>
      <trkpt lat="40.251950" lon="-4.903083">
        <ele>1267.0</ele>
        <time>2013-06-15T18:25:14Z</time>
      </trkpt>
      <trkpt lat="40.251983" lon="-4.903133">
        <ele>1267.0</ele>
        <time>2013-06-15T18:25:15Z</time>
      </trkpt>
      <trkpt lat="40.251983" lon="-4.903183">
        <ele>1266.0</ele>
        <time>2013-06-15T18:25:16Z</time>
      </trkpt>
      <trkpt lat="40.251967" lon="-4.903217">
        <ele>1265.0</ele>
        <time>2013-06-15T18:25:17Z</time>
      </trkpt>
      <trkpt lat="40.251950" lon="-4.903267">
        <ele>1264.0</ele>
        <time>2013-06-15T18:25:18Z</time>
      </trkpt>
      <trkpt lat="40.251900" lon="-4.903300">
        <ele>1263.0</ele>
        <time>2013-06-15T18:25:19Z</time>
      </trkpt>
      <trkpt lat="40.251850" lon="-4.903300">
        <ele>1262.0</ele>
        <time>2013-06-15T18:25:20Z</time>
      </trkpt>
      <trkpt lat="40.251767" lon="-4.903300">
        <ele>1261.0</ele>
        <time>2013-06-15T18:25:21Z</time>
      </trkpt>
      <trkpt lat="40.251683" lon="-4.903250">
        <ele>1261.0</ele>
        <time>2013-06-15T18:25:22Z</time>
      </trkpt>
      <trkpt lat="40.251617" lon="-4.903200">
        <ele>1262.0</ele>
        <time>2013-06-15T18:25:23Z</time>
      </trkpt>
      <trkpt lat="40.251533" lon="-4.903117">
        <ele>1261.0</ele>
        <time>2013-06-15T18:25:24Z</time>
      </trkpt>
      <trkpt lat="40.251467" lon="-4.903033">
        <ele>1261.0</ele>
        <time>2013-06-15T18:25:25Z</time>
      </trkpt>
      <trkpt lat="40.251383" lon="-4.902950">
        <ele>1261.0</ele>
        <time>2013-06-15T18:25:26Z</time>
      </trkpt>
      <trkpt lat="40.251300" lon="-4.902883">
        <ele>1259.0</ele>
        <time>2013-06-15T18:25:27Z</time>
      </trkpt>
      <trkpt lat="40.251217" lon="-4.902800">
        <ele>1258.0</ele>
        <time>2013-06-15T18:25:28Z</time>
      </trkpt>
      <trkpt lat="40.251117" lon="-4.902733">
        <ele>1258.0</ele>
        <time>2013-06-15T18:25:29Z</time>
      </trkpt>
      <trkpt lat="40.251017" lon="-4.902683">
        <ele>1258.0</ele>
        <time>2013-06-15T18:25:30Z</time>
      </trkpt>
      <trkpt lat="40.250933" lon="-4.902633">
        <ele>1258.0</ele>
        <time>2013-06-15T18:25:31Z</time>
      </trkpt>
      <trkpt lat="40.250850" lon="-4.902600">
        <ele>1258.0</ele>
        <time>2013-06-15T18:25:32Z</time>
      </trkpt>
      <trkpt lat="40.250767" lon="-4.902583">
        <ele>1258.0</ele>
        <time>2013-06-15T18:25:33Z</time>
      </trkpt>
      <trkpt lat="40.250683" lon="-4.902567">
        <ele>1258.0</ele>
        <time>2013-06-15T18:25:34Z</time>
      </trkpt>
      <trkpt lat="40.250600" lon="-4.902550">
        <ele>1258.0</ele>
        <time>2013-06-15T18:25:35Z</time>
      </trkpt>
      <trkpt lat="40.250517" lon="-4.902517">
        <ele>1258.0</ele>
        <time>2013-06-15T18:25:36Z</time>
      </trkpt>
      <trkpt lat="40.250433" lon="-4.902483">
        <ele>1259.0</ele>
        <time>2013-06-15T18:25:37Z</time>
      </trkpt>
      <trkpt lat="40.250350" lon="-4.902433">
        <ele>1259.0</ele>
        <time>2013-06-15T18:25:38Z</time>
      </trkpt>
      <trkpt lat="40.250267" lon="-4.902383">
        <ele>1259.0</ele>
        <time>2013-06-15T18:25:39Z</time>
      </trkpt>
      <trkpt lat="40.250167" lon="-4.902317">
        <ele>1259.0</ele>
        <time>2013-06-15T18:25:40Z</time>
      </trkpt>
      <trkpt lat="40.250083" lon="-4.902267">
        <ele>1259.0</ele>
        <time>2013-06-15T18:25:41Z</time>
      </trkpt>
      <trkpt lat="40.250000" lon="-4.902217">
        <ele>1259.0</ele>
        <time>2013-06-15T18:25:42Z</time>
      </trkpt>
      <trkpt lat="40.249900" lon="-4.902150">
        <ele>1259.0</ele>
        <time>2013-06-15T18:25:43Z</time>
      </trkpt>
      <trkpt lat="40.249817" lon="-4.902100">
        <ele>1259.0</ele>
        <time>2013-06-15T18:25:44Z</time>
      </trkpt>
      <trkpt lat="40.249717" lon="-4.902050">
        <ele>1259.0</ele>
        <time>2013-06-15T18:25:45Z</time>
      </trkpt>
      <trkpt lat="40.249633" lon="-4.902017">
        <ele>1260.0</ele>
        <time>2013-06-15T18:25:46Z</time>
      </trkpt>
      <trkpt lat="40.249533" lon="-4.901967">
        <ele>1260.0</ele>
        <time>2013-06-15T18:25:47Z</time>
      </trkpt>
      <trkpt lat="40.249450" lon="-4.901900">
        <ele>1260.0</ele>
        <time>2013-06-15T18:25:48Z</time>
      </trkpt>
      <trkpt lat="40.249367" lon="-4.901833">
        <ele>1260.0</ele>
        <time>2013-06-15T18:25:49Z</time>
      </trkpt>
      <trkpt lat="40.249267" lon="-4.901750">
        <ele>1260.0</ele>
        <time>2013-06-15T18:25:50Z</time>
      </trkpt>
      <trkpt lat="40.249183" lon="-4.901667">
        <ele>1260.0</ele>
        <time>2013-06-15T18:25:51Z</time>
      </trkpt>
      <trkpt lat="40.249083" lon="-4.901583">
        <ele>1260.0</ele>
        <time>2013-06-15T18:25:52Z</time>
      </trkpt>
      <trkpt lat="40.249000" lon="-4.901500">
        <ele>1260.0</ele>
        <time>2013-06-15T18:25:53Z</time>
      </trkpt>
      <trkpt lat="40.248900" lon="-4.901433">
        <ele>1260.0</ele>
        <time>2013-06-15T18:25:54Z</time>
      </trkpt>
      <trkpt lat="40.248817" lon="-4.901400">
        <ele>1259.0</ele>
        <time>2013-06-15T18:25:55Z</time>
      </trkpt>
      <trkpt lat="40.248750" lon="-4.901400">
        <ele>1258.0</ele>
        <time>2013-06-15T18:25:56Z</time>
      </trkpt>
      <trkpt lat="40.248683" lon="-4.901450">
        <ele>1256.0</ele>
        <time>2013-06-15T18:25:57Z</time>
      </trkpt>
      <trkpt lat="40.248650" lon="-4.901500">
        <ele>1254.0</ele>
        <time>2013-06-15T18:25:58Z</time>
      </trkpt>
      <trkpt lat="40.248617" lon="-4.901550">
        <ele>1254.0</ele>
        <time>2013-06-15T18:25:59Z</time>
      </trkpt>
      <trkpt lat="40.248617" lon="-4.901600">
        <ele>1254.0</ele>
        <time>2013-06-15T18:26:00Z</time>
      </trkpt>
      <trkpt lat="40.248617" lon="-4.901650">
        <ele>1254.0</ele>
        <time>2013-06-15T18:26:01Z</time>
      </trkpt>
      <trkpt lat="40.248633" lon="-4.901667">
        <ele>1253.0</ele>
        <time>2013-06-15T18:26:02Z</time>
      </trkpt>
      <trkpt lat="40.248667" lon="-4.901717">
        <ele>1251.0</ele>
        <time>2013-06-15T18:26:03Z</time>
      </trkpt>
      <trkpt lat="40.248717" lon="-4.901750">
        <ele>1250.0</ele>
        <time>2013-06-15T18:26:04Z</time>
      </trkpt>
      <trkpt lat="40.248767" lon="-4.901783">
        <ele>1250.0</ele>
        <time>2013-06-15T18:26:05Z</time>
      </trkpt>
      <trkpt lat="40.248817" lon="-4.901800">
        <ele>1250.0</ele>
        <time>2013-06-15T18:26:06Z</time>
      </trkpt>
      <trkpt lat="40.248867" lon="-4.901817">
        <ele>1250.0</ele>
        <time>2013-06-15T18:26:07Z</time>
      </trkpt>
      <trkpt lat="40.248917" lon="-4.901833">
        <ele>1250.0</ele>
        <time>2013-06-15T18:26:08Z</time>
      </trkpt>
      <trkpt lat="40.248967" lon="-4.901850">
        <ele>1249.0</ele>
        <time>2013-06-15T18:26:09Z</time>
      </trkpt>
      <trkpt lat="40.249033" lon="-4.901867">
        <ele>1248.0</ele>
        <time>2013-06-15T18:26:10Z</time>
      </trkpt>
      <trkpt lat="40.249100" lon="-4.901867">
        <ele>1248.0</ele>
        <time>2013-06-15T18:26:11Z</time>
      </trkpt>
      <trkpt lat="40.249167" lon="-4.901867">
        <ele>1247.0</ele>
        <time>2013-06-15T18:26:12Z</time>
      </trkpt>
      <trkpt lat="40.249233" lon="-4.901867">
        <ele>1247.0</ele>
        <time>2013-06-15T18:26:13Z</time>
      </trkpt>
      <trkpt lat="40.249300" lon="-4.901883">
        <ele>1247.0</ele>
        <time>2013-06-15T18:26:14Z</time>
      </trkpt>
      <trkpt lat="40.249350" lon="-4.901883">
        <ele>1247.0</ele>
        <time>2013-06-15T18:26:15Z</time>
      </trkpt>
      <trkpt lat="40.249417" lon="-4.901900">
        <ele>1247.0</ele>
        <time>2013-06-15T18:26:16Z</time>
      </trkpt>
      <trkpt lat="40.249483" lon="-4.901917">
        <ele>1247.0</ele>
        <time>2013-06-15T18:26:17Z</time>
      </trkpt>
      <trkpt lat="40.249533" lon="-4.901950">
        <ele>1247.0</ele>
        <time>2013-06-15T18:26:18Z</time>
      </trkpt>
      <trkpt lat="40.249600" lon="-4.901967">
        <ele>1248.0</ele>
        <time>2013-06-15T18:26:19Z</time>
      </trkpt>
      <trkpt lat="40.249667" lon="-4.901983">
        <ele>1248.0</ele>
        <time>2013-06-15T18:26:20Z</time>
      </trkpt>
      <trkpt lat="40.249733" lon="-4.902000">
        <ele>1249.0</ele>
        <time>2013-06-15T18:26:21Z</time>
      </trkpt>
      <trkpt lat="40.249783" lon="-4.902033">
        <ele>1250.0</ele>
        <time>2013-06-15T18:26:22Z</time>
      </trkpt>
      <trkpt lat="40.249833" lon="-4.902067">
        <ele>1250.0</ele>
        <time>2013-06-15T18:26:23Z</time>
      </trkpt>
      <trkpt lat="40.249900" lon="-4.902083">
        <ele>1250.0</ele>
        <time>2013-06-15T18:26:24Z</time>
      </trkpt>
      <trkpt lat="40.249967" lon="-4.902117">
        <ele>1250.0</ele>
        <time>2013-06-15T18:26:25Z</time>
      </trkpt>
      <trkpt lat="40.250050" lon="-4.902133">
        <ele>1250.0</ele>
        <time>2013-06-15T18:26:26Z</time>
      </trkpt>
      <trkpt lat="40.250117" lon="-4.902133">
        <ele>1251.0</ele>
        <time>2013-06-15T18:26:27Z</time>
      </trkpt>
      <trkpt lat="40.250183" lon="-4.902150">
        <ele>1252.0</ele>
        <time>2013-06-15T18:26:28Z</time>
      </trkpt>
      <trkpt lat="40.250250" lon="-4.902167">
        <ele>1252.0</ele>
        <time>2013-06-15T18:26:29Z</time>
      </trkpt>
      <trkpt lat="40.250317" lon="-4.902167">
        <ele>1253.0</ele>
        <time>2013-06-15T18:26:30Z</time>
      </trkpt>
      <trkpt lat="40.250383" lon="-4.902183">
        <ele>1253.0</ele>
        <time>2013-06-15T18:26:31Z</time>
      </trkpt>
      <trkpt lat="40.250450" lon="-4.902200">
        <ele>1254.0</ele>
        <time>2013-06-15T18:26:32Z</time>
      </trkpt>
      <trkpt lat="40.250517" lon="-4.902200">
        <ele>1254.0</ele>
        <time>2013-06-15T18:26:33Z</time>
      </trkpt>
      <trkpt lat="40.250567" lon="-4.902217">
        <ele>1254.0</ele>
        <time>2013-06-15T18:26:34Z</time>
      </trkpt>
      <trkpt lat="40.250633" lon="-4.902233">
        <ele>1254.0</ele>
        <time>2013-06-15T18:26:35Z</time>
      </trkpt>
      <trkpt lat="40.250683" lon="-4.902250">
        <ele>1254.0</ele>
        <time>2013-06-15T18:26:36Z</time>
      </trkpt>
      <trkpt lat="40.250750" lon="-4.902267">
        <ele>1254.0</ele>
        <time>2013-06-15T18:26:37Z</time>
      </trkpt>
      <trkpt lat="40.250833" lon="-4.902283">
        <ele>1254.0</ele>
        <time>2013-06-15T18:26:38Z</time>
      </trkpt>
      <trkpt lat="40.250883" lon="-4.902300">
        <ele>1254.0</ele>
        <time>2013-06-15T18:26:39Z</time>
      </trkpt>
      <trkpt lat="40.250950" lon="-4.902317">
        <ele>1254.0</ele>
        <time>2013-06-15T18:26:40Z</time>
      </trkpt>
      <trkpt lat="40.251017" lon="-4.902333">
        <ele>1254.0</ele>
        <time>2013-06-15T18:26:41Z</time>
      </trkpt>
      <trkpt lat="40.251083" lon="-4.902367">
        <ele>1254.0</ele>
        <time>2013-06-15T18:26:42Z</time>
      </trkpt>
      <trkpt lat="40.251150" lon="-4.902383">
        <ele>1253.0</ele>
        <time>2013-06-15T18:26:43Z</time>
      </trkpt>
      <trkpt lat="40.251233" lon="-4.902417">
        <ele>1254.0</ele>
        <time>2013-06-15T18:26:44Z</time>
      </trkpt>
      <trkpt lat="40.251300" lon="-4.902433">
        <ele>1255.0</ele>
        <time>2013-06-15T18:26:45Z</time>
      </trkpt>
      <trkpt lat="40.251367" lon="-4.902450">
        <ele>1256.0</ele>
        <time>2013-06-15T18:26:46Z</time>
      </trkpt>
      <trkpt lat="40.251450" lon="-4.902467">
        <ele>1257.0</ele>
        <time>2013-06-15T18:26:47Z</time>
      </trkpt>
      <trkpt lat="40.251517" lon="-4.902483">
        <ele>1258.0</ele>
        <time>2013-06-15T18:26:48Z</time>
      </trkpt>
      <trkpt lat="40.251600" lon="-4.902500">
        <ele>1258.0</ele>
        <time>2013-06-15T18:26:49Z</time>
      </trkpt>
      <trkpt lat="40.251667" lon="-4.902517">
        <ele>1258.0</ele>
        <time>2013-06-15T18:26:50Z</time>
      </trkpt>
      <trkpt lat="40.251733" lon="-4.902533">
        <ele>1258.0</ele>
        <time>2013-06-15T18:26:51Z</time>
      </trkpt>
      <trkpt lat="40.251817" lon="-4.902550">
        <ele>1257.0</ele>
        <time>2013-06-15T18:26:52Z</time>
      </trkpt>
      <trkpt lat="40.251900" lon="-4.902583">
        <ele>1257.0</ele>
        <time>2013-06-15T18:26:53Z</time>
      </trkpt>
      <trkpt lat="40.251983" lon="-4.902600">
        <ele>1257.0</ele>
        <time>2013-06-15T18:26:54Z</time>
      </trkpt>
      <trkpt lat="40.252050" lon="-4.902633">
        <ele>1257.0</ele>
        <time>2013-06-15T18:26:55Z</time>
      </trkpt>
      <trkpt lat="40.252133" lon="-4.902667">
        <ele>1257.0</ele>
        <time>2013-06-15T18:26:56Z</time>
      </trkpt>
      <trkpt lat="40.252200" lon="-4.902700">
        <ele>1259.0</ele>
        <time>2013-06-15T18:26:57Z</time>
      </trkpt>
      <trkpt lat="40.252267" lon="-4.902733">
        <ele>1260.0</ele>
        <time>2013-06-15T18:26:58Z</time>
      </trkpt>
      <trkpt lat="40.252333" lon="-4.902750">
        <ele>1261.0</ele>
        <time>2013-06-15T18:26:59Z</time>
      </trkpt>
      <trkpt lat="40.252383" lon="-4.902767">
        <ele>1262.0</ele>
        <time>2013-06-15T18:27:00Z</time>
      </trkpt>
      <trkpt lat="40.252450" lon="-4.902783">
        <ele>1261.0</ele>
        <time>2013-06-15T18:27:01Z</time>
      </trkpt>
      <trkpt lat="40.252517" lon="-4.902817">
        <ele>1261.0</ele>
        <time>2013-06-15T18:27:02Z</time>
      </trkpt>
      <trkpt lat="40.252567" lon="-4.902850">
        <ele>1260.0</ele>
        <time>2013-06-15T18:27:03Z</time>
      </trkpt>
      <trkpt lat="40.252633" lon="-4.902883">
        <ele>1260.0</ele>
        <time>2013-06-15T18:27:04Z</time>
      </trkpt>
      <trkpt lat="40.252700" lon="-4.902917">
        <ele>1262.0</ele>
        <time>2013-06-15T18:27:05Z</time>
      </trkpt>
      <trkpt lat="40.252750" lon="-4.902933">
        <ele>1263.0</ele>
        <time>2013-06-15T18:27:06Z</time>
      </trkpt>
      <trkpt lat="40.252800" lon="-4.902950">
        <ele>1264.0</ele>
        <time>2013-06-15T18:27:07Z</time>
      </trkpt>
      <trkpt lat="40.252850" lon="-4.902983">
        <ele>1263.0</ele>
        <time>2013-06-15T18:27:08Z</time>
      </trkpt>
      <trkpt lat="40.252900" lon="-4.903000">
        <ele>1262.0</ele>
        <time>2013-06-15T18:27:09Z</time>
      </trkpt>
      <trkpt lat="40.252950" lon="-4.903050">
        <ele>1260.0</ele>
        <time>2013-06-15T18:27:10Z</time>
      </trkpt>
      <trkpt lat="40.253017" lon="-4.903100">
        <ele>1259.0</ele>
        <time>2013-06-15T18:27:11Z</time>
      </trkpt>
      <trkpt lat="40.253067" lon="-4.903150">
        <ele>1259.0</ele>
        <time>2013-06-15T18:27:12Z</time>
      </trkpt>
      <trkpt lat="40.253100" lon="-4.903183">
        <ele>1259.0</ele>
        <time>2013-06-15T18:27:13Z</time>
      </trkpt>
      <trkpt lat="40.253133" lon="-4.903217">
        <ele>1259.0</ele>
        <time>2013-06-15T18:27:14Z</time>
      </trkpt>
      <trkpt lat="40.253167" lon="-4.903250">
        <ele>1259.0</ele>
        <time>2013-06-15T18:27:15Z</time>
      </trkpt>
      <trkpt lat="40.253200" lon="-4.903267">
        <ele>1258.0</ele>
        <time>2013-06-15T18:27:16Z</time>
      </trkpt>
      <trkpt lat="40.253250" lon="-4.903283">
        <ele>1257.0</ele>
        <time>2013-06-15T18:27:17Z</time>
      </trkpt>
      <trkpt lat="40.253283" lon="-4.903317">
        <ele>1256.0</ele>
        <time>2013-06-15T18:27:18Z</time>
      </trkpt>
      <trkpt lat="40.253317" lon="-4.903350">
        <ele>1255.0</ele>
        <time>2013-06-15T18:27:19Z</time>
      </trkpt>
      <trkpt lat="40.253333" lon="-4.903400">
        <ele>1254.0</ele>
        <time>2013-06-15T18:27:20Z</time>
      </trkpt>
      <trkpt lat="40.253350" lon="-4.903433">
        <ele>1255.0</ele>
        <time>2013-06-15T18:27:21Z</time>
      </trkpt>
      <trkpt lat="40.253350" lon="-4.903450">
        <ele>1255.0</ele>
        <time>2013-06-15T18:27:22Z</time>
      </trkpt>
      <trkpt lat="40.253333" lon="-4.903467">
        <ele>1255.0</ele>
        <time>2013-06-15T18:27:23Z</time>
      </trkpt>
      <trkpt lat="40.253283" lon="-4.903483">
        <ele>1253.0</ele>
        <time>2013-06-15T18:27:24Z</time>
      </trkpt>
      <trkpt lat="40.253217" lon="-4.903467">
        <ele>1252.0</ele>
        <time>2013-06-15T18:27:25Z</time>
      </trkpt>
      <trkpt lat="40.253133" lon="-4.903450">
        <ele>1251.0</ele>
        <time>2013-06-15T18:27:26Z</time>
      </trkpt>
      <trkpt lat="40.253050" lon="-4.903400">
        <ele>1251.0</ele>
        <time>2013-06-15T18:27:27Z</time>
      </trkpt>
      <trkpt lat="40.252967" lon="-4.903350">
        <ele>1252.0</ele>
        <time>2013-06-15T18:27:28Z</time>
      </trkpt>
      <trkpt lat="40.252883" lon="-4.903317">
        <ele>1253.0</ele>
        <time>2013-06-15T18:27:29Z</time>
      </trkpt>
      <trkpt lat="40.252817" lon="-4.903267">
        <ele>1252.0</ele>
        <time>2013-06-15T18:27:30Z</time>
      </trkpt>
      <trkpt lat="40.252733" lon="-4.903250">
        <ele>1251.0</ele>
        <time>2013-06-15T18:27:31Z</time>
      </trkpt>
      <trkpt lat="40.252633" lon="-4.903217">
        <ele>1249.0</ele>
        <time>2013-06-15T18:27:32Z</time>
      </trkpt>
      <trkpt lat="40.252550" lon="-4.903200">
        <ele>1248.0</ele>
        <time>2013-06-15T18:27:33Z</time>
      </trkpt>
      <trkpt lat="40.252467" lon="-4.903183">
        <ele>1248.0</ele>
        <time>2013-06-15T18:27:34Z</time>
      </trkpt>
      <trkpt lat="40.252383" lon="-4.903167">
        <ele>1248.0</ele>
        <time>2013-06-15T18:27:35Z</time>
      </trkpt>
      <trkpt lat="40.252300" lon="-4.903133">
        <ele>1249.0</ele>
        <time>2013-06-15T18:27:36Z</time>
      </trkpt>
      <trkpt lat="40.252217" lon="-4.903117">
        <ele>1248.0</ele>
        <time>2013-06-15T18:27:37Z</time>
      </trkpt>
      <trkpt lat="40.252117" lon="-4.903083">
        <ele>1247.0</ele>
        <time>2013-06-15T18:27:38Z</time>
      </trkpt>
      <trkpt lat="40.252017" lon="-4.903050">
        <ele>1246.0</ele>
        <time>2013-06-15T18:27:39Z</time>
      </trkpt>
      <trkpt lat="40.251917" lon="-4.903033">
        <ele>1246.0</ele>
        <time>2013-06-15T18:27:40Z</time>
      </trkpt>
      <trkpt lat="40.251833" lon="-4.903000">
        <ele>1247.0</ele>
        <time>2013-06-15T18:27:41Z</time>
      </trkpt>
      <trkpt lat="40.251750" lon="-4.902983">
        <ele>1249.0</ele>
        <time>2013-06-15T18:27:42Z</time>
      </trkpt>
      <trkpt lat="40.251683" lon="-4.902950">
        <ele>1250.0</ele>
        <time>2013-06-15T18:27:43Z</time>
      </trkpt>
      <trkpt lat="40.251617" lon="-4.902917">
        <ele>1250.0</ele>
        <time>2013-06-15T18:27:44Z</time>
      </trkpt>
      <trkpt lat="40.251533" lon="-4.902900">
        <ele>1250.0</ele>
        <time>2013-06-15T18:27:45Z</time>
      </trkpt>
      <trkpt lat="40.251450" lon="-4.902883">
        <ele>1250.0</ele>
        <time>2013-06-15T18:27:46Z</time>
      </trkpt>
      <trkpt lat="40.251367" lon="-4.902883">
        <ele>1250.0</ele>
        <time>2013-06-15T18:27:47Z</time>
      </trkpt>
      <trkpt lat="40.251267" lon="-4.902867">
        <ele>1251.0</ele>
        <time>2013-06-15T18:27:48Z</time>
      </trkpt>
      <trkpt lat="40.251183" lon="-4.902833">
        <ele>1252.0</ele>
        <time>2013-06-15T18:27:49Z</time>
      </trkpt>
      <trkpt lat="40.251117" lon="-4.902783">
        <ele>1254.0</ele>
        <time>2013-06-15T18:27:50Z</time>
      </trkpt>
      <trkpt lat="40.251033" lon="-4.902733">
        <ele>1254.0</ele>
        <time>2013-06-15T18:27:51Z</time>
      </trkpt>
      <trkpt lat="40.250950" lon="-4.902683">
        <ele>1253.0</ele>
        <time>2013-06-15T18:27:52Z</time>
      </trkpt>
      <trkpt lat="40.250867" lon="-4.902650">
        <ele>1252.0</ele>
        <time>2013-06-15T18:27:53Z</time>
      </trkpt>
      <trkpt lat="40.250767" lon="-4.902617">
        <ele>1251.0</ele>
        <time>2013-06-15T18:27:54Z</time>
      </trkpt>
      <trkpt lat="40.250667" lon="-4.902600">
        <ele>1251.0</ele>
        <time>2013-06-15T18:27:55Z</time>
      </trkpt>
      <trkpt lat="40.250567" lon="-4.902567">
        <ele>1252.0</ele>
        <time>2013-06-15T18:27:56Z</time>
      </trkpt>
      <trkpt lat="40.250483" lon="-4.902533">
        <ele>1253.0</ele>
        <time>2013-06-15T18:27:57Z</time>
      </trkpt>
      <trkpt lat="40.250400" lon="-4.902500">
        <ele>1254.0</ele>
        <time>2013-06-15T18:27:58Z</time>
      </trkpt>
      <trkpt lat="40.250300" lon="-4.902483">
        <ele>1254.0</ele>
        <time>2013-06-15T18:27:59Z</time>
      </trkpt>
      <trkpt lat="40.250217" lon="-4.902450">
        <ele>1254.0</ele>
        <time>2013-06-15T18:28:00Z</time>
      </trkpt>
      <trkpt lat="40.250117" lon="-4.902417">
        <ele>1254.0</ele>
        <time>2013-06-15T18:28:01Z</time>
      </trkpt>
      <trkpt lat="40.250017" lon="-4.902367">
        <ele>1254.0</ele>
        <time>2013-06-15T18:28:02Z</time>
      </trkpt>
      <trkpt lat="40.249917" lon="-4.902283">
        <ele>1255.0</ele>
        <time>2013-06-15T18:28:03Z</time>
      </trkpt>
      <trkpt lat="40.249833" lon="-4.902217">
        <ele>1255.0</ele>
        <time>2013-06-15T18:28:04Z</time>
      </trkpt>
      <trkpt lat="40.249750" lon="-4.902167">
        <ele>1256.0</ele>
        <time>2013-06-15T18:28:05Z</time>
      </trkpt>
      <trkpt lat="40.249667" lon="-4.902133">
        <ele>1256.0</ele>
        <time>2013-06-15T18:28:06Z</time>
      </trkpt>
      <trkpt lat="40.249567" lon="-4.902067">
        <ele>1256.0</ele>
        <time>2013-06-15T18:28:07Z</time>
      </trkpt>
      <trkpt lat="40.249483" lon="-4.902000">
        <ele>1255.0</ele>
        <time>2013-06-15T18:28:08Z</time>
      </trkpt>
      <trkpt lat="40.249367" lon="-4.901933">
        <ele>1255.0</ele>
        <time>2013-06-15T18:28:09Z</time>
      </trkpt>
      <trkpt lat="40.249267" lon="-4.901900">
        <ele>1255.0</ele>
        <time>2013-06-15T18:28:10Z</time>
      </trkpt>
      <trkpt lat="40.249167" lon="-4.901867">
        <ele>1255.0</ele>
        <time>2013-06-15T18:28:11Z</time>
      </trkpt>
      <trkpt lat="40.249067" lon="-4.901850">
        <ele>1255.0</ele>
        <time>2013-06-15T18:28:12Z</time>
      </trkpt>
      <trkpt lat="40.248983" lon="-4.901800">
        <ele>1255.0</ele>
        <time>2013-06-15T18:28:13Z</time>
      </trkpt>
      <trkpt lat="40.248883" lon="-4.901767">
        <ele>1255.0</ele>
        <time>2013-06-15T18:28:14Z</time>
      </trkpt>
      <trkpt lat="40.248800" lon="-4.901750">
        <ele>1254.0</ele>
        <time>2013-06-15T18:28:15Z</time>
      </trkpt>
      <trkpt lat="40.248733" lon="-4.901767">
        <ele>1251.0</ele>
        <time>2013-06-15T18:28:16Z</time>
      </trkpt>
      <trkpt lat="40.248683" lon="-4.901817">
        <ele>1249.0</ele>
        <time>2013-06-15T18:28:17Z</time>
      </trkpt>
      <trkpt lat="40.248667" lon="-4.901883">
        <ele>1248.0</ele>
        <time>2013-06-15T18:28:18Z</time>
      </trkpt>
      <trkpt lat="40.248650" lon="-4.901933">
        <ele>1248.0</ele>
        <time>2013-06-15T18:28:19Z</time>
      </trkpt>
      <trkpt lat="40.248650" lon="-4.901967">
        <ele>1247.0</ele>
        <time>2013-06-15T18:28:20Z</time>
      </trkpt>
      <trkpt lat="40.248683" lon="-4.902000">
        <ele>1246.0</ele>
        <time>2013-06-15T18:28:21Z</time>
      </trkpt>
      <trkpt lat="40.248717" lon="-4.902033">
        <ele>1244.0</ele>
        <time>2013-06-15T18:28:22Z</time>
      </trkpt>
      <trkpt lat="40.248750" lon="-4.902083">
        <ele>1242.0</ele>
        <time>2013-06-15T18:28:23Z</time>
      </trkpt>
      <trkpt lat="40.248817" lon="-4.902100">
        <ele>1241.0</ele>
        <time>2013-06-15T18:28:24Z</time>
      </trkpt>
      <trkpt lat="40.248867" lon="-4.902117">
        <ele>1241.0</ele>
        <time>2013-06-15T18:28:25Z</time>
      </trkpt>
      <trkpt lat="40.248933" lon="-4.902117">
        <ele>1240.0</ele>
        <time>2013-06-15T18:28:26Z</time>
      </trkpt>
      <trkpt lat="40.248983" lon="-4.902100">
        <ele>1240.0</ele>
        <time>2013-06-15T18:28:27Z</time>
      </trkpt>
      <trkpt lat="40.249050" lon="-4.902100">
        <ele>1238.0</ele>
        <time>2013-06-15T18:28:28Z</time>
      </trkpt>
      <trkpt lat="40.249117" lon="-4.902100">
        <ele>1236.0</ele>
        <time>2013-06-15T18:28:29Z</time>
      </trkpt>
      <trkpt lat="40.249183" lon="-4.902100">
        <ele>1235.0</ele>
        <time>2013-06-15T18:28:30Z</time>
      </trkpt>
      <trkpt lat="40.249267" lon="-4.902100">
        <ele>1235.0</ele>
        <time>2013-06-15T18:28:31Z</time>
      </trkpt>
      <trkpt lat="40.249333" lon="-4.902100">
        <ele>1236.0</ele>
        <time>2013-06-15T18:28:32Z</time>
      </trkpt>
      <trkpt lat="40.249400" lon="-4.902083">
        <ele>1238.0</ele>
        <time>2013-06-15T18:28:33Z</time>
      </trkpt>
      <trkpt lat="40.249450" lon="-4.902067">
        <ele>1239.0</ele>
        <time>2013-06-15T18:28:34Z</time>
      </trkpt>
      <trkpt lat="40.249500" lon="-4.902050">
        <ele>1239.0</ele>
        <time>2013-06-15T18:28:35Z</time>
      </trkpt>
      <trkpt lat="40.249567" lon="-4.902033">
        <ele>1239.0</ele>
        <time>2013-06-15T18:28:36Z</time>
      </trkpt>
      <trkpt lat="40.249617" lon="-4.902050">
        <ele>1239.0</ele>
        <time>2013-06-15T18:28:37Z</time>
      </trkpt>
      <trkpt lat="40.249683" lon="-4.902050">
        <ele>1240.0</ele>
        <time>2013-06-15T18:28:38Z</time>
      </trkpt>
      <trkpt lat="40.249717" lon="-4.902067">
        <ele>1240.0</ele>
        <time>2013-06-15T18:28:39Z</time>
      </trkpt>
      <trkpt lat="40.249767" lon="-4.902067">
        <ele>1241.0</ele>
        <time>2013-06-15T18:28:40Z</time>
      </trkpt>
      <trkpt lat="40.249833" lon="-4.902067">
        <ele>1241.0</ele>
        <time>2013-06-15T18:28:41Z</time>
      </trkpt>
      <trkpt lat="40.249883" lon="-4.902067">
        <ele>1241.0</ele>
        <time>2013-06-15T18:28:42Z</time>
      </trkpt>
      <trkpt lat="40.249950" lon="-4.902067">
        <ele>1242.0</ele>
        <time>2013-06-15T18:28:43Z</time>
      </trkpt>
      <trkpt lat="40.250017" lon="-4.902050">
        <ele>1243.0</ele>
        <time>2013-06-15T18:28:44Z</time>
      </trkpt>
      <trkpt lat="40.250067" lon="-4.902050">
        <ele>1244.0</ele>
        <time>2013-06-15T18:28:45Z</time>
      </trkpt>
      <trkpt lat="40.250117" lon="-4.902033">
        <ele>1245.0</ele>
        <time>2013-06-15T18:28:46Z</time>
      </trkpt>
      <trkpt lat="40.250167" lon="-4.902050">
        <ele>1245.0</ele>
        <time>2013-06-15T18:28:47Z</time>
      </trkpt>
      <trkpt lat="40.250217" lon="-4.902050">
        <ele>1246.0</ele>
        <time>2013-06-15T18:28:48Z</time>
      </trkpt>
      <trkpt lat="40.250283" lon="-4.902050">
        <ele>1246.0</ele>
        <time>2013-06-15T18:28:49Z</time>
      </trkpt>
      <trkpt lat="40.250333" lon="-4.902050">
        <ele>1246.0</ele>
        <time>2013-06-15T18:28:50Z</time>
      </trkpt>
      <trkpt lat="40.250400" lon="-4.902050">
        <ele>1246.0</ele>
        <time>2013-06-15T18:28:51Z</time>
      </trkpt>
      <trkpt lat="40.250450" lon="-4.902067">
        <ele>1246.0</ele>
        <time>2013-06-15T18:28:52Z</time>
      </trkpt>
      <trkpt lat="40.250517" lon="-4.902083">
        <ele>1246.0</ele>
        <time>2013-06-15T18:28:53Z</time>
      </trkpt>
      <trkpt lat="40.250567" lon="-4.902117">
        <ele>1247.0</ele>
        <time>2013-06-15T18:28:54Z</time>
      </trkpt>
      <trkpt lat="40.250633" lon="-4.902150">
        <ele>1249.0</ele>
        <time>2013-06-15T18:28:55Z</time>
      </trkpt>
      <trkpt lat="40.250683" lon="-4.902167">
        <ele>1251.0</ele>
        <time>2013-06-15T18:28:56Z</time>
      </trkpt>
      <trkpt lat="40.250733" lon="-4.902167">
        <ele>1254.0</ele>
        <time>2013-06-15T18:28:57Z</time>
      </trkpt>
      <trkpt lat="40.250783" lon="-4.902183">
        <ele>1255.0</ele>
        <time>2013-06-15T18:28:58Z</time>
      </trkpt>
      <trkpt lat="40.250850" lon="-4.902183">
        <ele>1256.0</ele>
        <time>2013-06-15T18:28:59Z</time>
      </trkpt>
      <trkpt lat="40.250900" lon="-4.902200">
        <ele>1256.0</ele>
        <time>2013-06-15T18:29:00Z</time>
      </trkpt>
      <trkpt lat="40.250950" lon="-4.902217">
        <ele>1257.0</ele>
        <time>2013-06-15T18:29:01Z</time>
      </trkpt>
      <trkpt lat="40.250983" lon="-4.902217">
        <ele>1258.0</ele>
        <time>2013-06-15T18:29:02Z</time>
      </trkpt>
      <trkpt lat="40.251033" lon="-4.902250">
        <ele>1258.0</ele>
        <time>2013-06-15T18:29:03Z</time>
      </trkpt>
      <trkpt lat="40.251067" lon="-4.902283">
        <ele>1257.0</ele>
        <time>2013-06-15T18:29:04Z</time>
      </trkpt>
      <trkpt lat="40.251133" lon="-4.902317">
        <ele>1257.0</ele>
        <time>2013-06-15T18:29:05Z</time>
      </trkpt>
      <trkpt lat="40.251183" lon="-4.902367">
        <ele>1257.0</ele>
        <time>2013-06-15T18:29:06Z</time>
      </trkpt>
      <trkpt lat="40.251217" lon="-4.902417">
        <ele>1259.0</ele>
        <time>2013-06-15T18:29:07Z</time>
      </trkpt>
      <trkpt lat="40.251233" lon="-4.902467">
        <ele>1260.0</ele>
        <time>2013-06-15T18:29:08Z</time>
      </trkpt>
      <trkpt lat="40.251217" lon="-4.902517">
        <ele>1260.0</ele>
        <time>2013-06-15T18:29:09Z</time>
      </trkpt>
      <trkpt lat="40.251183" lon="-4.902550">
        <ele>1260.0</ele>
        <time>2013-06-15T18:29:10Z</time>
      </trkpt>
      <trkpt lat="40.251117" lon="-4.902600">
        <ele>1259.0</ele>
        <time>2013-06-15T18:29:11Z</time>
      </trkpt>
      <trkpt lat="40.251050" lon="-4.902633">
        <ele>1258.0</ele>
        <time>2013-06-15T18:29:12Z</time>
      </trkpt>
      <trkpt lat="40.250967" lon="-4.902617">
        <ele>1258.0</ele>
        <time>2013-06-15T18:29:13Z</time>
      </trkpt>
      <trkpt lat="40.250867" lon="-4.902583">
        <ele>1258.0</ele>
        <time>2013-06-15T18:29:14Z</time>
      </trkpt>
      <trkpt lat="40.250767" lon="-4.902500">
        <ele>1258.0</ele>
        <time>2013-06-15T18:29:15Z</time>
      </trkpt>
      <trkpt lat="40.250683" lon="-4.902417">
        <ele>1258.0</ele>
        <time>2013-06-15T18:29:16Z</time>
      </trkpt>
      <trkpt lat="40.250583" lon="-4.902350">
        <ele>1258.0</ele>
        <time>2013-06-15T18:29:17Z</time>
      </trkpt>
      <trkpt lat="40.250500" lon="-4.902283">
        <ele>1258.0</ele>
        <time>2013-06-15T18:29:18Z</time>
      </trkpt>
      <trkpt lat="40.250400" lon="-4.902233">
        <ele>1257.0</ele>
        <time>2013-06-15T18:29:19Z</time>
      </trkpt>
      <trkpt lat="40.250283" lon="-4.902183">
        <ele>1257.0</ele>
        <time>2013-06-15T18:29:20Z</time>
      </trkpt>
      <trkpt lat="40.250183" lon="-4.902133">
        <ele>1258.0</ele>
        <time>2013-06-15T18:29:21Z</time>
      </trkpt>
      <trkpt lat="40.250083" lon="-4.902083">
        <ele>1259.0</ele>
        <time>2013-06-15T18:29:22Z</time>
      </trkpt>
      <trkpt lat="40.249983" lon="-4.902033">
        <ele>1259.0</ele>
        <time>2013-06-15T18:29:23Z</time>
      </trkpt>
      <trkpt lat="40.249883" lon="-4.901983">
        <ele>1259.0</ele>
        <time>2013-06-15T18:29:24Z</time>
      </trkpt>
      <trkpt lat="40.249800" lon="-4.901967">
        <ele>1259.0</ele>
        <time>2013-06-15T18:29:25Z</time>
      </trkpt>
      <trkpt lat="40.249717" lon="-4.901967">
        <ele>1258.0</ele>
        <time>2013-06-15T18:29:26Z</time>
      </trkpt>
      <trkpt lat="40.249633" lon="-4.901983">
        <ele>1258.0</ele>
        <time>2013-06-15T18:29:27Z</time>
      </trkpt>
      <trkpt lat="40.249567" lon="-4.902000">
        <ele>1257.0</ele>
        <time>2013-06-15T18:29:28Z</time>
      </trkpt>
      <trkpt lat="40.249517" lon="-4.902033">
        <ele>1257.0</ele>
        <time>2013-06-15T18:29:29Z</time>
      </trkpt>
      <trkpt lat="40.249483" lon="-4.902083">
        <ele>1257.0</ele>
        <time>2013-06-15T18:29:30Z</time>
      </trkpt>
      <trkpt lat="40.249450" lon="-4.902133">
        <ele>1257.0</ele>
        <time>2013-06-15T18:29:31Z</time>
      </trkpt>
      <trkpt lat="40.249467" lon="-4.902200">
        <ele>1257.0</ele>
        <time>2013-06-15T18:29:32Z</time>
      </trkpt>
      <trkpt lat="40.249467" lon="-4.902267">
        <ele>1258.0</ele>
        <time>2013-06-15T18:29:33Z</time>
      </trkpt>
      <trkpt lat="40.249483" lon="-4.902333">
        <ele>1259.0</ele>
        <time>2013-06-15T18:29:34Z</time>
      </trkpt>
      <trkpt lat="40.249483" lon="-4.902367">
        <ele>1260.0</ele>
        <time>2013-06-15T18:29:35Z</time>
      </trkpt>
      <trkpt lat="40.249483" lon="-4.902417">
        <ele>1260.0</ele>
        <time>2013-06-15T18:29:36Z</time>
      </trkpt>
      <trkpt lat="40.249517" lon="-4.902467">
        <ele>1260.0</ele>
        <time>2013-06-15T18:29:37Z</time>
      </trkpt>
      <trkpt lat="40.249567" lon="-4.902500">
        <ele>1259.0</ele>
        <time>2013-06-15T18:29:38Z</time>
      </trkpt>
      <trkpt lat="40.249650" lon="-4.902517">
        <ele>1259.0</ele>
        <time>2013-06-15T18:29:39Z</time>
      </trkpt>
      <trkpt lat="40.249717" lon="-4.902517">
        <ele>1261.0</ele>
        <time>2013-06-15T18:29:40Z</time>
      </trkpt>
      <trkpt lat="40.249783" lon="-4.902500">
        <ele>1264.0</ele>
        <time>2013-06-15T18:29:41Z</time>
      </trkpt>
      <trkpt lat="40.249833" lon="-4.902483">
        <ele>1265.0</ele>
        <time>2013-06-15T18:29:42Z</time>
      </trkpt>
      <trkpt lat="40.249883" lon="-4.902433">
        <ele>1265.0</ele>
        <time>2013-06-15T18:29:43Z</time>
      </trkpt>
      <trkpt lat="40.249950" lon="-4.902383">
        <ele>1264.0</ele>
        <time>2013-06-15T18:29:44Z</time>
      </trkpt>
      <trkpt lat="40.250033" lon="-4.902333">
        <ele>1263.0</ele>
        <time>2013-06-15T18:29:45Z</time>
      </trkpt>
      <trkpt lat="40.250133" lon="-4.902267">
        <ele>1263.0</ele>
        <time>2013-06-15T18:29:46Z</time>
      </trkpt>
      <trkpt lat="40.250233" lon="-4.902200">
        <ele>1264.0</ele>
        <time>2013-06-15T18:29:47Z</time>
      </trkpt>
      <trkpt lat="40.250317" lon="-4.902150">
        <ele>1266.0</ele>
        <time>2013-06-15T18:29:48Z</time>
      </trkpt>
      <trkpt lat="40.250400" lon="-4.902100">
        <ele>1267.0</ele>
        <time>2013-06-15T18:29:49Z</time>
      </trkpt>
      <trkpt lat="40.250467" lon="-4.902067">
        <ele>1267.0</ele>
        <time>2013-06-15T18:29:50Z</time>
      </trkpt>
      <trkpt lat="40.250550" lon="-4.902050">
        <ele>1267.0</ele>
        <time>2013-06-15T18:29:51Z</time>
      </trkpt>
      <trkpt lat="40.250617" lon="-4.902067">
        <ele>1266.0</ele>
        <time>2013-06-15T18:29:52Z</time>
      </trkpt>
      <trkpt lat="40.250683" lon="-4.902083">
        <ele>1267.0</ele>
        <time>2013-06-15T18:29:53Z</time>
      </trkpt>
      <trkpt lat="40.250750" lon="-4.902117">
        <ele>1268.0</ele>
        <time>2013-06-15T18:29:54Z</time>
      </trkpt>
      <trkpt lat="40.250800" lon="-4.902133">
        <ele>1268.0</ele>
        <time>2013-06-15T18:29:55Z</time>
      </trkpt>
      <trkpt lat="40.250850" lon="-4.902150">
        <ele>1269.0</ele>
        <time>2013-06-15T18:29:56Z</time>
      </trkpt>
      <trkpt lat="40.250917" lon="-4.902167">
        <ele>1268.0</ele>
        <time>2013-06-15T18:29:57Z</time>
      </trkpt>
      <trkpt lat="40.250967" lon="-4.902200">
        <ele>1268.0</ele>
        <time>2013-06-15T18:29:58Z</time>
      </trkpt>
      <trkpt lat="40.251000" lon="-4.902233">
        <ele>1266.0</ele>
        <time>2013-06-15T18:29:59Z</time>
      </trkpt>
      <trkpt lat="40.251067" lon="-4.902267">
        <ele>1265.0</ele>
        <time>2013-06-15T18:30:00Z</time>
      </trkpt>
      <trkpt lat="40.251133" lon="-4.902317">
        <ele>1265.0</ele>
        <time>2013-06-15T18:30:01Z</time>
      </trkpt>
      <trkpt lat="40.251200" lon="-4.902367">
        <ele>1266.0</ele>
        <time>2013-06-15T18:30:02Z</time>
      </trkpt>
      <trkpt lat="40.251250" lon="-4.902417">
        <ele>1268.0</ele>
        <time>2013-06-15T18:30:03Z</time>
      </trkpt>
      <trkpt lat="40.251300" lon="-4.902450">
        <ele>1270.0</ele>
        <time>2013-06-15T18:30:04Z</time>
      </trkpt>
      <trkpt lat="40.251333" lon="-4.902483">
        <ele>1272.0</ele>
        <time>2013-06-15T18:30:05Z</time>
      </trkpt>
      <trkpt lat="40.251383" lon="-4.902500">
        <ele>1272.0</ele>
        <time>2013-06-15T18:30:06Z</time>
      </trkpt>
      <trkpt lat="40.251417" lon="-4.902517">
        <ele>1272.0</ele>
        <time>2013-06-15T18:30:07Z</time>
      </trkpt>
      <trkpt lat="40.251467" lon="-4.902533">
        <ele>1272.0</ele>
        <time>2013-06-15T18:30:08Z</time>
      </trkpt>
      <trkpt lat="40.251533" lon="-4.902567">
        <ele>1272.0</ele>
        <time>2013-06-15T18:30:09Z</time>
      </trkpt>
      <trkpt lat="40.251583" lon="-4.902583">
        <ele>1272.0</ele>
        <time>2013-06-15T18:30:10Z</time>
      </trkpt>
      <trkpt lat="40.251633" lon="-4.902600">
        <ele>1272.0</ele>
        <time>2013-06-15T18:30:11Z</time>
      </trkpt>
      <trkpt lat="40.251683" lon="-4.902633">
        <ele>1272.0</ele>
        <time>2013-06-15T18:30:12Z</time>
      </trkpt>
      <trkpt lat="40.251733" lon="-4.902650">
        <ele>1273.0</ele>
        <time>2013-06-15T18:30:13Z</time>
      </trkpt>
      <trkpt lat="40.251750" lon="-4.902683">
        <ele>1273.0</ele>
        <time>2013-06-15T18:30:14Z</time>
      </trkpt>
      <trkpt lat="40.251767" lon="-4.902717">
        <ele>1273.0</ele>
        <time>2013-06-15T18:30:15Z</time>
      </trkpt>
      <trkpt lat="40.251750" lon="-4.902767">
        <ele>1272.0</ele>
        <time>2013-06-15T18:30:16Z</time>
      </trkpt>
      <trkpt lat="40.251700" lon="-4.902800">
        <ele>1271.0</ele>
        <time>2013-06-15T18:30:17Z</time>
      </trkpt>
      <trkpt lat="40.251650" lon="-4.902850">
        <ele>1270.0</ele>
        <time>2013-06-15T18:30:18Z</time>
      </trkpt>
      <trkpt lat="40.251583" lon="-4.902883">
        <ele>1270.0</ele>
        <time>2013-06-15T18:30:19Z</time>
      </trkpt>
      <trkpt lat="40.251500" lon="-4.902917">
        <ele>1272.0</ele>
        <time>2013-06-15T18:30:20Z</time>
      </trkpt>
      <trkpt lat="40.251433" lon="-4.902917">
        <ele>1273.0</ele>
        <time>2013-06-15T18:30:21Z</time>
      </trkpt>
      <trkpt lat="40.251367" lon="-4.902933">
        <ele>1274.0</ele>
        <time>2013-06-15T18:30:22Z</time>
      </trkpt>
      <trkpt lat="40.251317" lon="-4.902950">
        <ele>1274.0</ele>
        <time>2013-06-15T18:30:23Z</time>
      </trkpt>
      <trkpt lat="40.251250" lon="-4.902967">
        <ele>1274.0</ele>
        <time>2013-06-15T18:30:24Z</time>
      </trkpt>
      <trkpt lat="40.251183" lon="-4.902983">
        <ele>1274.0</ele>
        <time>2013-06-15T18:30:25Z</time>
      </trkpt>
      <trkpt lat="40.251117" lon="-4.903000">
        <ele>1275.0</ele>
        <time>2013-06-15T18:30:26Z</time>
      </trkpt>
      <trkpt lat="40.251050" lon="-4.903017">
        <ele>1276.0</ele>
        <time>2013-06-15T18:30:27Z</time>
      </trkpt>
      <trkpt lat="40.251000" lon="-4.903017">
        <ele>1278.0</ele>
        <time>2013-06-15T18:30:28Z</time>
      </trkpt>
      <trkpt lat="40.250933" lon="-4.903017">
        <ele>1278.0</ele>
        <time>2013-06-15T18:30:29Z</time>
      </trkpt>
      <trkpt lat="40.250867" lon="-4.903017">
        <ele>1279.0</ele>
        <time>2013-06-15T18:30:30Z</time>
      </trkpt>
      <trkpt lat="40.250783" lon="-4.903000">
        <ele>1279.0</ele>
        <time>2013-06-15T18:30:31Z</time>
      </trkpt>
      <trkpt lat="40.250700" lon="-4.902983">
        <ele>1279.0</ele>
        <time>2013-06-15T18:30:32Z</time>
      </trkpt>
      <trkpt lat="40.250617" lon="-4.902933">
        <ele>1279.0</ele>
        <time>2013-06-15T18:30:33Z</time>
      </trkpt>
      <trkpt lat="40.250550" lon="-4.902867">
        <ele>1279.0</ele>
        <time>2013-06-15T18:30:34Z</time>
      </trkpt>
      <trkpt lat="40.250467" lon="-4.902800">
        <ele>1279.0</ele>
        <time>2013-06-15T18:30:35Z</time>
      </trkpt>
      <trkpt lat="40.250400" lon="-4.902717">
        <ele>1277.0</ele>
        <time>2013-06-15T18:30:36Z</time>
      </trkpt>
      <trkpt lat="40.250300" lon="-4.902617">
        <ele>1275.0</ele>
        <time>2013-06-15T18:30:37Z</time>
      </trkpt>
      <trkpt lat="40.250200" lon="-4.902500">
        <ele>1274.0</ele>
        <time>2013-06-15T18:30:38Z</time>
      </trkpt>
      <trkpt lat="40.250083" lon="-4.902400">
        <ele>1275.0</ele>
        <time>2013-06-15T18:30:39Z</time>
      </trkpt>
      <trkpt lat="40.249983" lon="-4.902300">
        <ele>1275.0</ele>
        <time>2013-06-15T18:30:40Z</time>
      </trkpt>
      <trkpt lat="40.249883" lon="-4.902217">
        <ele>1276.0</ele>
        <time>2013-06-15T18:30:41Z</time>
      </trkpt>
      <trkpt lat="40.249800" lon="-4.902150">
        <ele>1276.0</ele>
        <time>2013-06-15T18:30:42Z</time>
      </trkpt>
      <trkpt lat="40.249717" lon="-4.902100">
        <ele>1276.0</ele>
        <time>2013-06-15T18:30:43Z</time>
      </trkpt>
      <trkpt lat="40.249617" lon="-4.902067">
        <ele>1276.0</ele>
        <time>2013-06-15T18:30:44Z</time>
      </trkpt>
      <trkpt lat="40.249550" lon="-4.902083">
        <ele>1275.0</ele>
        <time>2013-06-15T18:30:45Z</time>
      </trkpt>
      <trkpt lat="40.249483" lon="-4.902117">
        <ele>1273.0</ele>
        <time>2013-06-15T18:30:46Z</time>
      </trkpt>
      <trkpt lat="40.249433" lon="-4.902167">
        <ele>1273.0</ele>
        <time>2013-06-15T18:30:47Z</time>
      </trkpt>
      <trkpt lat="40.249417" lon="-4.902217">
        <ele>1273.0</ele>
        <time>2013-06-15T18:30:48Z</time>
      </trkpt>
      <trkpt lat="40.249400" lon="-4.902250">
        <ele>1274.0</ele>
        <time>2013-06-15T18:30:49Z</time>
      </trkpt>
      <trkpt lat="40.249417" lon="-4.902283">
        <ele>1274.0</ele>
        <time>2013-06-15T18:30:50Z</time>
      </trkpt>
      <trkpt lat="40.249433" lon="-4.902317">
        <ele>1274.0</ele>
        <time>2013-06-15T18:30:51Z</time>
      </trkpt>
      <trkpt lat="40.249483" lon="-4.902317">
        <ele>1273.0</ele>
        <time>2013-06-15T18:30:52Z</time>
      </trkpt>
      <trkpt lat="40.249550" lon="-4.902317">
        <ele>1272.0</ele>
        <time>2013-06-15T18:30:53Z</time>
      </trkpt>
      <trkpt lat="40.249650" lon="-4.902283">
        <ele>1272.0</ele>
        <time>2013-06-15T18:30:54Z</time>
      </trkpt>
      <trkpt lat="40.249733" lon="-4.902233">
        <ele>1272.0</ele>
        <time>2013-06-15T18:30:55Z</time>
      </trkpt>
      <trkpt lat="40.249817" lon="-4.902183">
        <ele>1273.0</ele>
        <time>2013-06-15T18:30:56Z</time>
      </trkpt>
      <trkpt lat="40.249883" lon="-4.902133">
        <ele>1274.0</ele>
        <time>2013-06-15T18:30:57Z</time>
      </trkpt>
      <trkpt lat="40.249933" lon="-4.902083">
        <ele>1273.0</ele>
        <time>2013-06-15T18:30:58Z</time>
      </trkpt>
      <trkpt lat="40.250017" lon="-4.902050">
        <ele>1272.0</ele>
        <time>2013-06-15T18:30:59Z</time>
      </trkpt>
      <trkpt lat="40.250083" lon="-4.902000">
        <ele>1272.0</ele>
        <time>2013-06-15T18:31:00Z</time>
      </trkpt>
      <trkpt lat="40.250183" lon="-4.901967">
        <ele>1271.0</ele>
        <time>2013-06-15T18:31:01Z</time>
      </trkpt>
      <trkpt lat="40.250267" lon="-4.901950">
        <ele>1272.0</ele>
        <time>2013-06-15T18:31:02Z</time>
      </trkpt>
      <trkpt lat="40.250333" lon="-4.901933">
        <ele>1273.0</ele>
        <time>2013-06-15T18:31:03Z</time>
      </trkpt>
      <trkpt lat="40.250400" lon="-4.901900">
        <ele>1274.0</ele>
        <time>2013-06-15T18:31:04Z</time>
      </trkpt>
      <trkpt lat="40.250450" lon="-4.901883">
        <ele>1274.0</ele>
        <time>2013-06-15T18:31:05Z</time>
      </trkpt>
      <trkpt lat="40.250517" lon="-4.901883">
        <ele>1273.0</ele>
        <time>2013-06-15T18:31:06Z</time>
      </trkpt>
      <trkpt lat="40.250583" lon="-4.901900">
        <ele>1273.0</ele>
        <time>2013-06-15T18:31:07Z</time>
      </trkpt>
      <trkpt lat="40.250650" lon="-4.901917">
        <ele>1273.0</ele>
        <time>2013-06-15T18:31:08Z</time>
      </trkpt>
      <trkpt lat="40.250733" lon="-4.901933">
        <ele>1273.0</ele>
        <time>2013-06-15T18:31:09Z</time>
      </trkpt>
      <trkpt lat="40.250800" lon="-4.901933">
        <ele>1275.0</ele>
        <time>2013-06-15T18:31:10Z</time>
      </trkpt>
      <trkpt lat="40.250867" lon="-4.901933">
        <ele>1276.0</ele>
        <time>2013-06-15T18:31:11Z</time>
      </trkpt>
      <trkpt lat="40.250933" lon="-4.901950">
        <ele>1276.0</ele>
        <time>2013-06-15T18:31:12Z</time>
      </trkpt>
      <trkpt lat="40.251000" lon="-4.901983">
        <ele>1276.0</ele>
        <time>2013-06-15T18:31:13Z</time>
      </trkpt>
      <trkpt lat="40.251050" lon="-4.902033">
        <ele>1275.0</ele>
        <time>2013-06-15T18:31:14Z</time>
      </trkpt>
      <trkpt lat="40.251117" lon="-4.902067">
        <ele>1277.0</ele>
        <time>2013-06-15T18:31:15Z</time>
      </trkpt>
      <trkpt lat="40.251200" lon="-4.902083">
        <ele>1278.0</ele>
        <time>2013-06-15T18:31:16Z</time>
      </trkpt>
      <trkpt lat="40.251283" lon="-4.902100">
        <ele>1280.0</ele>
        <time>2013-06-15T18:31:17Z</time>
      </trkpt>
      <trkpt lat="40.251350" lon="-4.902117">
        <ele>1281.0</ele>
        <time>2013-06-15T18:31:18Z</time>
      </trkpt>
      <trkpt lat="40.251417" lon="-4.902133">
        <ele>1282.0</ele>
        <time>2013-06-15T18:31:19Z</time>
      </trkpt>
      <trkpt lat="40.251500" lon="-4.902150">
        <ele>1283.0</ele>
        <time>2013-06-15T18:31:20Z</time>
      </trkpt>
      <trkpt lat="40.251583" lon="-4.902167">
        <ele>1284.0</ele>
        <time>2013-06-15T18:31:21Z</time>
      </trkpt>
      <trkpt lat="40.251667" lon="-4.902183">
        <ele>1285.0</ele>
        <time>2013-06-15T18:31:22Z</time>
      </trkpt>
      <trkpt lat="40.251750" lon="-4.902167">
        <ele>1287.0</ele>
        <time>2013-06-15T18:31:23Z</time>
      </trkpt>
      <trkpt lat="40.251817" lon="-4.902167">
        <ele>1288.0</ele>
        <time>2013-06-15T18:31:24Z</time>
      </trkpt>
      <trkpt lat="40.251883" lon="-4.902183">
        <ele>1289.0</ele>
        <time>2013-06-15T18:31:25Z</time>
      </trkpt>
      <trkpt lat="40.251917" lon="-4.902217">
        <ele>1289.0</ele>
        <time>2013-06-15T18:31:26Z</time>
      </trkpt>
      <trkpt lat="40.251950" lon="-4.902267">
        <ele>1289.0</ele>
        <time>2013-06-15T18:31:27Z</time>
      </trkpt>
      <trkpt lat="40.251983" lon="-4.902300">
        <ele>1290.0</ele>
        <time>2013-06-15T18:31:28Z</time>
      </trkpt>
      <trkpt lat="40.252000" lon="-4.902317">
        <ele>1291.0</ele>
        <time>2013-06-15T18:31:29Z</time>
      </trkpt>
      <trkpt lat="40.252033" lon="-4.902333">
        <ele>1292.0</ele>
        <time>2013-06-15T18:31:30Z</time>
      </trkpt>
      <trkpt lat="40.252050" lon="-4.902367">
        <ele>1291.0</ele>
        <time>2013-06-15T18:31:31Z</time>
      </trkpt>
      <trkpt lat="40.252050" lon="-4.902400">
        <ele>1290.0</ele>
        <time>2013-06-15T18:31:32Z</time>
      </trkpt>
      <trkpt lat="40.252033" lon="-4.902433">
        <ele>1289.0</ele>
        <time>2013-06-15T18:31:33Z</time>
      </trkpt>
      <trkpt lat="40.252017" lon="-4.902483">
        <ele>1288.0</ele>
        <time>2013-06-15T18:31:34Z</time>
      </trkpt>
      <trkpt lat="40.252000" lon="-4.902517">
        <ele>1288.0</ele>
        <time>2013-06-15T18:31:35Z</time>
      </trkpt>
      <trkpt lat="40.251950" lon="-4.902533">
        <ele>1288.0</ele>
        <time>2013-06-15T18:31:36Z</time>
      </trkpt>
      <trkpt lat="40.251900" lon="-4.902533">
        <ele>1288.0</ele>
        <time>2013-06-15T18:31:37Z</time>
      </trkpt>
      <trkpt lat="40.251850" lon="-4.902533">
        <ele>1287.0</ele>
        <time>2013-06-15T18:31:38Z</time>
      </trkpt>
      <trkpt lat="40.251783" lon="-4.902550">
        <ele>1286.0</ele>
        <time>2013-06-15T18:31:39Z</time>
      </trkpt>
      <trkpt lat="40.251733" lon="-4.902567">
        <ele>1285.0</ele>
        <time>2013-06-15T18:31:40Z</time>
      </trkpt>
      <trkpt lat="40.251683" lon="-4.902583">
        <ele>1284.0</ele>
        <time>2013-06-15T18:31:41Z</time>
      </trkpt>
      <trkpt lat="40.251617" lon="-4.902617">
        <ele>1284.0</ele>
        <time>2013-06-15T18:31:42Z</time>
      </trkpt>
      <trkpt lat="40.251550" lon="-4.902633">
        <ele>1283.0</ele>
        <time>2013-06-15T18:31:43Z</time>
      </trkpt>
      <trkpt lat="40.251483" lon="-4.902667">
        <ele>1284.0</ele>
        <time>2013-06-15T18:31:44Z</time>
      </trkpt>
      <trkpt lat="40.251417" lon="-4.902683">
        <ele>1285.0</ele>
        <time>2013-06-15T18:31:45Z</time>
      </trkpt>
      <trkpt lat="40.251350" lon="-4.902700">
        <ele>1286.0</ele>
        <time>2013-06-15T18:31:46Z</time>
      </trkpt>
      <trkpt lat="40.251300" lon="-4.902733">
        <ele>1286.0</ele>
        <time>2013-06-15T18:31:47Z</time>
      </trkpt>
      <trkpt lat="40.251233" lon="-4.902750">
        <ele>1287.0</ele>
        <time>2013-06-15T18:31:48Z</time>
      </trkpt>
      <trkpt lat="40.251183" lon="-4.902767">
        <ele>1287.0</ele>
        <time>2013-06-15T18:31:49Z</time>
      </trkpt>
      <trkpt lat="40.251100" lon="-4.902767">
        <ele>1287.0</ele>
        <time>2013-06-15T18:31:50Z</time>
      </trkpt>
      <trkpt lat="40.251017" lon="-4.902767">
        <ele>1287.0</ele>
        <time>2013-06-15T18:31:51Z</time>
      </trkpt>
      <trkpt lat="40.250933" lon="-4.902750">
        <ele>1287.0</ele>
        <time>2013-06-15T18:31:52Z</time>
      </trkpt>
      <trkpt lat="40.250850" lon="-4.902750">
        <ele>1287.0</ele>
        <time>2013-06-15T18:31:53Z</time>
      </trkpt>
      <trkpt lat="40.250767" lon="-4.902733">
        <ele>1287.0</ele>
        <time>2013-06-15T18:31:54Z</time>
      </trkpt>
      <trkpt lat="40.250667" lon="-4.902717">
        <ele>1288.0</ele>
        <time>2013-06-15T18:31:55Z</time>
      </trkpt>
      <trkpt lat="40.250583" lon="-4.902667">
        <ele>1288.0</ele>
        <time>2013-06-15T18:31:56Z</time>
      </trkpt>
      <trkpt lat="40.250483" lon="-4.902633">
        <ele>1289.0</ele>
        <time>2013-06-15T18:31:57Z</time>
      </trkpt>
      <trkpt lat="40.250400" lon="-4.902583">
        <ele>1290.0</ele>
        <time>2013-06-15T18:31:58Z</time>
      </trkpt>
      <trkpt lat="40.250300" lon="-4.902550">
        <ele>1290.0</ele>
        <time>2013-06-15T18:31:59Z</time>
      </trkpt>
      <trkpt lat="40.250200" lon="-4.902500">
        <ele>1289.0</ele>
        <time>2013-06-15T18:32:00Z</time>
      </trkpt>
      <trkpt lat="40.250117" lon="-4.902450">
        <ele>1288.0</ele>
        <time>2013-06-15T18:32:01Z</time>
      </trkpt>
      <trkpt lat="40.250000" lon="-4.902383">
        <ele>1287.0</ele>
        <time>2013-06-15T18:32:02Z</time>
      </trkpt>
      <trkpt lat="40.249900" lon="-4.902333">
        <ele>1285.0</ele>
        <time>2013-06-15T18:32:03Z</time>
      </trkpt>
      <trkpt lat="40.249783" lon="-4.902300">
        <ele>1284.0</ele>
        <time>2013-06-15T18:32:04Z</time>
      </trkpt>
      <trkpt lat="40.249683" lon="-4.902250">
        <ele>1284.0</ele>
        <time>2013-06-15T18:32:05Z</time>
      </trkpt>
      <trkpt lat="40.249567" lon="-4.902183">
        <ele>1284.0</ele>
        <time>2013-06-15T18:32:06Z</time>
      </trkpt>
      <trkpt lat="40.249467" lon="-4.902117">
        <ele>1284.0</ele>
        <time>2013-06-15T18:32:07Z</time>
      </trkpt>
      <trkpt lat="40.249367" lon="-4.902067">
        <ele>1284.0</ele>
        <time>2013-06-15T18:32:08Z</time>
      </trkpt>
      <trkpt lat="40.249267" lon="-4.902033">
        <ele>1283.0</ele>
        <time>2013-06-15T18:32:09Z</time>
      </trkpt>
      <trkpt lat="40.249167" lon="-4.902017">
        <ele>1282.0</ele>
        <time>2013-06-15T18:32:10Z</time>
      </trkpt>
      <trkpt lat="40.249067" lon="-4.902000">
        <ele>1281.0</ele>
        <time>2013-06-15T18:32:11Z</time>
      </trkpt>
      <trkpt lat="40.248967" lon="-4.901983">
        <ele>1281.0</ele>
        <time>2013-06-15T18:32:12Z</time>
      </trkpt>
      <trkpt lat="40.248883" lon="-4.902000">
        <ele>1280.0</ele>
        <time>2013-06-15T18:32:13Z</time>
      </trkpt>
      <trkpt lat="40.248817" lon="-4.902033">
        <ele>1279.0</ele>
        <time>2013-06-15T18:32:14Z</time>
      </trkpt>
      <trkpt lat="40.248783" lon="-4.902083">
        <ele>1278.0</ele>
        <time>2013-06-15T18:32:15Z</time>
      </trkpt>
      <trkpt lat="40.248767" lon="-4.902133">
        <ele>1277.0</ele>
        <time>2013-06-15T18:32:16Z</time>
      </trkpt>
      <trkpt lat="40.248750" lon="-4.902200">
        <ele>1277.0</ele>
        <time>2013-06-15T18:32:17Z</time>
      </trkpt>
      <trkpt lat="40.248750" lon="-4.902233">
        <ele>1277.0</ele>
        <time>2013-06-15T18:32:18Z</time>
      </trkpt>
      <trkpt lat="40.248750" lon="-4.902267">
        <ele>1277.0</ele>
        <time>2013-06-15T18:32:19Z</time>
      </trkpt>
      <trkpt lat="40.248767" lon="-4.902300">
        <ele>1276.0</ele>
        <time>2013-06-15T18:32:20Z</time>
      </trkpt>
      <trkpt lat="40.248800" lon="-4.902333">
        <ele>1274.0</ele>
        <time>2013-06-15T18:32:21Z</time>
      </trkpt>
      <trkpt lat="40.248833" lon="-4.902367">
        <ele>1271.0</ele>
        <time>2013-06-15T18:32:22Z</time>
      </trkpt>
      <trkpt lat="40.248883" lon="-4.902400">
        <ele>1270.0</ele>
        <time>2013-06-15T18:32:23Z</time>
      </trkpt>
      <trkpt lat="40.248933" lon="-4.902433">
        <ele>1269.0</ele>
        <time>2013-06-15T18:32:24Z</time>
      </trkpt>
      <trkpt lat="40.248983" lon="-4.902450">
        <ele>1268.0</ele>
        <time>2013-06-15T18:32:25Z</time>
      </trkpt>
      <trkpt lat="40.249050" lon="-4.902433">
        <ele>1268.0</ele>
        <time>2013-06-15T18:32:26Z</time>
      </trkpt>
      <trkpt lat="40.249117" lon="-4.902400">
        <ele>1267.0</ele>
        <time>2013-06-15T18:32:27Z</time>
      </trkpt>
      <trkpt lat="40.249200" lon="-4.902350">
        <ele>1267.0</ele>
        <time>2013-06-15T18:32:28Z</time>
      </trkpt>
      <trkpt lat="40.249283" lon="-4.902267">
        <ele>1266.0</ele>
        <time>2013-06-15T18:32:29Z</time>
      </trkpt>
      <trkpt lat="40.249367" lon="-4.902200">
        <ele>1267.0</ele>
        <time>2013-06-15T18:32:30Z</time>
      </trkpt>
      <trkpt lat="40.249433" lon="-4.902133">
        <ele>1267.0</ele>
        <time>2013-06-15T18:32:31Z</time>
      </trkpt>
      <trkpt lat="40.249517" lon="-4.902067">
        <ele>1268.0</ele>
        <time>2013-06-15T18:32:32Z</time>
      </trkpt>
      <trkpt lat="40.249583" lon="-4.902000">
        <ele>1269.0</ele>
        <time>2013-06-15T18:32:33Z</time>
      </trkpt>
      <trkpt lat="40.249650" lon="-4.901950">
        <ele>1269.0</ele>
        <time>2013-06-15T18:32:34Z</time>
      </trkpt>
      <trkpt lat="40.249717" lon="-4.901917">
        <ele>1270.0</ele>
        <time>2013-06-15T18:32:35Z</time>
      </trkpt>
      <trkpt lat="40.249783" lon="-4.901883">
        <ele>1269.0</ele>
        <time>2013-06-15T18:32:36Z</time>
      </trkpt>
      <trkpt lat="40.249867" lon="-4.901867">
        <ele>1269.0</ele>
        <time>2013-06-15T18:32:37Z</time>
      </trkpt>
      <trkpt lat="40.249933" lon="-4.901850">
        <ele>1268.0</ele>
        <time>2013-06-15T18:32:38Z</time>
      </trkpt>
      <trkpt lat="40.250000" lon="-4.901850">
        <ele>1268.0</ele>
        <time>2013-06-15T18:32:39Z</time>
      </trkpt>
      <trkpt lat="40.250067" lon="-4.901850">
        <ele>1268.0</ele>
        <time>2013-06-15T18:32:40Z</time>
      </trkpt>
      <trkpt lat="40.250117" lon="-4.901850">
        <ele>1269.0</ele>
        <time>2013-06-15T18:32:41Z</time>
      </trkpt>
      <trkpt lat="40.250167" lon="-4.901867">
        <ele>1269.0</ele>
        <time>2013-06-15T18:32:42Z</time>
      </trkpt>
      <trkpt lat="40.250217" lon="-4.901883">
        <ele>1269.0</ele>
        <time>2013-06-15T18:32:43Z</time>
      </trkpt>
      <trkpt lat="40.250267" lon="-4.901900">
        <ele>1269.0</ele>
        <time>2013-06-15T18:32:44Z</time>
      </trkpt>
      <trkpt lat="40.250317" lon="-4.901917">
        <ele>1269.0</ele>
        <time>2013-06-15T18:32:45Z</time>
      </trkpt>
      <trkpt lat="40.250367" lon="-4.901933">
        <ele>1269.0</ele>
        <time>2013-06-15T18:32:46Z</time>
      </trkpt>
      <trkpt lat="40.250417" lon="-4.901950">
        <ele>1270.0</ele>
        <time>2013-06-15T18:32:47Z</time>
      </trkpt>
      <trkpt lat="40.250467" lon="-4.901967">
        <ele>1271.0</ele>
        <time>2013-06-15T18:32:48Z</time>
      </trkpt>
      <trkpt lat="40.250517" lon="-4.901983">
        <ele>1272.0</ele>
        <time>2013-06-15T18:32:49Z</time>
      </trkpt>
      <trkpt lat="40.250567" lon="-4.901983">
        <ele>1273.0</ele>
        <time>2013-06-15T18:32:50Z</time>
      </trkpt>
      <trkpt lat="40.250617" lon="-4.901983">
        <ele>1273.0</ele>
        <time>2013-06-15T18:32:51Z</time>
      </trkpt>
      <trkpt lat="40.250683" lon="-4.901983">
        <ele>1273.0</ele>
        <time>2013-06-15T18:32:52Z</time>
      </trkpt>
      <trkpt lat="40.250733" lon="-4.901983">
        <ele>1273.0</ele>
        <time>2013-06-15T18:32:53Z</time>
      </trkpt>
      <trkpt lat="40.250800" lon="-4.901983">
        <ele>1273.0</ele>
        <time>2013-06-15T18:32:54Z</time>
      </trkpt>
      <trkpt lat="40.250867" lon="-4.901967">
        <ele>1274.0</ele>
        <time>2013-06-15T18:32:55Z</time>
      </trkpt>
      <trkpt lat="40.250933" lon="-4.901967">
        <ele>1274.0</ele>
        <time>2013-06-15T18:32:56Z</time>
      </trkpt>
      <trkpt lat="40.250983" lon="-4.901983">
        <ele>1274.0</ele>
        <time>2013-06-15T18:32:57Z</time>
      </trkpt>
      <trkpt lat="40.251033" lon="-4.902000">
        <ele>1274.0</ele>
        <time>2013-06-15T18:32:58Z</time>
      </trkpt>
      <trkpt lat="40.251100" lon="-4.902000">
        <ele>1274.0</ele>
        <time>2013-06-15T18:32:59Z</time>
      </trkpt>
      <trkpt lat="40.251183" lon="-4.902000">
        <ele>1274.0</ele>
        <time>2013-06-15T18:33:00Z</time>
      </trkpt>
      <trkpt lat="40.251250" lon="-4.901983">
        <ele>1276.0</ele>
        <time>2013-06-15T18:33:01Z</time>
      </trkpt>
      <trkpt lat="40.251300" lon="-4.901967">
        <ele>1276.0</ele>
        <time>2013-06-15T18:33:02Z</time>
      </trkpt>
      <trkpt lat="40.251367" lon="-4.901967">
        <ele>1276.0</ele>
        <time>2013-06-15T18:33:03Z</time>
      </trkpt>
      <trkpt lat="40.251417" lon="-4.901967">
        <ele>1275.0</ele>
        <time>2013-06-15T18:33:04Z</time>
      </trkpt>
      <trkpt lat="40.251483" lon="-4.902017">
        <ele>1273.0</ele>
        <time>2013-06-15T18:33:05Z</time>
      </trkpt>
      <trkpt lat="40.251550" lon="-4.902067">
        <ele>1273.0</ele>
        <time>2013-06-15T18:33:06Z</time>
      </trkpt>
      <trkpt lat="40.251600" lon="-4.902117">
        <ele>1275.0</ele>
        <time>2013-06-15T18:33:07Z</time>
      </trkpt>
      <trkpt lat="40.251667" lon="-4.902133">
        <ele>1278.0</ele>
        <time>2013-06-15T18:33:08Z</time>
      </trkpt>
      <trkpt lat="40.251733" lon="-4.902133">
        <ele>1279.0</ele>
        <time>2013-06-15T18:33:09Z</time>
      </trkpt>
      <trkpt lat="40.251800" lon="-4.902133">
        <ele>1280.0</ele>
        <time>2013-06-15T18:33:10Z</time>
      </trkpt>
      <trkpt lat="40.251850" lon="-4.902133">
        <ele>1280.0</ele>
        <time>2013-06-15T18:33:11Z</time>
      </trkpt>
      <trkpt lat="40.251900" lon="-4.902167">
        <ele>1279.0</ele>
        <time>2013-06-15T18:33:12Z</time>
      </trkpt>
      <trkpt lat="40.251933" lon="-4.902200">
        <ele>1279.0</ele>
        <time>2013-06-15T18:33:13Z</time>
      </trkpt>
      <trkpt lat="40.251983" lon="-4.902233">
        <ele>1279.0</ele>
        <time>2013-06-15T18:33:14Z</time>
      </trkpt>
      <trkpt lat="40.252017" lon="-4.902267">
        <ele>1279.0</ele>
        <time>2013-06-15T18:33:15Z</time>
      </trkpt>
      <trkpt lat="40.252067" lon="-4.902300">
        <ele>1280.0</ele>
        <time>2013-06-15T18:33:16Z</time>
      </trkpt>
      <trkpt lat="40.252100" lon="-4.902317">
        <ele>1281.0</ele>
        <time>2013-06-15T18:33:17Z</time>
      </trkpt>
      <trkpt lat="40.252117" lon="-4.902350">
        <ele>1281.0</ele>
        <time>2013-06-15T18:33:18Z</time>
      </trkpt>
      <trkpt lat="40.252150" lon="-4.902383">
        <ele>1282.0</ele>
        <time>2013-06-15T18:33:19Z</time>
      </trkpt>
      <trkpt lat="40.252150" lon="-4.902417">
        <ele>1281.0</ele>
        <time>2013-06-15T18:33:20Z</time>
      </trkpt>
      <trkpt lat="40.252167" lon="-4.902467">
        <ele>1281.0</ele>
        <time>2013-06-15T18:33:21Z</time>
      </trkpt>
      <trkpt lat="40.252167" lon="-4.902517">
        <ele>1280.0</ele>
        <time>2013-06-15T18:33:22Z</time>
      </trkpt>
      <trkpt lat="40.252183" lon="-4.902567">
        <ele>1280.0</ele>
        <time>2013-06-15T18:33:23Z</time>
      </trkpt>
      <trkpt lat="40.252183" lon="-4.902617">
        <ele>1281.0</ele>
        <time>2013-06-15T18:33:24Z</time>
      </trkpt>
      <trkpt lat="40.252200" lon="-4.902667">
        <ele>1283.0</ele>
        <time>2013-06-15T18:33:25Z</time>
      </trkpt>
      <trkpt lat="40.252200" lon="-4.902683">
        <ele>1283.0</ele>
        <time>2013-06-15T18:33:26Z</time>
      </trkpt>
      <trkpt lat="40.252200" lon="-4.902717">
        <ele>1284.0</ele>
        <time>2013-06-15T18:33:27Z</time>
      </trkpt>
      <trkpt lat="40.252183" lon="-4.902750">
        <ele>1284.0</ele>
        <time>2013-06-15T18:33:28Z</time>
      </trkpt>
      <trkpt lat="40.252150" lon="-4.902767">
        <ele>1284.0</ele>
        <time>2013-06-15T18:33:29Z</time>
      </trkpt>
      <trkpt lat="40.252117" lon="-4.902783">
        <ele>1284.0</ele>
        <time>2013-06-15T18:33:30Z</time>
      </trkpt>
      <trkpt lat="40.252050" lon="-4.902783">
        <ele>1284.0</ele>
        <time>2013-06-15T18:33:31Z</time>
      </trkpt>
      <trkpt lat="40.252000" lon="-4.902783">
        <ele>1285.0</ele>
        <time>2013-06-15T18:33:32Z</time>
      </trkpt>
      <trkpt lat="40.251950" lon="-4.902783">
        <ele>1286.0</ele>
        <time>2013-06-15T18:33:33Z</time>
      </trkpt>
      <trkpt lat="40.251917" lon="-4.902800">
        <ele>1287.0</ele>
        <time>2013-06-15T18:33:34Z</time>
      </trkpt>
      <trkpt lat="40.251867" lon="-4.902817">
        <ele>1287.0</ele>
        <time>2013-06-15T18:33:35Z</time>
      </trkpt>
      <trkpt lat="40.251833" lon="-4.902833">
        <ele>1287.0</ele>
        <time>2013-06-15T18:33:36Z</time>
      </trkpt>
      <trkpt lat="40.251783" lon="-4.902833">
        <ele>1287.0</ele>
        <time>2013-06-15T18:33:37Z</time>
      </trkpt>
      <trkpt lat="40.251733" lon="-4.902850">
        <ele>1287.0</ele>
        <time>2013-06-15T18:33:38Z</time>
      </trkpt>
      <trkpt lat="40.251683" lon="-4.902867">
        <ele>1287.0</ele>
        <time>2013-06-15T18:33:39Z</time>
      </trkpt>
      <trkpt lat="40.251633" lon="-4.902883">
        <ele>1287.0</ele>
        <time>2013-06-15T18:33:40Z</time>
      </trkpt>
      <trkpt lat="40.251583" lon="-4.902900">
        <ele>1287.0</ele>
        <time>2013-06-15T18:33:41Z</time>
      </trkpt>
      <trkpt lat="40.251533" lon="-4.902917">
        <ele>1287.0</ele>
        <time>2013-06-15T18:33:42Z</time>
      </trkpt>
      <trkpt lat="40.251483" lon="-4.902917">
        <ele>1288.0</ele>
        <time>2013-06-15T18:33:43Z</time>
      </trkpt>
      <trkpt lat="40.251417" lon="-4.902917">
        <ele>1288.0</ele>
        <time>2013-06-15T18:33:44Z</time>
      </trkpt>
      <trkpt lat="40.251350" lon="-4.902917">
        <ele>1288.0</ele>
        <time>2013-06-15T18:33:45Z</time>
      </trkpt>
      <trkpt lat="40.251283" lon="-4.902917">
        <ele>1288.0</ele>
        <time>2013-06-15T18:33:46Z</time>
      </trkpt>
      <trkpt lat="40.251217" lon="-4.902917">
        <ele>1289.0</ele>
        <time>2013-06-15T18:33:47Z</time>
      </trkpt>
      <trkpt lat="40.251150" lon="-4.902900">
        <ele>1290.0</ele>
        <time>2013-06-15T18:33:48Z</time>
      </trkpt>
      <trkpt lat="40.251083" lon="-4.902883">
        <ele>1290.0</ele>
        <time>2013-06-15T18:33:49Z</time>
      </trkpt>
      <trkpt lat="40.251000" lon="-4.902850">
        <ele>1291.0</ele>
        <time>2013-06-15T18:33:50Z</time>
      </trkpt>
      <trkpt lat="40.250933" lon="-4.902833">
        <ele>1291.0</ele>
        <time>2013-06-15T18:33:51Z</time>
      </trkpt>
      <trkpt lat="40.250850" lon="-4.902817">
        <ele>1291.0</ele>
        <time>2013-06-15T18:33:52Z</time>
      </trkpt>
      <trkpt lat="40.250767" lon="-4.902783">
        <ele>1291.0</ele>
        <time>2013-06-15T18:33:53Z</time>
      </trkpt>
      <trkpt lat="40.250683" lon="-4.902750">
        <ele>1291.0</ele>
        <time>2013-06-15T18:33:54Z</time>
      </trkpt>
      <trkpt lat="40.250617" lon="-4.902700">
        <ele>1292.0</ele>
        <time>2013-06-15T18:33:55Z</time>
      </trkpt>
      <trkpt lat="40.250533" lon="-4.902650">
        <ele>1292.0</ele>
        <time>2013-06-15T18:33:56Z</time>
      </trkpt>
      <trkpt lat="40.250450" lon="-4.902617">
        <ele>1292.0</ele>
        <time>2013-06-15T18:33:57Z</time>
      </trkpt>
      <trkpt lat="40.250367" lon="-4.902583">
        <ele>1292.0</ele>
        <time>2013-06-15T18:33:58Z</time>
      </trkpt>
      <trkpt lat="40.250283" lon="-4.902567">
        <ele>1292.0</ele>
        <time>2013-06-15T18:33:59Z</time>
      </trkpt>
      <trkpt lat="40.250217" lon="-4.902567">
        <ele>1292.0</ele>
        <time>2013-06-15T18:34:00Z</time>
      </trkpt>
      <trkpt lat="40.250150" lon="-4.902567">
        <ele>1292.0</ele>
        <time>2013-06-15T18:34:01Z</time>
      </trkpt>
      <trkpt lat="40.250117" lon="-4.902583">
        <ele>1292.0</ele>
        <time>2013-06-15T18:34:02Z</time>
      </trkpt>
      <trkpt lat="40.250083" lon="-4.902617">
        <ele>1292.0</ele>
        <time>2013-06-15T18:34:03Z</time>
      </trkpt>
      <trkpt lat="40.250067" lon="-4.902650">
        <ele>1292.0</ele>
        <time>2013-06-15T18:34:04Z</time>
      </trkpt>
      <trkpt lat="40.250067" lon="-4.902700">
        <ele>1292.0</ele>
        <time>2013-06-15T18:34:05Z</time>
      </trkpt>
      <trkpt lat="40.250067" lon="-4.902733">
        <ele>1292.0</ele>
        <time>2013-06-15T18:34:06Z</time>
      </trkpt>
      <trkpt lat="40.250067" lon="-4.902783">
        <ele>1292.0</ele>
        <time>2013-06-15T18:34:07Z</time>
      </trkpt>
      <trkpt lat="40.250067" lon="-4.902817">
        <ele>1292.0</ele>
        <time>2013-06-15T18:34:08Z</time>
      </trkpt>
      <trkpt lat="40.250067" lon="-4.902867">
        <ele>1293.0</ele>
        <time>2013-06-15T18:34:09Z</time>
      </trkpt>
      <trkpt lat="40.250067" lon="-4.902900">
        <ele>1293.0</ele>
        <time>2013-06-15T18:34:10Z</time>
      </trkpt>
      <trkpt lat="40.250083" lon="-4.902933">
        <ele>1293.0</ele>
        <time>2013-06-15T18:34:11Z</time>
      </trkpt>
      <trkpt lat="40.250117" lon="-4.902983">
        <ele>1292.0</ele>
        <time>2013-06-15T18:34:12Z</time>
      </trkpt>
      <trkpt lat="40.250150" lon="-4.903033">
        <ele>1293.0</ele>
        <time>2013-06-15T18:34:13Z</time>
      </trkpt>
      <trkpt lat="40.250167" lon="-4.903067">
        <ele>1293.0</ele>
        <time>2013-06-15T18:34:14Z</time>
      </trkpt>
      <trkpt lat="40.250200" lon="-4.903117">
        <ele>1293.0</ele>
        <time>2013-06-15T18:34:15Z</time>
      </trkpt>
      <trkpt lat="40.250250" lon="-4.903150">
        <ele>1293.0</ele>
        <time>2013-06-15T18:34:16Z</time>
      </trkpt>
      <trkpt lat="40.250300" lon="-4.903167">
        <ele>1293.0</ele>
        <time>2013-06-15T18:34:17Z</time>
      </trkpt>
      <trkpt lat="40.250350" lon="-4.903183">
        <ele>1292.0</ele>
        <time>2013-06-15T18:34:18Z</time>
      </trkpt>
      <trkpt lat="40.250417" lon="-4.903183">
        <ele>1293.0</ele>
        <time>2013-06-15T18:34:19Z</time>
      </trkpt>
      <trkpt lat="40.250500" lon="-4.903167">
        <ele>1293.0</ele>
        <time>2013-06-15T18:34:20Z</time>
      </trkpt>
      <trkpt lat="40.250567" lon="-4.903133">
        <ele>1293.0</ele>
        <time>2013-06-15T18:34:21Z</time>
      </trkpt>
      <trkpt lat="40.250650" lon="-4.903083">
        <ele>1292.0</ele>
        <time>2013-06-15T18:34:22Z</time>
      </trkpt>
      <trkpt lat="40.250733" lon="-4.903050">
        <ele>1292.0</ele>
        <time>2013-06-15T18:34:23Z</time>
      </trkpt>
      <trkpt lat="40.250817" lon="-4.903017">
        <ele>1291.0</ele>
        <time>2013-06-15T18:34:24Z</time>
      </trkpt>
      <trkpt lat="40.250900" lon="-4.902983">
        <ele>1292.0</ele>
        <time>2013-06-15T18:34:25Z</time>
      </trkpt>
      <trkpt lat="40.250983" lon="-4.902950">
        <ele>1292.0</ele>
        <time>2013-06-15T18:34:26Z</time>
      </trkpt>
      <trkpt lat="40.251067" lon="-4.902917">
        <ele>1292.0</ele>
        <time>2013-06-15T18:34:27Z</time>
      </trkpt>
      <trkpt lat="40.251150" lon="-4.902883">
        <ele>1291.0</ele>
        <time>2013-06-15T18:34:28Z</time>
      </trkpt>
      <trkpt lat="40.251217" lon="-4.902850">
        <ele>1290.0</ele>
        <time>2013-06-15T18:34:29Z</time>
      </trkpt>
      <trkpt lat="40.251300" lon="-4.902833">
        <ele>1289.0</ele>
        <time>2013-06-15T18:34:30Z</time>
      </trkpt>
      <trkpt lat="40.251383" lon="-4.902817">
        <ele>1288.0</ele>
        <time>2013-06-15T18:34:31Z</time>
      </trkpt>
      <trkpt lat="40.251467" lon="-4.902817">
        <ele>1288.0</ele>
        <time>2013-06-15T18:34:32Z</time>
      </trkpt>
      <trkpt lat="40.251533" lon="-4.902800">
        <ele>1287.0</ele>
        <time>2013-06-15T18:34:33Z</time>
      </trkpt>
      <trkpt lat="40.251617" lon="-4.902800">
        <ele>1287.0</ele>
        <time>2013-06-15T18:34:34Z</time>
      </trkpt>
      <trkpt lat="40.251683" lon="-4.902800">
        <ele>1287.0</ele>
        <time>2013-06-15T18:34:35Z</time>
      </trkpt>
      <trkpt lat="40.251767" lon="-4.902817">
        <ele>1287.0</ele>
        <time>2013-06-15T18:34:36Z</time>
      </trkpt>
      <trkpt lat="40.251833" lon="-4.902817">
        <ele>1286.0</ele>
        <time>2013-06-15T18:34:37Z</time>
      </trkpt>
      <trkpt lat="40.251900" lon="-4.902833">
        <ele>1285.0</ele>
        <time>2013-06-15T18:34:38Z</time>
      </trkpt>
      <trkpt lat="40.251967" lon="-4.902850">
        <ele>1285.0</ele>
        <time>2013-06-15T18:34:39Z</time>
      </trkpt>
      <trkpt lat="40.252017" lon="-4.902883">
        <ele>1285.0</ele>
        <time>2013-06-15T18:34:40Z</time>
      </trkpt>
      <trkpt lat="40.252067" lon="-4.902917">
        <ele>1286.0</ele>
        <time>2013-06-15T18:34:41Z</time>
      </trkpt>
      <trkpt lat="40.252100" lon="-4.902950">
        <ele>1286.0</ele>
        <time>2013-06-15T18:34:42Z</time>
      </trkpt>
      <trkpt lat="40.252117" lon="-4.903000">
        <ele>1285.0</ele>
        <time>2013-06-15T18:34:43Z</time>
      </trkpt>
      <trkpt lat="40.252133" lon="-4.903033">
        <ele>1285.0</ele>
        <time>2013-06-15T18:34:44Z</time>
      </trkpt>
      <trkpt lat="40.252133" lon="-4.903083">
        <ele>1284.0</ele>
        <time>2013-06-15T18:34:45Z</time>
      </trkpt>
      <trkpt lat="40.252133" lon="-4.903117">
        <ele>1283.0</ele>
        <time>2013-06-15T18:34:46Z</time>
      </trkpt>
      <trkpt lat="40.252100" lon="-4.903150">
        <ele>1283.0</ele>
        <time>2013-06-15T18:34:47Z</time>
      </trkpt>
      <trkpt lat="40.252050" lon="-4.903150">
        <ele>1282.0</ele>
        <time>2013-06-15T18:34:48Z</time>
      </trkpt>
      <trkpt lat="40.252000" lon="-4.903150">
        <ele>1281.0</ele>
        <time>2013-06-15T18:34:49Z</time>
      </trkpt>
      <trkpt lat="40.251933" lon="-4.903150">
        <ele>1281.0</ele>
        <time>2013-06-15T18:34:50Z</time>
      </trkpt>
      <trkpt lat="40.251867" lon="-4.903133">
        <ele>1280.0</ele>
        <time>2013-06-15T18:34:51Z</time>
      </trkpt>
      <trkpt lat="40.251800" lon="-4.903117">
        <ele>1280.0</ele>
        <time>2013-06-15T18:34:52Z</time>
      </trkpt>
      <trkpt lat="40.251733" lon="-4.903083">
        <ele>1280.0</ele>
        <time>2013-06-15T18:34:53Z</time>
      </trkpt>
      <trkpt lat="40.251650" lon="-4.903067">
        <ele>1280.0</ele>
        <time>2013-06-15T18:34:54Z</time>
      </trkpt>
      <trkpt lat="40.251583" lon="-4.903067">
        <ele>1280.0</ele>
        <time>2013-06-15T18:34:55Z</time>
      </trkpt>
      <trkpt lat="40.251500" lon="-4.903050">
        <ele>1280.0</ele>
        <time>2013-06-15T18:34:56Z</time>
      </trkpt>
      <trkpt lat="40.251433" lon="-4.903017">
        <ele>1281.0</ele>
        <time>2013-06-15T18:34:57Z</time>
      </trkpt>
      <trkpt lat="40.251383" lon="-4.902983">
        <ele>1281.0</ele>
        <time>2013-06-15T18:34:58Z</time>
      </trkpt>
      <trkpt lat="40.251317" lon="-4.902950">
        <ele>1281.0</ele>
        <time>2013-06-15T18:34:59Z</time>
      </trkpt>
      <trkpt lat="40.251250" lon="-4.902917">
        <ele>1280.0</ele>
        <time>2013-06-15T18:35:00Z</time>
      </trkpt>
      <trkpt lat="40.251167" lon="-4.902883">
        <ele>1279.0</ele>
        <time>2013-06-15T18:35:01Z</time>
      </trkpt>
      <trkpt lat="40.251083" lon="-4.902850">
        <ele>1278.0</ele>
        <time>2013-06-15T18:35:02Z</time>
      </trkpt>
      <trkpt lat="40.251017" lon="-4.902817">
        <ele>1278.0</ele>
        <time>2013-06-15T18:35:03Z</time>
      </trkpt>
      <trkpt lat="40.250933" lon="-4.902767">
        <ele>1277.0</ele>
        <time>2013-06-15T18:35:04Z</time>
      </trkpt>
      <trkpt lat="40.250850" lon="-4.902717">
        <ele>1277.0</ele>
        <time>2013-06-15T18:35:05Z</time>
      </trkpt>
      <trkpt lat="40.250767" lon="-4.902667">
        <ele>1276.0</ele>
        <time>2013-06-15T18:35:06Z</time>
      </trkpt>
      <trkpt lat="40.250683" lon="-4.902617">
        <ele>1275.0</ele>
        <time>2013-06-15T18:35:07Z</time>
      </trkpt>
      <trkpt lat="40.250583" lon="-4.902583">
        <ele>1275.0</ele>
        <time>2013-06-15T18:35:08Z</time>
      </trkpt>
      <trkpt lat="40.250500" lon="-4.902550">
        <ele>1276.0</ele>
        <time>2013-06-15T18:35:09Z</time>
      </trkpt>
      <trkpt lat="40.250417" lon="-4.902517">
        <ele>1277.0</ele>
        <time>2013-06-15T18:35:10Z</time>
      </trkpt>
      <trkpt lat="40.250333" lon="-4.902483">
        <ele>1278.0</ele>
        <time>2013-06-15T18:35:11Z</time>
      </trkpt>
      <trkpt lat="40.250250" lon="-4.902450">
        <ele>1277.0</ele>
        <time>2013-06-15T18:35:12Z</time>
      </trkpt>
      <trkpt lat="40.250150" lon="-4.902433">
        <ele>1277.0</ele>
        <time>2013-06-15T18:35:13Z</time>
      </trkpt>
      <trkpt lat="40.250067" lon="-4.902417">
        <ele>1276.0</ele>
        <time>2013-06-15T18:35:14Z</time>
      </trkpt>
      <trkpt lat="40.249983" lon="-4.902383">
        <ele>1276.0</ele>
        <time>2013-06-15T18:35:15Z</time>
      </trkpt>
      <trkpt lat="40.249900" lon="-4.902367">
        <ele>1276.0</ele>
        <time>2013-06-15T18:35:16Z</time>
      </trkpt>
      <trkpt lat="40.249817" lon="-4.902350">
        <ele>1275.0</ele>
        <time>2013-06-15T18:35:17Z</time>
      </trkpt>
      <trkpt lat="40.249733" lon="-4.902350">
        <ele>1275.0</ele>
        <time>2013-06-15T18:35:18Z</time>
      </trkpt>
      <trkpt lat="40.249667" lon="-4.902367">
        <ele>1274.0</ele>
        <time>2013-06-15T18:35:19Z</time>
      </trkpt>
      <trkpt lat="40.249633" lon="-4.902400">
        <ele>1274.0</ele>
        <time>2013-06-15T18:35:20Z</time>
      </trkpt>
      <trkpt lat="40.249600" lon="-4.902450">
        <ele>1274.0</ele>
        <time>2013-06-15T18:35:21Z</time>
      </trkpt>
      <trkpt lat="40.249567" lon="-4.902500">
        <ele>1275.0</ele>
        <time>2013-06-15T18:35:22Z</time>
      </trkpt>
      <trkpt lat="40.249533" lon="-4.902550">
        <ele>1275.0</ele>
        <time>2013-06-15T18:35:23Z</time>
      </trkpt>
      <trkpt lat="40.249517" lon="-4.902600">
        <ele>1275.0</ele>
        <time>2013-06-15T18:35:24Z</time>
      </trkpt>
      <trkpt lat="40.249500" lon="-4.902650">
        <ele>1274.0</ele>
        <time>2013-06-15T18:35:25Z</time>
      </trkpt>
      <trkpt lat="40.249500" lon="-4.902733">
        <ele>1274.0</ele>
        <time>2013-06-15T18:35:26Z</time>
      </trkpt>
      <trkpt lat="40.249517" lon="-4.902783">
        <ele>1273.0</ele>
        <time>2013-06-15T18:35:27Z</time>
      </trkpt>
      <trkpt lat="40.249550" lon="-4.902833">
        <ele>1273.0</ele>
        <time>2013-06-15T18:35:28Z</time>
      </trkpt>
      <trkpt lat="40.249617" lon="-4.902850">
        <ele>1273.0</ele>
        <time>2013-06-15T18:35:29Z</time>
      </trkpt>
      <trkpt lat="40.249700" lon="-4.902817">
        <ele>1273.0</ele>
        <time>2013-06-15T18:35:30Z</time>
      </trkpt>
      <trkpt lat="40.249783" lon="-4.902783">
        <ele>1274.0</ele>
        <time>2013-06-15T18:35:31Z</time>
      </trkpt>
      <trkpt lat="40.249850" lon="-4.902750">
        <ele>1276.0</ele>
        <time>2013-06-15T18:35:32Z</time>
      </trkpt>
      <trkpt lat="40.249917" lon="-4.902700">
        <ele>1276.0</ele>
        <time>2013-06-15T18:35:33Z</time>
      </trkpt>
      <trkpt lat="40.250000" lon="-4.902633">
        <ele>1276.0</ele>
        <time>2013-06-15T18:35:34Z</time>
      </trkpt>
      <trkpt lat="40.250083" lon="-4.902567">
        <ele>1276.0</ele>
        <time>2013-06-15T18:35:35Z</time>
      </trkpt>
      <trkpt lat="40.250167" lon="-4.902517">
        <ele>1276.0</ele>
        <time>2013-06-15T18:35:36Z</time>
      </trkpt>
      <trkpt lat="40.250250" lon="-4.902483">
        <ele>1277.0</ele>
        <time>2013-06-15T18:35:37Z</time>
      </trkpt>
      <trkpt lat="40.250333" lon="-4.902433">
        <ele>1277.0</ele>
        <time>2013-06-15T18:35:38Z</time>
      </trkpt>
      <trkpt lat="40.250400" lon="-4.902417">
        <ele>1277.0</ele>
        <time>2013-06-15T18:35:39Z</time>
      </trkpt>
      <trkpt lat="40.250483" lon="-4.902383">
        <ele>1277.0</ele>
        <time>2013-06-15T18:35:40Z</time>
      </trkpt>
      <trkpt lat="40.250567" lon="-4.902367">
        <ele>1276.0</ele>
        <time>2013-06-15T18:35:41Z</time>
      </trkpt>
      <trkpt lat="40.250650" lon="-4.902350">
        <ele>1276.0</ele>
        <time>2013-06-15T18:35:42Z</time>
      </trkpt>
      <trkpt lat="40.250733" lon="-4.902333">
        <ele>1276.0</ele>
        <time>2013-06-15T18:35:43Z</time>
      </trkpt>
      <trkpt lat="40.250817" lon="-4.902300">
        <ele>1276.0</ele>
        <time>2013-06-15T18:35:44Z</time>
      </trkpt>
      <trkpt lat="40.250883" lon="-4.902283">
        <ele>1277.0</ele>
        <time>2013-06-15T18:35:45Z</time>
      </trkpt>
      <trkpt lat="40.250967" lon="-4.902267">
        <ele>1277.0</ele>
        <time>2013-06-15T18:35:46Z</time>
      </trkpt>
      <trkpt lat="40.251033" lon="-4.902267">
        <ele>1276.0</ele>
        <time>2013-06-15T18:35:47Z</time>
      </trkpt>
      <trkpt lat="40.251117" lon="-4.902267">
        <ele>1276.0</ele>
        <time>2013-06-15T18:35:48Z</time>
      </trkpt>
      <trkpt lat="40.251200" lon="-4.902283">
        <ele>1276.0</ele>
        <time>2013-06-15T18:35:49Z</time>
      </trkpt>
      <trkpt lat="40.251267" lon="-4.902283">
        <ele>1277.0</ele>
        <time>2013-06-15T18:35:50Z</time>
      </trkpt>
      <trkpt lat="40.251350" lon="-4.902300">
        <ele>1277.0</ele>
        <time>2013-06-15T18:35:51Z</time>
      </trkpt>
      <trkpt lat="40.251417" lon="-4.902300">
        <ele>1277.0</ele>
        <time>2013-06-15T18:35:52Z</time>
      </trkpt>
      <trkpt lat="40.251483" lon="-4.902333">
        <ele>1277.0</ele>
        <time>2013-06-15T18:35:53Z</time>
      </trkpt>
      <trkpt lat="40.251550" lon="-4.902350">
        <ele>1278.0</ele>
        <time>2013-06-15T18:35:54Z</time>
      </trkpt>
      <trkpt lat="40.251617" lon="-4.902367">
        <ele>1279.0</ele>
        <time>2013-06-15T18:35:55Z</time>
      </trkpt>
      <trkpt lat="40.251683" lon="-4.902383">
        <ele>1280.0</ele>
        <time>2013-06-15T18:35:56Z</time>
      </trkpt>
      <trkpt lat="40.251750" lon="-4.902400">
        <ele>1280.0</ele>
        <time>2013-06-15T18:35:57Z</time>
      </trkpt>
      <trkpt lat="40.251800" lon="-4.902433">
        <ele>1281.0</ele>
        <time>2013-06-15T18:35:58Z</time>
      </trkpt>
      <trkpt lat="40.251850" lon="-4.902450">
        <ele>1282.0</ele>
        <time>2013-06-15T18:35:59Z</time>
      </trkpt>
      <trkpt lat="40.251883" lon="-4.902483">
        <ele>1283.0</ele>
        <time>2013-06-15T18:36:00Z</time>
      </trkpt>
      <trkpt lat="40.251900" lon="-4.902500">
        <ele>1283.0</ele>
        <time>2013-06-15T18:36:01Z</time>
      </trkpt>
      <trkpt lat="40.251900" lon="-4.902533">
        <ele>1283.0</ele>
        <time>2013-06-15T18:36:02Z</time>
      </trkpt>
      <trkpt lat="40.251883" lon="-4.902583">
        <ele>1282.0</ele>
        <time>2013-06-15T18:36:03Z</time>
      </trkpt>
      <trkpt lat="40.251867" lon="-4.902617">
        <ele>1281.0</ele>
        <time>2013-06-15T18:36:04Z</time>
      </trkpt>
      <trkpt lat="40.251817" lon="-4.902650">
        <ele>1280.0</ele>
        <time>2013-06-15T18:36:05Z</time>
      </trkpt>
      <trkpt lat="40.251750" lon="-4.902667">
        <ele>1280.0</ele>
        <time>2013-06-15T18:36:06Z</time>
      </trkpt>
      <trkpt lat="40.251700" lon="-4.902667">
        <ele>1280.0</ele>
        <time>2013-06-15T18:36:07Z</time>
      </trkpt>
      <trkpt lat="40.251633" lon="-4.902650">
        <ele>1280.0</ele>
        <time>2013-06-15T18:36:08Z</time>
      </trkpt>
      <trkpt lat="40.251567" lon="-4.902617">
        <ele>1280.0</ele>
        <time>2013-06-15T18:36:09Z</time>
      </trkpt>
      <trkpt lat="40.251500" lon="-4.902600">
        <ele>1279.0</ele>
        <time>2013-06-15T18:36:10Z</time>
      </trkpt>
      <trkpt lat="40.251417" lon="-4.902583">
        <ele>1278.0</ele>
        <time>2013-06-15T18:36:11Z</time>
      </trkpt>
      <trkpt lat="40.251333" lon="-4.902567">
        <ele>1277.0</ele>
        <time>2013-06-15T18:36:12Z</time>
      </trkpt>
      <trkpt lat="40.251250" lon="-4.902550">
        <ele>1278.0</ele>
        <time>2013-06-15T18:36:13Z</time>
      </trkpt>
      <trkpt lat="40.251167" lon="-4.902533">
        <ele>1278.0</ele>
        <time>2013-06-15T18:36:14Z</time>
      </trkpt>
      <trkpt lat="40.251083" lon="-4.902500">
        <ele>1279.0</ele>
        <time>2013-06-15T18:36:15Z</time>
      </trkpt>
      <trkpt lat="40.251017" lon="-4.902483">
        <ele>1279.0</ele>
        <time>2013-06-15T18:36:16Z</time>
      </trkpt>
      <trkpt lat="40.250933" lon="-4.902450">
        <ele>1278.0</ele>
        <time>2013-06-15T18:36:17Z</time>
      </trkpt>
      <trkpt lat="40.250850" lon="-4.902433">
        <ele>1277.0</ele>
        <time>2013-06-15T18:36:18Z</time>
      </trkpt>
      <trkpt lat="40.250783" lon="-4.902417">
        <ele>1276.0</ele>
        <time>2013-06-15T18:36:19Z</time>
      </trkpt>
      <trkpt lat="40.250700" lon="-4.902400">
        <ele>1274.0</ele>
        <time>2013-06-15T18:36:20Z</time>
      </trkpt>
      <trkpt lat="40.250600" lon="-4.902383">
        <ele>1273.0</ele>
        <time>2013-06-15T18:36:21Z</time>
      </trkpt>
      <trkpt lat="40.250517" lon="-4.902350">
        <ele>1272.0</ele>
        <time>2013-06-15T18:36:22Z</time>
      </trkpt>
      <trkpt lat="40.250433" lon="-4.902317">
        <ele>1270.0</ele>
        <time>2013-06-15T18:36:23Z</time>
      </trkpt>
      <trkpt lat="40.250350" lon="-4.902300">
        <ele>1269.0</ele>
        <time>2013-06-15T18:36:24Z</time>
      </trkpt>
      <trkpt lat="40.250267" lon="-4.902283">
        <ele>1268.0</ele>
        <time>2013-06-15T18:36:25Z</time>
      </trkpt>
      <trkpt lat="40.250183" lon="-4.902283">
        <ele>1266.0</ele>
        <time>2013-06-15T18:36:26Z</time>
      </trkpt>
      <trkpt lat="40.250100" lon="-4.902300">
        <ele>1265.0</ele>
        <time>2013-06-15T18:36:27Z</time>
      </trkpt>
      <trkpt lat="40.250017" lon="-4.902300">
        <ele>1265.0</ele>
        <time>2013-06-15T18:36:28Z</time>
      </trkpt>
      <trkpt lat="40.249917" lon="-4.902300">
        <ele>1265.0</ele>
        <time>2013-06-15T18:36:29Z</time>
      </trkpt>
      <trkpt lat="40.249817" lon="-4.902300">
        <ele>1266.0</ele>
        <time>2013-06-15T18:36:30Z</time>
      </trkpt>
      <trkpt lat="40.249733" lon="-4.902300">
        <ele>1266.0</ele>
        <time>2013-06-15T18:36:31Z</time>
      </trkpt>
      <trkpt lat="40.249650" lon="-4.902300">
        <ele>1267.0</ele>
        <time>2013-06-15T18:36:32Z</time>
      </trkpt>
      <trkpt lat="40.249567" lon="-4.902267">
        <ele>1268.0</ele>
        <time>2013-06-15T18:36:33Z</time>
      </trkpt>
      <trkpt lat="40.249467" lon="-4.902233">
        <ele>1267.0</ele>
        <time>2013-06-15T18:36:34Z</time>
      </trkpt>
      <trkpt lat="40.249383" lon="-4.902233">
        <ele>1266.0</ele>
        <time>2013-06-15T18:36:35Z</time>
      </trkpt>
      <trkpt lat="40.249283" lon="-4.902233">
        <ele>1265.0</ele>
        <time>2013-06-15T18:36:36Z</time>
      </trkpt>
      <trkpt lat="40.249183" lon="-4.902267">
        <ele>1265.0</ele>
        <time>2013-06-15T18:36:37Z</time>
      </trkpt>
      <trkpt lat="40.249100" lon="-4.902283">
        <ele>1266.0</ele>
        <time>2013-06-15T18:36:38Z</time>
      </trkpt>
      <trkpt lat="40.249033" lon="-4.902300">
        <ele>1267.0</ele>
        <time>2013-06-15T18:36:39Z</time>
      </trkpt>
      <trkpt lat="40.248967" lon="-4.902317">
        <ele>1268.0</ele>
        <time>2013-06-15T18:36:40Z</time>
      </trkpt>
      <trkpt lat="40.248900" lon="-4.902367">
        <ele>1269.0</ele>
        <time>2013-06-15T18:36:41Z</time>
      </trkpt>
      <trkpt lat="40.248850" lon="-4.902417">
        <ele>1268.0</ele>
        <time>2013-06-15T18:36:42Z</time>
      </trkpt>
      <trkpt lat="40.248817" lon="-4.902467">
        <ele>1269.0</ele>
        <time>2013-06-15T18:36:43Z</time>
      </trkpt>
      <trkpt lat="40.248783" lon="-4.902500">
        <ele>1269.0</ele>
        <time>2013-06-15T18:36:44Z</time>
      </trkpt>
      <trkpt lat="40.248750" lon="-4.902517">
        <ele>1269.0</ele>
        <time>2013-06-15T18:36:45Z</time>
      </trkpt>
      <trkpt lat="40.248717" lon="-4.902550">
        <ele>1267.0</ele>
        <time>2013-06-15T18:36:46Z</time>
      </trkpt>
      <trkpt lat="40.248667" lon="-4.902583">
        <ele>1265.0</ele>
        <time>2013-06-15T18:36:47Z</time>
      </trkpt>
      <trkpt lat="40.248650" lon="-4.902633">
        <ele>1262.0</ele>
        <time>2013-06-15T18:36:48Z</time>
      </trkpt>
      <trkpt lat="40.248633" lon="-4.902683">
        <ele>1260.0</ele>
        <time>2013-06-15T18:36:49Z</time>
      </trkpt>
      <trkpt lat="40.248633" lon="-4.902733">
        <ele>1259.0</ele>
        <time>2013-06-15T18:36:50Z</time>
      </trkpt>
      <trkpt lat="40.248667" lon="-4.902783">
        <ele>1258.0</ele>
        <time>2013-06-15T18:36:51Z</time>
      </trkpt>
      <trkpt lat="40.248700" lon="-4.902800">
        <ele>1257.0</ele>
        <time>2013-06-15T18:36:52Z</time>
      </trkpt>
      <trkpt lat="40.248750" lon="-4.902800">
        <ele>1256.0</ele>
        <time>2013-06-15T18:36:53Z</time>
      </trkpt>
      <trkpt lat="40.248817" lon="-4.902783">
        <ele>1255.0</ele>
        <time>2013-06-15T18:36:54Z</time>
      </trkpt>
      <trkpt lat="40.248900" lon="-4.902750">
        <ele>1253.0</ele>
        <time>2013-06-15T18:36:55Z</time>
      </trkpt>
      <trkpt lat="40.248983" lon="-4.902700">
        <ele>1253.0</ele>
        <time>2013-06-15T18:36:56Z</time>
      </trkpt>
      <trkpt lat="40.249067" lon="-4.902617">
        <ele>1252.0</ele>
        <time>2013-06-15T18:36:57Z</time>
      </trkpt>
      <trkpt lat="40.249150" lon="-4.902550">
        <ele>1252.0</ele>
        <time>2013-06-15T18:36:58Z</time>
      </trkpt>
      <trkpt lat="40.249217" lon="-4.902500">
        <ele>1252.0</ele>
        <time>2013-06-15T18:36:59Z</time>
      </trkpt>
      <trkpt lat="40.249300" lon="-4.902450">
        <ele>1253.0</ele>
        <time>2013-06-15T18:37:00Z</time>
      </trkpt>
      <trkpt lat="40.249367" lon="-4.902417">
        <ele>1253.0</ele>
        <time>2013-06-15T18:37:01Z</time>
      </trkpt>
      <trkpt lat="40.249450" lon="-4.902383">
        <ele>1254.0</ele>
        <time>2013-06-15T18:37:02Z</time>
      </trkpt>
      <trkpt lat="40.249533" lon="-4.902350">
        <ele>1255.0</ele>
        <time>2013-06-15T18:37:03Z</time>
      </trkpt>
      <trkpt lat="40.249617" lon="-4.902317">
        <ele>1256.0</ele>
        <time>2013-06-15T18:37:04Z</time>
      </trkpt>
      <trkpt lat="40.249683" lon="-4.902283">
        <ele>1257.0</ele>
        <time>2013-06-15T18:37:05Z</time>
      </trkpt>
      <trkpt lat="40.249750" lon="-4.902250">
        <ele>1257.0</ele>
        <time>2013-06-15T18:37:06Z</time>
      </trkpt>
      <trkpt lat="40.249817" lon="-4.902233">
        <ele>1257.0</ele>
        <time>2013-06-15T18:37:07Z</time>
      </trkpt>
      <trkpt lat="40.249900" lon="-4.902217">
        <ele>1257.0</ele>
        <time>2013-06-15T18:37:08Z</time>
      </trkpt>
      <trkpt lat="40.249983" lon="-4.902200">
        <ele>1257.0</ele>
        <time>2013-06-15T18:37:09Z</time>
      </trkpt>
      <trkpt lat="40.250067" lon="-4.902183">
        <ele>1258.0</ele>
        <time>2013-06-15T18:37:10Z</time>
      </trkpt>
      <trkpt lat="40.250133" lon="-4.902150">
        <ele>1260.0</ele>
        <time>2013-06-15T18:37:11Z</time>
      </trkpt>
      <trkpt lat="40.250200" lon="-4.902133">
        <ele>1260.0</ele>
        <time>2013-06-15T18:37:12Z</time>
      </trkpt>
      <trkpt lat="40.250267" lon="-4.902117">
        <ele>1260.0</ele>
        <time>2013-06-15T18:37:13Z</time>
      </trkpt>
      <trkpt lat="40.250333" lon="-4.902100">
        <ele>1260.0</ele>
        <time>2013-06-15T18:37:14Z</time>
      </trkpt>
      <trkpt lat="40.250400" lon="-4.902100">
        <ele>1259.0</ele>
        <time>2013-06-15T18:37:15Z</time>
      </trkpt>
      <trkpt lat="40.250467" lon="-4.902117">
        <ele>1258.0</ele>
        <time>2013-06-15T18:37:16Z</time>
      </trkpt>
      <trkpt lat="40.250550" lon="-4.902150">
        <ele>1258.0</ele>
        <time>2013-06-15T18:37:17Z</time>
      </trkpt>
      <trkpt lat="40.250617" lon="-4.902183">
        <ele>1259.0</ele>
        <time>2013-06-15T18:37:18Z</time>
      </trkpt>
      <trkpt lat="40.250683" lon="-4.902200">
        <ele>1260.0</ele>
        <time>2013-06-15T18:37:19Z</time>
      </trkpt>
      <trkpt lat="40.250733" lon="-4.902217">
        <ele>1261.0</ele>
        <time>2013-06-15T18:37:20Z</time>
      </trkpt>
      <trkpt lat="40.250800" lon="-4.902250">
        <ele>1261.0</ele>
        <time>2013-06-15T18:37:21Z</time>
      </trkpt>
      <trkpt lat="40.250867" lon="-4.902267">
        <ele>1260.0</ele>
        <time>2013-06-15T18:37:22Z</time>
      </trkpt>
      <trkpt lat="40.250950" lon="-4.902300">
        <ele>1260.0</ele>
        <time>2013-06-15T18:37:23Z</time>
      </trkpt>
      <trkpt lat="40.251033" lon="-4.902317">
        <ele>1260.0</ele>
        <time>2013-06-15T18:37:24Z</time>
      </trkpt>
      <trkpt lat="40.251117" lon="-4.902350">
        <ele>1261.0</ele>
        <time>2013-06-15T18:37:25Z</time>
      </trkpt>
      <trkpt lat="40.251167" lon="-4.902367">
        <ele>1262.0</ele>
        <time>2013-06-15T18:37:26Z</time>
      </trkpt>
      <trkpt lat="40.251233" lon="-4.902383">
        <ele>1263.0</ele>
        <time>2013-06-15T18:37:27Z</time>
      </trkpt>
      <trkpt lat="40.251300" lon="-4.902400">
        <ele>1264.0</ele>
        <time>2013-06-15T18:37:28Z</time>
      </trkpt>
      <trkpt lat="40.251367" lon="-4.902417">
        <ele>1265.0</ele>
        <time>2013-06-15T18:37:29Z</time>
      </trkpt>
      <trkpt lat="40.251450" lon="-4.902433">
        <ele>1266.0</ele>
        <time>2013-06-15T18:37:30Z</time>
      </trkpt>
      <trkpt lat="40.251517" lon="-4.902433">
        <ele>1267.0</ele>
        <time>2013-06-15T18:37:31Z</time>
      </trkpt>
      <trkpt lat="40.251567" lon="-4.902433">
        <ele>1269.0</ele>
        <time>2013-06-15T18:37:32Z</time>
      </trkpt>
      <trkpt lat="40.251633" lon="-4.902417">
        <ele>1269.0</ele>
        <time>2013-06-15T18:37:33Z</time>
      </trkpt>
      <trkpt lat="40.251700" lon="-4.902417">
        <ele>1269.0</ele>
        <time>2013-06-15T18:37:34Z</time>
      </trkpt>
      <trkpt lat="40.251767" lon="-4.902450">
        <ele>1269.0</ele>
        <time>2013-06-15T18:37:35Z</time>
      </trkpt>
      <trkpt lat="40.251817" lon="-4.902467">
        <ele>1270.0</ele>
        <time>2013-06-15T18:37:36Z</time>
      </trkpt>
      <trkpt lat="40.251867" lon="-4.902483">
        <ele>1272.0</ele>
        <time>2013-06-15T18:37:37Z</time>
      </trkpt>
      <trkpt lat="40.251917" lon="-4.902500">
        <ele>1273.0</ele>
        <time>2013-06-15T18:37:38Z</time>
      </trkpt>
      <trkpt lat="40.251950" lon="-4.902500">
        <ele>1273.0</ele>
        <time>2013-06-15T18:37:39Z</time>
      </trkpt>
      <trkpt lat="40.251983" lon="-4.902533">
        <ele>1272.0</ele>
        <time>2013-06-15T18:37:40Z</time>
      </trkpt>
      <trkpt lat="40.252000" lon="-4.902567">
        <ele>1271.0</ele>
        <time>2013-06-15T18:37:41Z</time>
      </trkpt>
      <trkpt lat="40.252000" lon="-4.902617">
        <ele>1271.0</ele>
        <time>2013-06-15T18:37:42Z</time>
      </trkpt>
      <trkpt lat="40.252000" lon="-4.902667">
        <ele>1271.0</ele>
        <time>2013-06-15T18:37:43Z</time>
      </trkpt>
      <trkpt lat="40.251967" lon="-4.902700">
        <ele>1271.0</ele>
        <time>2013-06-15T18:37:44Z</time>
      </trkpt>
      <trkpt lat="40.251917" lon="-4.902733">
        <ele>1271.0</ele>
        <time>2013-06-15T18:37:45Z</time>
      </trkpt>
      <trkpt lat="40.251850" lon="-4.902767">
        <ele>1270.0</ele>
        <time>2013-06-15T18:37:46Z</time>
      </trkpt>
      <trkpt lat="40.251800" lon="-4.902800">
        <ele>1270.0</ele>
        <time>2013-06-15T18:37:47Z</time>
      </trkpt>
      <trkpt lat="40.251733" lon="-4.902833">
        <ele>1270.0</ele>
        <time>2013-06-15T18:37:48Z</time>
      </trkpt>
      <trkpt lat="40.251667" lon="-4.902850">
        <ele>1270.0</ele>
        <time>2013-06-15T18:37:49Z</time>
      </trkpt>
      <trkpt lat="40.251600" lon="-4.902850">
        <ele>1270.0</ele>
        <time>2013-06-15T18:37:50Z</time>
      </trkpt>
      <trkpt lat="40.251517" lon="-4.902850">
        <ele>1270.0</ele>
        <time>2013-06-15T18:37:51Z</time>
      </trkpt>
      <trkpt lat="40.251417" lon="-4.902850">
        <ele>1270.0</ele>
        <time>2013-06-15T18:37:52Z</time>
      </trkpt>
      <trkpt lat="40.251333" lon="-4.902833">
        <ele>1270.0</ele>
        <time>2013-06-15T18:37:53Z</time>
      </trkpt>
      <trkpt lat="40.251250" lon="-4.902800">
        <ele>1270.0</ele>
        <time>2013-06-15T18:37:54Z</time>
      </trkpt>
      <trkpt lat="40.251150" lon="-4.902800">
        <ele>1271.0</ele>
        <time>2013-06-15T18:37:55Z</time>
      </trkpt>
      <trkpt lat="40.251067" lon="-4.902800">
        <ele>1271.0</ele>
        <time>2013-06-15T18:37:56Z</time>
      </trkpt>
      <trkpt lat="40.251000" lon="-4.902850">
        <ele>1271.0</ele>
        <time>2013-06-15T18:37:57Z</time>
      </trkpt>
      <trkpt lat="40.250933" lon="-4.902917">
        <ele>1272.0</ele>
        <time>2013-06-15T18:37:58Z</time>
      </trkpt>
      <trkpt lat="40.250883" lon="-4.902983">
        <ele>1274.0</ele>
        <time>2013-06-15T18:37:59Z</time>
      </trkpt>
      <trkpt lat="40.250833" lon="-4.903017">
        <ele>1277.0</ele>
        <time>2013-06-15T18:38:00Z</time>
      </trkpt>
      <trkpt lat="40.250767" lon="-4.903017">
        <ele>1278.0</ele>
        <time>2013-06-15T18:38:01Z</time>
      </trkpt>
      <trkpt lat="40.250717" lon="-4.903000">
        <ele>1278.0</ele>
        <time>2013-06-15T18:38:02Z</time>
      </trkpt>
      <trkpt lat="40.250633" lon="-4.902967">
        <ele>1278.0</ele>
        <time>2013-06-15T18:38:03Z</time>
      </trkpt>
      <trkpt lat="40.250550" lon="-4.902933">
        <ele>1278.0</ele>
        <time>2013-06-15T18:38:04Z</time>
      </trkpt>
      <trkpt lat="40.250467" lon="-4.902900">
        <ele>1278.0</ele>
        <time>2013-06-15T18:38:05Z</time>
      </trkpt>
      <trkpt lat="40.250383" lon="-4.902867">
        <ele>1279.0</ele>
        <time>2013-06-15T18:38:06Z</time>
      </trkpt>
      <trkpt lat="40.250317" lon="-4.902833">
        <ele>1279.0</ele>
        <time>2013-06-15T18:38:07Z</time>
      </trkpt>
      <trkpt lat="40.250233" lon="-4.902817">
        <ele>1279.0</ele>
        <time>2013-06-15T18:38:08Z</time>
      </trkpt>
      <trkpt lat="40.250167" lon="-4.902800">
        <ele>1278.0</ele>
        <time>2013-06-15T18:38:09Z</time>
      </trkpt>
      <trkpt lat="40.250083" lon="-4.902800">
        <ele>1278.0</ele>
        <time>2013-06-15T18:38:10Z</time>
      </trkpt>
      <trkpt lat="40.250000" lon="-4.902783">
        <ele>1277.0</ele>
        <time>2013-06-15T18:38:11Z</time>
      </trkpt>
      <trkpt lat="40.249917" lon="-4.902783">
        <ele>1277.0</ele>
        <time>2013-06-15T18:38:12Z</time>
      </trkpt>
      <trkpt lat="40.249850" lon="-4.902800">
        <ele>1277.0</ele>
        <time>2013-06-15T18:38:13Z</time>
      </trkpt>
      <trkpt lat="40.249800" lon="-4.902833">
        <ele>1276.0</ele>
        <time>2013-06-15T18:38:14Z</time>
      </trkpt>
      <trkpt lat="40.249750" lon="-4.902867">
        <ele>1275.0</ele>
        <time>2013-06-15T18:38:15Z</time>
      </trkpt>
      <trkpt lat="40.249700" lon="-4.902917">
        <ele>1274.0</ele>
        <time>2013-06-15T18:38:16Z</time>
      </trkpt>
      <trkpt lat="40.249667" lon="-4.902967">
        <ele>1274.0</ele>
        <time>2013-06-15T18:38:17Z</time>
      </trkpt>
      <trkpt lat="40.249667" lon="-4.903033">
        <ele>1273.0</ele>
        <time>2013-06-15T18:38:18Z</time>
      </trkpt>
      <trkpt lat="40.249700" lon="-4.903067">
        <ele>1271.0</ele>
        <time>2013-06-15T18:38:19Z</time>
      </trkpt>
      <trkpt lat="40.249783" lon="-4.903100">
        <ele>1268.0</ele>
        <time>2013-06-15T18:38:20Z</time>
      </trkpt>
      <trkpt lat="40.249883" lon="-4.903067">
        <ele>1266.0</ele>
        <time>2013-06-15T18:38:21Z</time>
      </trkpt>
      <trkpt lat="40.250000" lon="-4.902983">
        <ele>1265.0</ele>
        <time>2013-06-15T18:38:22Z</time>
      </trkpt>
      <trkpt lat="40.250083" lon="-4.902883">
        <ele>1266.0</ele>
        <time>2013-06-15T18:38:23Z</time>
      </trkpt>
      <trkpt lat="40.250167" lon="-4.902783">
        <ele>1267.0</ele>
        <time>2013-06-15T18:38:24Z</time>
      </trkpt>
      <trkpt lat="40.250233" lon="-4.902700">
        <ele>1267.0</ele>
        <time>2013-06-15T18:38:25Z</time>
      </trkpt>
      <trkpt lat="40.250317" lon="-4.902600">
        <ele>1267.0</ele>
        <time>2013-06-15T18:38:26Z</time>
      </trkpt>
      <trkpt lat="40.250400" lon="-4.902517">
        <ele>1266.0</ele>
        <time>2013-06-15T18:38:27Z</time>
      </trkpt>
      <trkpt lat="40.250483" lon="-4.902417">
        <ele>1265.0</ele>
        <time>2013-06-15T18:38:28Z</time>
      </trkpt>
      <trkpt lat="40.250583" lon="-4.902350">
        <ele>1265.0</ele>
        <time>2013-06-15T18:38:29Z</time>
      </trkpt>
      <trkpt lat="40.250667" lon="-4.902300">
        <ele>1265.0</ele>
        <time>2013-06-15T18:38:30Z</time>
      </trkpt>
      <trkpt lat="40.250767" lon="-4.902267">
        <ele>1266.0</ele>
        <time>2013-06-15T18:38:31Z</time>
      </trkpt>
      <trkpt lat="40.250850" lon="-4.902233">
        <ele>1267.0</ele>
        <time>2013-06-15T18:38:32Z</time>
      </trkpt>
      <trkpt lat="40.250917" lon="-4.902217">
        <ele>1267.0</ele>
        <time>2013-06-15T18:38:33Z</time>
      </trkpt>
      <trkpt lat="40.251000" lon="-4.902217">
        <ele>1268.0</ele>
        <time>2013-06-15T18:38:34Z</time>
      </trkpt>
      <trkpt lat="40.251083" lon="-4.902217">
        <ele>1269.0</ele>
        <time>2013-06-15T18:38:35Z</time>
      </trkpt>
      <trkpt lat="40.251150" lon="-4.902250">
        <ele>1270.0</ele>
        <time>2013-06-15T18:38:36Z</time>
      </trkpt>
      <trkpt lat="40.251217" lon="-4.902267">
        <ele>1271.0</ele>
        <time>2013-06-15T18:38:37Z</time>
      </trkpt>
      <trkpt lat="40.251283" lon="-4.902283">
        <ele>1272.0</ele>
        <time>2013-06-15T18:38:38Z</time>
      </trkpt>
      <trkpt lat="40.251350" lon="-4.902300">
        <ele>1272.0</ele>
        <time>2013-06-15T18:38:39Z</time>
      </trkpt>
      <trkpt lat="40.251417" lon="-4.902317">
        <ele>1272.0</ele>
        <time>2013-06-15T18:38:40Z</time>
      </trkpt>
      <trkpt lat="40.251483" lon="-4.902350">
        <ele>1273.0</ele>
        <time>2013-06-15T18:38:41Z</time>
      </trkpt>
      <trkpt lat="40.251567" lon="-4.902383">
        <ele>1275.0</ele>
        <time>2013-06-15T18:38:42Z</time>
      </trkpt>
      <trkpt lat="40.251633" lon="-4.902400">
        <ele>1276.0</ele>
        <time>2013-06-15T18:38:43Z</time>
      </trkpt>
      <trkpt lat="40.251683" lon="-4.902400">
        <ele>1278.0</ele>
        <time>2013-06-15T18:38:44Z</time>
      </trkpt>
      <trkpt lat="40.251733" lon="-4.902417">
        <ele>1278.0</ele>
        <time>2013-06-15T18:38:45Z</time>
      </trkpt>
      <trkpt lat="40.251783" lon="-4.902417">
        <ele>1277.0</ele>
        <time>2013-06-15T18:38:46Z</time>
      </trkpt>
      <trkpt lat="40.251850" lon="-4.902433">
        <ele>1276.0</ele>
        <time>2013-06-15T18:38:47Z</time>
      </trkpt>
      <trkpt lat="40.251900" lon="-4.902467">
        <ele>1276.0</ele>
        <time>2013-06-15T18:38:48Z</time>
      </trkpt>
      <trkpt lat="40.251950" lon="-4.902483">
        <ele>1275.0</ele>
        <time>2013-06-15T18:38:49Z</time>
      </trkpt>
      <trkpt lat="40.251983" lon="-4.902517">
        <ele>1275.0</ele>
        <time>2013-06-15T18:38:50Z</time>
      </trkpt>
      <trkpt lat="40.252033" lon="-4.902567">
        <ele>1276.0</ele>
        <time>2013-06-15T18:38:51Z</time>
      </trkpt>
      <trkpt lat="40.252067" lon="-4.902600">
        <ele>1277.0</ele>
        <time>2013-06-15T18:38:52Z</time>
      </trkpt>
      <trkpt lat="40.252100" lon="-4.902617">
        <ele>1279.0</ele>
        <time>2013-06-15T18:38:53Z</time>
      </trkpt>
      <trkpt lat="40.252133" lon="-4.902633">
        <ele>1280.0</ele>
        <time>2013-06-15T18:38:54Z</time>
      </trkpt>
      <trkpt lat="40.252150" lon="-4.902650">
        <ele>1280.0</ele>
        <time>2013-06-15T18:38:55Z</time>
      </trkpt>
      <trkpt lat="40.252167" lon="-4.902683">
        <ele>1279.0</ele>
        <time>2013-06-15T18:38:56Z</time>
      </trkpt>
      <trkpt lat="40.252167" lon="-4.902733">
        <ele>1277.0</ele>
        <time>2013-06-15T18:38:57Z</time>
      </trkpt>
      <trkpt lat="40.252183" lon="-4.902800">
        <ele>1276.0</ele>
        <time>2013-06-15T18:38:58Z</time>
      </trkpt>
      <trkpt lat="40.252200" lon="-4.902867">
        <ele>1276.0</ele>
        <time>2013-06-15T18:38:59Z</time>
      </trkpt>
      <trkpt lat="40.252200" lon="-4.902933">
        <ele>1277.0</ele>
        <time>2013-06-15T18:39:00Z</time>
      </trkpt>
      <trkpt lat="40.252200" lon="-4.902983">
        <ele>1278.0</ele>
        <time>2013-06-15T18:39:01Z</time>
      </trkpt>
      <trkpt lat="40.252200" lon="-4.903017">
        <ele>1279.0</ele>
        <time>2013-06-15T18:39:02Z</time>
      </trkpt>
      <trkpt lat="40.252167" lon="-4.903050">
        <ele>1279.0</ele>
        <time>2013-06-15T18:39:03Z</time>
      </trkpt>
      <trkpt lat="40.252133" lon="-4.903083">
        <ele>1278.0</ele>
        <time>2013-06-15T18:39:04Z</time>
      </trkpt>
      <trkpt lat="40.252100" lon="-4.903133">
        <ele>1277.0</ele>
        <time>2013-06-15T18:39:05Z</time>
      </trkpt>
      <trkpt lat="40.252050" lon="-4.903200">
        <ele>1277.0</ele>
        <time>2013-06-15T18:39:06Z</time>
      </trkpt>
      <trkpt lat="40.252017" lon="-4.903233">
        <ele>1277.0</ele>
        <time>2013-06-15T18:39:07Z</time>
      </trkpt>
      <trkpt lat="40.251967" lon="-4.903267">
        <ele>1278.0</ele>
        <time>2013-06-15T18:39:08Z</time>
      </trkpt>
      <trkpt lat="40.251917" lon="-4.903283">
        <ele>1278.0</ele>
        <time>2013-06-15T18:39:09Z</time>
      </trkpt>
      <trkpt lat="40.251867" lon="-4.903300">
        <ele>1277.0</ele>
        <time>2013-06-15T18:39:10Z</time>
      </trkpt>
      <trkpt lat="40.251800" lon="-4.903317">
        <ele>1276.0</ele>
        <time>2013-06-15T18:39:11Z</time>
      </trkpt>
      <trkpt lat="40.251733" lon="-4.903333">
        <ele>1275.0</ele>
        <time>2013-06-15T18:39:12Z</time>
      </trkpt>
      <trkpt lat="40.251667" lon="-4.903333">
        <ele>1275.0</ele>
        <time>2013-06-15T18:39:13Z</time>
      </trkpt>
      <trkpt lat="40.251600" lon="-4.903333">
        <ele>1275.0</ele>
        <time>2013-06-15T18:39:14Z</time>
      </trkpt>
      <trkpt lat="40.251550" lon="-4.903350">
        <ele>1275.0</ele>
        <time>2013-06-15T18:39:15Z</time>
      </trkpt>
      <trkpt lat="40.251483" lon="-4.903367">
        <ele>1275.0</ele>
        <time>2013-06-15T18:39:16Z</time>
      </trkpt>
      <trkpt lat="40.251433" lon="-4.903400">
        <ele>1274.0</ele>
        <time>2013-06-15T18:39:17Z</time>
      </trkpt>
      <trkpt lat="40.251367" lon="-4.903450">
        <ele>1274.0</ele>
        <time>2013-06-15T18:39:18Z</time>
      </trkpt>
      <trkpt lat="40.251300" lon="-4.903500">
        <ele>1275.0</ele>
        <time>2013-06-15T18:39:19Z</time>
      </trkpt>
      <trkpt lat="40.251233" lon="-4.903533">
        <ele>1277.0</ele>
        <time>2013-06-15T18:39:20Z</time>
      </trkpt>
      <trkpt lat="40.251183" lon="-4.903567">
        <ele>1278.0</ele>
        <time>2013-06-15T18:39:21Z</time>
      </trkpt>
      <trkpt lat="40.251150" lon="-4.903617">
        <ele>1279.0</ele>
        <time>2013-06-15T18:39:22Z</time>
      </trkpt>
      <trkpt lat="40.251150" lon="-4.903667">
        <ele>1278.0</ele>
        <time>2013-06-15T18:39:23Z</time>
      </trkpt>
      <trkpt lat="40.251167" lon="-4.903717">
        <ele>1278.0</ele>
        <time>2013-06-15T18:39:24Z</time>
      </trkpt>
      <trkpt lat="40.251217" lon="-4.903750">
        <ele>1276.0</ele>
        <time>2013-06-15T18:39:25Z</time>
      </trkpt>
      <trkpt lat="40.251283" lon="-4.903767">
        <ele>1275.0</ele>
        <time>2013-06-15T18:39:26Z</time>
      </trkpt>
      <trkpt lat="40.251350" lon="-4.903783">
        <ele>1276.0</ele>
        <time>2013-06-15T18:39:27Z</time>
      </trkpt>
      <trkpt lat="40.251367" lon="-4.903817">
        <ele>1276.0</ele>
        <time>2013-06-15T18:39:28Z</time>
      </trkpt>
      <trkpt lat="40.251367" lon="-4.903867">
        <ele>1275.0</ele>
        <time>2013-06-15T18:39:29Z</time>
      </trkpt>
      <trkpt lat="40.251333" lon="-4.903917">
        <ele>1274.0</ele>
        <time>2013-06-15T18:39:30Z</time>
      </trkpt>
      <trkpt lat="40.251283" lon="-4.903967">
        <ele>1273.0</ele>
        <time>2013-06-15T18:39:31Z</time>
      </trkpt>
      <trkpt lat="40.251217" lon="-4.903983">
        <ele>1273.0</ele>
        <time>2013-06-15T18:39:32Z</time>
      </trkpt>
      <trkpt lat="40.251133" lon="-4.903983">
        <ele>1272.0</ele>
        <time>2013-06-15T18:39:33Z</time>
      </trkpt>
      <trkpt lat="40.251050" lon="-4.903933">
        <ele>1272.0</ele>
        <time>2013-06-15T18:39:34Z</time>
      </trkpt>
      <trkpt lat="40.250967" lon="-4.903867">
        <ele>1272.0</ele>
        <time>2013-06-15T18:39:35Z</time>
      </trkpt>
      <trkpt lat="40.250883" lon="-4.903783">
        <ele>1271.0</ele>
        <time>2013-06-15T18:39:36Z</time>
      </trkpt>
      <trkpt lat="40.250800" lon="-4.903683">
        <ele>1271.0</ele>
        <time>2013-06-15T18:39:37Z</time>
      </trkpt>
      <trkpt lat="40.250717" lon="-4.903567">
        <ele>1270.0</ele>
        <time>2013-06-15T18:39:38Z</time>
      </trkpt>
      <trkpt lat="40.250633" lon="-4.903450">
        <ele>1271.0</ele>
        <time>2013-06-15T18:39:39Z</time>
      </trkpt>
      <trkpt lat="40.250550" lon="-4.903350">
        <ele>1271.0</ele>
        <time>2013-06-15T18:39:40Z</time>
      </trkpt>
      <trkpt lat="40.250467" lon="-4.903233">
        <ele>1271.0</ele>
        <time>2013-06-15T18:39:41Z</time>
      </trkpt>
      <trkpt lat="40.250383" lon="-4.903133">
        <ele>1271.0</ele>
        <time>2013-06-15T18:39:42Z</time>
      </trkpt>
      <trkpt lat="40.250283" lon="-4.903033">
        <ele>1271.0</ele>
        <time>2013-06-15T18:39:43Z</time>
      </trkpt>
      <trkpt lat="40.250200" lon="-4.902950">
        <ele>1271.0</ele>
        <time>2013-06-15T18:39:44Z</time>
      </trkpt>
      <trkpt lat="40.250100" lon="-4.902883">
        <ele>1272.0</ele>
        <time>2013-06-15T18:39:45Z</time>
      </trkpt>
      <trkpt lat="40.250017" lon="-4.902800">
        <ele>1273.0</ele>
        <time>2013-06-15T18:39:46Z</time>
      </trkpt>
      <trkpt lat="40.249917" lon="-4.902733">
        <ele>1274.0</ele>
        <time>2013-06-15T18:39:47Z</time>
      </trkpt>
      <trkpt lat="40.249833" lon="-4.902650">
        <ele>1274.0</ele>
        <time>2013-06-15T18:39:48Z</time>
      </trkpt>
      <trkpt lat="40.249750" lon="-4.902567">
        <ele>1274.0</ele>
        <time>2013-06-15T18:39:49Z</time>
      </trkpt>
      <trkpt lat="40.249650" lon="-4.902500">
        <ele>1273.0</ele>
        <time>2013-06-15T18:39:50Z</time>
      </trkpt>
      <trkpt lat="40.249533" lon="-4.902433">
        <ele>1273.0</ele>
        <time>2013-06-15T18:39:51Z</time>
      </trkpt>
      <trkpt lat="40.249433" lon="-4.902383">
        <ele>1272.0</ele>
        <time>2013-06-15T18:39:52Z</time>
      </trkpt>
      <trkpt lat="40.249317" lon="-4.902333">
        <ele>1272.0</ele>
        <time>2013-06-15T18:39:53Z</time>
      </trkpt>
      <trkpt lat="40.249217" lon="-4.902300">
        <ele>1272.0</ele>
        <time>2013-06-15T18:39:54Z</time>
      </trkpt>
      <trkpt lat="40.249117" lon="-4.902267">
        <ele>1272.0</ele>
        <time>2013-06-15T18:39:55Z</time>
      </trkpt>
      <trkpt lat="40.249017" lon="-4.902250">
        <ele>1272.0</ele>
        <time>2013-06-15T18:39:56Z</time>
      </trkpt>
      <trkpt lat="40.248950" lon="-4.902267">
        <ele>1270.0</ele>
        <time>2013-06-15T18:39:57Z</time>
      </trkpt>
      <trkpt lat="40.248883" lon="-4.902300">
        <ele>1268.0</ele>
        <time>2013-06-15T18:39:58Z</time>
      </trkpt>
      <trkpt lat="40.248850" lon="-4.902367">
        <ele>1267.0</ele>
        <time>2013-06-15T18:39:59Z</time>
      </trkpt>
      <trkpt lat="40.248850" lon="-4.902417">
        <ele>1266.0</ele>
        <time>2013-06-15T18:40:00Z</time>
      </trkpt>
      <trkpt lat="40.248867" lon="-4.902467">
        <ele>1266.0</ele>
        <time>2013-06-15T18:40:01Z</time>
      </trkpt>
      <trkpt lat="40.248900" lon="-4.902483">
        <ele>1266.0</ele>
        <time>2013-06-15T18:40:02Z</time>
      </trkpt>
      <trkpt lat="40.248933" lon="-4.902500">
        <ele>1265.0</ele>
        <time>2013-06-15T18:40:03Z</time>
      </trkpt>
      <trkpt lat="40.249000" lon="-4.902483">
        <ele>1264.0</ele>
        <time>2013-06-15T18:40:04Z</time>
      </trkpt>
      <trkpt lat="40.249050" lon="-4.902483">
        <ele>1263.0</ele>
        <time>2013-06-15T18:40:05Z</time>
      </trkpt>
      <trkpt lat="40.249100" lon="-4.902483">
        <ele>1261.0</ele>
        <time>2013-06-15T18:40:06Z</time>
      </trkpt>
      <trkpt lat="40.249167" lon="-4.902467">
        <ele>1260.0</ele>
        <time>2013-06-15T18:40:07Z</time>
      </trkpt>
      <trkpt lat="40.249233" lon="-4.902450">
        <ele>1259.0</ele>
        <time>2013-06-15T18:40:08Z</time>
      </trkpt>
      <trkpt lat="40.249300" lon="-4.902433">
        <ele>1258.0</ele>
        <time>2013-06-15T18:40:09Z</time>
      </trkpt>
      <trkpt lat="40.249383" lon="-4.902417">
        <ele>1258.0</ele>
        <time>2013-06-15T18:40:10Z</time>
      </trkpt>
      <trkpt lat="40.249450" lon="-4.902400">
        <ele>1257.0</ele>
        <time>2013-06-15T18:40:11Z</time>
      </trkpt>
      <trkpt lat="40.249517" lon="-4.902383">
        <ele>1257.0</ele>
        <time>2013-06-15T18:40:12Z</time>
      </trkpt>
      <trkpt lat="40.249567" lon="-4.902383">
        <ele>1257.0</ele>
        <time>2013-06-15T18:40:13Z</time>
      </trkpt>
      <trkpt lat="40.249617" lon="-4.902400">
        <ele>1256.0</ele>
        <time>2013-06-15T18:40:14Z</time>
      </trkpt>
      <trkpt lat="40.249683" lon="-4.902400">
        <ele>1255.0</ele>
        <time>2013-06-15T18:40:15Z</time>
      </trkpt>
      <trkpt lat="40.249733" lon="-4.902417">
        <ele>1255.0</ele>
        <time>2013-06-15T18:40:16Z</time>
      </trkpt>
      <trkpt lat="40.249783" lon="-4.902450">
        <ele>1255.0</ele>
        <time>2013-06-15T18:40:17Z</time>
      </trkpt>
      <trkpt lat="40.249833" lon="-4.902467">
        <ele>1255.0</ele>
        <time>2013-06-15T18:40:18Z</time>
      </trkpt>
      <trkpt lat="40.249883" lon="-4.902467">
        <ele>1254.0</ele>
        <time>2013-06-15T18:40:19Z</time>
      </trkpt>
      <trkpt lat="40.249933" lon="-4.902483">
        <ele>1252.0</ele>
        <time>2013-06-15T18:40:20Z</time>
      </trkpt>
      <trkpt lat="40.249983" lon="-4.902500">
        <ele>1251.0</ele>
        <time>2013-06-15T18:40:21Z</time>
      </trkpt>
      <trkpt lat="40.250067" lon="-4.902500">
        <ele>1249.0</ele>
        <time>2013-06-15T18:40:22Z</time>
      </trkpt>
      <trkpt lat="40.250150" lon="-4.902500">
        <ele>1249.0</ele>
        <time>2013-06-15T18:40:23Z</time>
      </trkpt>
      <trkpt lat="40.250217" lon="-4.902467">
        <ele>1249.0</ele>
        <time>2013-06-15T18:40:24Z</time>
      </trkpt>
      <trkpt lat="40.250300" lon="-4.902450">
        <ele>1251.0</ele>
        <time>2013-06-15T18:40:25Z</time>
      </trkpt>
      <trkpt lat="40.250350" lon="-4.902433">
        <ele>1252.0</ele>
        <time>2013-06-15T18:40:26Z</time>
      </trkpt>
      <trkpt lat="40.250417" lon="-4.902433">
        <ele>1251.0</ele>
        <time>2013-06-15T18:40:27Z</time>
      </trkpt>
      <trkpt lat="40.250483" lon="-4.902433">
        <ele>1250.0</ele>
        <time>2013-06-15T18:40:28Z</time>
      </trkpt>
      <trkpt lat="40.250550" lon="-4.902433">
        <ele>1250.0</ele>
        <time>2013-06-15T18:40:29Z</time>
      </trkpt>
      <trkpt lat="40.250633" lon="-4.902450">
        <ele>1250.0</ele>
        <time>2013-06-15T18:40:30Z</time>
      </trkpt>
      <trkpt lat="40.250717" lon="-4.902450">
        <ele>1251.0</ele>
        <time>2013-06-15T18:40:31Z</time>
      </trkpt>
      <trkpt lat="40.250783" lon="-4.902433">
        <ele>1252.0</ele>
        <time>2013-06-15T18:40:32Z</time>
      </trkpt>
      <trkpt lat="40.250850" lon="-4.902433">
        <ele>1253.0</ele>
        <time>2013-06-15T18:40:33Z</time>
      </trkpt>
      <trkpt lat="40.250917" lon="-4.902450">
        <ele>1253.0</ele>
        <time>2013-06-15T18:40:34Z</time>
      </trkpt>
      <trkpt lat="40.250983" lon="-4.902467">
        <ele>1253.0</ele>
        <time>2013-06-15T18:40:35Z</time>
      </trkpt>
      <trkpt lat="40.251050" lon="-4.902467">
        <ele>1254.0</ele>
        <time>2013-06-15T18:40:36Z</time>
      </trkpt>
      <trkpt lat="40.251117" lon="-4.902483">
        <ele>1255.0</ele>
        <time>2013-06-15T18:40:37Z</time>
      </trkpt>
      <trkpt lat="40.251183" lon="-4.902500">
        <ele>1256.0</ele>
        <time>2013-06-15T18:40:38Z</time>
      </trkpt>
      <trkpt lat="40.251233" lon="-4.902500">
        <ele>1257.0</ele>
        <time>2013-06-15T18:40:39Z</time>
      </trkpt>
      <trkpt lat="40.251283" lon="-4.902533">
        <ele>1258.0</ele>
        <time>2013-06-15T18:40:40Z</time>
      </trkpt>
      <trkpt lat="40.251300" lon="-4.902583">
        <ele>1258.0</ele>
        <time>2013-06-15T18:40:41Z</time>
      </trkpt>
      <trkpt lat="40.251300" lon="-4.902633">
        <ele>1258.0</ele>
        <time>2013-06-15T18:40:42Z</time>
      </trkpt>
      <trkpt lat="40.251267" lon="-4.902683">
        <ele>1258.0</ele>
        <time>2013-06-15T18:40:43Z</time>
      </trkpt>
      <trkpt lat="40.251217" lon="-4.902717">
        <ele>1258.0</ele>
        <time>2013-06-15T18:40:44Z</time>
      </trkpt>
      <trkpt lat="40.251167" lon="-4.902733">
        <ele>1260.0</ele>
        <time>2013-06-15T18:40:45Z</time>
      </trkpt>
      <trkpt lat="40.251100" lon="-4.902733">
        <ele>1261.0</ele>
        <time>2013-06-15T18:40:46Z</time>
      </trkpt>
      <trkpt lat="40.251050" lon="-4.902717">
        <ele>1262.0</ele>
        <time>2013-06-15T18:40:47Z</time>
      </trkpt>
      <trkpt lat="40.250983" lon="-4.902700">
        <ele>1262.0</ele>
        <time>2013-06-15T18:40:48Z</time>
      </trkpt>
      <trkpt lat="40.250900" lon="-4.902683">
        <ele>1263.0</ele>
        <time>2013-06-15T18:40:49Z</time>
      </trkpt>
      <trkpt lat="40.250833" lon="-4.902650">
        <ele>1263.0</ele>
        <time>2013-06-15T18:40:50Z</time>
      </trkpt>
      <trkpt lat="40.250750" lon="-4.902600">
        <ele>1262.0</ele>
        <time>2013-06-15T18:40:51Z</time>
      </trkpt>
      <trkpt lat="40.250667" lon="-4.902550">
        <ele>1261.0</ele>
        <time>2013-06-15T18:40:52Z</time>
      </trkpt>
      <trkpt lat="40.250567" lon="-4.902500">
        <ele>1262.0</ele>
        <time>2013-06-15T18:40:53Z</time>
      </trkpt>
      <trkpt lat="40.250483" lon="-4.902450">
        <ele>1263.0</ele>
        <time>2013-06-15T18:40:54Z</time>
      </trkpt>
      <trkpt lat="40.250400" lon="-4.902400">
        <ele>1265.0</ele>
        <time>2013-06-15T18:40:55Z</time>
      </trkpt>
      <trkpt lat="40.250317" lon="-4.902367">
        <ele>1267.0</ele>
        <time>2013-06-15T18:40:56Z</time>
      </trkpt>
      <trkpt lat="40.250233" lon="-4.902317">
        <ele>1268.0</ele>
        <time>2013-06-15T18:40:57Z</time>
      </trkpt>
      <trkpt lat="40.250150" lon="-4.902267">
        <ele>1269.0</ele>
        <time>2013-06-15T18:40:58Z</time>
      </trkpt>
      <trkpt lat="40.250067" lon="-4.902217">
        <ele>1270.0</ele>
        <time>2013-06-15T18:40:59Z</time>
      </trkpt>
      <trkpt lat="40.249983" lon="-4.902183">
        <ele>1271.0</ele>
        <time>2013-06-15T18:41:00Z</time>
      </trkpt>
      <trkpt lat="40.249900" lon="-4.902150">
        <ele>1272.0</ele>
        <time>2013-06-15T18:41:01Z</time>
      </trkpt>
      <trkpt lat="40.249817" lon="-4.902150">
        <ele>1273.0</ele>
        <time>2013-06-15T18:41:02Z</time>
      </trkpt>
      <trkpt lat="40.249767" lon="-4.902150">
        <ele>1274.0</ele>
        <time>2013-06-15T18:41:03Z</time>
      </trkpt>
      <trkpt lat="40.249733" lon="-4.902183">
        <ele>1273.0</ele>
        <time>2013-06-15T18:41:04Z</time>
      </trkpt>
      <trkpt lat="40.249717" lon="-4.902217">
        <ele>1273.0</ele>
        <time>2013-06-15T18:41:05Z</time>
      </trkpt>
      <trkpt lat="40.249717" lon="-4.902250">
        <ele>1273.0</ele>
        <time>2013-06-15T18:41:06Z</time>
      </trkpt>
      <trkpt lat="40.249750" lon="-4.902283">
        <ele>1272.0</ele>
        <time>2013-06-15T18:41:07Z</time>
      </trkpt>
      <trkpt lat="40.249800" lon="-4.902300">
        <ele>1271.0</ele>
        <time>2013-06-15T18:41:08Z</time>
      </trkpt>
      <trkpt lat="40.249883" lon="-4.902300">
        <ele>1271.0</ele>
        <time>2013-06-15T18:41:09Z</time>
      </trkpt>
      <trkpt lat="40.249967" lon="-4.902267">
        <ele>1270.0</ele>
        <time>2013-06-15T18:41:10Z</time>
      </trkpt>
      <trkpt lat="40.250050" lon="-4.902217">
        <ele>1271.0</ele>
        <time>2013-06-15T18:41:11Z</time>
      </trkpt>
      <trkpt lat="40.250133" lon="-4.902183">
        <ele>1272.0</ele>
        <time>2013-06-15T18:41:12Z</time>
      </trkpt>
      <trkpt lat="40.250217" lon="-4.902167">
        <ele>1273.0</ele>
        <time>2013-06-15T18:41:13Z</time>
      </trkpt>
      <trkpt lat="40.250283" lon="-4.902133">
        <ele>1274.0</ele>
        <time>2013-06-15T18:41:14Z</time>
      </trkpt>
      <trkpt lat="40.250350" lon="-4.902117">
        <ele>1275.0</ele>
        <time>2013-06-15T18:41:15Z</time>
      </trkpt>
      <trkpt lat="40.250417" lon="-4.902100">
        <ele>1276.0</ele>
        <time>2013-06-15T18:41:16Z</time>
      </trkpt>
      <trkpt lat="40.250483" lon="-4.902083">
        <ele>1275.0</ele>
        <time>2013-06-15T18:41:17Z</time>
      </trkpt>
      <trkpt lat="40.250533" lon="-4.902083">
        <ele>1275.0</ele>
        <time>2013-06-15T18:41:18Z</time>
      </trkpt>
      <trkpt lat="40.250600" lon="-4.902100">
        <ele>1274.0</ele>
        <time>2013-06-15T18:41:19Z</time>
      </trkpt>
      <trkpt lat="40.250667" lon="-4.902133">
        <ele>1274.0</ele>
        <time>2013-06-15T18:41:20Z</time>
      </trkpt>
      <trkpt lat="40.250750" lon="-4.902150">
        <ele>1275.0</ele>
        <time>2013-06-15T18:41:21Z</time>
      </trkpt>
      <trkpt lat="40.250817" lon="-4.902167">
        <ele>1276.0</ele>
        <time>2013-06-15T18:41:22Z</time>
      </trkpt>
      <trkpt lat="40.250883" lon="-4.902183">
        <ele>1278.0</ele>
        <time>2013-06-15T18:41:23Z</time>
      </trkpt>
      <trkpt lat="40.250950" lon="-4.902200">
        <ele>1279.0</ele>
        <time>2013-06-15T18:41:24Z</time>
      </trkpt>
      <trkpt lat="40.251017" lon="-4.902200">
        <ele>1280.0</ele>
        <time>2013-06-15T18:41:25Z</time>
      </trkpt>
      <trkpt lat="40.251083" lon="-4.902217">
        <ele>1281.0</ele>
        <time>2013-06-15T18:41:26Z</time>
      </trkpt>
      <trkpt lat="40.251167" lon="-4.902217">
        <ele>1281.0</ele>
        <time>2013-06-15T18:41:27Z</time>
      </trkpt>
      <trkpt lat="40.251233" lon="-4.902217">
        <ele>1281.0</ele>
        <time>2013-06-15T18:41:28Z</time>
      </trkpt>
      <trkpt lat="40.251300" lon="-4.902217">
        <ele>1282.0</ele>
        <time>2013-06-15T18:41:29Z</time>
      </trkpt>
      <trkpt lat="40.251367" lon="-4.902233">
        <ele>1283.0</ele>
        <time>2013-06-15T18:41:30Z</time>
      </trkpt>
      <trkpt lat="40.251433" lon="-4.902250">
        <ele>1283.0</ele>
        <time>2013-06-15T18:41:31Z</time>
      </trkpt>
      <trkpt lat="40.251500" lon="-4.902267">
        <ele>1283.0</ele>
        <time>2013-06-15T18:41:32Z</time>
      </trkpt>
      <trkpt lat="40.251550" lon="-4.902300">
        <ele>1283.0</ele>
        <time>2013-06-15T18:41:33Z</time>
      </trkpt>
      <trkpt lat="40.251617" lon="-4.902333">
        <ele>1283.0</ele>
        <time>2013-06-15T18:41:34Z</time>
      </trkpt>
      <trkpt lat="40.251683" lon="-4.902367">
        <ele>1283.0</ele>
        <time>2013-06-15T18:41:35Z</time>
      </trkpt>
      <trkpt lat="40.251733" lon="-4.902417">
        <ele>1285.0</ele>
        <time>2013-06-15T18:41:36Z</time>
      </trkpt>
      <trkpt lat="40.251750" lon="-4.902450">
        <ele>1286.0</ele>
        <time>2013-06-15T18:41:37Z</time>
      </trkpt>
      <trkpt lat="40.251767" lon="-4.902467">
        <ele>1287.0</ele>
        <time>2013-06-15T18:41:38Z</time>
      </trkpt>
      <trkpt lat="40.251783" lon="-4.902500">
        <ele>1288.0</ele>
        <time>2013-06-15T18:41:39Z</time>
      </trkpt>
      <trkpt lat="40.251767" lon="-4.902533">
        <ele>1287.0</ele>
        <time>2013-06-15T18:41:40Z</time>
      </trkpt>
      <trkpt lat="40.251750" lon="-4.902583">
        <ele>1287.0</ele>
        <time>2013-06-15T18:41:41Z</time>
      </trkpt>
      <trkpt lat="40.251717" lon="-4.902600">
        <ele>1286.0</ele>
        <time>2013-06-15T18:41:42Z</time>
      </trkpt>
      <trkpt lat="40.251667" lon="-4.902617">
        <ele>1286.0</ele>
        <time>2013-06-15T18:41:43Z</time>
      </trkpt>
      <trkpt lat="40.251600" lon="-4.902617">
        <ele>1287.0</ele>
        <time>2013-06-15T18:41:44Z</time>
      </trkpt>
      <trkpt lat="40.251550" lon="-4.902617">
        <ele>1288.0</ele>
        <time>2013-06-15T18:41:45Z</time>
      </trkpt>
      <trkpt lat="40.251483" lon="-4.902617">
        <ele>1288.0</ele>
        <time>2013-06-15T18:41:46Z</time>
      </trkpt>
      <trkpt lat="40.251433" lon="-4.902617">
        <ele>1288.0</ele>
        <time>2013-06-15T18:41:47Z</time>
      </trkpt>
      <trkpt lat="40.251367" lon="-4.902617">
        <ele>1289.0</ele>
        <time>2013-06-15T18:41:48Z</time>
      </trkpt>
      <trkpt lat="40.251300" lon="-4.902617">
        <ele>1289.0</ele>
        <time>2013-06-15T18:41:49Z</time>
      </trkpt>
      <trkpt lat="40.251233" lon="-4.902617">
        <ele>1289.0</ele>
        <time>2013-06-15T18:41:50Z</time>
      </trkpt>
      <trkpt lat="40.251167" lon="-4.902600">
        <ele>1290.0</ele>
        <time>2013-06-15T18:41:51Z</time>
      </trkpt>
      <trkpt lat="40.251100" lon="-4.902600">
        <ele>1290.0</ele>
        <time>2013-06-15T18:41:52Z</time>
      </trkpt>
      <trkpt lat="40.251033" lon="-4.902600">
        <ele>1289.0</ele>
        <time>2013-06-15T18:41:53Z</time>
      </trkpt>
      <trkpt lat="40.250967" lon="-4.902583">
        <ele>1289.0</ele>
        <time>2013-06-15T18:41:54Z</time>
      </trkpt>
      <trkpt lat="40.250883" lon="-4.902583">
        <ele>1290.0</ele>
        <time>2013-06-15T18:41:55Z</time>
      </trkpt>
      <trkpt lat="40.250817" lon="-4.902583">
        <ele>1290.0</ele>
        <time>2013-06-15T18:41:56Z</time>
      </trkpt>
      <trkpt lat="40.250750" lon="-4.902583">
        <ele>1291.0</ele>
        <time>2013-06-15T18:41:57Z</time>
      </trkpt>
      <trkpt lat="40.250683" lon="-4.902567">
        <ele>1291.0</ele>
        <time>2013-06-15T18:41:58Z</time>
      </trkpt>
      <trkpt lat="40.250617" lon="-4.902567">
        <ele>1291.0</ele>
        <time>2013-06-15T18:41:59Z</time>
      </trkpt>
      <trkpt lat="40.250533" lon="-4.902567">
        <ele>1291.0</ele>
        <time>2013-06-15T18:42:00Z</time>
      </trkpt>
      <trkpt lat="40.250467" lon="-4.902567">
        <ele>1290.0</ele>
        <time>2013-06-15T18:42:01Z</time>
      </trkpt>
      <trkpt lat="40.250383" lon="-4.902567">
        <ele>1290.0</ele>
        <time>2013-06-15T18:42:02Z</time>
      </trkpt>
      <trkpt lat="40.250317" lon="-4.902567">
        <ele>1291.0</ele>
        <time>2013-06-15T18:42:03Z</time>
      </trkpt>
      <trkpt lat="40.250233" lon="-4.902567">
        <ele>1291.0</ele>
        <time>2013-06-15T18:42:04Z</time>
      </trkpt>
      <trkpt lat="40.250167" lon="-4.902567">
        <ele>1292.0</ele>
        <time>2013-06-15T18:42:05Z</time>
      </trkpt>
      <trkpt lat="40.250100" lon="-4.902550">
        <ele>1293.0</ele>
        <time>2013-06-15T18:42:06Z</time>
      </trkpt>
      <trkpt lat="40.250017" lon="-4.902533">
        <ele>1294.0</ele>
        <time>2013-06-15T18:42:07Z</time>
      </trkpt>
      <trkpt lat="40.249950" lon="-4.902517">
        <ele>1294.0</ele>
        <time>2013-06-15T18:42:08Z</time>
      </trkpt>
      <trkpt lat="40.249867" lon="-4.902483">
        <ele>1294.0</ele>
        <time>2013-06-15T18:42:09Z</time>
      </trkpt>
      <trkpt lat="40.249783" lon="-4.902450">
        <ele>1293.0</ele>
        <time>2013-06-15T18:42:10Z</time>
      </trkpt>
      <trkpt lat="40.249700" lon="-4.902433">
        <ele>1293.0</ele>
        <time>2013-06-15T18:42:11Z</time>
      </trkpt>
      <trkpt lat="40.249617" lon="-4.902400">
        <ele>1293.0</ele>
        <time>2013-06-15T18:42:12Z</time>
      </trkpt>
      <trkpt lat="40.249533" lon="-4.902383">
        <ele>1292.0</ele>
        <time>2013-06-15T18:42:13Z</time>
      </trkpt>
      <trkpt lat="40.249450" lon="-4.902367">
        <ele>1291.0</ele>
        <time>2013-06-15T18:42:14Z</time>
      </trkpt>
      <trkpt lat="40.249400" lon="-4.902400">
        <ele>1291.0</ele>
        <time>2013-06-15T18:42:15Z</time>
      </trkpt>
      <trkpt lat="40.249367" lon="-4.902433">
        <ele>1290.0</ele>
        <time>2013-06-15T18:42:16Z</time>
      </trkpt>
      <trkpt lat="40.249367" lon="-4.902483">
        <ele>1289.0</ele>
        <time>2013-06-15T18:42:17Z</time>
      </trkpt>
      <trkpt lat="40.249383" lon="-4.902517">
        <ele>1288.0</ele>
        <time>2013-06-15T18:42:18Z</time>
      </trkpt>
      <trkpt lat="40.249433" lon="-4.902550">
        <ele>1288.0</ele>
        <time>2013-06-15T18:42:19Z</time>
      </trkpt>
      <trkpt lat="40.249500" lon="-4.902550">
        <ele>1289.0</ele>
        <time>2013-06-15T18:42:20Z</time>
      </trkpt>
      <trkpt lat="40.249583" lon="-4.902517">
        <ele>1289.0</ele>
        <time>2013-06-15T18:42:21Z</time>
      </trkpt>
      <trkpt lat="40.249650" lon="-4.902467">
        <ele>1289.0</ele>
        <time>2013-06-15T18:42:22Z</time>
      </trkpt>
      <trkpt lat="40.249733" lon="-4.902417">
        <ele>1288.0</ele>
        <time>2013-06-15T18:42:23Z</time>
      </trkpt>
      <trkpt lat="40.249817" lon="-4.902383">
        <ele>1288.0</ele>
        <time>2013-06-15T18:42:24Z</time>
      </trkpt>
      <trkpt lat="40.249900" lon="-4.902350">
        <ele>1289.0</ele>
        <time>2013-06-15T18:42:25Z</time>
      </trkpt>
      <trkpt lat="40.249983" lon="-4.902300">
        <ele>1290.0</ele>
        <time>2013-06-15T18:42:26Z</time>
      </trkpt>
      <trkpt lat="40.250067" lon="-4.902250">
        <ele>1290.0</ele>
        <time>2013-06-15T18:42:27Z</time>
      </trkpt>
      <trkpt lat="40.250133" lon="-4.902217">
        <ele>1291.0</ele>
        <time>2013-06-15T18:42:28Z</time>
      </trkpt>
      <trkpt lat="40.250217" lon="-4.902200">
        <ele>1290.0</ele>
        <time>2013-06-15T18:42:29Z</time>
      </trkpt>
      <trkpt lat="40.250283" lon="-4.902183">
        <ele>1290.0</ele>
        <time>2013-06-15T18:42:30Z</time>
      </trkpt>
      <trkpt lat="40.250350" lon="-4.902167">
        <ele>1290.0</ele>
        <time>2013-06-15T18:42:31Z</time>
      </trkpt>
      <trkpt lat="40.250417" lon="-4.902167">
        <ele>1290.0</ele>
        <time>2013-06-15T18:42:32Z</time>
      </trkpt>
      <trkpt lat="40.250483" lon="-4.902167">
        <ele>1291.0</ele>
        <time>2013-06-15T18:42:33Z</time>
      </trkpt>
      <trkpt lat="40.250533" lon="-4.902183">
        <ele>1292.0</ele>
        <time>2013-06-15T18:42:34Z</time>
      </trkpt>
      <trkpt lat="40.250583" lon="-4.902200">
        <ele>1292.0</ele>
        <time>2013-06-15T18:42:35Z</time>
      </trkpt>
      <trkpt lat="40.250633" lon="-4.902217">
        <ele>1292.0</ele>
        <time>2013-06-15T18:42:36Z</time>
      </trkpt>
      <trkpt lat="40.250683" lon="-4.902233">
        <ele>1292.0</ele>
        <time>2013-06-15T18:42:37Z</time>
      </trkpt>
      <trkpt lat="40.250733" lon="-4.902267">
        <ele>1292.0</ele>
        <time>2013-06-15T18:42:38Z</time>
      </trkpt>
      <trkpt lat="40.250783" lon="-4.902283">
        <ele>1293.0</ele>
        <time>2013-06-15T18:42:39Z</time>
      </trkpt>
      <trkpt lat="40.250833" lon="-4.902300">
        <ele>1294.0</ele>
        <time>2013-06-15T18:42:40Z</time>
      </trkpt>
      <trkpt lat="40.250883" lon="-4.902300">
        <ele>1295.0</ele>
        <time>2013-06-15T18:42:41Z</time>
      </trkpt>
      <trkpt lat="40.250950" lon="-4.902300">
        <ele>1295.0</ele>
        <time>2013-06-15T18:42:42Z</time>
      </trkpt>
      <trkpt lat="40.251000" lon="-4.902283">
        <ele>1295.0</ele>
        <time>2013-06-15T18:42:43Z</time>
      </trkpt>
      <trkpt lat="40.251067" lon="-4.902283">
        <ele>1294.0</ele>
        <time>2013-06-15T18:42:44Z</time>
      </trkpt>
      <trkpt lat="40.251150" lon="-4.902283">
        <ele>1294.0</ele>
        <time>2013-06-15T18:42:45Z</time>
      </trkpt>
      <trkpt lat="40.251217" lon="-4.902283">
        <ele>1294.0</ele>
        <time>2013-06-15T18:42:46Z</time>
      </trkpt>
      <trkpt lat="40.251283" lon="-4.902300">
        <ele>1294.0</ele>
        <time>2013-06-15T18:42:47Z</time>
      </trkpt>
      <trkpt lat="40.251333" lon="-4.902317">
        <ele>1294.0</ele>
        <time>2013-06-15T18:42:48Z</time>
      </trkpt>
      <trkpt lat="40.251383" lon="-4.902350">
        <ele>1294.0</ele>
        <time>2013-06-15T18:42:49Z</time>
      </trkpt>
      <trkpt lat="40.251417" lon="-4.902383">
        <ele>1295.0</ele>
        <time>2013-06-15T18:42:50Z</time>
      </trkpt>
      <trkpt lat="40.251417" lon="-4.902433">
        <ele>1294.0</ele>
        <time>2013-06-15T18:42:51Z</time>
      </trkpt>
      <trkpt lat="40.251417" lon="-4.902483">
        <ele>1294.0</ele>
        <time>2013-06-15T18:42:52Z</time>
      </trkpt>
      <trkpt lat="40.251400" lon="-4.902533">
        <ele>1294.0</ele>
        <time>2013-06-15T18:42:53Z</time>
      </trkpt>
      <trkpt lat="40.251367" lon="-4.902567">
        <ele>1293.0</ele>
        <time>2013-06-15T18:42:54Z</time>
      </trkpt>
      <trkpt lat="40.251333" lon="-4.902600">
        <ele>1293.0</ele>
        <time>2013-06-15T18:42:55Z</time>
      </trkpt>
      <trkpt lat="40.251283" lon="-4.902633">
        <ele>1293.0</ele>
        <time>2013-06-15T18:42:56Z</time>
      </trkpt>
      <trkpt lat="40.251233" lon="-4.902650">
        <ele>1293.0</ele>
        <time>2013-06-15T18:42:57Z</time>
      </trkpt>
      <trkpt lat="40.251183" lon="-4.902683">
        <ele>1293.0</ele>
        <time>2013-06-15T18:42:58Z</time>
      </trkpt>
      <trkpt lat="40.251117" lon="-4.902683">
        <ele>1294.0</ele>
        <time>2013-06-15T18:42:59Z</time>
      </trkpt>
      <trkpt lat="40.251067" lon="-4.902700">
        <ele>1294.0</ele>
        <time>2013-06-15T18:43:00Z</time>
      </trkpt>
      <trkpt lat="40.251017" lon="-4.902717">
        <ele>1294.0</ele>
        <time>2013-06-15T18:43:01Z</time>
      </trkpt>
      <trkpt lat="40.250967" lon="-4.902733">
        <ele>1294.0</ele>
        <time>2013-06-15T18:43:02Z</time>
      </trkpt>
      <trkpt lat="40.250900" lon="-4.902750">
        <ele>1294.0</ele>
        <time>2013-06-15T18:43:03Z</time>
      </trkpt>
      <trkpt lat="40.250833" lon="-4.902750">
        <ele>1295.0</ele>
        <time>2013-06-15T18:43:04Z</time>
      </trkpt>
      <trkpt lat="40.250767" lon="-4.902733">
        <ele>1296.0</ele>
        <time>2013-06-15T18:43:05Z</time>
      </trkpt>
      <trkpt lat="40.250700" lon="-4.902717">
        <ele>1296.0</ele>
        <time>2013-06-15T18:43:06Z</time>
      </trkpt>
      <trkpt lat="40.250633" lon="-4.902700">
        <ele>1296.0</ele>
        <time>2013-06-15T18:43:07Z</time>
      </trkpt>
      <trkpt lat="40.250567" lon="-4.902683">
        <ele>1296.0</ele>
        <time>2013-06-15T18:43:08Z</time>
      </trkpt>
      <trkpt lat="40.250483" lon="-4.902667">
        <ele>1296.0</ele>
        <time>2013-06-15T18:43:09Z</time>
      </trkpt>
      <trkpt lat="40.250417" lon="-4.902650">
        <ele>1296.0</ele>
        <time>2013-06-15T18:43:10Z</time>
      </trkpt>
      <trkpt lat="40.250333" lon="-4.902617">
        <ele>1296.0</ele>
        <time>2013-06-15T18:43:11Z</time>
      </trkpt>
      <trkpt lat="40.250250" lon="-4.902583">
        <ele>1296.0</ele>
        <time>2013-06-15T18:43:12Z</time>
      </trkpt>
      <trkpt lat="40.250167" lon="-4.902550">
        <ele>1296.0</ele>
        <time>2013-06-15T18:43:13Z</time>
      </trkpt>
      <trkpt lat="40.250083" lon="-4.902533">
        <ele>1296.0</ele>
        <time>2013-06-15T18:43:14Z</time>
      </trkpt>
      <trkpt lat="40.250000" lon="-4.902500">
        <ele>1296.0</ele>
        <time>2013-06-15T18:43:15Z</time>
      </trkpt>
      <trkpt lat="40.249917" lon="-4.902467">
        <ele>1296.0</ele>
        <time>2013-06-15T18:43:16Z</time>
      </trkpt>
      <trkpt lat="40.249833" lon="-4.902417">
        <ele>1296.0</ele>
        <time>2013-06-15T18:43:17Z</time>
      </trkpt>
      <trkpt lat="40.249750" lon="-4.902383">
        <ele>1296.0</ele>
        <time>2013-06-15T18:43:18Z</time>
      </trkpt>
      <trkpt lat="40.249667" lon="-4.902333">
        <ele>1295.0</ele>
        <time>2013-06-15T18:43:19Z</time>
      </trkpt>
      <trkpt lat="40.249567" lon="-4.902283">
        <ele>1294.0</ele>
        <time>2013-06-15T18:43:20Z</time>
      </trkpt>
      <trkpt lat="40.249483" lon="-4.902233">
        <ele>1293.0</ele>
        <time>2013-06-15T18:43:21Z</time>
      </trkpt>
      <trkpt lat="40.249400" lon="-4.902167">
        <ele>1293.0</ele>
        <time>2013-06-15T18:43:22Z</time>
      </trkpt>
      <trkpt lat="40.249300" lon="-4.902100">
        <ele>1293.0</ele>
        <time>2013-06-15T18:43:23Z</time>
      </trkpt>
      <trkpt lat="40.249217" lon="-4.902050">
        <ele>1292.0</ele>
        <time>2013-06-15T18:43:24Z</time>
      </trkpt>
      <trkpt lat="40.249117" lon="-4.902000">
        <ele>1291.0</ele>
        <time>2013-06-15T18:43:25Z</time>
      </trkpt>
      <trkpt lat="40.249033" lon="-4.901967">
        <ele>1291.0</ele>
        <time>2013-06-15T18:43:26Z</time>
      </trkpt>
      <trkpt lat="40.248950" lon="-4.901967">
        <ele>1290.0</ele>
        <time>2013-06-15T18:43:27Z</time>
      </trkpt>
      <trkpt lat="40.248900" lon="-4.901967">
        <ele>1290.0</ele>
        <time>2013-06-15T18:43:28Z</time>
      </trkpt>
      <trkpt lat="40.248850" lon="-4.901983">
        <ele>1290.0</ele>
        <time>2013-06-15T18:43:29Z</time>
      </trkpt>
      <trkpt lat="40.248800" lon="-4.902033">
        <ele>1290.0</ele>
        <time>2013-06-15T18:43:30Z</time>
      </trkpt>
      <trkpt lat="40.248783" lon="-4.902067">
        <ele>1289.0</ele>
        <time>2013-06-15T18:43:31Z</time>
      </trkpt>
      <trkpt lat="40.248783" lon="-4.902117">
        <ele>1288.0</ele>
        <time>2013-06-15T18:43:32Z</time>
      </trkpt>
      <trkpt lat="40.248800" lon="-4.902167">
        <ele>1288.0</ele>
        <time>2013-06-15T18:43:33Z</time>
      </trkpt>
      <trkpt lat="40.248833" lon="-4.902217">
        <ele>1288.0</ele>
        <time>2013-06-15T18:43:34Z</time>
      </trkpt>
      <trkpt lat="40.248867" lon="-4.902250">
        <ele>1288.0</ele>
        <time>2013-06-15T18:43:35Z</time>
      </trkpt>
      <trkpt lat="40.248900" lon="-4.902283">
        <ele>1288.0</ele>
        <time>2013-06-15T18:43:36Z</time>
      </trkpt>
      <trkpt lat="40.248917" lon="-4.902317">
        <ele>1287.0</ele>
        <time>2013-06-15T18:43:37Z</time>
      </trkpt>
      <trkpt lat="40.248950" lon="-4.902367">
        <ele>1287.0</ele>
        <time>2013-06-15T18:43:38Z</time>
      </trkpt>
      <trkpt lat="40.248983" lon="-4.902383">
        <ele>1286.0</ele>
        <time>2013-06-15T18:43:39Z</time>
      </trkpt>
      <trkpt lat="40.249050" lon="-4.902400">
        <ele>1285.0</ele>
        <time>2013-06-15T18:43:40Z</time>
      </trkpt>
      <trkpt lat="40.249133" lon="-4.902400">
        <ele>1284.0</ele>
        <time>2013-06-15T18:43:41Z</time>
      </trkpt>
      <trkpt lat="40.249200" lon="-4.902383">
        <ele>1284.0</ele>
        <time>2013-06-15T18:43:42Z</time>
      </trkpt>
      <trkpt lat="40.249283" lon="-4.902333">
        <ele>1284.0</ele>
        <time>2013-06-15T18:43:43Z</time>
      </trkpt>
      <trkpt lat="40.249350" lon="-4.902300">
        <ele>1285.0</ele>
        <time>2013-06-15T18:43:44Z</time>
      </trkpt>
      <trkpt lat="40.249433" lon="-4.902267">
        <ele>1284.0</ele>
        <time>2013-06-15T18:43:45Z</time>
      </trkpt>
      <trkpt lat="40.249500" lon="-4.902233">
        <ele>1284.0</ele>
        <time>2013-06-15T18:43:46Z</time>
      </trkpt>
      <trkpt lat="40.249583" lon="-4.902200">
        <ele>1284.0</ele>
        <time>2013-06-15T18:43:47Z</time>
      </trkpt>
      <trkpt lat="40.249633" lon="-4.902200">
        <ele>1285.0</ele>
        <time>2013-06-15T18:43:48Z</time>
      </trkpt>
      <trkpt lat="40.249700" lon="-4.902183">
        <ele>1285.0</ele>
        <time>2013-06-15T18:43:49Z</time>
      </trkpt>
      <trkpt lat="40.249750" lon="-4.902183">
        <ele>1285.0</ele>
        <time>2013-06-15T18:43:50Z</time>
      </trkpt>
      <trkpt lat="40.249800" lon="-4.902200">
        <ele>1285.0</ele>
        <time>2013-06-15T18:43:51Z</time>
      </trkpt>
      <trkpt lat="40.249850" lon="-4.902217">
        <ele>1285.0</ele>
        <time>2013-06-15T18:43:52Z</time>
      </trkpt>
      <trkpt lat="40.249900" lon="-4.902233">
        <ele>1285.0</ele>
        <time>2013-06-15T18:43:53Z</time>
      </trkpt>
      <trkpt lat="40.249933" lon="-4.902250">
        <ele>1286.0</ele>
        <time>2013-06-15T18:43:54Z</time>
      </trkpt>
      <trkpt lat="40.249967" lon="-4.902267">
        <ele>1286.0</ele>
        <time>2013-06-15T18:43:55Z</time>
      </trkpt>
      <trkpt lat="40.249983" lon="-4.902300">
        <ele>1286.0</ele>
        <time>2013-06-15T18:43:56Z</time>
      </trkpt>
      <trkpt lat="40.250000" lon="-4.902333">
        <ele>1286.0</ele>
        <time>2013-06-15T18:43:57Z</time>
      </trkpt>
      <trkpt lat="40.249983" lon="-4.902367">
        <ele>1286.0</ele>
        <time>2013-06-15T18:43:58Z</time>
      </trkpt>
      <trkpt lat="40.249950" lon="-4.902400">
        <ele>1286.0</ele>
        <time>2013-06-15T18:43:59Z</time>
      </trkpt>
      <trkpt lat="40.249917" lon="-4.902433">
        <ele>1286.0</ele>
        <time>2013-06-15T18:44:00Z</time>
      </trkpt>
      <trkpt lat="40.249867" lon="-4.902450">
        <ele>1286.0</ele>
        <time>2013-06-15T18:44:01Z</time>
      </trkpt>
      <trkpt lat="40.249800" lon="-4.902467">
        <ele>1287.0</ele>
        <time>2013-06-15T18:44:02Z</time>
      </trkpt>
      <trkpt lat="40.249733" lon="-4.902450">
        <ele>1287.0</ele>
        <time>2013-06-15T18:44:03Z</time>
      </trkpt>
      <trkpt lat="40.249650" lon="-4.902417">
        <ele>1288.0</ele>
        <time>2013-06-15T18:44:04Z</time>
      </trkpt>
      <trkpt lat="40.249583" lon="-4.902400">
        <ele>1288.0</ele>
        <time>2013-06-15T18:44:05Z</time>
      </trkpt>
      <trkpt lat="40.249500" lon="-4.902367">
        <ele>1288.0</ele>
        <time>2013-06-15T18:44:06Z</time>
      </trkpt>
      <trkpt lat="40.249417" lon="-4.902350">
        <ele>1287.0</ele>
        <time>2013-06-15T18:44:07Z</time>
      </trkpt>
      <trkpt lat="40.249333" lon="-4.902333">
        <ele>1287.0</ele>
        <time>2013-06-15T18:44:08Z</time>
      </trkpt>
      <trkpt lat="40.249267" lon="-4.902317">
        <ele>1287.0</ele>
        <time>2013-06-15T18:44:09Z</time>
      </trkpt>
      <trkpt lat="40.249200" lon="-4.902317">
        <ele>1287.0</ele>
        <time>2013-06-15T18:44:10Z</time>
      </trkpt>
      <trkpt lat="40.249133" lon="-4.902333">
        <ele>1287.0</ele>
        <time>2013-06-15T18:44:11Z</time>
      </trkpt>
      <trkpt lat="40.249100" lon="-4.902367">
        <ele>1286.0</ele>
        <time>2013-06-15T18:44:12Z</time>
      </trkpt>
      <trkpt lat="40.249100" lon="-4.902400">
        <ele>1285.0</ele>
        <time>2013-06-15T18:44:13Z</time>
      </trkpt>
      <trkpt lat="40.249117" lon="-4.902450">
        <ele>1284.0</ele>
        <time>2013-06-15T18:44:14Z</time>
      </trkpt>
      <trkpt lat="40.249133" lon="-4.902467">
        <ele>1284.0</ele>
        <time>2013-06-15T18:44:15Z</time>
      </trkpt>
      <trkpt lat="40.249183" lon="-4.902483">
        <ele>1283.0</ele>
        <time>2013-06-15T18:44:16Z</time>
      </trkpt>
      <trkpt lat="40.249250" lon="-4.902483">
        <ele>1281.0</ele>
        <time>2013-06-15T18:44:17Z</time>
      </trkpt>
      <trkpt lat="40.249317" lon="-4.902483">
        <ele>1280.0</ele>
        <time>2013-06-15T18:44:18Z</time>
      </trkpt>
      <trkpt lat="40.249383" lon="-4.902483">
        <ele>1279.0</ele>
        <time>2013-06-15T18:44:19Z</time>
      </trkpt>
      <trkpt lat="40.249450" lon="-4.902483">
        <ele>1278.0</ele>
        <time>2013-06-15T18:44:20Z</time>
      </trkpt>
      <trkpt lat="40.249533" lon="-4.902467">
        <ele>1279.0</ele>
        <time>2013-06-15T18:44:21Z</time>
      </trkpt>
      <trkpt lat="40.249600" lon="-4.902433">
        <ele>1278.0</ele>
        <time>2013-06-15T18:44:22Z</time>
      </trkpt>
      <trkpt lat="40.249700" lon="-4.902383">
        <ele>1278.0</ele>
        <time>2013-06-15T18:44:23Z</time>
      </trkpt>
      <trkpt lat="40.249783" lon="-4.902350">
        <ele>1279.0</ele>
        <time>2013-06-15T18:44:24Z</time>
      </trkpt>
      <trkpt lat="40.249850" lon="-4.902317">
        <ele>1280.0</ele>
        <time>2013-06-15T18:44:25Z</time>
      </trkpt>
      <trkpt lat="40.249917" lon="-4.902300">
        <ele>1281.0</ele>
        <time>2013-06-15T18:44:26Z</time>
      </trkpt>
      <trkpt lat="40.250000" lon="-4.902283">
        <ele>1281.0</ele>
        <time>2013-06-15T18:44:27Z</time>
      </trkpt>
      <trkpt lat="40.250067" lon="-4.902267">
        <ele>1281.0</ele>
        <time>2013-06-15T18:44:28Z</time>
      </trkpt>
      <trkpt lat="40.250167" lon="-4.902233">
        <ele>1281.0</ele>
        <time>2013-06-15T18:44:29Z</time>
      </trkpt>
      <trkpt lat="40.250250" lon="-4.902200">
        <ele>1280.0</ele>
        <time>2013-06-15T18:44:30Z</time>
      </trkpt>
      <trkpt lat="40.250333" lon="-4.902183">
        <ele>1281.0</ele>
        <time>2013-06-15T18:44:31Z</time>
      </trkpt>
      <trkpt lat="40.250417" lon="-4.902183">
        <ele>1281.0</ele>
        <time>2013-06-15T18:44:32Z</time>
      </trkpt>
      <trkpt lat="40.250483" lon="-4.902167">
        <ele>1281.0</ele>
        <time>2013-06-15T18:44:33Z</time>
      </trkpt>
      <trkpt lat="40.250550" lon="-4.902150">
        <ele>1281.0</ele>
        <time>2013-06-15T18:44:34Z</time>
      </trkpt>
      <trkpt lat="40.250633" lon="-4.902133">
        <ele>1281.0</ele>
        <time>2013-06-15T18:44:35Z</time>
      </trkpt>
      <trkpt lat="40.250700" lon="-4.902100">
        <ele>1281.0</ele>
        <time>2013-06-15T18:44:36Z</time>
      </trkpt>
      <trkpt lat="40.250783" lon="-4.902083">
        <ele>1282.0</ele>
        <time>2013-06-15T18:44:37Z</time>
      </trkpt>
      <trkpt lat="40.250850" lon="-4.902083">
        <ele>1282.0</ele>
        <time>2013-06-15T18:44:38Z</time>
      </trkpt>
      <trkpt lat="40.250900" lon="-4.902083">
        <ele>1282.0</ele>
        <time>2013-06-15T18:44:39Z</time>
      </trkpt>
      <trkpt lat="40.250967" lon="-4.902083">
        <ele>1282.0</ele>
        <time>2013-06-15T18:44:40Z</time>
      </trkpt>
      <trkpt lat="40.251033" lon="-4.902083">
        <ele>1282.0</ele>
        <time>2013-06-15T18:44:41Z</time>
      </trkpt>
      <trkpt lat="40.251100" lon="-4.902083">
        <ele>1282.0</ele>
        <time>2013-06-15T18:44:42Z</time>
      </trkpt>
      <trkpt lat="40.251167" lon="-4.902083">
        <ele>1283.0</ele>
        <time>2013-06-15T18:44:43Z</time>
      </trkpt>
      <trkpt lat="40.251217" lon="-4.902100">
        <ele>1283.0</ele>
        <time>2013-06-15T18:44:44Z</time>
      </trkpt>
      <trkpt lat="40.251267" lon="-4.902133">
        <ele>1283.0</ele>
        <time>2013-06-15T18:44:45Z</time>
      </trkpt>
      <trkpt lat="40.251317" lon="-4.902167">
        <ele>1284.0</ele>
        <time>2013-06-15T18:44:46Z</time>
      </trkpt>
      <trkpt lat="40.251367" lon="-4.902200">
        <ele>1285.0</ele>
        <time>2013-06-15T18:44:47Z</time>
      </trkpt>
      <trkpt lat="40.251400" lon="-4.902233">
        <ele>1286.0</ele>
        <time>2013-06-15T18:44:48Z</time>
      </trkpt>
      <trkpt lat="40.251433" lon="-4.902267">
        <ele>1286.0</ele>
        <time>2013-06-15T18:44:49Z</time>
      </trkpt>
      <trkpt lat="40.251433" lon="-4.902317">
        <ele>1286.0</ele>
        <time>2013-06-15T18:44:50Z</time>
      </trkpt>
      <trkpt lat="40.251433" lon="-4.902367">
        <ele>1286.0</ele>
        <time>2013-06-15T18:44:51Z</time>
      </trkpt>
      <trkpt lat="40.251433" lon="-4.902417">
        <ele>1286.0</ele>
        <time>2013-06-15T18:44:52Z</time>
      </trkpt>
      <trkpt lat="40.251400" lon="-4.902483">
        <ele>1286.0</ele>
        <time>2013-06-15T18:44:53Z</time>
      </trkpt>
      <trkpt lat="40.251367" lon="-4.902533">
        <ele>1286.0</ele>
        <time>2013-06-15T18:44:54Z</time>
      </trkpt>
      <trkpt lat="40.251333" lon="-4.902550">
        <ele>1287.0</ele>
        <time>2013-06-15T18:44:55Z</time>
      </trkpt>
      <trkpt lat="40.251283" lon="-4.902567">
        <ele>1288.0</ele>
        <time>2013-06-15T18:44:56Z</time>
      </trkpt>
      <trkpt lat="40.251250" lon="-4.902583">
        <ele>1289.0</ele>
        <time>2013-06-15T18:44:57Z</time>
      </trkpt>
      <trkpt lat="40.251200" lon="-4.902583">
        <ele>1288.0</ele>
        <time>2013-06-15T18:44:58Z</time>
      </trkpt>
      <trkpt lat="40.251133" lon="-4.902583">
        <ele>1287.0</ele>
        <time>2013-06-15T18:44:59Z</time>
      </trkpt>
      <trkpt lat="40.251067" lon="-4.902567">
        <ele>1286.0</ele>
        <time>2013-06-15T18:45:00Z</time>
      </trkpt>
      <trkpt lat="40.250983" lon="-4.902550">
        <ele>1286.0</ele>
        <time>2013-06-15T18:45:01Z</time>
      </trkpt>
      <trkpt lat="40.250917" lon="-4.902533">
        <ele>1286.0</ele>
        <time>2013-06-15T18:45:02Z</time>
      </trkpt>
      <trkpt lat="40.250850" lon="-4.902517">
        <ele>1287.0</ele>
        <time>2013-06-15T18:45:03Z</time>
      </trkpt>
      <trkpt lat="40.250783" lon="-4.902483">
        <ele>1287.0</ele>
        <time>2013-06-15T18:45:04Z</time>
      </trkpt>
      <trkpt lat="40.250717" lon="-4.902467">
        <ele>1286.0</ele>
        <time>2013-06-15T18:45:05Z</time>
      </trkpt>
      <trkpt lat="40.250650" lon="-4.902450">
        <ele>1286.0</ele>
        <time>2013-06-15T18:45:06Z</time>
      </trkpt>
      <trkpt lat="40.250567" lon="-4.902433">
        <ele>1286.0</ele>
        <time>2013-06-15T18:45:07Z</time>
      </trkpt>
      <trkpt lat="40.250483" lon="-4.902417">
        <ele>1287.0</ele>
        <time>2013-06-15T18:45:08Z</time>
      </trkpt>
      <trkpt lat="40.250417" lon="-4.902400">
        <ele>1288.0</ele>
        <time>2013-06-15T18:45:09Z</time>
      </trkpt>
      <trkpt lat="40.250350" lon="-4.902383">
        <ele>1288.0</ele>
        <time>2013-06-15T18:45:10Z</time>
      </trkpt>
      <trkpt lat="40.250267" lon="-4.902350">
        <ele>1288.0</ele>
        <time>2013-06-15T18:45:11Z</time>
      </trkpt>
      <trkpt lat="40.250183" lon="-4.902333">
        <ele>1288.0</ele>
        <time>2013-06-15T18:45:12Z</time>
      </trkpt>
      <trkpt lat="40.250100" lon="-4.902300">
        <ele>1288.0</ele>
        <time>2013-06-15T18:45:13Z</time>
      </trkpt>
      <trkpt lat="40.250017" lon="-4.902283">
        <ele>1287.0</ele>
        <time>2013-06-15T18:45:14Z</time>
      </trkpt>
      <trkpt lat="40.249933" lon="-4.902250">
        <ele>1287.0</ele>
        <time>2013-06-15T18:45:15Z</time>
      </trkpt>
      <trkpt lat="40.249850" lon="-4.902233">
        <ele>1287.0</ele>
        <time>2013-06-15T18:45:16Z</time>
      </trkpt>
      <trkpt lat="40.249767" lon="-4.902217">
        <ele>1286.0</ele>
        <time>2013-06-15T18:45:17Z</time>
      </trkpt>
      <trkpt lat="40.249683" lon="-4.902217">
        <ele>1287.0</ele>
        <time>2013-06-15T18:45:18Z</time>
      </trkpt>
      <trkpt lat="40.249617" lon="-4.902233">
        <ele>1287.0</ele>
        <time>2013-06-15T18:45:19Z</time>
      </trkpt>
      <trkpt lat="40.249583" lon="-4.902267">
        <ele>1286.0</ele>
        <time>2013-06-15T18:45:20Z</time>
      </trkpt>
      <trkpt lat="40.249567" lon="-4.902333">
        <ele>1285.0</ele>
        <time>2013-06-15T18:45:21Z</time>
      </trkpt>
      <trkpt lat="40.249583" lon="-4.902383">
        <ele>1285.0</ele>
        <time>2013-06-15T18:45:22Z</time>
      </trkpt>
      <trkpt lat="40.249617" lon="-4.902433">
        <ele>1285.0</ele>
        <time>2013-06-15T18:45:23Z</time>
      </trkpt>
      <trkpt lat="40.249667" lon="-4.902450">
        <ele>1285.0</ele>
        <time>2013-06-15T18:45:24Z</time>
      </trkpt>
      <trkpt lat="40.249717" lon="-4.902467">
        <ele>1285.0</ele>
        <time>2013-06-15T18:45:25Z</time>
      </trkpt>
      <trkpt lat="40.249783" lon="-4.902467">
        <ele>1286.0</ele>
        <time>2013-06-15T18:45:26Z</time>
      </trkpt>
      <trkpt lat="40.249833" lon="-4.902467">
        <ele>1285.0</ele>
        <time>2013-06-15T18:45:27Z</time>
      </trkpt>
      <trkpt lat="40.249917" lon="-4.902450">
        <ele>1285.0</ele>
        <time>2013-06-15T18:45:28Z</time>
      </trkpt>
      <trkpt lat="40.249983" lon="-4.902433">
        <ele>1284.0</ele>
        <time>2013-06-15T18:45:29Z</time>
      </trkpt>
      <trkpt lat="40.250067" lon="-4.902417">
        <ele>1284.0</ele>
        <time>2013-06-15T18:45:30Z</time>
      </trkpt>
      <trkpt lat="40.250167" lon="-4.902400">
        <ele>1284.0</ele>
        <time>2013-06-15T18:45:31Z</time>
      </trkpt>
      <trkpt lat="40.250250" lon="-4.902383">
        <ele>1284.0</ele>
        <time>2013-06-15T18:45:32Z</time>
      </trkpt>
      <trkpt lat="40.250333" lon="-4.902367">
        <ele>1284.0</ele>
        <time>2013-06-15T18:45:33Z</time>
      </trkpt>
      <trkpt lat="40.250417" lon="-4.902333">
        <ele>1285.0</ele>
        <time>2013-06-15T18:45:34Z</time>
      </trkpt>
      <trkpt lat="40.250483" lon="-4.902283">
        <ele>1285.0</ele>
        <time>2013-06-15T18:45:35Z</time>
      </trkpt>
      <trkpt lat="40.250567" lon="-4.902267">
        <ele>1285.0</ele>
        <time>2013-06-15T18:45:36Z</time>
      </trkpt>
      <trkpt lat="40.250650" lon="-4.902233">
        <ele>1285.0</ele>
        <time>2013-06-15T18:45:37Z</time>
      </trkpt>
      <trkpt lat="40.250717" lon="-4.902233">
        <ele>1285.0</ele>
        <time>2013-06-15T18:45:38Z</time>
      </trkpt>
      <trkpt lat="40.250767" lon="-4.902217">
        <ele>1285.0</ele>
        <time>2013-06-15T18:45:39Z</time>
      </trkpt>
      <trkpt lat="40.250833" lon="-4.902217">
        <ele>1284.0</ele>
        <time>2013-06-15T18:45:40Z</time>
      </trkpt>
      <trkpt lat="40.250900" lon="-4.902200">
        <ele>1284.0</ele>
        <time>2013-06-15T18:45:41Z</time>
      </trkpt>
      <trkpt lat="40.250967" lon="-4.902217">
        <ele>1283.0</ele>
        <time>2013-06-15T18:45:42Z</time>
      </trkpt>
      <trkpt lat="40.251033" lon="-4.902217">
        <ele>1282.0</ele>
        <time>2013-06-15T18:45:43Z</time>
      </trkpt>
      <trkpt lat="40.251100" lon="-4.902250">
        <ele>1281.0</ele>
        <time>2013-06-15T18:45:44Z</time>
      </trkpt>
      <trkpt lat="40.251150" lon="-4.902267">
        <ele>1281.0</ele>
        <time>2013-06-15T18:45:45Z</time>
      </trkpt>
      <trkpt lat="40.251200" lon="-4.902283">
        <ele>1281.0</ele>
        <time>2013-06-15T18:45:46Z</time>
      </trkpt>
      <trkpt lat="40.251267" lon="-4.902300">
        <ele>1281.0</ele>
        <time>2013-06-15T18:45:47Z</time>
      </trkpt>
      <trkpt lat="40.251317" lon="-4.902317">
        <ele>1281.0</ele>
        <time>2013-06-15T18:45:48Z</time>
      </trkpt>
      <trkpt lat="40.251383" lon="-4.902317">
        <ele>1281.0</ele>
        <time>2013-06-15T18:45:49Z</time>
      </trkpt>
      <trkpt lat="40.251467" lon="-4.902317">
        <ele>1280.0</ele>
        <time>2013-06-15T18:45:50Z</time>
      </trkpt>
      <trkpt lat="40.251533" lon="-4.902350">
        <ele>1280.0</ele>
        <time>2013-06-15T18:45:51Z</time>
      </trkpt>
      <trkpt lat="40.251617" lon="-4.902383">
        <ele>1280.0</ele>
        <time>2013-06-15T18:45:52Z</time>
      </trkpt>
      <trkpt lat="40.251700" lon="-4.902417">
        <ele>1281.0</ele>
        <time>2013-06-15T18:45:53Z</time>
      </trkpt>
      <trkpt lat="40.251767" lon="-4.902450">
        <ele>1284.0</ele>
        <time>2013-06-15T18:45:54Z</time>
      </trkpt>
      <trkpt lat="40.251817" lon="-4.902450">
        <ele>1286.0</ele>
        <time>2013-06-15T18:45:55Z</time>
      </trkpt>
      <trkpt lat="40.251883" lon="-4.902467">
        <ele>1287.0</ele>
        <time>2013-06-15T18:45:56Z</time>
      </trkpt>
      <trkpt lat="40.251933" lon="-4.902467">
        <ele>1288.0</ele>
        <time>2013-06-15T18:45:57Z</time>
      </trkpt>
      <trkpt lat="40.252000" lon="-4.902500">
        <ele>1287.0</ele>
        <time>2013-06-15T18:45:58Z</time>
      </trkpt>
      <trkpt lat="40.252050" lon="-4.902550">
        <ele>1287.0</ele>
        <time>2013-06-15T18:45:59Z</time>
      </trkpt>
      <trkpt lat="40.252100" lon="-4.902583">
        <ele>1287.0</ele>
        <time>2013-06-15T18:46:00Z</time>
      </trkpt>
      <trkpt lat="40.252133" lon="-4.902633">
        <ele>1288.0</ele>
        <time>2013-06-15T18:46:01Z</time>
      </trkpt>
      <trkpt lat="40.252183" lon="-4.902650">
        <ele>1288.0</ele>
        <time>2013-06-15T18:46:02Z</time>
      </trkpt>
      <trkpt lat="40.252217" lon="-4.902700">
        <ele>1287.0</ele>
        <time>2013-06-15T18:46:03Z</time>
      </trkpt>
      <trkpt lat="40.252250" lon="-4.902750">
        <ele>1286.0</ele>
        <time>2013-06-15T18:46:04Z</time>
      </trkpt>
      <trkpt lat="40.252283" lon="-4.902800">
        <ele>1286.0</ele>
        <time>2013-06-15T18:46:05Z</time>
      </trkpt>
      <trkpt lat="40.252333" lon="-4.902867">
        <ele>1287.0</ele>
        <time>2013-06-15T18:46:06Z</time>
      </trkpt>
      <trkpt lat="40.252367" lon="-4.902917">
        <ele>1289.0</ele>
        <time>2013-06-15T18:46:07Z</time>
      </trkpt>
      <trkpt lat="40.252400" lon="-4.902950">
        <ele>1290.0</ele>
        <time>2013-06-15T18:46:08Z</time>
      </trkpt>
      <trkpt lat="40.252450" lon="-4.902967">
        <ele>1291.0</ele>
        <time>2013-06-15T18:46:09Z</time>
      </trkpt>
      <trkpt lat="40.252483" lon="-4.902983">
        <ele>1291.0</ele>
        <time>2013-06-15T18:46:10Z</time>
      </trkpt>
      <trkpt lat="40.252533" lon="-4.903017">
        <ele>1290.0</ele>
        <time>2013-06-15T18:46:11Z</time>
      </trkpt>
      <trkpt lat="40.252583" lon="-4.903050">
        <ele>1289.0</ele>
        <time>2013-06-15T18:46:12Z</time>
      </trkpt>
      <trkpt lat="40.252633" lon="-4.903067">
        <ele>1288.0</ele>
        <time>2013-06-15T18:46:13Z</time>
      </trkpt>
      <trkpt lat="40.252683" lon="-4.903100">
        <ele>1288.0</ele>
        <time>2013-06-15T18:46:14Z</time>
      </trkpt>
      <trkpt lat="40.252733" lon="-4.903117">
        <ele>1287.0</ele>
        <time>2013-06-15T18:46:15Z</time>
      </trkpt>
      <trkpt lat="40.252783" lon="-4.903133">
        <ele>1287.0</ele>
        <time>2013-06-15T18:46:16Z</time>
      </trkpt>
      <trkpt lat="40.252817" lon="-4.903167">
        <ele>1286.0</ele>
        <time>2013-06-15T18:46:17Z</time>
      </trkpt>
      <trkpt lat="40.252867" lon="-4.903200">
        <ele>1285.0</ele>
        <time>2013-06-15T18:46:18Z</time>
      </trkpt>
      <trkpt lat="40.252900" lon="-4.903250">
        <ele>1284.0</ele>
        <time>2013-06-15T18:46:19Z</time>
      </trkpt>
      <trkpt lat="40.252917" lon="-4.903283">
        <ele>1284.0</ele>
        <time>2013-06-15T18:46:20Z</time>
      </trkpt>
      <trkpt lat="40.252950" lon="-4.903333">
        <ele>1284.0</ele>
        <time>2013-06-15T18:46:21Z</time>
      </trkpt>
      <trkpt lat="40.252967" lon="-4.903367">
        <ele>1283.0</ele>
        <time>2013-06-15T18:46:22Z</time>
      </trkpt>
      <trkpt lat="40.253000" lon="-4.903417">
        <ele>1283.0</ele>
        <time>2013-06-15T18:46:23Z</time>
      </trkpt>
      <trkpt lat="40.253050" lon="-4.903467">
        <ele>1282.0</ele>
        <time>2013-06-15T18:46:24Z</time>
      </trkpt>
      <trkpt lat="40.253100" lon="-4.903500">
        <ele>1282.0</ele>
        <time>2013-06-15T18:46:25Z</time>
      </trkpt>
      <trkpt lat="40.253150" lon="-4.903533">
        <ele>1282.0</ele>
        <time>2013-06-15T18:46:26Z</time>
      </trkpt>
      <trkpt lat="40.253200" lon="-4.903567">
        <ele>1282.0</ele>
        <time>2013-06-15T18:46:27Z</time>
      </trkpt>
      <trkpt lat="40.253233" lon="-4.903600">
        <ele>1282.0</ele>
        <time>2013-06-15T18:46:28Z</time>
      </trkpt>
      <trkpt lat="40.253267" lon="-4.903617">
        <ele>1281.0</ele>
        <time>2013-06-15T18:46:29Z</time>
      </trkpt>
      <trkpt lat="40.253300" lon="-4.903650">
        <ele>1281.0</ele>
        <time>2013-06-15T18:46:30Z</time>
      </trkpt>
      <trkpt lat="40.253333" lon="-4.903683">
        <ele>1280.0</ele>
        <time>2013-06-15T18:46:31Z</time>
      </trkpt>
      <trkpt lat="40.253350" lon="-4.903717">
        <ele>1279.0</ele>
        <time>2013-06-15T18:46:32Z</time>
      </trkpt>
      <trkpt lat="40.253333" lon="-4.903767">
        <ele>1277.0</ele>
        <time>2013-06-15T18:46:33Z</time>
      </trkpt>
      <trkpt lat="40.253300" lon="-4.903800">
        <ele>1275.0</ele>
        <time>2013-06-15T18:46:34Z</time>
      </trkpt>
      <trkpt lat="40.253233" lon="-4.903833">
        <ele>1274.0</ele>
        <time>2013-06-15T18:46:35Z</time>
      </trkpt>
      <trkpt lat="40.253150" lon="-4.903850">
        <ele>1272.0</ele>
        <time>2013-06-15T18:46:36Z</time>
      </trkpt>
      <trkpt lat="40.253083" lon="-4.903833">
        <ele>1271.0</ele>
        <time>2013-06-15T18:46:37Z</time>
      </trkpt>
      <trkpt lat="40.253000" lon="-4.903800">
        <ele>1271.0</ele>
        <time>2013-06-15T18:46:38Z</time>
      </trkpt>
      <trkpt lat="40.252917" lon="-4.903783">
        <ele>1270.0</ele>
        <time>2013-06-15T18:46:39Z</time>
      </trkpt>
      <trkpt lat="40.252833" lon="-4.903750">
        <ele>1270.0</ele>
        <time>2013-06-15T18:46:40Z</time>
      </trkpt>
      <trkpt lat="40.252750" lon="-4.903733">
        <ele>1269.0</ele>
        <time>2013-06-15T18:46:41Z</time>
      </trkpt>
      <trkpt lat="40.252650" lon="-4.903700">
        <ele>1268.0</ele>
        <time>2013-06-15T18:46:42Z</time>
      </trkpt>
      <trkpt lat="40.252567" lon="-4.903650">
        <ele>1267.0</ele>
        <time>2013-06-15T18:46:43Z</time>
      </trkpt>
      <trkpt lat="40.252467" lon="-4.903583">
        <ele>1267.0</ele>
        <time>2013-06-15T18:46:44Z</time>
      </trkpt>
      <trkpt lat="40.252383" lon="-4.903533">
        <ele>1267.0</ele>
        <time>2013-06-15T18:46:45Z</time>
      </trkpt>
      <trkpt lat="40.252300" lon="-4.903483">
        <ele>1267.0</ele>
        <time>2013-06-15T18:46:46Z</time>
      </trkpt>
      <trkpt lat="40.252217" lon="-4.903417">
        <ele>1267.0</ele>
        <time>2013-06-15T18:46:47Z</time>
      </trkpt>
      <trkpt lat="40.252133" lon="-4.903367">
        <ele>1267.0</ele>
        <time>2013-06-15T18:46:48Z</time>
      </trkpt>
      <trkpt lat="40.252033" lon="-4.903317">
        <ele>1267.0</ele>
        <time>2013-06-15T18:46:49Z</time>
      </trkpt>
      <trkpt lat="40.251950" lon="-4.903267">
        <ele>1267.0</ele>
        <time>2013-06-15T18:46:50Z</time>
      </trkpt>
      <trkpt lat="40.251867" lon="-4.903217">
        <ele>1267.0</ele>
        <time>2013-06-15T18:46:51Z</time>
      </trkpt>
      <trkpt lat="40.251783" lon="-4.903167">
        <ele>1267.0</ele>
        <time>2013-06-15T18:46:52Z</time>
      </trkpt>
      <trkpt lat="40.251700" lon="-4.903117">
        <ele>1267.0</ele>
        <time>2013-06-15T18:46:53Z</time>
      </trkpt>
      <trkpt lat="40.251617" lon="-4.903083">
        <ele>1266.0</ele>
        <time>2013-06-15T18:46:54Z</time>
      </trkpt>
      <trkpt lat="40.251533" lon="-4.903050">
        <ele>1266.0</ele>
        <time>2013-06-15T18:46:55Z</time>
      </trkpt>
      <trkpt lat="40.251450" lon="-4.903033">
        <ele>1265.0</ele>
        <time>2013-06-15T18:46:56Z</time>
      </trkpt>
      <trkpt lat="40.251367" lon="-4.903000">
        <ele>1265.0</ele>
        <time>2013-06-15T18:46:57Z</time>
      </trkpt>
      <trkpt lat="40.251283" lon="-4.902983">
        <ele>1265.0</ele>
        <time>2013-06-15T18:46:58Z</time>
      </trkpt>
      <trkpt lat="40.251200" lon="-4.902967">
        <ele>1265.0</ele>
        <time>2013-06-15T18:46:59Z</time>
      </trkpt>
      <trkpt lat="40.251117" lon="-4.902950">
        <ele>1263.0</ele>
        <time>2013-06-15T18:47:00Z</time>
      </trkpt>
      <trkpt lat="40.251033" lon="-4.902950">
        <ele>1262.0</ele>
        <time>2013-06-15T18:47:01Z</time>
      </trkpt>
      <trkpt lat="40.250950" lon="-4.902967">
        <ele>1262.0</ele>
        <time>2013-06-15T18:47:02Z</time>
      </trkpt>
      <trkpt lat="40.250867" lon="-4.902967">
        <ele>1262.0</ele>
        <time>2013-06-15T18:47:03Z</time>
      </trkpt>
      <trkpt lat="40.250800" lon="-4.902983">
        <ele>1263.0</ele>
        <time>2013-06-15T18:47:04Z</time>
      </trkpt>
      <trkpt lat="40.250717" lon="-4.903000">
        <ele>1264.0</ele>
        <time>2013-06-15T18:47:05Z</time>
      </trkpt>
      <trkpt lat="40.250633" lon="-4.902983">
        <ele>1264.0</ele>
        <time>2013-06-15T18:47:06Z</time>
      </trkpt>
      <trkpt lat="40.250550" lon="-4.902950">
        <ele>1263.0</ele>
        <time>2013-06-15T18:47:07Z</time>
      </trkpt>
      <trkpt lat="40.250450" lon="-4.902900">
        <ele>1263.0</ele>
        <time>2013-06-15T18:47:08Z</time>
      </trkpt>
      <trkpt lat="40.250350" lon="-4.902850">
        <ele>1263.0</ele>
        <time>2013-06-15T18:47:09Z</time>
      </trkpt>
      <trkpt lat="40.250233" lon="-4.902783">
        <ele>1264.0</ele>
        <time>2013-06-15T18:47:10Z</time>
      </trkpt>
      <trkpt lat="40.250133" lon="-4.902717">
        <ele>1266.0</ele>
        <time>2013-06-15T18:47:11Z</time>
      </trkpt>
      <trkpt lat="40.250033" lon="-4.902667">
        <ele>1268.0</ele>
        <time>2013-06-15T18:47:12Z</time>
      </trkpt>
      <trkpt lat="40.249950" lon="-4.902600">
        <ele>1268.0</ele>
        <time>2013-06-15T18:47:13Z</time>
      </trkpt>
      <trkpt lat="40.249867" lon="-4.902533">
        <ele>1268.0</ele>
        <time>2013-06-15T18:47:14Z</time>
      </trkpt>
      <trkpt lat="40.249767" lon="-4.902450">
        <ele>1268.0</ele>
        <time>2013-06-15T18:47:15Z</time>
      </trkpt>
      <trkpt lat="40.249683" lon="-4.902383">
        <ele>1268.0</ele>
        <time>2013-06-15T18:47:16Z</time>
      </trkpt>
      <trkpt lat="40.249583" lon="-4.902333">
        <ele>1267.0</ele>
        <time>2013-06-15T18:47:17Z</time>
      </trkpt>
      <trkpt lat="40.249500" lon="-4.902300">
        <ele>1267.0</ele>
        <time>2013-06-15T18:47:18Z</time>
      </trkpt>
      <trkpt lat="40.249417" lon="-4.902317">
        <ele>1268.0</ele>
        <time>2013-06-15T18:47:19Z</time>
      </trkpt>
      <trkpt lat="40.249367" lon="-4.902350">
        <ele>1267.0</ele>
        <time>2013-06-15T18:47:20Z</time>
      </trkpt>
      <trkpt lat="40.249350" lon="-4.902417">
        <ele>1267.0</ele>
        <time>2013-06-15T18:47:21Z</time>
      </trkpt>
      <trkpt lat="40.249367" lon="-4.902483">
        <ele>1267.0</ele>
        <time>2013-06-15T18:47:22Z</time>
      </trkpt>
      <trkpt lat="40.249417" lon="-4.902533">
        <ele>1267.0</ele>
        <time>2013-06-15T18:47:23Z</time>
      </trkpt>
      <trkpt lat="40.249500" lon="-4.902533">
        <ele>1267.0</ele>
        <time>2013-06-15T18:47:24Z</time>
      </trkpt>
      <trkpt lat="40.249567" lon="-4.902517">
        <ele>1269.0</ele>
        <time>2013-06-15T18:47:25Z</time>
      </trkpt>
      <trkpt lat="40.249650" lon="-4.902483">
        <ele>1270.0</ele>
        <time>2013-06-15T18:47:26Z</time>
      </trkpt>
      <trkpt lat="40.249733" lon="-4.902467">
        <ele>1272.0</ele>
        <time>2013-06-15T18:47:27Z</time>
      </trkpt>
      <trkpt lat="40.249817" lon="-4.902450">
        <ele>1273.0</ele>
        <time>2013-06-15T18:47:28Z</time>
      </trkpt>
      <trkpt lat="40.249883" lon="-4.902417">
        <ele>1275.0</ele>
        <time>2013-06-15T18:47:29Z</time>
      </trkpt>
      <trkpt lat="40.249967" lon="-4.902400">
        <ele>1276.0</ele>
        <time>2013-06-15T18:47:30Z</time>
      </trkpt>
      <trkpt lat="40.250033" lon="-4.902367">
        <ele>1276.0</ele>
        <time>2013-06-15T18:47:31Z</time>
      </trkpt>
      <trkpt lat="40.250117" lon="-4.902333">
        <ele>1277.0</ele>
        <time>2013-06-15T18:47:32Z</time>
      </trkpt>
      <trkpt lat="40.250183" lon="-4.902317">
        <ele>1278.0</ele>
        <time>2013-06-15T18:47:33Z</time>
      </trkpt>
      <trkpt lat="40.250250" lon="-4.902300">
        <ele>1281.0</ele>
        <time>2013-06-15T18:47:34Z</time>
      </trkpt>
      <trkpt lat="40.250317" lon="-4.902283">
        <ele>1283.0</ele>
        <time>2013-06-15T18:47:35Z</time>
      </trkpt>
      <trkpt lat="40.250383" lon="-4.902250">
        <ele>1284.0</ele>
        <time>2013-06-15T18:47:36Z</time>
      </trkpt>
      <trkpt lat="40.250433" lon="-4.902233">
        <ele>1285.0</ele>
        <time>2013-06-15T18:47:37Z</time>
      </trkpt>
      <trkpt lat="40.250500" lon="-4.902200">
        <ele>1284.0</ele>
        <time>2013-06-15T18:47:38Z</time>
      </trkpt>
      <trkpt lat="40.250567" lon="-4.902200">
        <ele>1283.0</ele>
        <time>2013-06-15T18:47:39Z</time>
      </trkpt>
      <trkpt lat="40.250617" lon="-4.902200">
        <ele>1282.0</ele>
        <time>2013-06-15T18:47:40Z</time>
      </trkpt>
      <trkpt lat="40.250683" lon="-4.902200">
        <ele>1281.0</ele>
        <time>2013-06-15T18:47:41Z</time>
      </trkpt>
      <trkpt lat="40.250733" lon="-4.902217">
        <ele>1280.0</ele>
        <time>2013-06-15T18:47:42Z</time>
      </trkpt>
      <trkpt lat="40.250800" lon="-4.902233">
        <ele>1281.0</ele>
        <time>2013-06-15T18:47:43Z</time>
      </trkpt>
      <trkpt lat="40.250867" lon="-4.902233">
        <ele>1281.0</ele>
        <time>2013-06-15T18:47:44Z</time>
      </trkpt>
      <trkpt lat="40.250917" lon="-4.902233">
        <ele>1282.0</ele>
        <time>2013-06-15T18:47:45Z</time>
      </trkpt>
      <trkpt lat="40.250983" lon="-4.902233">
        <ele>1282.0</ele>
        <time>2013-06-15T18:47:46Z</time>
      </trkpt>
      <trkpt lat="40.251033" lon="-4.902233">
        <ele>1281.0</ele>
        <time>2013-06-15T18:47:47Z</time>
      </trkpt>
      <trkpt lat="40.251100" lon="-4.902250">
        <ele>1281.0</ele>
        <time>2013-06-15T18:47:48Z</time>
      </trkpt>
      <trkpt lat="40.251150" lon="-4.902267">
        <ele>1282.0</ele>
        <time>2013-06-15T18:47:49Z</time>
      </trkpt>
      <trkpt lat="40.251200" lon="-4.902267">
        <ele>1282.0</ele>
        <time>2013-06-15T18:47:50Z</time>
      </trkpt>
      <trkpt lat="40.251250" lon="-4.902267">
        <ele>1282.0</ele>
        <time>2013-06-15T18:47:51Z</time>
      </trkpt>
      <trkpt lat="40.251317" lon="-4.902283">
        <ele>1282.0</ele>
        <time>2013-06-15T18:47:52Z</time>
      </trkpt>
      <trkpt lat="40.251367" lon="-4.902300">
        <ele>1282.0</ele>
        <time>2013-06-15T18:47:53Z</time>
      </trkpt>
      <trkpt lat="40.251433" lon="-4.902317">
        <ele>1282.0</ele>
        <time>2013-06-15T18:47:54Z</time>
      </trkpt>
      <trkpt lat="40.251500" lon="-4.902333">
        <ele>1283.0</ele>
        <time>2013-06-15T18:47:55Z</time>
      </trkpt>
      <trkpt lat="40.251550" lon="-4.902350">
        <ele>1284.0</ele>
        <time>2013-06-15T18:47:56Z</time>
      </trkpt>
      <trkpt lat="40.251617" lon="-4.902367">
        <ele>1285.0</ele>
        <time>2013-06-15T18:47:57Z</time>
      </trkpt>
      <trkpt lat="40.251667" lon="-4.902367">
        <ele>1286.0</ele>
        <time>2013-06-15T18:47:58Z</time>
      </trkpt>
      <trkpt lat="40.251717" lon="-4.902400">
        <ele>1286.0</ele>
        <time>2013-06-15T18:47:59Z</time>
      </trkpt>
      <trkpt lat="40.251750" lon="-4.902433">
        <ele>1286.0</ele>
        <time>2013-06-15T18:48:00Z</time>
      </trkpt>
      <trkpt lat="40.251750" lon="-4.902483">
        <ele>1286.0</ele>
        <time>2013-06-15T18:48:01Z</time>
      </trkpt>
      <trkpt lat="40.251750" lon="-4.902533">
        <ele>1286.0</ele>
        <time>2013-06-15T18:48:02Z</time>
      </trkpt>
      <trkpt lat="40.251750" lon="-4.902583">
        <ele>1287.0</ele>
        <time>2013-06-15T18:48:03Z</time>
      </trkpt>
      <trkpt lat="40.251717" lon="-4.902617">
        <ele>1288.0</ele>
        <time>2013-06-15T18:48:04Z</time>
      </trkpt>
      <trkpt lat="40.251700" lon="-4.902633">
        <ele>1288.0</ele>
        <time>2013-06-15T18:48:05Z</time>
      </trkpt>
      <trkpt lat="40.251650" lon="-4.902650">
        <ele>1288.0</ele>
        <time>2013-06-15T18:48:06Z</time>
      </trkpt>
      <trkpt lat="40.251583" lon="-4.902667">
        <ele>1288.0</ele>
        <time>2013-06-15T18:48:07Z</time>
      </trkpt>
      <trkpt lat="40.251517" lon="-4.902683">
        <ele>1288.0</ele>
        <time>2013-06-15T18:48:08Z</time>
      </trkpt>
      <trkpt lat="40.251433" lon="-4.902700">
        <ele>1288.0</ele>
        <time>2013-06-15T18:48:09Z</time>
      </trkpt>
      <trkpt lat="40.251367" lon="-4.902700">
        <ele>1288.0</ele>
        <time>2013-06-15T18:48:10Z</time>
      </trkpt>
      <trkpt lat="40.251317" lon="-4.902717">
        <ele>1289.0</ele>
        <time>2013-06-15T18:48:11Z</time>
      </trkpt>
      <trkpt lat="40.251250" lon="-4.902717">
        <ele>1289.0</ele>
        <time>2013-06-15T18:48:12Z</time>
      </trkpt>
      <trkpt lat="40.251183" lon="-4.902700">
        <ele>1289.0</ele>
        <time>2013-06-15T18:48:13Z</time>
      </trkpt>
      <trkpt lat="40.251117" lon="-4.902700">
        <ele>1289.0</ele>
        <time>2013-06-15T18:48:14Z</time>
      </trkpt>
      <trkpt lat="40.251050" lon="-4.902683">
        <ele>1288.0</ele>
        <time>2013-06-15T18:48:15Z</time>
      </trkpt>
      <trkpt lat="40.250967" lon="-4.902667">
        <ele>1287.0</ele>
        <time>2013-06-15T18:48:16Z</time>
      </trkpt>
      <trkpt lat="40.250883" lon="-4.902633">
        <ele>1288.0</ele>
        <time>2013-06-15T18:48:17Z</time>
      </trkpt>
      <trkpt lat="40.250800" lon="-4.902600">
        <ele>1289.0</ele>
        <time>2013-06-15T18:48:18Z</time>
      </trkpt>
      <trkpt lat="40.250733" lon="-4.902567">
        <ele>1289.0</ele>
        <time>2013-06-15T18:48:19Z</time>
      </trkpt>
      <trkpt lat="40.250650" lon="-4.902517">
        <ele>1289.0</ele>
        <time>2013-06-15T18:48:20Z</time>
      </trkpt>
      <trkpt lat="40.250567" lon="-4.902483">
        <ele>1289.0</ele>
        <time>2013-06-15T18:48:21Z</time>
      </trkpt>
      <trkpt lat="40.250483" lon="-4.902433">
        <ele>1288.0</ele>
        <time>2013-06-15T18:48:22Z</time>
      </trkpt>
      <trkpt lat="40.250400" lon="-4.902400">
        <ele>1288.0</ele>
        <time>2013-06-15T18:48:23Z</time>
      </trkpt>
      <trkpt lat="40.250317" lon="-4.902350">
        <ele>1288.0</ele>
        <time>2013-06-15T18:48:24Z</time>
      </trkpt>
      <trkpt lat="40.250233" lon="-4.902300">
        <ele>1289.0</ele>
        <time>2013-06-15T18:48:25Z</time>
      </trkpt>
      <trkpt lat="40.250133" lon="-4.902250">
        <ele>1290.0</ele>
        <time>2013-06-15T18:48:26Z</time>
      </trkpt>
      <trkpt lat="40.250050" lon="-4.902200">
        <ele>1290.0</ele>
        <time>2013-06-15T18:48:27Z</time>
      </trkpt>
      <trkpt lat="40.249967" lon="-4.902150">
        <ele>1290.0</ele>
        <time>2013-06-15T18:48:28Z</time>
      </trkpt>
      <trkpt lat="40.249883" lon="-4.902100">
        <ele>1290.0</ele>
        <time>2013-06-15T18:48:29Z</time>
      </trkpt>
      <trkpt lat="40.249783" lon="-4.902050">
        <ele>1290.0</ele>
        <time>2013-06-15T18:48:30Z</time>
      </trkpt>
      <trkpt lat="40.249683" lon="-4.901983">
        <ele>1290.0</ele>
        <time>2013-06-15T18:48:31Z</time>
      </trkpt>
      <trkpt lat="40.249600" lon="-4.901933">
        <ele>1291.0</ele>
        <time>2013-06-15T18:48:32Z</time>
      </trkpt>
      <trkpt lat="40.249517" lon="-4.901900">
        <ele>1291.0</ele>
        <time>2013-06-15T18:48:33Z</time>
      </trkpt>
      <trkpt lat="40.249433" lon="-4.901883">
        <ele>1290.0</ele>
        <time>2013-06-15T18:48:34Z</time>
      </trkpt>
      <trkpt lat="40.249383" lon="-4.901917">
        <ele>1289.0</ele>
        <time>2013-06-15T18:48:35Z</time>
      </trkpt>
      <trkpt lat="40.249367" lon="-4.901967">
        <ele>1288.0</ele>
        <time>2013-06-15T18:48:36Z</time>
      </trkpt>
      <trkpt lat="40.249400" lon="-4.902000">
        <ele>1287.0</ele>
        <time>2013-06-15T18:48:37Z</time>
      </trkpt>
      <trkpt lat="40.249450" lon="-4.902017">
        <ele>1287.0</ele>
        <time>2013-06-15T18:48:38Z</time>
      </trkpt>
      <trkpt lat="40.249500" lon="-4.902017">
        <ele>1288.0</ele>
        <time>2013-06-15T18:48:39Z</time>
      </trkpt>
      <trkpt lat="40.249550" lon="-4.902017">
        <ele>1288.0</ele>
        <time>2013-06-15T18:48:40Z</time>
      </trkpt>
      <trkpt lat="40.249600" lon="-4.902017">
        <ele>1288.0</ele>
        <time>2013-06-15T18:48:41Z</time>
      </trkpt>
      <trkpt lat="40.249633" lon="-4.902033">
        <ele>1288.0</ele>
        <time>2013-06-15T18:48:42Z</time>
      </trkpt>
      <trkpt lat="40.249700" lon="-4.902033">
        <ele>1288.0</ele>
        <time>2013-06-15T18:48:43Z</time>
      </trkpt>
      <trkpt lat="40.249767" lon="-4.902033">
        <ele>1288.0</ele>
        <time>2013-06-15T18:48:44Z</time>
      </trkpt>
      <trkpt lat="40.249833" lon="-4.902017">
        <ele>1289.0</ele>
        <time>2013-06-15T18:48:45Z</time>
      </trkpt>
      <trkpt lat="40.249883" lon="-4.902000">
        <ele>1291.0</ele>
        <time>2013-06-15T18:48:46Z</time>
      </trkpt>
      <trkpt lat="40.249933" lon="-4.902000">
        <ele>1291.0</ele>
        <time>2013-06-15T18:48:47Z</time>
      </trkpt>
      <trkpt lat="40.249983" lon="-4.902000">
        <ele>1291.0</ele>
        <time>2013-06-15T18:48:48Z</time>
      </trkpt>
      <trkpt lat="40.250033" lon="-4.902000">
        <ele>1291.0</ele>
        <time>2013-06-15T18:48:49Z</time>
      </trkpt>
      <trkpt lat="40.250083" lon="-4.902017">
        <ele>1292.0</ele>
        <time>2013-06-15T18:48:50Z</time>
      </trkpt>
      <trkpt lat="40.250133" lon="-4.902017">
        <ele>1292.0</ele>
        <time>2013-06-15T18:48:51Z</time>
      </trkpt>
      <trkpt lat="40.250167" lon="-4.902033">
        <ele>1293.0</ele>
        <time>2013-06-15T18:48:52Z</time>
      </trkpt>
      <trkpt lat="40.250200" lon="-4.902067">
        <ele>1293.0</ele>
        <time>2013-06-15T18:48:53Z</time>
      </trkpt>
      <trkpt lat="40.250233" lon="-4.902083">
        <ele>1293.0</ele>
        <time>2013-06-15T18:48:54Z</time>
      </trkpt>
      <trkpt lat="40.250283" lon="-4.902117">
        <ele>1293.0</ele>
        <time>2013-06-15T18:48:55Z</time>
      </trkpt>
      <trkpt lat="40.250317" lon="-4.902133">
        <ele>1293.0</ele>
        <time>2013-06-15T18:48:56Z</time>
      </trkpt>
      <trkpt lat="40.250350" lon="-4.902167">
        <ele>1293.0</ele>
        <time>2013-06-15T18:48:57Z</time>
      </trkpt>
      <trkpt lat="40.250400" lon="-4.902200">
        <ele>1293.0</ele>
        <time>2013-06-15T18:48:58Z</time>
      </trkpt>
      <trkpt lat="40.250450" lon="-4.902217">
        <ele>1294.0</ele>
        <time>2013-06-15T18:48:59Z</time>
      </trkpt>
      <trkpt lat="40.250500" lon="-4.902233">
        <ele>1295.0</ele>
        <time>2013-06-15T18:49:00Z</time>
      </trkpt>
      <trkpt lat="40.250567" lon="-4.902233">
        <ele>1296.0</ele>
        <time>2013-06-15T18:49:01Z</time>
      </trkpt>
      <trkpt lat="40.250617" lon="-4.902233">
        <ele>1297.0</ele>
        <time>2013-06-15T18:49:02Z</time>
      </trkpt>
      <trkpt lat="40.250650" lon="-4.902233">
        <ele>1297.0</ele>
        <time>2013-06-15T18:49:03Z</time>
      </trkpt>
      <trkpt lat="40.250717" lon="-4.902233">
        <ele>1297.0</ele>
        <time>2013-06-15T18:49:04Z</time>
      </trkpt>
      <trkpt lat="40.250783" lon="-4.902233">
        <ele>1297.0</ele>
        <time>2013-06-15T18:49:05Z</time>
      </trkpt>
      <trkpt lat="40.250850" lon="-4.902250">
        <ele>1297.0</ele>
        <time>2013-06-15T18:49:06Z</time>
      </trkpt>
      <trkpt lat="40.250917" lon="-4.902250">
        <ele>1297.0</ele>
        <time>2013-06-15T18:49:07Z</time>
      </trkpt>
      <trkpt lat="40.250983" lon="-4.902250">
        <ele>1298.0</ele>
        <time>2013-06-15T18:49:08Z</time>
      </trkpt>
      <trkpt lat="40.251050" lon="-4.902250">
        <ele>1299.0</ele>
        <time>2013-06-15T18:49:09Z</time>
      </trkpt>
      <trkpt lat="40.251100" lon="-4.902267">
        <ele>1300.0</ele>
        <time>2013-06-15T18:49:10Z</time>
      </trkpt>
      <trkpt lat="40.251150" lon="-4.902267">
        <ele>1301.0</ele>
        <time>2013-06-15T18:49:11Z</time>
      </trkpt>
      <trkpt lat="40.251200" lon="-4.902283">
        <ele>1301.0</ele>
        <time>2013-06-15T18:49:12Z</time>
      </trkpt>
      <trkpt lat="40.251250" lon="-4.902300">
        <ele>1301.0</ele>
        <time>2013-06-15T18:49:13Z</time>
      </trkpt>
      <trkpt lat="40.251300" lon="-4.902333">
        <ele>1301.0</ele>
        <time>2013-06-15T18:49:14Z</time>
      </trkpt>
      <trkpt lat="40.251350" lon="-4.902367">
        <ele>1301.0</ele>
        <time>2013-06-15T18:49:15Z</time>
      </trkpt>
      <trkpt lat="40.251383" lon="-4.902400">
        <ele>1302.0</ele>
        <time>2013-06-15T18:49:16Z</time>
      </trkpt>
      <trkpt lat="40.251417" lon="-4.902450">
        <ele>1303.0</ele>
        <time>2013-06-15T18:49:17Z</time>
      </trkpt>
      <trkpt lat="40.251450" lon="-4.902483">
        <ele>1303.0</ele>
        <time>2013-06-15T18:49:18Z</time>
      </trkpt>
      <trkpt lat="40.251483" lon="-4.902517">
        <ele>1304.0</ele>
        <time>2013-06-15T18:49:19Z</time>
      </trkpt>
      <trkpt lat="40.251517" lon="-4.902550">
        <ele>1304.0</ele>
        <time>2013-06-15T18:49:20Z</time>
      </trkpt>
      <trkpt lat="40.251550" lon="-4.902583">
        <ele>1305.0</ele>
        <time>2013-06-15T18:49:21Z</time>
      </trkpt>
      <trkpt lat="40.251583" lon="-4.902600">
        <ele>1306.0</ele>
        <time>2013-06-15T18:49:22Z</time>
      </trkpt>
      <trkpt lat="40.251617" lon="-4.902617">
        <ele>1307.0</ele>
        <time>2013-06-15T18:49:23Z</time>
      </trkpt>
      <trkpt lat="40.251667" lon="-4.902633">
        <ele>1308.0</ele>
        <time>2013-06-15T18:49:24Z</time>
      </trkpt>
      <trkpt lat="40.251717" lon="-4.902650">
        <ele>1308.0</ele>
        <time>2013-06-15T18:49:25Z</time>
      </trkpt>
      <trkpt lat="40.251783" lon="-4.902650">
        <ele>1308.0</ele>
        <time>2013-06-15T18:49:26Z</time>
      </trkpt>
      <trkpt lat="40.251850" lon="-4.902667">
        <ele>1308.0</ele>
        <time>2013-06-15T18:49:27Z</time>
      </trkpt>
      <trkpt lat="40.251917" lon="-4.902667">
        <ele>1308.0</ele>
        <time>2013-06-15T18:49:28Z</time>
      </trkpt>
      <trkpt lat="40.251983" lon="-4.902683">
        <ele>1309.0</ele>
        <time>2013-06-15T18:49:29Z</time>
      </trkpt>
      <trkpt lat="40.252033" lon="-4.902700">
        <ele>1309.0</ele>
        <time>2013-06-15T18:49:30Z</time>
      </trkpt>
      <trkpt lat="40.252100" lon="-4.902717">
        <ele>1309.0</ele>
        <time>2013-06-15T18:49:31Z</time>
      </trkpt>
      <trkpt lat="40.252150" lon="-4.902733">
        <ele>1308.0</ele>
        <time>2013-06-15T18:49:32Z</time>
      </trkpt>
      <trkpt lat="40.252200" lon="-4.902750">
        <ele>1308.0</ele>
        <time>2013-06-15T18:49:33Z</time>
      </trkpt>
      <trkpt lat="40.252250" lon="-4.902800">
        <ele>1308.0</ele>
        <time>2013-06-15T18:49:34Z</time>
      </trkpt>
      <trkpt lat="40.252267" lon="-4.902833">
        <ele>1308.0</ele>
        <time>2013-06-15T18:49:35Z</time>
      </trkpt>
      <trkpt lat="40.252283" lon="-4.902867">
        <ele>1308.0</ele>
        <time>2013-06-15T18:49:36Z</time>
      </trkpt>
      <trkpt lat="40.252267" lon="-4.902883">
        <ele>1308.0</ele>
        <time>2013-06-15T18:49:37Z</time>
      </trkpt>
      <trkpt lat="40.252250" lon="-4.902917">
        <ele>1308.0</ele>
        <time>2013-06-15T18:49:38Z</time>
      </trkpt>
      <trkpt lat="40.252217" lon="-4.902933">
        <ele>1307.0</ele>
        <time>2013-06-15T18:49:39Z</time>
      </trkpt>
      <trkpt lat="40.252167" lon="-4.902950">
        <ele>1307.0</ele>
        <time>2013-06-15T18:49:40Z</time>
      </trkpt>
      <trkpt lat="40.252117" lon="-4.902967">
        <ele>1307.0</ele>
        <time>2013-06-15T18:49:41Z</time>
      </trkpt>
      <trkpt lat="40.252067" lon="-4.902967">
        <ele>1307.0</ele>
        <time>2013-06-15T18:49:42Z</time>
      </trkpt>
      <trkpt lat="40.252017" lon="-4.902967">
        <ele>1308.0</ele>
        <time>2013-06-15T18:49:43Z</time>
      </trkpt>
      <trkpt lat="40.251967" lon="-4.902967">
        <ele>1307.0</ele>
        <time>2013-06-15T18:49:44Z</time>
      </trkpt>
      <trkpt lat="40.251917" lon="-4.902950">
        <ele>1307.0</ele>
        <time>2013-06-15T18:49:45Z</time>
      </trkpt>
      <trkpt lat="40.251850" lon="-4.902950">
        <ele>1306.0</ele>
        <time>2013-06-15T18:49:46Z</time>
      </trkpt>
      <trkpt lat="40.251800" lon="-4.902950">
        <ele>1306.0</ele>
        <time>2013-06-15T18:49:47Z</time>
      </trkpt>
      <trkpt lat="40.251733" lon="-4.902950">
        <ele>1306.0</ele>
        <time>2013-06-15T18:49:48Z</time>
      </trkpt>
      <trkpt lat="40.251683" lon="-4.902950">
        <ele>1306.0</ele>
        <time>2013-06-15T18:49:49Z</time>
      </trkpt>
      <trkpt lat="40.251617" lon="-4.902933">
        <ele>1306.0</ele>
        <time>2013-06-15T18:49:50Z</time>
      </trkpt>
      <trkpt lat="40.251550" lon="-4.902917">
        <ele>1306.0</ele>
        <time>2013-06-15T18:49:51Z</time>
      </trkpt>
      <trkpt lat="40.251467" lon="-4.902900">
        <ele>1306.0</ele>
        <time>2013-06-15T18:49:52Z</time>
      </trkpt>
      <trkpt lat="40.251400" lon="-4.902883">
        <ele>1306.0</ele>
        <time>2013-06-15T18:49:53Z</time>
      </trkpt>
      <trkpt lat="40.251333" lon="-4.902867">
        <ele>1307.0</ele>
        <time>2013-06-15T18:49:54Z</time>
      </trkpt>
      <trkpt lat="40.251267" lon="-4.902850">
        <ele>1307.0</ele>
        <time>2013-06-15T18:49:55Z</time>
      </trkpt>
      <trkpt lat="40.251217" lon="-4.902833">
        <ele>1307.0</ele>
        <time>2013-06-15T18:49:56Z</time>
      </trkpt>
      <trkpt lat="40.251133" lon="-4.902800">
        <ele>1307.0</ele>
        <time>2013-06-15T18:49:57Z</time>
      </trkpt>
      <trkpt lat="40.251067" lon="-4.902767">
        <ele>1307.0</ele>
        <time>2013-06-15T18:49:58Z</time>
      </trkpt>
      <trkpt lat="40.250983" lon="-4.902750">
        <ele>1307.0</ele>
        <time>2013-06-15T18:49:59Z</time>
      </trkpt>
      <trkpt lat="40.250917" lon="-4.902717">
        <ele>1307.0</ele>
        <time>2013-06-15T18:50:00Z</time>
      </trkpt>
      <trkpt lat="40.250833" lon="-4.902683">
        <ele>1307.0</ele>
        <time>2013-06-15T18:50:01Z</time>
      </trkpt>
      <trkpt lat="40.250767" lon="-4.902650">
        <ele>1308.0</ele>
        <time>2013-06-15T18:50:02Z</time>
      </trkpt>
      <trkpt lat="40.250683" lon="-4.902600">
        <ele>1308.0</ele>
        <time>2013-06-15T18:50:03Z</time>
      </trkpt>
      <trkpt lat="40.250617" lon="-4.902567">
        <ele>1307.0</ele>
        <time>2013-06-15T18:50:04Z</time>
      </trkpt>
      <trkpt lat="40.250533" lon="-4.902533">
        <ele>1307.0</ele>
        <time>2013-06-15T18:50:05Z</time>
      </trkpt>
      <trkpt lat="40.250450" lon="-4.902483">
        <ele>1307.0</ele>
        <time>2013-06-15T18:50:06Z</time>
      </trkpt>
      <trkpt lat="40.250367" lon="-4.902450">
        <ele>1307.0</ele>
        <time>2013-06-15T18:50:07Z</time>
      </trkpt>
      <trkpt lat="40.250283" lon="-4.902400">
        <ele>1307.0</ele>
        <time>2013-06-15T18:50:08Z</time>
      </trkpt>
      <trkpt lat="40.250217" lon="-4.902367">
        <ele>1306.0</ele>
        <time>2013-06-15T18:50:09Z</time>
      </trkpt>
      <trkpt lat="40.250133" lon="-4.902317">
        <ele>1306.0</ele>
        <time>2013-06-15T18:50:10Z</time>
      </trkpt>
      <trkpt lat="40.250050" lon="-4.902267">
        <ele>1306.0</ele>
        <time>2013-06-15T18:50:11Z</time>
      </trkpt>
      <trkpt lat="40.249967" lon="-4.902217">
        <ele>1306.0</ele>
        <time>2013-06-15T18:50:12Z</time>
      </trkpt>
      <trkpt lat="40.249900" lon="-4.902167">
        <ele>1306.0</ele>
        <time>2013-06-15T18:50:13Z</time>
      </trkpt>
      <trkpt lat="40.249817" lon="-4.902117">
        <ele>1306.0</ele>
        <time>2013-06-15T18:50:14Z</time>
      </trkpt>
      <trkpt lat="40.249717" lon="-4.902067">
        <ele>1306.0</ele>
        <time>2013-06-15T18:50:15Z</time>
      </trkpt>
      <trkpt lat="40.249633" lon="-4.902033">
        <ele>1306.0</ele>
        <time>2013-06-15T18:50:16Z</time>
      </trkpt>
      <trkpt lat="40.249550" lon="-4.902017">
        <ele>1307.0</ele>
        <time>2013-06-15T18:50:17Z</time>
      </trkpt>
      <trkpt lat="40.249500" lon="-4.902000">
        <ele>1307.0</ele>
        <time>2013-06-15T18:50:18Z</time>
      </trkpt>
      <trkpt lat="40.249450" lon="-4.902017">
        <ele>1307.0</ele>
        <time>2013-06-15T18:50:19Z</time>
      </trkpt>
      <trkpt lat="40.249417" lon="-4.902050">
        <ele>1306.0</ele>
        <time>2013-06-15T18:50:20Z</time>
      </trkpt>
      <trkpt lat="40.249400" lon="-4.902083">
        <ele>1306.0</ele>
        <time>2013-06-15T18:50:21Z</time>
      </trkpt>
      <trkpt lat="40.249400" lon="-4.902100">
        <ele>1306.0</ele>
        <time>2013-06-15T18:50:22Z</time>
      </trkpt>
      <trkpt lat="40.249417" lon="-4.902117">
        <ele>1306.0</ele>
        <time>2013-06-15T18:50:23Z</time>
      </trkpt>
      <trkpt lat="40.249433" lon="-4.902133">
        <ele>1306.0</ele>
        <time>2013-06-15T18:50:24Z</time>
      </trkpt>
      <trkpt lat="40.249467" lon="-4.902150">
        <ele>1305.0</ele>
        <time>2013-06-15T18:50:25Z</time>
      </trkpt>
      <trkpt lat="40.249500" lon="-4.902167">
        <ele>1304.0</ele>
        <time>2013-06-15T18:50:26Z</time>
      </trkpt>
      <trkpt lat="40.249533" lon="-4.902200">
        <ele>1303.0</ele>
        <time>2013-06-15T18:50:27Z</time>
      </trkpt>
      <trkpt lat="40.249567" lon="-4.902217">
        <ele>1303.0</ele>
        <time>2013-06-15T18:50:28Z</time>
      </trkpt>
      <trkpt lat="40.249617" lon="-4.902233">
        <ele>1303.0</ele>
        <time>2013-06-15T18:50:29Z</time>
      </trkpt>
      <trkpt lat="40.249667" lon="-4.902233">
        <ele>1303.0</ele>
        <time>2013-06-15T18:50:30Z</time>
      </trkpt>
      <trkpt lat="40.249717" lon="-4.902233">
        <ele>1303.0</ele>
        <time>2013-06-15T18:50:31Z</time>
      </trkpt>
      <trkpt lat="40.249767" lon="-4.902233">
        <ele>1304.0</ele>
        <time>2013-06-15T18:50:32Z</time>
      </trkpt>
      <trkpt lat="40.249800" lon="-4.902233">
        <ele>1304.0</ele>
        <time>2013-06-15T18:50:33Z</time>
      </trkpt>
      <trkpt lat="40.249850" lon="-4.902217">
        <ele>1303.0</ele>
        <time>2013-06-15T18:50:34Z</time>
      </trkpt>
      <trkpt lat="40.249900" lon="-4.902217">
        <ele>1302.0</ele>
        <time>2013-06-15T18:50:35Z</time>
      </trkpt>
      <trkpt lat="40.249967" lon="-4.902217">
        <ele>1302.0</ele>
        <time>2013-06-15T18:50:36Z</time>
      </trkpt>
      <trkpt lat="40.250017" lon="-4.902200">
        <ele>1301.0</ele>
        <time>2013-06-15T18:50:37Z</time>
      </trkpt>
      <trkpt lat="40.250083" lon="-4.902200">
        <ele>1301.0</ele>
        <time>2013-06-15T18:50:38Z</time>
      </trkpt>
      <trkpt lat="40.250133" lon="-4.902183">
        <ele>1301.0</ele>
        <time>2013-06-15T18:50:39Z</time>
      </trkpt>
      <trkpt lat="40.250200" lon="-4.902167">
        <ele>1300.0</ele>
        <time>2013-06-15T18:50:40Z</time>
      </trkpt>
      <trkpt lat="40.250267" lon="-4.902150">
        <ele>1299.0</ele>
        <time>2013-06-15T18:50:41Z</time>
      </trkpt>
      <trkpt lat="40.250333" lon="-4.902167">
        <ele>1298.0</ele>
        <time>2013-06-15T18:50:42Z</time>
      </trkpt>
      <trkpt lat="40.250400" lon="-4.902167">
        <ele>1298.0</ele>
        <time>2013-06-15T18:50:43Z</time>
      </trkpt>
      <trkpt lat="40.250467" lon="-4.902167">
        <ele>1299.0</ele>
        <time>2013-06-15T18:50:44Z</time>
      </trkpt>
      <trkpt lat="40.250533" lon="-4.902150">
        <ele>1300.0</ele>
        <time>2013-06-15T18:50:45Z</time>
      </trkpt>
      <trkpt lat="40.250583" lon="-4.902150">
        <ele>1299.0</ele>
        <time>2013-06-15T18:50:46Z</time>
      </trkpt>
      <trkpt lat="40.250650" lon="-4.902150">
        <ele>1297.0</ele>
        <time>2013-06-15T18:50:47Z</time>
      </trkpt>
      <trkpt lat="40.250717" lon="-4.902167">
        <ele>1296.0</ele>
        <time>2013-06-15T18:50:48Z</time>
      </trkpt>
      <trkpt lat="40.250783" lon="-4.902167">
        <ele>1295.0</ele>
        <time>2013-06-15T18:50:49Z</time>
      </trkpt>
      <trkpt lat="40.250833" lon="-4.902183">
        <ele>1295.0</ele>
        <time>2013-06-15T18:50:50Z</time>
      </trkpt>
      <trkpt lat="40.250883" lon="-4.902200">
        <ele>1295.0</ele>
        <time>2013-06-15T18:50:51Z</time>
      </trkpt>
      <trkpt lat="40.250933" lon="-4.902217">
        <ele>1295.0</ele>
        <time>2013-06-15T18:50:52Z</time>
      </trkpt>
      <trkpt lat="40.251000" lon="-4.902250">
        <ele>1294.0</ele>
        <time>2013-06-15T18:50:53Z</time>
      </trkpt>
      <trkpt lat="40.251050" lon="-4.902283">
        <ele>1294.0</ele>
        <time>2013-06-15T18:50:54Z</time>
      </trkpt>
      <trkpt lat="40.251100" lon="-4.902317">
        <ele>1294.0</ele>
        <time>2013-06-15T18:50:55Z</time>
      </trkpt>
      <trkpt lat="40.251150" lon="-4.902333">
        <ele>1294.0</ele>
        <time>2013-06-15T18:50:56Z</time>
      </trkpt>
      <trkpt lat="40.251200" lon="-4.902350">
        <ele>1294.0</ele>
        <time>2013-06-15T18:50:57Z</time>
      </trkpt>
      <trkpt lat="40.251233" lon="-4.902383">
        <ele>1294.0</ele>
        <time>2013-06-15T18:50:58Z</time>
      </trkpt>
      <trkpt lat="40.251250" lon="-4.902417">
        <ele>1293.0</ele>
        <time>2013-06-15T18:50:59Z</time>
      </trkpt>
      <trkpt lat="40.251267" lon="-4.902467">
        <ele>1293.0</ele>
        <time>2013-06-15T18:51:00Z</time>
      </trkpt>
      <trkpt lat="40.251250" lon="-4.902500">
        <ele>1293.0</ele>
        <time>2013-06-15T18:51:01Z</time>
      </trkpt>
      <trkpt lat="40.251233" lon="-4.902533">
        <ele>1293.0</ele>
        <time>2013-06-15T18:51:02Z</time>
      </trkpt>
      <trkpt lat="40.251200" lon="-4.902550">
        <ele>1292.0</ele>
        <time>2013-06-15T18:51:03Z</time>
      </trkpt>
      <trkpt lat="40.251167" lon="-4.902583">
        <ele>1292.0</ele>
        <time>2013-06-15T18:51:04Z</time>
      </trkpt>
      <trkpt lat="40.251117" lon="-4.902617">
        <ele>1292.0</ele>
        <time>2013-06-15T18:51:05Z</time>
      </trkpt>
      <trkpt lat="40.251083" lon="-4.902667">
        <ele>1293.0</ele>
        <time>2013-06-15T18:51:06Z</time>
      </trkpt>
      <trkpt lat="40.251033" lon="-4.902700">
        <ele>1295.0</ele>
        <time>2013-06-15T18:51:07Z</time>
      </trkpt>
      <trkpt lat="40.250983" lon="-4.902733">
        <ele>1297.0</ele>
        <time>2013-06-15T18:51:08Z</time>
      </trkpt>
      <trkpt lat="40.250933" lon="-4.902750">
        <ele>1298.0</ele>
        <time>2013-06-15T18:51:09Z</time>
      </trkpt>
      <trkpt lat="40.250900" lon="-4.902783">
        <ele>1298.0</ele>
        <time>2013-06-15T18:51:10Z</time>
      </trkpt>
      <trkpt lat="40.250850" lon="-4.902817">
        <ele>1298.0</ele>
        <time>2013-06-15T18:51:11Z</time>
      </trkpt>
      <trkpt lat="40.250800" lon="-4.902867">
        <ele>1298.0</ele>
        <time>2013-06-15T18:51:12Z</time>
      </trkpt>
      <trkpt lat="40.250733" lon="-4.902900">
        <ele>1298.0</ele>
        <time>2013-06-15T18:51:13Z</time>
      </trkpt>
      <trkpt lat="40.250683" lon="-4.902917">
        <ele>1299.0</ele>
        <time>2013-06-15T18:51:14Z</time>
      </trkpt>
      <trkpt lat="40.250617" lon="-4.902933">
        <ele>1300.0</ele>
        <time>2013-06-15T18:51:15Z</time>
      </trkpt>
      <trkpt lat="40.250567" lon="-4.902933">
        <ele>1300.0</ele>
        <time>2013-06-15T18:51:16Z</time>
      </trkpt>
      <trkpt lat="40.250500" lon="-4.902950">
        <ele>1300.0</ele>
        <time>2013-06-15T18:51:17Z</time>
      </trkpt>
      <trkpt lat="40.250417" lon="-4.902967">
        <ele>1299.0</ele>
        <time>2013-06-15T18:51:18Z</time>
      </trkpt>
      <trkpt lat="40.250333" lon="-4.902967">
        <ele>1298.0</ele>
        <time>2013-06-15T18:51:19Z</time>
      </trkpt>
      <trkpt lat="40.250250" lon="-4.902950">
        <ele>1298.0</ele>
        <time>2013-06-15T18:51:20Z</time>
      </trkpt>
      <trkpt lat="40.250167" lon="-4.902933">
        <ele>1298.0</ele>
        <time>2013-06-15T18:51:21Z</time>
      </trkpt>
      <trkpt lat="40.250100" lon="-4.902933">
        <ele>1298.0</ele>
        <time>2013-06-15T18:51:22Z</time>
      </trkpt>
      <trkpt lat="40.250017" lon="-4.902917">
        <ele>1297.0</ele>
        <time>2013-06-15T18:51:23Z</time>
      </trkpt>
      <trkpt lat="40.249933" lon="-4.902917">
        <ele>1296.0</ele>
        <time>2013-06-15T18:51:24Z</time>
      </trkpt>
      <trkpt lat="40.249833" lon="-4.902900">
        <ele>1296.0</ele>
        <time>2013-06-15T18:51:25Z</time>
      </trkpt>
      <trkpt lat="40.249750" lon="-4.902883">
        <ele>1295.0</ele>
        <time>2013-06-15T18:51:26Z</time>
      </trkpt>
      <trkpt lat="40.249667" lon="-4.902850">
        <ele>1295.0</ele>
        <time>2013-06-15T18:51:27Z</time>
      </trkpt>
      <trkpt lat="40.249583" lon="-4.902800">
        <ele>1295.0</ele>
        <time>2013-06-15T18:51:28Z</time>
      </trkpt>
      <trkpt lat="40.249483" lon="-4.902717">
        <ele>1294.0</ele>
        <time>2013-06-15T18:51:29Z</time>
      </trkpt>
      <trkpt lat="40.249400" lon="-4.902633">
        <ele>1294.0</ele>
        <time>2013-06-15T18:51:30Z</time>
      </trkpt>
      <trkpt lat="40.249317" lon="-4.902533">
        <ele>1293.0</ele>
        <time>2013-06-15T18:51:31Z</time>
      </trkpt>
      <trkpt lat="40.249217" lon="-4.902450">
        <ele>1292.0</ele>
        <time>2013-06-15T18:51:32Z</time>
      </trkpt>
      <trkpt lat="40.249117" lon="-4.902350">
        <ele>1292.0</ele>
        <time>2013-06-15T18:51:33Z</time>
      </trkpt>
      <trkpt lat="40.249017" lon="-4.902267">
        <ele>1291.0</ele>
        <time>2013-06-15T18:51:34Z</time>
      </trkpt>
      <trkpt lat="40.248917" lon="-4.902183">
        <ele>1290.0</ele>
        <time>2013-06-15T18:51:35Z</time>
      </trkpt>
      <trkpt lat="40.248817" lon="-4.902133">
        <ele>1289.0</ele>
        <time>2013-06-15T18:51:36Z</time>
      </trkpt>
      <trkpt lat="40.248733" lon="-4.902083">
        <ele>1288.0</ele>
        <time>2013-06-15T18:51:37Z</time>
      </trkpt>
      <trkpt lat="40.248650" lon="-4.902067">
        <ele>1288.0</ele>
        <time>2013-06-15T18:51:38Z</time>
      </trkpt>
      <trkpt lat="40.248600" lon="-4.902083">
        <ele>1287.0</ele>
        <time>2013-06-15T18:51:39Z</time>
      </trkpt>
      <trkpt lat="40.248550" lon="-4.902100">
        <ele>1286.0</ele>
        <time>2013-06-15T18:51:40Z</time>
      </trkpt>
      <trkpt lat="40.248550" lon="-4.902133">
        <ele>1285.0</ele>
        <time>2013-06-15T18:51:41Z</time>
      </trkpt>
      <trkpt lat="40.248550" lon="-4.902167">
        <ele>1283.0</ele>
        <time>2013-06-15T18:51:42Z</time>
      </trkpt>
      <trkpt lat="40.248600" lon="-4.902183">
        <ele>1282.0</ele>
        <time>2013-06-15T18:51:43Z</time>
      </trkpt>
      <trkpt lat="40.248667" lon="-4.902183">
        <ele>1280.0</ele>
        <time>2013-06-15T18:51:44Z</time>
      </trkpt>
      <trkpt lat="40.248733" lon="-4.902167">
        <ele>1280.0</ele>
        <time>2013-06-15T18:51:45Z</time>
      </trkpt>
      <trkpt lat="40.248800" lon="-4.902133">
        <ele>1279.0</ele>
        <time>2013-06-15T18:51:46Z</time>
      </trkpt>
      <trkpt lat="40.248867" lon="-4.902100">
        <ele>1279.0</ele>
        <time>2013-06-15T18:51:47Z</time>
      </trkpt>
      <trkpt lat="40.248933" lon="-4.902067">
        <ele>1278.0</ele>
        <time>2013-06-15T18:51:48Z</time>
      </trkpt>
      <trkpt lat="40.249000" lon="-4.902050">
        <ele>1277.0</ele>
        <time>2013-06-15T18:51:49Z</time>
      </trkpt>
      <trkpt lat="40.249067" lon="-4.902033">
        <ele>1277.0</ele>
        <time>2013-06-15T18:51:50Z</time>
      </trkpt>
      <trkpt lat="40.249117" lon="-4.902033">
        <ele>1276.0</ele>
        <time>2013-06-15T18:51:51Z</time>
      </trkpt>
      <trkpt lat="40.249167" lon="-4.902033">
        <ele>1276.0</ele>
        <time>2013-06-15T18:51:52Z</time>
      </trkpt>
      <trkpt lat="40.249217" lon="-4.902033">
        <ele>1275.0</ele>
        <time>2013-06-15T18:51:53Z</time>
      </trkpt>
      <trkpt lat="40.249250" lon="-4.902033">
        <ele>1275.0</ele>
        <time>2013-06-15T18:51:54Z</time>
      </trkpt>
      <trkpt lat="40.249300" lon="-4.902033">
        <ele>1274.0</ele>
        <time>2013-06-15T18:51:55Z</time>
      </trkpt>
      <trkpt lat="40.249350" lon="-4.902050">
        <ele>1273.0</ele>
        <time>2013-06-15T18:51:56Z</time>
      </trkpt>
      <trkpt lat="40.249400" lon="-4.902067">
        <ele>1273.0</ele>
        <time>2013-06-15T18:51:57Z</time>
      </trkpt>
      <trkpt lat="40.249433" lon="-4.902083">
        <ele>1273.0</ele>
        <time>2013-06-15T18:51:58Z</time>
      </trkpt>
      <trkpt lat="40.249467" lon="-4.902117">
        <ele>1273.0</ele>
        <time>2013-06-15T18:51:59Z</time>
      </trkpt>
      <trkpt lat="40.249483" lon="-4.902133">
        <ele>1273.0</ele>
        <time>2013-06-15T18:52:00Z</time>
      </trkpt>
      <trkpt lat="40.249517" lon="-4.902167">
        <ele>1273.0</ele>
        <time>2013-06-15T18:52:01Z</time>
      </trkpt>
      <trkpt lat="40.249533" lon="-4.902183">
        <ele>1273.0</ele>
        <time>2013-06-15T18:52:02Z</time>
      </trkpt>
      <trkpt lat="40.249567" lon="-4.902217">
        <ele>1273.0</ele>
        <time>2013-06-15T18:52:03Z</time>
      </trkpt>
      <trkpt lat="40.249567" lon="-4.902250">
        <ele>1273.0</ele>
        <time>2013-06-15T18:52:04Z</time>
      </trkpt>
      <trkpt lat="40.249567" lon="-4.902267">
        <ele>1274.0</ele>
        <time>2013-06-15T18:52:05Z</time>
      </trkpt>
      <trkpt lat="40.249567" lon="-4.902300">
        <ele>1274.0</ele>
        <time>2013-06-15T18:52:06Z</time>
      </trkpt>
      <trkpt lat="40.249550" lon="-4.902333">
        <ele>1274.0</ele>
        <time>2013-06-15T18:52:07Z</time>
      </trkpt>
      <trkpt lat="40.249517" lon="-4.902350">
        <ele>1274.0</ele>
        <time>2013-06-15T18:52:08Z</time>
      </trkpt>
      <trkpt lat="40.249483" lon="-4.902383">
        <ele>1274.0</ele>
        <time>2013-06-15T18:52:09Z</time>
      </trkpt>
      <trkpt lat="40.249433" lon="-4.902417">
        <ele>1273.0</ele>
        <time>2013-06-15T18:52:10Z</time>
      </trkpt>
      <trkpt lat="40.249367" lon="-4.902417">
        <ele>1274.0</ele>
        <time>2013-06-15T18:52:11Z</time>
      </trkpt>
      <trkpt lat="40.249300" lon="-4.902417">
        <ele>1274.0</ele>
        <time>2013-06-15T18:52:12Z</time>
      </trkpt>
      <trkpt lat="40.249217" lon="-4.902400">
        <ele>1274.0</ele>
        <time>2013-06-15T18:52:13Z</time>
      </trkpt>
      <trkpt lat="40.249133" lon="-4.902367">
        <ele>1274.0</ele>
        <time>2013-06-15T18:52:14Z</time>
      </trkpt>
      <trkpt lat="40.249050" lon="-4.902317">
        <ele>1273.0</ele>
        <time>2013-06-15T18:52:15Z</time>
      </trkpt>
      <trkpt lat="40.248967" lon="-4.902267">
        <ele>1273.0</ele>
        <time>2013-06-15T18:52:16Z</time>
      </trkpt>
      <trkpt lat="40.248867" lon="-4.902233">
        <ele>1272.0</ele>
        <time>2013-06-15T18:52:17Z</time>
      </trkpt>
      <trkpt lat="40.248783" lon="-4.902183">
        <ele>1272.0</ele>
        <time>2013-06-15T18:52:18Z</time>
      </trkpt>
      <trkpt lat="40.248683" lon="-4.902150">
        <ele>1271.0</ele>
        <time>2013-06-15T18:52:19Z</time>
      </trkpt>
      <trkpt lat="40.248600" lon="-4.902117">
        <ele>1270.0</ele>
        <time>2013-06-15T18:52:20Z</time>
      </trkpt>
      <trkpt lat="40.248517" lon="-4.902083">
        <ele>1269.0</ele>
        <time>2013-06-15T18:52:21Z</time>
      </trkpt>
      <trkpt lat="40.248450" lon="-4.902083">
        <ele>1268.0</ele>
        <time>2013-06-15T18:52:22Z</time>
      </trkpt>
      <trkpt lat="40.248400" lon="-4.902100">
        <ele>1266.0</ele>
        <time>2013-06-15T18:52:23Z</time>
      </trkpt>
      <trkpt lat="40.248383" lon="-4.902117">
        <ele>1264.0</ele>
        <time>2013-06-15T18:52:24Z</time>
      </trkpt>
      <trkpt lat="40.248400" lon="-4.902167">
        <ele>1262.0</ele>
        <time>2013-06-15T18:52:25Z</time>
      </trkpt>
      <trkpt lat="40.248433" lon="-4.902200">
        <ele>1260.0</ele>
        <time>2013-06-15T18:52:26Z</time>
      </trkpt>
      <trkpt lat="40.248483" lon="-4.902217">
        <ele>1259.0</ele>
        <time>2013-06-15T18:52:27Z</time>
      </trkpt>
      <trkpt lat="40.248533" lon="-4.902217">
        <ele>1258.0</ele>
        <time>2013-06-15T18:52:28Z</time>
      </trkpt>
      <trkpt lat="40.248567" lon="-4.902233">
        <ele>1258.0</ele>
        <time>2013-06-15T18:52:29Z</time>
      </trkpt>
      <trkpt lat="40.248600" lon="-4.902233">
        <ele>1257.0</ele>
        <time>2013-06-15T18:52:30Z</time>
      </trkpt>
      <trkpt lat="40.248650" lon="-4.902250">
        <ele>1255.0</ele>
        <time>2013-06-15T18:52:31Z</time>
      </trkpt>
      <trkpt lat="40.248717" lon="-4.902250">
        <ele>1254.0</ele>
        <time>2013-06-15T18:52:32Z</time>
      </trkpt>
      <trkpt lat="40.248767" lon="-4.902250">
        <ele>1253.0</ele>
        <time>2013-06-15T18:52:33Z</time>
      </trkpt>
      <trkpt lat="40.248833" lon="-4.902233">
        <ele>1254.0</ele>
        <time>2013-06-15T18:52:34Z</time>
      </trkpt>
      <trkpt lat="40.248900" lon="-4.902200">
        <ele>1254.0</ele>
        <time>2013-06-15T18:52:35Z</time>
      </trkpt>
      <trkpt lat="40.248950" lon="-4.902167">
        <ele>1254.0</ele>
        <time>2013-06-15T18:52:36Z</time>
      </trkpt>
      <trkpt lat="40.249000" lon="-4.902150">
        <ele>1253.0</ele>
        <time>2013-06-15T18:52:37Z</time>
      </trkpt>
      <trkpt lat="40.249050" lon="-4.902133">
        <ele>1253.0</ele>
        <time>2013-06-15T18:52:38Z</time>
      </trkpt>
      <trkpt lat="40.249117" lon="-4.902117">
        <ele>1252.0</ele>
        <time>2013-06-15T18:52:39Z</time>
      </trkpt>
      <trkpt lat="40.249167" lon="-4.902100">
        <ele>1252.0</ele>
        <time>2013-06-15T18:52:40Z</time>
      </trkpt>
      <trkpt lat="40.249233" lon="-4.902083">
        <ele>1253.0</ele>
        <time>2013-06-15T18:52:41Z</time>
      </trkpt>
      <trkpt lat="40.249267" lon="-4.902067">
        <ele>1253.0</ele>
        <time>2013-06-15T18:52:42Z</time>
      </trkpt>
      <trkpt lat="40.249317" lon="-4.902050">
        <ele>1253.0</ele>
        <time>2013-06-15T18:52:43Z</time>
      </trkpt>
      <trkpt lat="40.249350" lon="-4.902050">
        <ele>1252.0</ele>
        <time>2013-06-15T18:52:44Z</time>
      </trkpt>
      <trkpt lat="40.249367" lon="-4.902067">
        <ele>1251.0</ele>
        <time>2013-06-15T18:52:45Z</time>
      </trkpt>
      <trkpt lat="40.249383" lon="-4.902117">
        <ele>1249.0</ele>
        <time>2013-06-15T18:52:46Z</time>
      </trkpt>
      <trkpt lat="40.249367" lon="-4.902167">
        <ele>1248.0</ele>
        <time>2013-06-15T18:52:47Z</time>
      </trkpt>
      <trkpt lat="40.249317" lon="-4.902200">
        <ele>1248.0</ele>
        <time>2013-06-15T18:52:48Z</time>
      </trkpt>
      <trkpt lat="40.249267" lon="-4.902233">
        <ele>1247.0</ele>
        <time>2013-06-15T18:52:49Z</time>
      </trkpt>
      <trkpt lat="40.249200" lon="-4.902250">
        <ele>1247.0</ele>
        <time>2013-06-15T18:52:50Z</time>
      </trkpt>
      <trkpt lat="40.249117" lon="-4.902250">
        <ele>1247.0</ele>
        <time>2013-06-15T18:52:51Z</time>
      </trkpt>
      <trkpt lat="40.249033" lon="-4.902217">
        <ele>1247.0</ele>
        <time>2013-06-15T18:52:52Z</time>
      </trkpt>
      <trkpt lat="40.248933" lon="-4.902183">
        <ele>1246.0</ele>
        <time>2013-06-15T18:52:53Z</time>
      </trkpt>
      <trkpt lat="40.248833" lon="-4.902133">
        <ele>1246.0</ele>
        <time>2013-06-15T18:52:54Z</time>
      </trkpt>
      <trkpt lat="40.248750" lon="-4.902067">
        <ele>1246.0</ele>
        <time>2013-06-15T18:52:55Z</time>
      </trkpt>
      <trkpt lat="40.248650" lon="-4.902017">
        <ele>1246.0</ele>
        <time>2013-06-15T18:52:56Z</time>
      </trkpt>
      <trkpt lat="40.248550" lon="-4.901950">
        <ele>1246.0</ele>
        <time>2013-06-15T18:52:57Z</time>
      </trkpt>
      <trkpt lat="40.248450" lon="-4.901867">
        <ele>1245.0</ele>
        <time>2013-06-15T18:52:58Z</time>
      </trkpt>
      <trkpt lat="40.248367" lon="-4.901783">
        <ele>1245.0</ele>
        <time>2013-06-15T18:52:59Z</time>
      </trkpt>
      <trkpt lat="40.248267" lon="-4.901700">
        <ele>1244.0</ele>
        <time>2013-06-15T18:53:00Z</time>
      </trkpt>
      <trkpt lat="40.248167" lon="-4.901600">
        <ele>1243.0</ele>
        <time>2013-06-15T18:53:01Z</time>
      </trkpt>
      <trkpt lat="40.248067" lon="-4.901500">
        <ele>1243.0</ele>
        <time>2013-06-15T18:53:02Z</time>
      </trkpt>
      <trkpt lat="40.247967" lon="-4.901400">
        <ele>1242.0</ele>
        <time>2013-06-15T18:53:03Z</time>
      </trkpt>
      <trkpt lat="40.247867" lon="-4.901317">
        <ele>1241.0</ele>
        <time>2013-06-15T18:53:04Z</time>
      </trkpt>
      <trkpt lat="40.247783" lon="-4.901217">
        <ele>1240.0</ele>
        <time>2013-06-15T18:53:05Z</time>
      </trkpt>
      <trkpt lat="40.247683" lon="-4.901117">
        <ele>1238.0</ele>
        <time>2013-06-15T18:53:06Z</time>
      </trkpt>
      <trkpt lat="40.247583" lon="-4.901033">
        <ele>1237.0</ele>
        <time>2013-06-15T18:53:07Z</time>
      </trkpt>
      <trkpt lat="40.247483" lon="-4.900933">
        <ele>1236.0</ele>
        <time>2013-06-15T18:53:08Z</time>
      </trkpt>
      <trkpt lat="40.247383" lon="-4.900817">
        <ele>1235.0</ele>
        <time>2013-06-15T18:53:09Z</time>
      </trkpt>
      <trkpt lat="40.247300" lon="-4.900717">
        <ele>1234.0</ele>
        <time>2013-06-15T18:53:10Z</time>
      </trkpt>
      <trkpt lat="40.247217" lon="-4.900633">
        <ele>1233.0</ele>
        <time>2013-06-15T18:53:11Z</time>
      </trkpt>
      <trkpt lat="40.247133" lon="-4.900550">
        <ele>1231.0</ele>
        <time>2013-06-15T18:53:12Z</time>
      </trkpt>
      <trkpt lat="40.247050" lon="-4.900450">
        <ele>1229.0</ele>
        <time>2013-06-15T18:53:13Z</time>
      </trkpt>
      <trkpt lat="40.246967" lon="-4.900367">
        <ele>1227.0</ele>
        <time>2013-06-15T18:53:14Z</time>
      </trkpt>
      <trkpt lat="40.246883" lon="-4.900250">
        <ele>1225.0</ele>
        <time>2013-06-15T18:53:15Z</time>
      </trkpt>
      <trkpt lat="40.246800" lon="-4.900133">
        <ele>1224.0</ele>
        <time>2013-06-15T18:53:16Z</time>
      </trkpt>
      <trkpt lat="40.246717" lon="-4.900033">
        <ele>1222.0</ele>
        <time>2013-06-15T18:53:17Z</time>
      </trkpt>
      <trkpt lat="40.246617" lon="-4.899917">
        <ele>1221.0</ele>
        <time>2013-06-15T18:53:18Z</time>
      </trkpt>
      <trkpt lat="40.246533" lon="-4.899817">
        <ele>1219.0</ele>
        <time>2013-06-15T18:53:19Z</time>
      </trkpt>
      <trkpt lat="40.246450" lon="-4.899733">
        <ele>1218.0</ele>
        <time>2013-06-15T18:53:20Z</time>
      </trkpt>
      <trkpt lat="40.246367" lon="-4.899633">
        <ele>1216.0</ele>
        <time>2013-06-15T18:53:21Z</time>
      </trkpt>
      <trkpt lat="40.246283" lon="-4.899517">
        <ele>1214.0</ele>
        <time>2013-06-15T18:53:22Z</time>
      </trkpt>
      <trkpt lat="40.246200" lon="-4.899417">
        <ele>1212.0</ele>
        <time>2013-06-15T18:53:23Z</time>
      </trkpt>
      <trkpt lat="40.246100" lon="-4.899333">
        <ele>1211.0</ele>
        <time>2013-06-15T18:53:24Z</time>
      </trkpt>
      <trkpt lat="40.246017" lon="-4.899233">
        <ele>1209.0</ele>
        <time>2013-06-15T18:53:25Z</time>
      </trkpt>
      <trkpt lat="40.245917" lon="-4.899150">
        <ele>1207.0</ele>
        <time>2013-06-15T18:53:26Z</time>
      </trkpt>
      <trkpt lat="40.245817" lon="-4.899067">
        <ele>1205.0</ele>
        <time>2013-06-15T18:53:27Z</time>
      </trkpt>
      <trkpt lat="40.245717" lon="-4.898967">
        <ele>1203.0</ele>
        <time>2013-06-15T18:53:28Z</time>
      </trkpt>
      <trkpt lat="40.245633" lon="-4.898883">
        <ele>1202.0</ele>
        <time>2013-06-15T18:53:29Z</time>
      </trkpt>
      <trkpt lat="40.245533" lon="-4.898783">
        <ele>1201.0</ele>
        <time>2013-06-15T18:53:30Z</time>
      </trkpt>
      <trkpt lat="40.245450" lon="-4.898700">
        <ele>1199.0</ele>
        <time>2013-06-15T18:53:31Z</time>
      </trkpt>
      <trkpt lat="40.245350" lon="-4.898633">
        <ele>1198.0</ele>
        <time>2013-06-15T18:53:32Z</time>
      </trkpt>
      <trkpt lat="40.245267" lon="-4.898550">
        <ele>1196.0</ele>
        <time>2013-06-15T18:53:33Z</time>
      </trkpt>
      <trkpt lat="40.245167" lon="-4.898467">
        <ele>1194.0</ele>
        <time>2013-06-15T18:53:34Z</time>
      </trkpt>
      <trkpt lat="40.245083" lon="-4.898383">
        <ele>1192.0</ele>
        <time>2013-06-15T18:53:35Z</time>
      </trkpt>
      <trkpt lat="40.244983" lon="-4.898300">
        <ele>1191.0</ele>
        <time>2013-06-15T18:53:36Z</time>
      </trkpt>
      <trkpt lat="40.244900" lon="-4.898217">
        <ele>1189.0</ele>
        <time>2013-06-15T18:53:37Z</time>
      </trkpt>
      <trkpt lat="40.244817" lon="-4.898117">
        <ele>1188.0</ele>
        <time>2013-06-15T18:53:38Z</time>
      </trkpt>
      <trkpt lat="40.244717" lon="-4.898050">
        <ele>1186.0</ele>
        <time>2013-06-15T18:53:39Z</time>
      </trkpt>
      <trkpt lat="40.244633" lon="-4.897967">
        <ele>1184.0</ele>
        <time>2013-06-15T18:53:40Z</time>
      </trkpt>
      <trkpt lat="40.244550" lon="-4.897883">
        <ele>1182.0</ele>
        <time>2013-06-15T18:53:41Z</time>
      </trkpt>
      <trkpt lat="40.244450" lon="-4.897800">
        <ele>1180.0</ele>
        <time>2013-06-15T18:53:42Z</time>
      </trkpt>
      <trkpt lat="40.244367" lon="-4.897717">
        <ele>1178.0</ele>
        <time>2013-06-15T18:53:43Z</time>
      </trkpt>
      <trkpt lat="40.244267" lon="-4.897633">
        <ele>1176.0</ele>
        <time>2013-06-15T18:53:44Z</time>
      </trkpt>
      <trkpt lat="40.244183" lon="-4.897567">
        <ele>1174.0</ele>
        <time>2013-06-15T18:53:45Z</time>
      </trkpt>
      <trkpt lat="40.244083" lon="-4.897517">
        <ele>1172.0</ele>
        <time>2013-06-15T18:53:46Z</time>
      </trkpt>
      <trkpt lat="40.244000" lon="-4.897450">
        <ele>1170.0</ele>
        <time>2013-06-15T18:53:47Z</time>
      </trkpt>
      <trkpt lat="40.243917" lon="-4.897383">
        <ele>1168.0</ele>
        <time>2013-06-15T18:53:48Z</time>
      </trkpt>
      <trkpt lat="40.243817" lon="-4.897317">
        <ele>1166.0</ele>
        <time>2013-06-15T18:53:49Z</time>
      </trkpt>
      <trkpt lat="40.243733" lon="-4.897250">
        <ele>1164.0</ele>
        <time>2013-06-15T18:53:50Z</time>
      </trkpt>
      <trkpt lat="40.243633" lon="-4.897183">
        <ele>1162.0</ele>
        <time>2013-06-15T18:53:51Z</time>
      </trkpt>
      <trkpt lat="40.243533" lon="-4.897117">
        <ele>1161.0</ele>
        <time>2013-06-15T18:53:52Z</time>
      </trkpt>
      <trkpt lat="40.243433" lon="-4.897050">
        <ele>1160.0</ele>
        <time>2013-06-15T18:53:53Z</time>
      </trkpt>
      <trkpt lat="40.243350" lon="-4.896983">
        <ele>1159.0</ele>
        <time>2013-06-15T18:53:54Z</time>
      </trkpt>
      <trkpt lat="40.243267" lon="-4.896917">
        <ele>1157.0</ele>
        <time>2013-06-15T18:53:55Z</time>
      </trkpt>
      <trkpt lat="40.243167" lon="-4.896850">
        <ele>1155.0</ele>
        <time>2013-06-15T18:53:56Z</time>
      </trkpt>
      <trkpt lat="40.243083" lon="-4.896767">
        <ele>1153.0</ele>
        <time>2013-06-15T18:53:57Z</time>
      </trkpt>
      <trkpt lat="40.242983" lon="-4.896700">
        <ele>1151.0</ele>
        <time>2013-06-15T18:53:58Z</time>
      </trkpt>
      <trkpt lat="40.242900" lon="-4.896633">
        <ele>1150.0</ele>
        <time>2013-06-15T18:53:59Z</time>
      </trkpt>
      <trkpt lat="40.242800" lon="-4.896567">
        <ele>1149.0</ele>
        <time>2013-06-15T18:54:00Z</time>
      </trkpt>
      <trkpt lat="40.242717" lon="-4.896483">
        <ele>1147.0</ele>
        <time>2013-06-15T18:54:01Z</time>
      </trkpt>
      <trkpt lat="40.242633" lon="-4.896417">
        <ele>1145.0</ele>
        <time>2013-06-15T18:54:02Z</time>
      </trkpt>
      <trkpt lat="40.242550" lon="-4.896350">
        <ele>1141.0</ele>
        <time>2013-06-15T18:54:03Z</time>
      </trkpt>
      <trkpt lat="40.242450" lon="-4.896300">
        <ele>1138.0</ele>
        <time>2013-06-15T18:54:04Z</time>
      </trkpt>
      <trkpt lat="40.242333" lon="-4.896250">
        <ele>1135.0</ele>
        <time>2013-06-15T18:54:05Z</time>
      </trkpt>
      <trkpt lat="40.242233" lon="-4.896183">
        <ele>1134.0</ele>
        <time>2013-06-15T18:54:06Z</time>
      </trkpt>
      <trkpt lat="40.242150" lon="-4.896117">
        <ele>1133.0</ele>
        <time>2013-06-15T18:54:07Z</time>
      </trkpt>
      <trkpt lat="40.242067" lon="-4.896050">
        <ele>1132.0</ele>
        <time>2013-06-15T18:54:08Z</time>
      </trkpt>
      <trkpt lat="40.241983" lon="-4.895983">
        <ele>1131.0</ele>
        <time>2013-06-15T18:54:09Z</time>
      </trkpt>
      <trkpt lat="40.241900" lon="-4.895900">
        <ele>1129.0</ele>
        <time>2013-06-15T18:54:10Z</time>
      </trkpt>
      <trkpt lat="40.241800" lon="-4.895833">
        <ele>1127.0</ele>
        <time>2013-06-15T18:54:11Z</time>
      </trkpt>
      <trkpt lat="40.241700" lon="-4.895767">
        <ele>1125.0</ele>
        <time>2013-06-15T18:54:12Z</time>
      </trkpt>
      <trkpt lat="40.241617" lon="-4.895700">
        <ele>1124.0</ele>
        <time>2013-06-15T18:54:13Z</time>
      </trkpt>
      <trkpt lat="40.241533" lon="-4.895617">
        <ele>1123.0</ele>
        <time>2013-06-15T18:54:14Z</time>
      </trkpt>
      <trkpt lat="40.241450" lon="-4.895550">
        <ele>1122.0</ele>
        <time>2013-06-15T18:54:15Z</time>
      </trkpt>
      <trkpt lat="40.241367" lon="-4.895483">
        <ele>1119.0</ele>
        <time>2013-06-15T18:54:16Z</time>
      </trkpt>
      <trkpt lat="40.241267" lon="-4.895400">
        <ele>1116.0</ele>
        <time>2013-06-15T18:54:17Z</time>
      </trkpt>
      <trkpt lat="40.241183" lon="-4.895317">
        <ele>1114.0</ele>
        <time>2013-06-15T18:54:18Z</time>
      </trkpt>
      <trkpt lat="40.241083" lon="-4.895233">
        <ele>1112.0</ele>
        <time>2013-06-15T18:54:19Z</time>
      </trkpt>
      <trkpt lat="40.241000" lon="-4.895133">
        <ele>1110.0</ele>
        <time>2013-06-15T18:54:20Z</time>
      </trkpt>
      <trkpt lat="40.240917" lon="-4.895050">
        <ele>1109.0</ele>
        <time>2013-06-15T18:54:21Z</time>
      </trkpt>
      <trkpt lat="40.240833" lon="-4.894967">
        <ele>1107.0</ele>
        <time>2013-06-15T18:54:22Z</time>
      </trkpt>
      <trkpt lat="40.240750" lon="-4.894867">
        <ele>1105.0</ele>
        <time>2013-06-15T18:54:23Z</time>
      </trkpt>
      <trkpt lat="40.240650" lon="-4.894783">
        <ele>1103.0</ele>
        <time>2013-06-15T18:54:24Z</time>
      </trkpt>
      <trkpt lat="40.240567" lon="-4.894683">
        <ele>1100.0</ele>
        <time>2013-06-15T18:54:25Z</time>
      </trkpt>
      <trkpt lat="40.240467" lon="-4.894600">
        <ele>1098.0</ele>
        <time>2013-06-15T18:54:26Z</time>
      </trkpt>
      <trkpt lat="40.240383" lon="-4.894517">
        <ele>1096.0</ele>
        <time>2013-06-15T18:54:27Z</time>
      </trkpt>
      <trkpt lat="40.240300" lon="-4.894433">
        <ele>1094.0</ele>
        <time>2013-06-15T18:54:28Z</time>
      </trkpt>
      <trkpt lat="40.240200" lon="-4.894350">
        <ele>1093.0</ele>
        <time>2013-06-15T18:54:29Z</time>
      </trkpt>
      <trkpt lat="40.240117" lon="-4.894250">
        <ele>1091.0</ele>
        <time>2013-06-15T18:54:30Z</time>
      </trkpt>
      <trkpt lat="40.240033" lon="-4.894167">
        <ele>1089.0</ele>
        <time>2013-06-15T18:54:31Z</time>
      </trkpt>
      <trkpt lat="40.239933" lon="-4.894083">
        <ele>1087.0</ele>
        <time>2013-06-15T18:54:32Z</time>
      </trkpt>
      <trkpt lat="40.239850" lon="-4.894017">
        <ele>1085.0</ele>
        <time>2013-06-15T18:54:33Z</time>
      </trkpt>
      <trkpt lat="40.239767" lon="-4.893933">
        <ele>1083.0</ele>
        <time>2013-06-15T18:54:34Z</time>
      </trkpt>
      <trkpt lat="40.239683" lon="-4.893850">
        <ele>1082.0</ele>
        <time>2013-06-15T18:54:35Z</time>
      </trkpt>
      <trkpt lat="40.239583" lon="-4.893783">
        <ele>1080.0</ele>
        <time>2013-06-15T18:54:36Z</time>
      </trkpt>
      <trkpt lat="40.239500" lon="-4.893700">
        <ele>1078.0</ele>
        <time>2013-06-15T18:54:37Z</time>
      </trkpt>
      <trkpt lat="40.239417" lon="-4.893617">
        <ele>1077.0</ele>
        <time>2013-06-15T18:54:38Z</time>
      </trkpt>
      <trkpt lat="40.239333" lon="-4.893533">
        <ele>1076.0</ele>
        <time>2013-06-15T18:54:39Z</time>
      </trkpt>
      <trkpt lat="40.239250" lon="-4.893450">
        <ele>1074.0</ele>
        <time>2013-06-15T18:54:40Z</time>
      </trkpt>
      <trkpt lat="40.239183" lon="-4.893350">
        <ele>1072.0</ele>
        <time>2013-06-15T18:54:41Z</time>
      </trkpt>
      <trkpt lat="40.239100" lon="-4.893283">
        <ele>1069.0</ele>
        <time>2013-06-15T18:54:42Z</time>
      </trkpt>
      <trkpt lat="40.239017" lon="-4.893200">
        <ele>1067.0</ele>
        <time>2013-06-15T18:54:43Z</time>
      </trkpt>
      <trkpt lat="40.238933" lon="-4.893117">
        <ele>1064.0</ele>
        <time>2013-06-15T18:54:44Z</time>
      </trkpt>
      <trkpt lat="40.238850" lon="-4.893033">
        <ele>1062.0</ele>
        <time>2013-06-15T18:54:45Z</time>
      </trkpt>
      <trkpt lat="40.238767" lon="-4.892950">
        <ele>1060.0</ele>
        <time>2013-06-15T18:54:46Z</time>
      </trkpt>
      <trkpt lat="40.238683" lon="-4.892867">
        <ele>1058.0</ele>
        <time>2013-06-15T18:54:47Z</time>
      </trkpt>
      <trkpt lat="40.238600" lon="-4.892783">
        <ele>1057.0</ele>
        <time>2013-06-15T18:54:48Z</time>
      </trkpt>
      <trkpt lat="40.238517" lon="-4.892700">
        <ele>1055.0</ele>
        <time>2013-06-15T18:54:49Z</time>
      </trkpt>
      <trkpt lat="40.238433" lon="-4.892633">
        <ele>1053.0</ele>
        <time>2013-06-15T18:54:50Z</time>
      </trkpt>
      <trkpt lat="40.238350" lon="-4.892533">
        <ele>1051.0</ele>
        <time>2013-06-15T18:54:51Z</time>
      </trkpt>
      <trkpt lat="40.238250" lon="-4.892450">
        <ele>1049.0</ele>
        <time>2013-06-15T18:54:52Z</time>
      </trkpt>
      <trkpt lat="40.238167" lon="-4.892367">
        <ele>1047.0</ele>
        <time>2013-06-15T18:54:53Z</time>
      </trkpt>
      <trkpt lat="40.238083" lon="-4.892283">
        <ele>1046.0</ele>
        <time>2013-06-15T18:54:54Z</time>
      </trkpt>
      <trkpt lat="40.237983" lon="-4.892200">
        <ele>1045.0</ele>
        <time>2013-06-15T18:54:55Z</time>
      </trkpt>
      <trkpt lat="40.237900" lon="-4.892117">
        <ele>1043.0</ele>
        <time>2013-06-15T18:54:56Z</time>
      </trkpt>
      <trkpt lat="40.237800" lon="-4.892050">
        <ele>1042.0</ele>
        <time>2013-06-15T18:54:57Z</time>
      </trkpt>
      <trkpt lat="40.237717" lon="-4.891950">
        <ele>1041.0</ele>
        <time>2013-06-15T18:54:58Z</time>
      </trkpt>
      <trkpt lat="40.237633" lon="-4.891867">
        <ele>1039.0</ele>
        <time>2013-06-15T18:54:59Z</time>
      </trkpt>
      <trkpt lat="40.237533" lon="-4.891783">
        <ele>1037.0</ele>
        <time>2013-06-15T18:55:00Z</time>
      </trkpt>
      <trkpt lat="40.237450" lon="-4.891700">
        <ele>1036.0</ele>
        <time>2013-06-15T18:55:01Z</time>
      </trkpt>
      <trkpt lat="40.237367" lon="-4.891617">
        <ele>1034.0</ele>
        <time>2013-06-15T18:55:02Z</time>
      </trkpt>
      <trkpt lat="40.237283" lon="-4.891550">
        <ele>1033.0</ele>
        <time>2013-06-15T18:55:03Z</time>
      </trkpt>
      <trkpt lat="40.237200" lon="-4.891467">
        <ele>1032.0</ele>
        <time>2013-06-15T18:55:04Z</time>
      </trkpt>
      <trkpt lat="40.237100" lon="-4.891383">
        <ele>1030.0</ele>
        <time>2013-06-15T18:55:05Z</time>
      </trkpt>
      <trkpt lat="40.237017" lon="-4.891283">
        <ele>1028.0</ele>
        <time>2013-06-15T18:55:06Z</time>
      </trkpt>
      <trkpt lat="40.236933" lon="-4.891200">
        <ele>1027.0</ele>
        <time>2013-06-15T18:55:07Z</time>
      </trkpt>
      <trkpt lat="40.236850" lon="-4.891100">
        <ele>1026.0</ele>
        <time>2013-06-15T18:55:08Z</time>
      </trkpt>
      <trkpt lat="40.236783" lon="-4.891017">
        <ele>1025.0</ele>
        <time>2013-06-15T18:55:09Z</time>
      </trkpt>
      <trkpt lat="40.236700" lon="-4.890917">
        <ele>1023.0</ele>
        <time>2013-06-15T18:55:10Z</time>
      </trkpt>
      <trkpt lat="40.236617" lon="-4.890833">
        <ele>1022.0</ele>
        <time>2013-06-15T18:55:11Z</time>
      </trkpt>
      <trkpt lat="40.236533" lon="-4.890750">
        <ele>1021.0</ele>
        <time>2013-06-15T18:55:12Z</time>
      </trkpt>
      <trkpt lat="40.236450" lon="-4.890667">
        <ele>1020.0</ele>
        <time>2013-06-15T18:55:13Z</time>
      </trkpt>
      <trkpt lat="40.236367" lon="-4.890567">
        <ele>1019.0</ele>
        <time>2013-06-15T18:55:14Z</time>
      </trkpt>
      <trkpt lat="40.236283" lon="-4.890483">
        <ele>1018.0</ele>
        <time>2013-06-15T18:55:15Z</time>
      </trkpt>
      <trkpt lat="40.236200" lon="-4.890383">
        <ele>1017.0</ele>
        <time>2013-06-15T18:55:16Z</time>
      </trkpt>
      <trkpt lat="40.236133" lon="-4.890283">
        <ele>1016.0</ele>
        <time>2013-06-15T18:55:17Z</time>
      </trkpt>
      <trkpt lat="40.236050" lon="-4.890200">
        <ele>1015.0</ele>
        <time>2013-06-15T18:55:18Z</time>
      </trkpt>
      <trkpt lat="40.235967" lon="-4.890100">
        <ele>1014.0</ele>
        <time>2013-06-15T18:55:19Z</time>
      </trkpt>
      <trkpt lat="40.235883" lon="-4.890017">
        <ele>1013.0</ele>
        <time>2013-06-15T18:55:20Z</time>
      </trkpt>
      <trkpt lat="40.235800" lon="-4.889917">
        <ele>1012.0</ele>
        <time>2013-06-15T18:55:21Z</time>
      </trkpt>
      <trkpt lat="40.235733" lon="-4.889833">
        <ele>1011.0</ele>
        <time>2013-06-15T18:55:22Z</time>
      </trkpt>
      <trkpt lat="40.235650" lon="-4.889733">
        <ele>1010.0</ele>
        <time>2013-06-15T18:55:23Z</time>
      </trkpt>
      <trkpt lat="40.235583" lon="-4.889617">
        <ele>1009.0</ele>
        <time>2013-06-15T18:55:24Z</time>
      </trkpt>
      <trkpt lat="40.235517" lon="-4.889517">
        <ele>1008.0</ele>
        <time>2013-06-15T18:55:25Z</time>
      </trkpt>
      <trkpt lat="40.235433" lon="-4.889417">
        <ele>1006.0</ele>
        <time>2013-06-15T18:55:26Z</time>
      </trkpt>
      <trkpt lat="40.235367" lon="-4.889317">
        <ele>1005.0</ele>
        <time>2013-06-15T18:55:27Z</time>
      </trkpt>
      <trkpt lat="40.235283" lon="-4.889217">
        <ele>1003.0</ele>
        <time>2013-06-15T18:55:28Z</time>
      </trkpt>
      <trkpt lat="40.235217" lon="-4.889117">
        <ele>1002.0</ele>
        <time>2013-06-15T18:55:29Z</time>
      </trkpt>
      <trkpt lat="40.235133" lon="-4.889000">
        <ele>1001.0</ele>
        <time>2013-06-15T18:55:30Z</time>
      </trkpt>
      <trkpt lat="40.235067" lon="-4.888883">
        <ele>999.0</ele>
        <time>2013-06-15T18:55:31Z</time>
      </trkpt>
      <trkpt lat="40.235000" lon="-4.888783">
        <ele>998.0</ele>
        <time>2013-06-15T18:55:32Z</time>
      </trkpt>
      <trkpt lat="40.234917" lon="-4.888683">
        <ele>997.0</ele>
        <time>2013-06-15T18:55:33Z</time>
      </trkpt>
      <trkpt lat="40.234850" lon="-4.888567">
        <ele>996.0</ele>
        <time>2013-06-15T18:55:34Z</time>
      </trkpt>
      <trkpt lat="40.234767" lon="-4.888467">
        <ele>995.0</ele>
        <time>2013-06-15T18:55:35Z</time>
      </trkpt>
      <trkpt lat="40.234700" lon="-4.888350">
        <ele>994.0</ele>
        <time>2013-06-15T18:55:36Z</time>
      </trkpt>
      <trkpt lat="40.234617" lon="-4.888250">
        <ele>992.0</ele>
        <time>2013-06-15T18:55:37Z</time>
      </trkpt>
      <trkpt lat="40.234550" lon="-4.888133">
        <ele>991.0</ele>
        <time>2013-06-15T18:55:38Z</time>
      </trkpt>
      <trkpt lat="40.234467" lon="-4.888033">
        <ele>990.0</ele>
        <time>2013-06-15T18:55:39Z</time>
      </trkpt>
      <trkpt lat="40.234400" lon="-4.887933">
        <ele>988.0</ele>
        <time>2013-06-15T18:55:40Z</time>
      </trkpt>
      <trkpt lat="40.234333" lon="-4.887833">
        <ele>986.0</ele>
        <time>2013-06-15T18:55:41Z</time>
      </trkpt>
      <trkpt lat="40.234267" lon="-4.887717">
        <ele>984.0</ele>
        <time>2013-06-15T18:55:42Z</time>
      </trkpt>
      <trkpt lat="40.234183" lon="-4.887617">
        <ele>981.0</ele>
        <time>2013-06-15T18:55:43Z</time>
      </trkpt>
      <trkpt lat="40.234100" lon="-4.887517">
        <ele>979.0</ele>
        <time>2013-06-15T18:55:44Z</time>
      </trkpt>
      <trkpt lat="40.234033" lon="-4.887417">
        <ele>977.0</ele>
        <time>2013-06-15T18:55:45Z</time>
      </trkpt>
      <trkpt lat="40.233950" lon="-4.887317">
        <ele>975.0</ele>
        <time>2013-06-15T18:55:46Z</time>
      </trkpt>
      <trkpt lat="40.233867" lon="-4.887217">
        <ele>974.0</ele>
        <time>2013-06-15T18:55:47Z</time>
      </trkpt>
      <trkpt lat="40.233800" lon="-4.887117">
        <ele>973.0</ele>
        <time>2013-06-15T18:55:48Z</time>
      </trkpt>
      <trkpt lat="40.233733" lon="-4.887017">
        <ele>972.0</ele>
        <time>2013-06-15T18:55:49Z</time>
      </trkpt>
      <trkpt lat="40.233650" lon="-4.886917">
        <ele>970.0</ele>
        <time>2013-06-15T18:55:50Z</time>
      </trkpt>
      <trkpt lat="40.233567" lon="-4.886800">
        <ele>968.0</ele>
        <time>2013-06-15T18:55:51Z</time>
      </trkpt>
      <trkpt lat="40.233500" lon="-4.886683">
        <ele>968.0</ele>
        <time>2013-06-15T18:55:52Z</time>
      </trkpt>
      <trkpt lat="40.233417" lon="-4.886583">
        <ele>967.0</ele>
        <time>2013-06-15T18:55:53Z</time>
      </trkpt>
      <trkpt lat="40.233350" lon="-4.886467">
        <ele>967.0</ele>
        <time>2013-06-15T18:55:54Z</time>
      </trkpt>
      <trkpt lat="40.233300" lon="-4.886350">
        <ele>966.0</ele>
        <time>2013-06-15T18:55:55Z</time>
      </trkpt>
      <trkpt lat="40.233233" lon="-4.886233">
        <ele>964.0</ele>
        <time>2013-06-15T18:55:56Z</time>
      </trkpt>
      <trkpt lat="40.233150" lon="-4.886117">
        <ele>962.0</ele>
        <time>2013-06-15T18:55:57Z</time>
      </trkpt>
      <trkpt lat="40.233083" lon="-4.885983">
        <ele>961.0</ele>
        <time>2013-06-15T18:55:58Z</time>
      </trkpt>
      <trkpt lat="40.233033" lon="-4.885867">
        <ele>960.0</ele>
        <time>2013-06-15T18:55:59Z</time>
      </trkpt>
      <trkpt lat="40.232967" lon="-4.885733">
        <ele>959.0</ele>
        <time>2013-06-15T18:56:00Z</time>
      </trkpt>
      <trkpt lat="40.232917" lon="-4.885600">
        <ele>958.0</ele>
        <time>2013-06-15T18:56:01Z</time>
      </trkpt>
      <trkpt lat="40.232850" lon="-4.885467">
        <ele>956.0</ele>
        <time>2013-06-15T18:56:02Z</time>
      </trkpt>
      <trkpt lat="40.232800" lon="-4.885333">
        <ele>955.0</ele>
        <time>2013-06-15T18:56:03Z</time>
      </trkpt>
      <trkpt lat="40.232733" lon="-4.885200">
        <ele>953.0</ele>
        <time>2013-06-15T18:56:04Z</time>
      </trkpt>
      <trkpt lat="40.232667" lon="-4.885050">
        <ele>951.0</ele>
        <time>2013-06-15T18:56:05Z</time>
      </trkpt>
      <trkpt lat="40.232600" lon="-4.884917">
        <ele>950.0</ele>
        <time>2013-06-15T18:56:06Z</time>
      </trkpt>
      <trkpt lat="40.232517" lon="-4.884800">
        <ele>949.0</ele>
        <time>2013-06-15T18:56:07Z</time>
      </trkpt>
      <trkpt lat="40.232450" lon="-4.884667">
        <ele>948.0</ele>
        <time>2013-06-15T18:56:08Z</time>
      </trkpt>
      <trkpt lat="40.232383" lon="-4.884533">
        <ele>947.0</ele>
        <time>2013-06-15T18:56:09Z</time>
      </trkpt>
      <trkpt lat="40.232317" lon="-4.884417">
        <ele>946.0</ele>
        <time>2013-06-15T18:56:10Z</time>
      </trkpt>
      <trkpt lat="40.232250" lon="-4.884283">
        <ele>945.0</ele>
        <time>2013-06-15T18:56:11Z</time>
      </trkpt>
      <trkpt lat="40.232183" lon="-4.884167">
        <ele>944.0</ele>
        <time>2013-06-15T18:56:12Z</time>
      </trkpt>
      <trkpt lat="40.232117" lon="-4.884050">
        <ele>943.0</ele>
        <time>2013-06-15T18:56:13Z</time>
      </trkpt>
      <trkpt lat="40.232067" lon="-4.883917">
        <ele>941.0</ele>
        <time>2013-06-15T18:56:14Z</time>
      </trkpt>
      <trkpt lat="40.232000" lon="-4.883783">
        <ele>939.0</ele>
        <time>2013-06-15T18:56:15Z</time>
      </trkpt>
      <trkpt lat="40.231933" lon="-4.883633">
        <ele>938.0</ele>
        <time>2013-06-15T18:56:16Z</time>
      </trkpt>
      <trkpt lat="40.231883" lon="-4.883500">
        <ele>938.0</ele>
        <time>2013-06-15T18:56:17Z</time>
      </trkpt>
      <trkpt lat="40.231833" lon="-4.883350">
        <ele>937.0</ele>
        <time>2013-06-15T18:56:18Z</time>
      </trkpt>
      <trkpt lat="40.231800" lon="-4.883217">
        <ele>936.0</ele>
        <time>2013-06-15T18:56:19Z</time>
      </trkpt>
      <trkpt lat="40.231750" lon="-4.883067">
        <ele>934.0</ele>
        <time>2013-06-15T18:56:20Z</time>
      </trkpt>
      <trkpt lat="40.231717" lon="-4.882933">
        <ele>932.0</ele>
        <time>2013-06-15T18:56:21Z</time>
      </trkpt>
      <trkpt lat="40.231667" lon="-4.882767">
        <ele>929.0</ele>
        <time>2013-06-15T18:56:22Z</time>
      </trkpt>
      <trkpt lat="40.231617" lon="-4.882617">
        <ele>928.0</ele>
        <time>2013-06-15T18:56:23Z</time>
      </trkpt>
      <trkpt lat="40.231567" lon="-4.882483">
        <ele>927.0</ele>
        <time>2013-06-15T18:56:24Z</time>
      </trkpt>
      <trkpt lat="40.231517" lon="-4.882333">
        <ele>927.0</ele>
        <time>2013-06-15T18:56:25Z</time>
      </trkpt>
      <trkpt lat="40.231467" lon="-4.882200">
        <ele>926.0</ele>
        <time>2013-06-15T18:56:26Z</time>
      </trkpt>
      <trkpt lat="40.231433" lon="-4.882067">
        <ele>924.0</ele>
        <time>2013-06-15T18:56:27Z</time>
      </trkpt>
      <trkpt lat="40.231400" lon="-4.881900">
        <ele>922.0</ele>
        <time>2013-06-15T18:56:28Z</time>
      </trkpt>
      <trkpt lat="40.231350" lon="-4.881750">
        <ele>919.0</ele>
        <time>2013-06-15T18:56:29Z</time>
      </trkpt>
      <trkpt lat="40.231300" lon="-4.881583">
        <ele>918.0</ele>
        <time>2013-06-15T18:56:30Z</time>
      </trkpt>
      <trkpt lat="40.231233" lon="-4.881433">
        <ele>916.0</ele>
        <time>2013-06-15T18:56:31Z</time>
      </trkpt>
      <trkpt lat="40.231183" lon="-4.881283">
        <ele>915.0</ele>
        <time>2013-06-15T18:56:32Z</time>
      </trkpt>
      <trkpt lat="40.231133" lon="-4.881133">
        <ele>913.0</ele>
        <time>2013-06-15T18:56:33Z</time>
      </trkpt>
      <trkpt lat="40.231083" lon="-4.880983">
        <ele>912.0</ele>
        <time>2013-06-15T18:56:34Z</time>
      </trkpt>
      <trkpt lat="40.231033" lon="-4.880833">
        <ele>910.0</ele>
        <time>2013-06-15T18:56:35Z</time>
      </trkpt>
      <trkpt lat="40.231000" lon="-4.880667">
        <ele>908.0</ele>
        <time>2013-06-15T18:56:36Z</time>
      </trkpt>
      <trkpt lat="40.230967" lon="-4.880500">
        <ele>906.0</ele>
        <time>2013-06-15T18:56:37Z</time>
      </trkpt>
      <trkpt lat="40.230933" lon="-4.880333">
        <ele>905.0</ele>
        <time>2013-06-15T18:56:38Z</time>
      </trkpt>
      <trkpt lat="40.230900" lon="-4.880167">
        <ele>904.0</ele>
        <time>2013-06-15T18:56:39Z</time>
      </trkpt>
      <trkpt lat="40.230850" lon="-4.880017">
        <ele>902.0</ele>
        <time>2013-06-15T18:56:40Z</time>
      </trkpt>
      <trkpt lat="40.230817" lon="-4.879850">
        <ele>900.0</ele>
        <time>2013-06-15T18:56:41Z</time>
      </trkpt>
      <trkpt lat="40.230767" lon="-4.879683">
        <ele>899.0</ele>
        <time>2013-06-15T18:56:42Z</time>
      </trkpt>
      <trkpt lat="40.230717" lon="-4.879517">
        <ele>897.0</ele>
        <time>2013-06-15T18:56:43Z</time>
      </trkpt>
      <trkpt lat="40.230667" lon="-4.879350">
        <ele>896.0</ele>
        <time>2013-06-15T18:56:44Z</time>
      </trkpt>
      <trkpt lat="40.230617" lon="-4.879200">
        <ele>896.0</ele>
        <time>2013-06-15T18:56:45Z</time>
      </trkpt>
      <trkpt lat="40.230567" lon="-4.879050">
        <ele>895.0</ele>
        <time>2013-06-15T18:56:46Z</time>
      </trkpt>
      <trkpt lat="40.230500" lon="-4.878933">
        <ele>894.0</ele>
        <time>2013-06-15T18:56:47Z</time>
      </trkpt>
      <trkpt lat="40.230417" lon="-4.878817">
        <ele>893.0</ele>
        <time>2013-06-15T18:56:48Z</time>
      </trkpt>
      <trkpt lat="40.230350" lon="-4.878750">
        <ele>891.0</ele>
        <time>2013-06-15T18:56:49Z</time>
      </trkpt>
      <trkpt lat="40.230250" lon="-4.878700">
        <ele>889.0</ele>
        <time>2013-06-15T18:56:50Z</time>
      </trkpt>
      <trkpt lat="40.230183" lon="-4.878683">
        <ele>887.0</ele>
        <time>2013-06-15T18:56:51Z</time>
      </trkpt>
      <trkpt lat="40.230100" lon="-4.878683">
        <ele>886.0</ele>
        <time>2013-06-15T18:56:52Z</time>
      </trkpt>
      <trkpt lat="40.230050" lon="-4.878700">
        <ele>885.0</ele>
        <time>2013-06-15T18:56:53Z</time>
      </trkpt>
      <trkpt lat="40.230000" lon="-4.878717">
        <ele>885.0</ele>
        <time>2013-06-15T18:56:54Z</time>
      </trkpt>
      <trkpt lat="40.229950" lon="-4.878733">
        <ele>884.0</ele>
        <time>2013-06-15T18:56:55Z</time>
      </trkpt>
      <trkpt lat="40.229900" lon="-4.878750">
        <ele>882.0</ele>
        <time>2013-06-15T18:56:56Z</time>
      </trkpt>
      <trkpt lat="40.229850" lon="-4.878783">
        <ele>881.0</ele>
        <time>2013-06-15T18:56:57Z</time>
      </trkpt>
      <trkpt lat="40.229800" lon="-4.878817">
        <ele>879.0</ele>
        <time>2013-06-15T18:56:58Z</time>
      </trkpt>
      <trkpt lat="40.229767" lon="-4.878850">
        <ele>879.0</ele>
        <time>2013-06-15T18:56:59Z</time>
      </trkpt>
      <trkpt lat="40.229767" lon="-4.878900">
        <ele>878.0</ele>
        <time>2013-06-15T18:57:00Z</time>
      </trkpt>
      <trkpt lat="40.229783" lon="-4.878933">
        <ele>877.0</ele>
        <time>2013-06-15T18:57:01Z</time>
      </trkpt>
      <trkpt lat="40.229833" lon="-4.878967">
        <ele>875.0</ele>
        <time>2013-06-15T18:57:02Z</time>
      </trkpt>
      <trkpt lat="40.229867" lon="-4.879017">
        <ele>874.0</ele>
        <time>2013-06-15T18:57:03Z</time>
      </trkpt>
      <trkpt lat="40.229900" lon="-4.879050">
        <ele>872.0</ele>
        <time>2013-06-15T18:57:04Z</time>
      </trkpt>
      <trkpt lat="40.229933" lon="-4.879100">
        <ele>871.0</ele>
        <time>2013-06-15T18:57:05Z</time>
      </trkpt>
      <trkpt lat="40.229983" lon="-4.879133">
        <ele>870.0</ele>
        <time>2013-06-15T18:57:06Z</time>
      </trkpt>
      <trkpt lat="40.230033" lon="-4.879150">
        <ele>870.0</ele>
        <time>2013-06-15T18:57:07Z</time>
      </trkpt>
      <trkpt lat="40.230100" lon="-4.879167">
        <ele>869.0</ele>
        <time>2013-06-15T18:57:08Z</time>
      </trkpt>
      <trkpt lat="40.230167" lon="-4.879167">
        <ele>868.0</ele>
        <time>2013-06-15T18:57:09Z</time>
      </trkpt>
      <trkpt lat="40.230233" lon="-4.879183">
        <ele>866.0</ele>
        <time>2013-06-15T18:57:10Z</time>
      </trkpt>
      <trkpt lat="40.230300" lon="-4.879183">
        <ele>865.0</ele>
        <time>2013-06-15T18:57:11Z</time>
      </trkpt>
      <trkpt lat="40.230383" lon="-4.879200">
        <ele>864.0</ele>
        <time>2013-06-15T18:57:12Z</time>
      </trkpt>
      <trkpt lat="40.230450" lon="-4.879200">
        <ele>864.0</ele>
        <time>2013-06-15T18:57:13Z</time>
      </trkpt>
      <trkpt lat="40.230533" lon="-4.879200">
        <ele>863.0</ele>
        <time>2013-06-15T18:57:14Z</time>
      </trkpt>
      <trkpt lat="40.230600" lon="-4.879200">
        <ele>862.0</ele>
        <time>2013-06-15T18:57:15Z</time>
      </trkpt>
      <trkpt lat="40.230683" lon="-4.879200">
        <ele>861.0</ele>
        <time>2013-06-15T18:57:16Z</time>
      </trkpt>
      <trkpt lat="40.230750" lon="-4.879200">
        <ele>860.0</ele>
        <time>2013-06-15T18:57:17Z</time>
      </trkpt>
      <trkpt lat="40.230833" lon="-4.879200">
        <ele>859.0</ele>
        <time>2013-06-15T18:57:18Z</time>
      </trkpt>
      <trkpt lat="40.230917" lon="-4.879183">
        <ele>858.0</ele>
        <time>2013-06-15T18:57:19Z</time>
      </trkpt>
      <trkpt lat="40.231000" lon="-4.879167">
        <ele>857.0</ele>
        <time>2013-06-15T18:57:20Z</time>
      </trkpt>
      <trkpt lat="40.231083" lon="-4.879167">
        <ele>856.0</ele>
        <time>2013-06-15T18:57:21Z</time>
      </trkpt>
      <trkpt lat="40.231167" lon="-4.879150">
        <ele>855.0</ele>
        <time>2013-06-15T18:57:22Z</time>
      </trkpt>
      <trkpt lat="40.231250" lon="-4.879133">
        <ele>853.0</ele>
        <time>2013-06-15T18:57:23Z</time>
      </trkpt>
      <trkpt lat="40.231333" lon="-4.879117">
        <ele>852.0</ele>
        <time>2013-06-15T18:57:24Z</time>
      </trkpt>
      <trkpt lat="40.231433" lon="-4.879100">
        <ele>851.0</ele>
        <time>2013-06-15T18:57:25Z</time>
      </trkpt>
      <trkpt lat="40.231517" lon="-4.879050">
        <ele>851.0</ele>
        <time>2013-06-15T18:57:26Z</time>
      </trkpt>
      <trkpt lat="40.231600" lon="-4.879000">
        <ele>850.0</ele>
        <time>2013-06-15T18:57:27Z</time>
      </trkpt>
      <trkpt lat="40.231667" lon="-4.878900">
        <ele>849.0</ele>
        <time>2013-06-15T18:57:28Z</time>
      </trkpt>
      <trkpt lat="40.231733" lon="-4.878767">
        <ele>846.0</ele>
        <time>2013-06-15T18:57:29Z</time>
      </trkpt>
      <trkpt lat="40.231783" lon="-4.878600">
        <ele>843.0</ele>
        <time>2013-06-15T18:57:30Z</time>
      </trkpt>
      <trkpt lat="40.231800" lon="-4.878417">
        <ele>841.0</ele>
        <time>2013-06-15T18:57:31Z</time>
      </trkpt>
      <trkpt lat="40.231783" lon="-4.878250">
        <ele>841.0</ele>
        <time>2013-06-15T18:57:32Z</time>
      </trkpt>
      <trkpt lat="40.231750" lon="-4.878083">
        <ele>841.0</ele>
        <time>2013-06-15T18:57:33Z</time>
      </trkpt>
      <trkpt lat="40.231700" lon="-4.877950">
        <ele>841.0</ele>
        <time>2013-06-15T18:57:34Z</time>
      </trkpt>
      <trkpt lat="40.231633" lon="-4.877833">
        <ele>840.0</ele>
        <time>2013-06-15T18:57:35Z</time>
      </trkpt>
      <trkpt lat="40.231583" lon="-4.877700">
        <ele>838.0</ele>
        <time>2013-06-15T18:57:36Z</time>
      </trkpt>
      <trkpt lat="40.231500" lon="-4.877567">
        <ele>837.0</ele>
        <time>2013-06-15T18:57:37Z</time>
      </trkpt>
      <trkpt lat="40.231433" lon="-4.877433">
        <ele>835.0</ele>
        <time>2013-06-15T18:57:38Z</time>
      </trkpt>
      <trkpt lat="40.231350" lon="-4.877317">
        <ele>834.0</ele>
        <time>2013-06-15T18:57:39Z</time>
      </trkpt>
      <trkpt lat="40.231267" lon="-4.877200">
        <ele>834.0</ele>
        <time>2013-06-15T18:57:40Z</time>
      </trkpt>
      <trkpt lat="40.231183" lon="-4.877100">
        <ele>833.0</ele>
        <time>2013-06-15T18:57:41Z</time>
      </trkpt>
      <trkpt lat="40.231117" lon="-4.877000">
        <ele>832.0</ele>
        <time>2013-06-15T18:57:42Z</time>
      </trkpt>
      <trkpt lat="40.231033" lon="-4.876883">
        <ele>831.0</ele>
        <time>2013-06-15T18:57:43Z</time>
      </trkpt>
      <trkpt lat="40.230950" lon="-4.876783">
        <ele>829.0</ele>
        <time>2013-06-15T18:57:44Z</time>
      </trkpt>
      <trkpt lat="40.230850" lon="-4.876700">
        <ele>828.0</ele>
        <time>2013-06-15T18:57:45Z</time>
      </trkpt>
      <trkpt lat="40.230767" lon="-4.876633">
        <ele>827.0</ele>
        <time>2013-06-15T18:57:46Z</time>
      </trkpt>
      <trkpt lat="40.230683" lon="-4.876600">
        <ele>825.0</ele>
        <time>2013-06-15T18:57:47Z</time>
      </trkpt>
      <trkpt lat="40.230600" lon="-4.876567">
        <ele>824.0</ele>
        <time>2013-06-15T18:57:48Z</time>
      </trkpt>
      <trkpt lat="40.230517" lon="-4.876533">
        <ele>823.0</ele>
        <time>2013-06-15T18:57:49Z</time>
      </trkpt>
      <trkpt lat="40.230417" lon="-4.876500">
        <ele>822.0</ele>
        <time>2013-06-15T18:57:50Z</time>
      </trkpt>
      <trkpt lat="40.230333" lon="-4.876467">
        <ele>821.0</ele>
        <time>2013-06-15T18:57:51Z</time>
      </trkpt>
      <trkpt lat="40.230250" lon="-4.876450">
        <ele>820.0</ele>
        <time>2013-06-15T18:57:52Z</time>
      </trkpt>
      <trkpt lat="40.230183" lon="-4.876433">
        <ele>819.0</ele>
        <time>2013-06-15T18:57:53Z</time>
      </trkpt>
      <trkpt lat="40.230100" lon="-4.876417">
        <ele>819.0</ele>
        <time>2013-06-15T18:57:54Z</time>
      </trkpt>
      <trkpt lat="40.230017" lon="-4.876400">
        <ele>818.0</ele>
        <time>2013-06-15T18:57:55Z</time>
      </trkpt>
      <trkpt lat="40.229933" lon="-4.876383">
        <ele>818.0</ele>
        <time>2013-06-15T18:57:56Z</time>
      </trkpt>
      <trkpt lat="40.229867" lon="-4.876367">
        <ele>817.0</ele>
        <time>2013-06-15T18:57:57Z</time>
      </trkpt>
      <trkpt lat="40.229783" lon="-4.876350">
        <ele>817.0</ele>
        <time>2013-06-15T18:57:58Z</time>
      </trkpt>
      <trkpt lat="40.229717" lon="-4.876350">
        <ele>816.0</ele>
        <time>2013-06-15T18:57:59Z</time>
      </trkpt>
      <trkpt lat="40.229633" lon="-4.876367">
        <ele>816.0</ele>
        <time>2013-06-15T18:58:00Z</time>
      </trkpt>
      <trkpt lat="40.229583" lon="-4.876383">
        <ele>816.0</ele>
        <time>2013-06-15T18:58:01Z</time>
      </trkpt>
      <trkpt lat="40.229533" lon="-4.876400">
        <ele>816.0</ele>
        <time>2013-06-15T18:58:02Z</time>
      </trkpt>
      <trkpt lat="40.229500" lon="-4.876433">
        <ele>815.0</ele>
        <time>2013-06-15T18:58:03Z</time>
      </trkpt>
      <trkpt lat="40.229467" lon="-4.876467">
        <ele>814.0</ele>
        <time>2013-06-15T18:58:04Z</time>
      </trkpt>
      <trkpt lat="40.229450" lon="-4.876500">
        <ele>813.0</ele>
        <time>2013-06-15T18:58:05Z</time>
      </trkpt>
      <trkpt lat="40.229433" lon="-4.876550">
        <ele>811.0</ele>
        <time>2013-06-15T18:58:06Z</time>
      </trkpt>
      <trkpt lat="40.229417" lon="-4.876600">
        <ele>809.0</ele>
        <time>2013-06-15T18:58:07Z</time>
      </trkpt>
      <trkpt lat="40.229417" lon="-4.876650">
        <ele>807.0</ele>
        <time>2013-06-15T18:58:08Z</time>
      </trkpt>
      <trkpt lat="40.229400" lon="-4.876700">
        <ele>805.0</ele>
        <time>2013-06-15T18:58:09Z</time>
      </trkpt>
      <trkpt lat="40.229400" lon="-4.876750">
        <ele>804.0</ele>
        <time>2013-06-15T18:58:10Z</time>
      </trkpt>
      <trkpt lat="40.229417" lon="-4.876800">
        <ele>803.0</ele>
        <time>2013-06-15T18:58:11Z</time>
      </trkpt>
      <trkpt lat="40.229433" lon="-4.876850">
        <ele>802.0</ele>
        <time>2013-06-15T18:58:12Z</time>
      </trkpt>
      <trkpt lat="40.229450" lon="-4.876900">
        <ele>801.0</ele>
        <time>2013-06-15T18:58:13Z</time>
      </trkpt>
      <trkpt lat="40.229483" lon="-4.876933">
        <ele>800.0</ele>
        <time>2013-06-15T18:58:14Z</time>
      </trkpt>
      <trkpt lat="40.229533" lon="-4.876950">
        <ele>798.0</ele>
        <time>2013-06-15T18:58:15Z</time>
      </trkpt>
      <trkpt lat="40.229567" lon="-4.876983">
        <ele>796.0</ele>
        <time>2013-06-15T18:58:16Z</time>
      </trkpt>
      <trkpt lat="40.229617" lon="-4.877017">
        <ele>795.0</ele>
        <time>2013-06-15T18:58:17Z</time>
      </trkpt>
      <trkpt lat="40.229667" lon="-4.877050">
        <ele>793.0</ele>
        <time>2013-06-15T18:58:18Z</time>
      </trkpt>
      <trkpt lat="40.229717" lon="-4.877083">
        <ele>792.0</ele>
        <time>2013-06-15T18:58:19Z</time>
      </trkpt>
      <trkpt lat="40.229767" lon="-4.877117">
        <ele>791.0</ele>
        <time>2013-06-15T18:58:20Z</time>
      </trkpt>
      <trkpt lat="40.229817" lon="-4.877150">
        <ele>789.0</ele>
        <time>2013-06-15T18:58:21Z</time>
      </trkpt>
      <trkpt lat="40.229867" lon="-4.877183">
        <ele>788.0</ele>
        <time>2013-06-15T18:58:22Z</time>
      </trkpt>
      <trkpt lat="40.229933" lon="-4.877200">
        <ele>787.0</ele>
        <time>2013-06-15T18:58:23Z</time>
      </trkpt>
      <trkpt lat="40.229983" lon="-4.877233">
        <ele>786.0</ele>
        <time>2013-06-15T18:58:24Z</time>
      </trkpt>
      <trkpt lat="40.230033" lon="-4.877250">
        <ele>785.0</ele>
        <time>2013-06-15T18:58:25Z</time>
      </trkpt>
      <trkpt lat="40.230083" lon="-4.877267">
        <ele>784.0</ele>
        <time>2013-06-15T18:58:26Z</time>
      </trkpt>
      <trkpt lat="40.230133" lon="-4.877283">
        <ele>782.0</ele>
        <time>2013-06-15T18:58:27Z</time>
      </trkpt>
      <trkpt lat="40.230200" lon="-4.877300">
        <ele>780.0</ele>
        <time>2013-06-15T18:58:28Z</time>
      </trkpt>
      <trkpt lat="40.230267" lon="-4.877317">
        <ele>779.0</ele>
        <time>2013-06-15T18:58:29Z</time>
      </trkpt>
      <trkpt lat="40.230333" lon="-4.877333">
        <ele>777.0</ele>
        <time>2013-06-15T18:58:30Z</time>
      </trkpt>
      <trkpt lat="40.230400" lon="-4.877333">
        <ele>777.0</ele>
        <time>2013-06-15T18:58:31Z</time>
      </trkpt>
      <trkpt lat="40.230467" lon="-4.877333">
        <ele>776.0</ele>
        <time>2013-06-15T18:58:32Z</time>
      </trkpt>
      <trkpt lat="40.230533" lon="-4.877333">
        <ele>774.0</ele>
        <time>2013-06-15T18:58:33Z</time>
      </trkpt>
      <trkpt lat="40.230600" lon="-4.877333">
        <ele>772.0</ele>
        <time>2013-06-15T18:58:34Z</time>
      </trkpt>
      <trkpt lat="40.230667" lon="-4.877333">
        <ele>771.0</ele>
        <time>2013-06-15T18:58:35Z</time>
      </trkpt>
      <trkpt lat="40.230733" lon="-4.877350">
        <ele>769.0</ele>
        <time>2013-06-15T18:58:36Z</time>
      </trkpt>
      <trkpt lat="40.230800" lon="-4.877350">
        <ele>769.0</ele>
        <time>2013-06-15T18:58:37Z</time>
      </trkpt>
      <trkpt lat="40.230850" lon="-4.877350">
        <ele>767.0</ele>
        <time>2013-06-15T18:58:38Z</time>
      </trkpt>
      <trkpt lat="40.230900" lon="-4.877367">
        <ele>765.0</ele>
        <time>2013-06-15T18:58:39Z</time>
      </trkpt>
      <trkpt lat="40.230933" lon="-4.877383">
        <ele>763.0</ele>
        <time>2013-06-15T18:58:40Z</time>
      </trkpt>
      <trkpt lat="40.230967" lon="-4.877433">
        <ele>761.0</ele>
        <time>2013-06-15T18:58:41Z</time>
      </trkpt>
      <trkpt lat="40.230983" lon="-4.877467">
        <ele>760.0</ele>
        <time>2013-06-15T18:58:42Z</time>
      </trkpt>
      <trkpt lat="40.231017" lon="-4.877517">
        <ele>759.0</ele>
        <time>2013-06-15T18:58:43Z</time>
      </trkpt>
      <trkpt lat="40.231033" lon="-4.877550">
        <ele>759.0</ele>
        <time>2013-06-15T18:58:44Z</time>
      </trkpt>
      <trkpt lat="40.231067" lon="-4.877583">
        <ele>758.0</ele>
        <time>2013-06-15T18:58:45Z</time>
      </trkpt>
      <trkpt lat="40.231083" lon="-4.877617">
        <ele>757.0</ele>
        <time>2013-06-15T18:58:46Z</time>
      </trkpt>
      <trkpt lat="40.231117" lon="-4.877650">
        <ele>756.0</ele>
        <time>2013-06-15T18:58:47Z</time>
      </trkpt>
      <trkpt lat="40.231150" lon="-4.877683">
        <ele>755.0</ele>
        <time>2013-06-15T18:58:48Z</time>
      </trkpt>
      <trkpt lat="40.231167" lon="-4.877733">
        <ele>754.0</ele>
        <time>2013-06-15T18:58:49Z</time>
      </trkpt>
      <trkpt lat="40.231200" lon="-4.877767">
        <ele>753.0</ele>
        <time>2013-06-15T18:58:50Z</time>
      </trkpt>
      <trkpt lat="40.231217" lon="-4.877800">
        <ele>752.0</ele>
        <time>2013-06-15T18:58:51Z</time>
      </trkpt>
      <trkpt lat="40.231250" lon="-4.877833">
        <ele>751.0</ele>
        <time>2013-06-15T18:58:52Z</time>
      </trkpt>
      <trkpt lat="40.231283" lon="-4.877883">
        <ele>750.0</ele>
        <time>2013-06-15T18:58:53Z</time>
      </trkpt>
      <trkpt lat="40.231300" lon="-4.877917">
        <ele>749.0</ele>
        <time>2013-06-15T18:58:54Z</time>
      </trkpt>
      <trkpt lat="40.231317" lon="-4.877967">
        <ele>747.0</ele>
        <time>2013-06-15T18:58:55Z</time>
      </trkpt>
      <trkpt lat="40.231350" lon="-4.878000">
        <ele>746.0</ele>
        <time>2013-06-15T18:58:56Z</time>
      </trkpt>
      <trkpt lat="40.231350" lon="-4.878033">
        <ele>745.0</ele>
        <time>2013-06-15T18:58:57Z</time>
      </trkpt>
      <trkpt lat="40.231333" lon="-4.878067">
        <ele>744.0</ele>
        <time>2013-06-15T18:58:58Z</time>
      </trkpt>
      <trkpt lat="40.231267" lon="-4.878067">
        <ele>742.0</ele>
        <time>2013-06-15T18:58:59Z</time>
      </trkpt>
      <trkpt lat="40.231183" lon="-4.878033">
        <ele>739.0</ele>
        <time>2013-06-15T18:59:00Z</time>
      </trkpt>
      <trkpt lat="40.231083" lon="-4.878000">
        <ele>737.0</ele>
        <time>2013-06-15T18:59:01Z</time>
      </trkpt>
      <trkpt lat="40.231000" lon="-4.877967">
        <ele>738.0</ele>
        <time>2013-06-15T18:59:02Z</time>
      </trkpt>
      <trkpt lat="40.230950" lon="-4.877983">
        <ele>737.0</ele>
        <time>2013-06-15T18:59:03Z</time>
      </trkpt>
      <trkpt lat="40.230917" lon="-4.878017">
        <ele>734.0</ele>
        <time>2013-06-15T18:59:04Z</time>
      </trkpt>
      <trkpt lat="40.230933" lon="-4.878083">
        <ele>731.0</ele>
        <time>2013-06-15T18:59:05Z</time>
      </trkpt>
      <trkpt lat="40.230933" lon="-4.878150">
        <ele>730.0</ele>
        <time>2013-06-15T18:59:06Z</time>
      </trkpt>
      <trkpt lat="40.230917" lon="-4.878200">
        <ele>729.0</ele>
        <time>2013-06-15T18:59:07Z</time>
      </trkpt>
      <trkpt lat="40.230867" lon="-4.878217">
        <ele>727.0</ele>
        <time>2013-06-15T18:59:08Z</time>
      </trkpt>
      <trkpt lat="40.230783" lon="-4.878183">
        <ele>724.0</ele>
        <time>2013-06-15T18:59:09Z</time>
      </trkpt>
      <trkpt lat="40.230683" lon="-4.878117">
        <ele>722.0</ele>
        <time>2013-06-15T18:59:10Z</time>
      </trkpt>
      <trkpt lat="40.230600" lon="-4.878067">
        <ele>721.0</ele>
        <time>2013-06-15T18:59:11Z</time>
      </trkpt>
      <trkpt lat="40.230533" lon="-4.878050">
        <ele>720.0</ele>
        <time>2013-06-15T18:59:12Z</time>
      </trkpt>
      <trkpt lat="40.230500" lon="-4.878083">
        <ele>717.0</ele>
        <time>2013-06-15T18:59:13Z</time>
      </trkpt>
      <trkpt lat="40.230517" lon="-4.878133">
        <ele>713.0</ele>
        <time>2013-06-15T18:59:14Z</time>
      </trkpt>
      <trkpt lat="40.230550" lon="-4.878200">
        <ele>710.0</ele>
        <time>2013-06-15T18:59:15Z</time>
      </trkpt>
      <trkpt lat="40.230567" lon="-4.878250">
        <ele>709.0</ele>
        <time>2013-06-15T18:59:16Z</time>
      </trkpt>
      <trkpt lat="40.230533" lon="-4.878267">
        <ele>708.0</ele>
        <time>2013-06-15T18:59:17Z</time>
      </trkpt>
      <trkpt lat="40.230483" lon="-4.878267">
        <ele>706.0</ele>
        <time>2013-06-15T18:59:18Z</time>
      </trkpt>
      <trkpt lat="40.230400" lon="-4.878233">
        <ele>703.0</ele>
        <time>2013-06-15T18:59:19Z</time>
      </trkpt>
      <trkpt lat="40.230317" lon="-4.878233">
        <ele>701.0</ele>
        <time>2013-06-15T18:59:20Z</time>
      </trkpt>
      <trkpt lat="40.230267" lon="-4.878267">
        <ele>700.0</ele>
        <time>2013-06-15T18:59:21Z</time>
      </trkpt>
      <trkpt lat="40.230267" lon="-4.878317">
        <ele>698.0</ele>
        <time>2013-06-15T18:59:22Z</time>
      </trkpt>
      <trkpt lat="40.230300" lon="-4.878367">
        <ele>694.0</ele>
        <time>2013-06-15T18:59:23Z</time>
      </trkpt>
      <trkpt lat="40.230383" lon="-4.878400">
        <ele>692.0</ele>
        <time>2013-06-15T18:59:24Z</time>
      </trkpt>
      <trkpt lat="40.230417" lon="-4.878433">
        <ele>692.0</ele>
        <time>2013-06-15T18:59:25Z</time>
      </trkpt>
      <trkpt lat="40.230417" lon="-4.878467">
        <ele>691.0</ele>
        <time>2013-06-15T18:59:26Z</time>
      </trkpt>
      <trkpt lat="40.230383" lon="-4.878500">
        <ele>688.0</ele>
        <time>2013-06-15T18:59:27Z</time>
      </trkpt>
      <trkpt lat="40.230317" lon="-4.878517">
        <ele>685.0</ele>
        <time>2013-06-15T18:59:28Z</time>
      </trkpt>
      <trkpt lat="40.230250" lon="-4.878517">
        <ele>683.0</ele>
        <time>2013-06-15T18:59:29Z</time>
      </trkpt>
      <trkpt lat="40.230183" lon="-4.878500">
        <ele>683.0</ele>
        <time>2013-06-15T18:59:30Z</time>
      </trkpt>
      <trkpt lat="40.230117" lon="-4.878450">
        <ele>681.0</ele>
        <time>2013-06-15T18:59:31Z</time>
      </trkpt>
      <trkpt lat="40.230033" lon="-4.878383">
        <ele>679.0</ele>
        <time>2013-06-15T18:59:32Z</time>
      </trkpt>
      <trkpt lat="40.229950" lon="-4.878317">
        <ele>676.0</ele>
        <time>2013-06-15T18:59:33Z</time>
      </trkpt>
      <trkpt lat="40.229867" lon="-4.878233">
        <ele>674.0</ele>
        <time>2013-06-15T18:59:34Z</time>
      </trkpt>
      <trkpt lat="40.229783" lon="-4.878150">
        <ele>674.0</ele>
        <time>2013-06-15T18:59:35Z</time>
      </trkpt>
      <trkpt lat="40.229700" lon="-4.878067">
        <ele>674.0</ele>
        <time>2013-06-15T18:59:36Z</time>
      </trkpt>
      <trkpt lat="40.229633" lon="-4.877950">
        <ele>674.0</ele>
        <time>2013-06-15T18:59:37Z</time>
      </trkpt>
      <trkpt lat="40.229567" lon="-4.877833">
        <ele>672.0</ele>
        <time>2013-06-15T18:59:38Z</time>
      </trkpt>
      <trkpt lat="40.229483" lon="-4.877700">
        <ele>669.0</ele>
        <time>2013-06-15T18:59:39Z</time>
      </trkpt>
      <trkpt lat="40.229400" lon="-4.877633">
        <ele>667.0</ele>
        <time>2013-06-15T18:59:40Z</time>
      </trkpt>
      <trkpt lat="40.229317" lon="-4.877617">
        <ele>665.0</ele>
        <time>2013-06-15T18:59:41Z</time>
      </trkpt>
      <trkpt lat="40.229267" lon="-4.877667">
        <ele>662.0</ele>
        <time>2013-06-15T18:59:42Z</time>
      </trkpt>
      <trkpt lat="40.229267" lon="-4.877733">
        <ele>659.0</ele>
        <time>2013-06-15T18:59:43Z</time>
      </trkpt>
      <trkpt lat="40.229317" lon="-4.877783">
        <ele>659.0</ele>
        <time>2013-06-15T18:59:44Z</time>
      </trkpt>
      <trkpt lat="40.229383" lon="-4.877783">
        <ele>660.0</ele>
        <time>2013-06-15T18:59:45Z</time>
      </trkpt>
      <trkpt lat="40.229433" lon="-4.877767">
        <ele>659.0</ele>
        <time>2013-06-15T18:59:46Z</time>
      </trkpt>
      <trkpt lat="40.229500" lon="-4.877750">
        <ele>658.0</ele>
        <time>2013-06-15T18:59:47Z</time>
      </trkpt>
      <trkpt lat="40.229550" lon="-4.877733">
        <ele>656.0</ele>
        <time>2013-06-15T18:59:48Z</time>
      </trkpt>
      <trkpt lat="40.229633" lon="-4.877717">
        <ele>653.0</ele>
        <time>2013-06-15T18:59:49Z</time>
      </trkpt>
      <trkpt lat="40.229733" lon="-4.877700">
        <ele>651.0</ele>
        <time>2013-06-15T18:59:50Z</time>
      </trkpt>
      <trkpt lat="40.229817" lon="-4.877667">
        <ele>650.0</ele>
        <time>2013-06-15T18:59:51Z</time>
      </trkpt>
      <trkpt lat="40.229900" lon="-4.877650">
        <ele>650.0</ele>
        <time>2013-06-15T18:59:52Z</time>
      </trkpt>
      <trkpt lat="40.229950" lon="-4.877633">
        <ele>649.0</ele>
        <time>2013-06-15T18:59:53Z</time>
      </trkpt>
      <trkpt lat="40.230000" lon="-4.877633">
        <ele>648.0</ele>
        <time>2013-06-15T18:59:54Z</time>
      </trkpt>
      <trkpt lat="40.230067" lon="-4.877633">
        <ele>645.0</ele>
        <time>2013-06-15T18:59:55Z</time>
      </trkpt>
      <trkpt lat="40.230133" lon="-4.877650">
        <ele>643.0</ele>
        <time>2013-06-15T18:59:56Z</time>
      </trkpt>
      <trkpt lat="40.230200" lon="-4.877667">
        <ele>641.0</ele>
        <time>2013-06-15T18:59:57Z</time>
      </trkpt>
      <trkpt lat="40.230250" lon="-4.877683">
        <ele>640.0</ele>
        <time>2013-06-15T18:59:58Z</time>
      </trkpt>
      <trkpt lat="40.230283" lon="-4.877700">
        <ele>639.0</ele>
        <time>2013-06-15T18:59:59Z</time>
      </trkpt>
      <trkpt lat="40.230333" lon="-4.877717">
        <ele>637.0</ele>
        <time>2013-06-15T19:00:00Z</time>
      </trkpt>
      <trkpt lat="40.230367" lon="-4.877733">
        <ele>635.0</ele>
        <time>2013-06-15T19:00:01Z</time>
      </trkpt>
      <trkpt lat="40.230400" lon="-4.877767">
        <ele>633.0</ele>
        <time>2013-06-15T19:00:02Z</time>
      </trkpt>
      <trkpt lat="40.230433" lon="-4.877800">
        <ele>631.0</ele>
        <time>2013-06-15T19:00:03Z</time>
      </trkpt>
      <trkpt lat="40.230467" lon="-4.877850">
        <ele>629.0</ele>
        <time>2013-06-15T19:00:04Z</time>
      </trkpt>
      <trkpt lat="40.230500" lon="-4.877883">
        <ele>628.0</ele>
        <time>2013-06-15T19:00:05Z</time>
      </trkpt>
      <trkpt lat="40.230517" lon="-4.877917">
        <ele>627.0</ele>
        <time>2013-06-15T19:00:06Z</time>
      </trkpt>
      <trkpt lat="40.230550" lon="-4.877950">
        <ele>625.0</ele>
        <time>2013-06-15T19:00:07Z</time>
      </trkpt>
      <trkpt lat="40.230567" lon="-4.878000">
        <ele>623.0</ele>
        <time>2013-06-15T19:00:08Z</time>
      </trkpt>
      <trkpt lat="40.230600" lon="-4.878050">
        <ele>621.0</ele>
        <time>2013-06-15T19:00:09Z</time>
      </trkpt>
      <trkpt lat="40.230633" lon="-4.878083">
        <ele>620.0</ele>
        <time>2013-06-15T19:00:10Z</time>
      </trkpt>
      <trkpt lat="40.230650" lon="-4.878133">
        <ele>619.0</ele>
        <time>2013-06-15T19:00:11Z</time>
      </trkpt>
      <trkpt lat="40.230683" lon="-4.878167">
        <ele>617.0</ele>
        <time>2013-06-15T19:00:12Z</time>
      </trkpt>
      <trkpt lat="40.230700" lon="-4.878217">
        <ele>615.0</ele>
        <time>2013-06-15T19:00:13Z</time>
      </trkpt>
      <trkpt lat="40.230717" lon="-4.878267">
        <ele>614.0</ele>
        <time>2013-06-15T19:00:14Z</time>
      </trkpt>
      <trkpt lat="40.230733" lon="-4.878317">
        <ele>612.0</ele>
        <time>2013-06-15T19:00:15Z</time>
      </trkpt>
      <trkpt lat="40.230750" lon="-4.878367">
        <ele>611.0</ele>
        <time>2013-06-15T19:00:16Z</time>
      </trkpt>
      <trkpt lat="40.230750" lon="-4.878417">
        <ele>609.0</ele>
        <time>2013-06-15T19:00:17Z</time>
      </trkpt>
      <trkpt lat="40.230733" lon="-4.878450">
        <ele>608.0</ele>
        <time>2013-06-15T19:00:18Z</time>
      </trkpt>
      <trkpt lat="40.230700" lon="-4.878483">
        <ele>606.0</ele>
        <time>2013-06-15T19:00:19Z</time>
      </trkpt>
      <trkpt lat="40.230617" lon="-4.878500">
        <ele>603.0</ele>
        <time>2013-06-15T19:00:20Z</time>
      </trkpt>
      <trkpt lat="40.230533" lon="-4.878500">
        <ele>601.0</ele>
        <time>2013-06-15T19:00:21Z</time>
      </trkpt>
      <trkpt lat="40.230450" lon="-4.878467">
        <ele>600.0</ele>
        <time>2013-06-15T19:00:22Z</time>
      </trkpt>
      <trkpt lat="40.230367" lon="-4.878417">
        <ele>599.0</ele>
        <time>2013-06-15T19:00:23Z</time>
      </trkpt>
      <trkpt lat="40.230300" lon="-4.878367">
        <ele>598.0</ele>
        <time>2013-06-15T19:00:24Z</time>
      </trkpt>
      <trkpt lat="40.230217" lon="-4.878333">
        <ele>596.0</ele>
        <time>2013-06-15T19:00:25Z</time>
      </trkpt>
      <trkpt lat="40.230133" lon="-4.878300">
        <ele>594.0</ele>
        <time>2013-06-15T19:00:26Z</time>
      </trkpt>
      <trkpt lat="40.230050" lon="-4.878267">
        <ele>591.0</ele>
        <time>2013-06-15T19:00:27Z</time>
      </trkpt>
      <trkpt lat="40.229950" lon="-4.878217">
        <ele>590.0</ele>
        <time>2013-06-15T19:00:28Z</time>
      </trkpt>
      <trkpt lat="40.229867" lon="-4.878183">
        <ele>590.0</ele>
        <time>2013-06-15T19:00:29Z</time>
      </trkpt>
      <trkpt lat="40.229783" lon="-4.878133">
        <ele>589.0</ele>
        <time>2013-06-15T19:00:30Z</time>
      </trkpt>
      <trkpt lat="40.229733" lon="-4.878117">
        <ele>589.0</ele>
        <time>2013-06-15T19:00:31Z</time>
      </trkpt>
      <trkpt lat="40.229683" lon="-4.878133">
        <ele>587.0</ele>
        <time>2013-06-15T19:00:32Z</time>
      </trkpt>
      <trkpt lat="40.229667" lon="-4.878200">
        <ele>583.0</ele>
        <time>2013-06-15T19:00:33Z</time>
      </trkpt>
      <trkpt lat="40.229700" lon="-4.878267">
        <ele>580.0</ele>
        <time>2013-06-15T19:00:34Z</time>
      </trkpt>
      <trkpt lat="40.229767" lon="-4.878333">
        <ele>578.0</ele>
        <time>2013-06-15T19:00:35Z</time>
      </trkpt>
      <trkpt lat="40.229833" lon="-4.878367">
        <ele>578.0</ele>
        <time>2013-06-15T19:00:36Z</time>
      </trkpt>
      <trkpt lat="40.229883" lon="-4.878367">
        <ele>579.0</ele>
        <time>2013-06-15T19:00:37Z</time>
      </trkpt>
      <trkpt lat="40.229933" lon="-4.878383">
        <ele>579.0</ele>
        <time>2013-06-15T19:00:38Z</time>
      </trkpt>
      <trkpt lat="40.229983" lon="-4.878383">
        <ele>578.0</ele>
        <time>2013-06-15T19:00:39Z</time>
      </trkpt>
      <trkpt lat="40.230033" lon="-4.878383">
        <ele>575.0</ele>
        <time>2013-06-15T19:00:40Z</time>
      </trkpt>
      <trkpt lat="40.230117" lon="-4.878400">
        <ele>573.0</ele>
        <time>2013-06-15T19:00:41Z</time>
      </trkpt>
      <trkpt lat="40.230200" lon="-4.878417">
        <ele>571.0</ele>
        <time>2013-06-15T19:00:42Z</time>
      </trkpt>
      <trkpt lat="40.230267" lon="-4.878417">
        <ele>571.0</ele>
        <time>2013-06-15T19:00:43Z</time>
      </trkpt>
      <trkpt lat="40.230333" lon="-4.878400">
        <ele>571.0</ele>
        <time>2013-06-15T19:00:44Z</time>
      </trkpt>
      <trkpt lat="40.230400" lon="-4.878400">
        <ele>569.0</ele>
        <time>2013-06-15T19:00:45Z</time>
      </trkpt>
      <trkpt lat="40.230467" lon="-4.878417">
        <ele>567.0</ele>
        <time>2013-06-15T19:00:46Z</time>
      </trkpt>
      <trkpt lat="40.230533" lon="-4.878417">
        <ele>564.0</ele>
        <time>2013-06-15T19:00:47Z</time>
      </trkpt>
      <trkpt lat="40.230617" lon="-4.878433">
        <ele>562.0</ele>
        <time>2013-06-15T19:00:48Z</time>
      </trkpt>
      <trkpt lat="40.230700" lon="-4.878450">
        <ele>561.0</ele>
        <time>2013-06-15T19:00:49Z</time>
      </trkpt>
      <trkpt lat="40.230767" lon="-4.878467">
        <ele>560.0</ele>
        <time>2013-06-15T19:00:50Z</time>
      </trkpt>
      <trkpt lat="40.230817" lon="-4.878483">
        <ele>560.0</ele>
        <time>2013-06-15T19:00:51Z</time>
      </trkpt>
      <trkpt lat="40.230867" lon="-4.878500">
        <ele>558.0</ele>
        <time>2013-06-15T19:00:52Z</time>
      </trkpt>
      <trkpt lat="40.230917" lon="-4.878533">
        <ele>556.0</ele>
        <time>2013-06-15T19:00:53Z</time>
      </trkpt>
      <trkpt lat="40.230950" lon="-4.878583">
        <ele>554.0</ele>
        <time>2013-06-15T19:00:54Z</time>
      </trkpt>
      <trkpt lat="40.230983" lon="-4.878633">
        <ele>552.0</ele>
        <time>2013-06-15T19:00:55Z</time>
      </trkpt>
      <trkpt lat="40.231000" lon="-4.878683">
        <ele>551.0</ele>
        <time>2013-06-15T19:00:56Z</time>
      </trkpt>
      <trkpt lat="40.231000" lon="-4.878750">
        <ele>549.0</ele>
        <time>2013-06-15T19:00:57Z</time>
      </trkpt>
      <trkpt lat="40.230983" lon="-4.878800">
        <ele>548.0</ele>
        <time>2013-06-15T19:00:58Z</time>
      </trkpt>
      <trkpt lat="40.230950" lon="-4.878833">
        <ele>546.0</ele>
        <time>2013-06-15T19:00:59Z</time>
      </trkpt>
      <trkpt lat="40.230900" lon="-4.878850">
        <ele>544.0</ele>
        <time>2013-06-15T19:01:00Z</time>
      </trkpt>
      <trkpt lat="40.230850" lon="-4.878883">
        <ele>542.0</ele>
        <time>2013-06-15T19:01:01Z</time>
      </trkpt>
      <trkpt lat="40.230817" lon="-4.878933">
        <ele>540.0</ele>
        <time>2013-06-15T19:01:02Z</time>
      </trkpt>
      <trkpt lat="40.230817" lon="-4.878983">
        <ele>538.0</ele>
        <time>2013-06-15T19:01:03Z</time>
      </trkpt>
      <trkpt lat="40.230867" lon="-4.879033">
        <ele>534.0</ele>
        <time>2013-06-15T19:01:04Z</time>
      </trkpt>
      <trkpt lat="40.230950" lon="-4.879033">
        <ele>530.0</ele>
        <time>2013-06-15T19:01:05Z</time>
      </trkpt>
      <trkpt lat="40.231067" lon="-4.878950">
        <ele>527.0</ele>
        <time>2013-06-15T19:01:06Z</time>
      </trkpt>
      <trkpt lat="40.231133" lon="-4.878800">
        <ele>524.0</ele>
        <time>2013-06-15T19:01:07Z</time>
      </trkpt>
      <trkpt lat="40.231150" lon="-4.878617">
        <ele>522.0</ele>
        <time>2013-06-15T19:01:08Z</time>
      </trkpt>
      <trkpt lat="40.231133" lon="-4.878450">
        <ele>523.0</ele>
        <time>2013-06-15T19:01:09Z</time>
      </trkpt>
      <trkpt lat="40.231133" lon="-4.878300">
        <ele>523.0</ele>
        <time>2013-06-15T19:01:10Z</time>
      </trkpt>
      <trkpt lat="40.231133" lon="-4.878167">
        <ele>522.0</ele>
        <time>2013-06-15T19:01:11Z</time>
      </trkpt>
      <trkpt lat="40.231133" lon="-4.878033">
        <ele>519.0</ele>
        <time>2013-06-15T19:01:12Z</time>
      </trkpt>
      <trkpt lat="40.231133" lon="-4.877867">
        <ele>515.0</ele>
        <time>2013-06-15T19:01:13Z</time>
      </trkpt>
      <trkpt lat="40.231083" lon="-4.877700">
        <ele>512.0</ele>
        <time>2013-06-15T19:01:14Z</time>
      </trkpt>
      <trkpt lat="40.231017" lon="-4.877567">
        <ele>511.0</ele>
        <time>2013-06-15T19:01:15Z</time>
      </trkpt>
      <trkpt lat="40.230917" lon="-4.877467">
        <ele>510.0</ele>
        <time>2013-06-15T19:01:16Z</time>
      </trkpt>
      <trkpt lat="40.230833" lon="-4.877417">
        <ele>509.0</ele>
        <time>2013-06-15T19:01:17Z</time>
      </trkpt>
      <trkpt lat="40.230767" lon="-4.877400">
        <ele>509.0</ele>
        <time>2013-06-15T19:01:18Z</time>
      </trkpt>
      <trkpt lat="40.230700" lon="-4.877400">
        <ele>508.0</ele>
        <time>2013-06-15T19:01:19Z</time>
      </trkpt>
      <trkpt lat="40.230650" lon="-4.877417">
        <ele>507.0</ele>
        <time>2013-06-15T19:01:20Z</time>
      </trkpt>
      <trkpt lat="40.230600" lon="-4.877467">
        <ele>504.0</ele>
        <time>2013-06-15T19:01:21Z</time>
      </trkpt>
      <trkpt lat="40.230583" lon="-4.877533">
        <ele>502.0</ele>
        <time>2013-06-15T19:01:22Z</time>
      </trkpt>
      <trkpt lat="40.230567" lon="-4.877600">
        <ele>501.0</ele>
        <time>2013-06-15T19:01:23Z</time>
      </trkpt>
      <trkpt lat="40.230550" lon="-4.877667">
        <ele>501.0</ele>
        <time>2013-06-15T19:01:24Z</time>
      </trkpt>
      <trkpt lat="40.230533" lon="-4.877700">
        <ele>501.0</ele>
        <time>2013-06-15T19:01:25Z</time>
      </trkpt>
      <trkpt lat="40.230517" lon="-4.877750">
        <ele>500.0</ele>
        <time>2013-06-15T19:01:26Z</time>
      </trkpt>
      <trkpt lat="40.230500" lon="-4.877783">
        <ele>498.0</ele>
        <time>2013-06-15T19:01:27Z</time>
      </trkpt>
      <trkpt lat="40.230483" lon="-4.877833">
        <ele>495.0</ele>
        <time>2013-06-15T19:01:28Z</time>
      </trkpt>
      <trkpt lat="40.230467" lon="-4.877900">
        <ele>493.0</ele>
        <time>2013-06-15T19:01:29Z</time>
      </trkpt>
      <trkpt lat="40.230450" lon="-4.877983">
        <ele>491.0</ele>
        <time>2013-06-15T19:01:30Z</time>
      </trkpt>
      <trkpt lat="40.230450" lon="-4.878067">
        <ele>490.0</ele>
        <time>2013-06-15T19:01:31Z</time>
      </trkpt>
      <trkpt lat="40.230433" lon="-4.878117">
        <ele>490.0</ele>
        <time>2013-06-15T19:01:32Z</time>
      </trkpt>
      <trkpt lat="40.230417" lon="-4.878183">
        <ele>489.0</ele>
        <time>2013-06-15T19:01:33Z</time>
      </trkpt>
      <trkpt lat="40.230400" lon="-4.878233">
        <ele>488.0</ele>
        <time>2013-06-15T19:01:34Z</time>
      </trkpt>
      <trkpt lat="40.230383" lon="-4.878283">
        <ele>487.0</ele>
        <time>2013-06-15T19:01:35Z</time>
      </trkpt>
      <trkpt lat="40.230367" lon="-4.878350">
        <ele>485.0</ele>
        <time>2013-06-15T19:01:36Z</time>
      </trkpt>
      <trkpt lat="40.230367" lon="-4.878417">
        <ele>483.0</ele>
        <time>2013-06-15T19:01:37Z</time>
      </trkpt>
      <trkpt lat="40.230350" lon="-4.878483">
        <ele>482.0</ele>
        <time>2013-06-15T19:01:38Z</time>
      </trkpt>
      <trkpt lat="40.230333" lon="-4.878550">
        <ele>481.0</ele>
        <time>2013-06-15T19:01:39Z</time>
      </trkpt>
      <trkpt lat="40.230333" lon="-4.878600">
        <ele>480.0</ele>
        <time>2013-06-15T19:01:40Z</time>
      </trkpt>
      <trkpt lat="40.230317" lon="-4.878667">
        <ele>478.0</ele>
        <time>2013-06-15T19:01:41Z</time>
      </trkpt>
      <trkpt lat="40.230317" lon="-4.878733">
        <ele>476.0</ele>
        <time>2013-06-15T19:01:42Z</time>
      </trkpt>
      <trkpt lat="40.230300" lon="-4.878817">
        <ele>474.0</ele>
        <time>2013-06-15T19:01:43Z</time>
      </trkpt>
      <trkpt lat="40.230300" lon="-4.878883">
        <ele>474.0</ele>
        <time>2013-06-15T19:01:44Z</time>
      </trkpt>
      <trkpt lat="40.230283" lon="-4.878950">
        <ele>474.0</ele>
        <time>2013-06-15T19:01:45Z</time>
      </trkpt>
      <trkpt lat="40.230283" lon="-4.879000">
        <ele>473.0</ele>
        <time>2013-06-15T19:01:46Z</time>
      </trkpt>
      <trkpt lat="40.230250" lon="-4.879033">
        <ele>472.0</ele>
        <time>2013-06-15T19:01:47Z</time>
      </trkpt>
      <trkpt lat="40.230217" lon="-4.879083">
        <ele>470.0</ele>
        <time>2013-06-15T19:01:48Z</time>
      </trkpt>
      <trkpt lat="40.230150" lon="-4.879133">
        <ele>468.0</ele>
        <time>2013-06-15T19:01:49Z</time>
      </trkpt>
      <trkpt lat="40.230067" lon="-4.879150">
        <ele>466.0</ele>
        <time>2013-06-15T19:01:50Z</time>
      </trkpt>
      <trkpt lat="40.229967" lon="-4.879167">
        <ele>464.0</ele>
        <time>2013-06-15T19:01:51Z</time>
      </trkpt>
      <trkpt lat="40.229867" lon="-4.879150">
        <ele>463.0</ele>
        <time>2013-06-15T19:01:52Z</time>
      </trkpt>
      <trkpt lat="40.229783" lon="-4.879183">
        <ele>462.0</ele>
        <time>2013-06-15T19:01:53Z</time>
      </trkpt>
      <trkpt lat="40.229733" lon="-4.879233">
        <ele>461.0</ele>
        <time>2013-06-15T19:01:54Z</time>
      </trkpt>
      <trkpt lat="40.229717" lon="-4.879333">
        <ele>457.0</ele>
        <time>2013-06-15T19:01:55Z</time>
      </trkpt>
      <trkpt lat="40.229733" lon="-4.879433">
        <ele>455.0</ele>
        <time>2013-06-15T19:01:56Z</time>
      </trkpt>
      <trkpt lat="40.229767" lon="-4.879517">
        <ele>456.0</ele>
        <time>2013-06-15T19:01:57Z</time>
      </trkpt>
      <trkpt lat="40.229783" lon="-4.879567">
        <ele>456.0</ele>
        <time>2013-06-15T19:01:58Z</time>
      </trkpt>
      <trkpt lat="40.229767" lon="-4.879633">
        <ele>455.0</ele>
        <time>2013-06-15T19:01:59Z</time>
      </trkpt>
      <trkpt lat="40.229733" lon="-4.879683">
        <ele>454.0</ele>
        <time>2013-06-15T19:02:00Z</time>
      </trkpt>
      <trkpt lat="40.229700" lon="-4.879733">
        <ele>452.0</ele>
        <time>2013-06-15T19:02:01Z</time>
      </trkpt>
      <trkpt lat="40.229667" lon="-4.879817">
        <ele>450.0</ele>
        <time>2013-06-15T19:02:02Z</time>
      </trkpt>
      <trkpt lat="40.229650" lon="-4.879900">
        <ele>449.0</ele>
        <time>2013-06-15T19:02:03Z</time>
      </trkpt>
      <trkpt lat="40.229650" lon="-4.879967">
        <ele>448.0</ele>
        <time>2013-06-15T19:02:04Z</time>
      </trkpt>
      <trkpt lat="40.229617" lon="-4.880017">
        <ele>447.0</ele>
        <time>2013-06-15T19:02:05Z</time>
      </trkpt>
      <trkpt lat="40.229600" lon="-4.880067">
        <ele>446.0</ele>
        <time>2013-06-15T19:02:06Z</time>
      </trkpt>
      <trkpt lat="40.229567" lon="-4.880133">
        <ele>444.0</ele>
        <time>2013-06-15T19:02:07Z</time>
      </trkpt>
      <trkpt lat="40.229550" lon="-4.880200">
        <ele>442.0</ele>
        <time>2013-06-15T19:02:08Z</time>
      </trkpt>
      <trkpt lat="40.229533" lon="-4.880267">
        <ele>441.0</ele>
        <time>2013-06-15T19:02:09Z</time>
      </trkpt>
      <trkpt lat="40.229500" lon="-4.880333">
        <ele>439.0</ele>
        <time>2013-06-15T19:02:10Z</time>
      </trkpt>
      <trkpt lat="40.229467" lon="-4.880400">
        <ele>439.0</ele>
        <time>2013-06-15T19:02:11Z</time>
      </trkpt>
      <trkpt lat="40.229433" lon="-4.880450">
        <ele>437.0</ele>
        <time>2013-06-15T19:02:12Z</time>
      </trkpt>
      <trkpt lat="40.229417" lon="-4.880483">
        <ele>437.0</ele>
        <time>2013-06-15T19:02:13Z</time>
      </trkpt>
      <trkpt lat="40.229400" lon="-4.880500">
        <ele>437.0</ele>
        <time>2013-06-15T19:02:14Z</time>
      </trkpt>
      <trkpt lat="40.229400" lon="-4.880533">
        <ele>437.0</ele>
        <time>2013-06-15T19:02:15Z</time>
      </trkpt>
      <trkpt lat="40.229400" lon="-4.880550">
        <ele>436.0</ele>
        <time>2013-06-15T19:02:16Z</time>
      </trkpt>
      <trkpt lat="40.229400" lon="-4.880550">
        <ele>435.0</ele>
        <time>2013-06-15T19:02:17Z</time>
      </trkpt>
      <trkpt lat="40.229400" lon="-4.880550">
        <ele>436.0</ele>
        <time>2013-06-15T19:02:18Z</time>
      </trkpt>
      <trkpt lat="40.229400" lon="-4.880550">
        <ele>436.0</ele>
        <time>2013-06-15T19:02:19Z</time>
      </trkpt>
      <trkpt lat="40.229383" lon="-4.880550">
        <ele>436.0</ele>
        <time>2013-06-15T19:02:20Z</time>
      </trkpt>
      <trkpt lat="40.229400" lon="-4.880550">
        <ele>435.0</ele>
        <time>2013-06-15T19:02:21Z</time>
      </trkpt>
      <trkpt lat="40.229400" lon="-4.880550">
        <ele>435.0</ele>
        <time>2013-06-15T19:02:22Z</time>
      </trkpt>
      <trkpt lat="40.229400" lon="-4.880533">
        <ele>435.0</ele>
        <time>2013-06-15T19:02:23Z</time>
      </trkpt>
      <trkpt lat="40.229400" lon="-4.880533">
        <ele>435.0</ele>
        <time>2013-06-15T19:02:24Z</time>
      </trkpt>
      <trkpt lat="40.229400" lon="-4.880550">
        <ele>435.0</ele>
        <time>2013-06-15T19:02:25Z</time>
      </trkpt>
      <trkpt lat="40.229400" lon="-4.880550">
        <ele>435.0</ele>
        <time>2013-06-15T19:02:26Z</time>
      </trkpt>
      <trkpt lat="40.229400" lon="-4.880550">
        <ele>435.0</ele>
        <time>2013-06-15T19:02:27Z</time>
      </trkpt>
      <trkpt lat="40.229400" lon="-4.880550">
        <ele>435.0</ele>
        <time>2013-06-15T19:02:28Z</time>
      </trkpt>
      <trkpt lat="40.229400" lon="-4.880533">
        <ele>435.0</ele>
        <time>2013-06-15T19:02:29Z</time>
      </trkpt>
      <trkpt lat="40.229400" lon="-4.880533">
        <ele>435.0</ele>
        <time>2013-06-15T19:02:30Z</time>
      </trkpt>
      <trkpt lat="40.229383" lon="-4.880533">
        <ele>435.0</ele>
        <time>2013-06-15T19:02:31Z</time>
      </trkpt>
      <trkpt lat="40.229383" lon="-4.880500">
        <ele>434.0</ele>
        <time>2013-06-15T19:02:32Z</time>
      </trkpt>
      <trkpt lat="40.229383" lon="-4.880500">
        <ele>434.0</ele>
        <time>2013-06-15T19:02:33Z</time>
      </trkpt>
    </trkseg>
  </trk>
</gpx>
